<?xml version="1.0" encoding="UTF-8" standalone="no" ?>
<gpx xmlns="http://www.topografix.com/GPX/1/1" xmlns:xsi="http://www.w3.org/2001/XMLSchema-instance" xsi:schemaLocation="http://www.topografix.com/GPX/1/1 http://www.topografix.com/GPX/1/1/gpx.xsd" version="1.1" creator="VisuGPX - https://www.visugpx.com">
  <metadata>
    <name>Bec charvet</name>
    <desc><![CDATA[
]]></desc>
  </metadata>
  <trk>
    <name><![CDATA[Bec charvet_1]]></name>
    <extensions>
      <line xmlns="http://www.topografix.com/GPX/gpx_style/0/2">
        <color>0000FF</color>
        <width>4</width>
      </line>
    </extensions>
    <trkseg>
      <trkpt lat="45.28056" lon="5.88715">
        <ele>237.44099426269</ele>
        <time>2017-10-01T05:03:13Z</time>
      </trkpt>
      <trkpt lat="45.28063" lon="5.88717">
        <ele>237.44099426269</ele>
        <time>2017-10-01T05:03:23Z</time>
      </trkpt>
      <trkpt lat="45.28069" lon="5.88716">
        <ele>234.44099426269</ele>
        <time>2017-10-01T05:03:27Z</time>
      </trkpt>
      <trkpt lat="45.28081" lon="5.88715">
        <ele>233.44099426269</ele>
        <time>2017-10-01T05:03:30Z</time>
      </trkpt>
      <trkpt lat="45.2809" lon="5.88715">
        <ele>233.44099426269</ele>
        <time>2017-10-01T05:03:31Z</time>
      </trkpt>
      <trkpt lat="45.28084" lon="5.88713">
        <ele>228.44099426269</ele>
        <time>2017-10-01T05:03:34Z</time>
      </trkpt>
      <trkpt lat="45.28085" lon="5.88705">
        <ele>226.44099426269</ele>
        <time>2017-10-01T05:03:42Z</time>
      </trkpt>
      <trkpt lat="45.28091" lon="5.88695">
        <ele>230.44099426269</ele>
        <time>2017-10-01T05:03:44Z</time>
      </trkpt>
      <trkpt lat="45.28096" lon="5.88687">
        <ele>234.44099426269</ele>
        <time>2017-10-01T05:03:46Z</time>
      </trkpt>
      <trkpt lat="45.28103" lon="5.88675">
        <ele>236.44099426269</ele>
        <time>2017-10-01T05:03:48Z</time>
      </trkpt>
      <trkpt lat="45.28108" lon="5.88665">
        <ele>237.44099426269</ele>
        <time>2017-10-01T05:03:50Z</time>
      </trkpt>
      <trkpt lat="45.28111" lon="5.8866">
        <ele>238.44099426269</ele>
        <time>2017-10-01T05:03:51Z</time>
      </trkpt>
      <trkpt lat="45.28118" lon="5.88649">
        <ele>240.44099426269</ele>
        <time>2017-10-01T05:03:53Z</time>
      </trkpt>
      <trkpt lat="45.28125" lon="5.88634">
        <ele>240.44099426269</ele>
        <time>2017-10-01T05:03:56Z</time>
      </trkpt>
      <trkpt lat="45.28127" lon="5.88622">
        <ele>239.44099426269</ele>
        <time>2017-10-01T05:03:59Z</time>
      </trkpt>
      <trkpt lat="45.28121" lon="5.88612">
        <ele>240.44099426269</ele>
        <time>2017-10-01T05:04:01Z</time>
      </trkpt>
      <trkpt lat="45.28112" lon="5.88602">
        <ele>238.44099426269</ele>
        <time>2017-10-01T05:04:04Z</time>
      </trkpt>
      <trkpt lat="45.28099" lon="5.88593">
        <ele>236.44099426269</ele>
        <time>2017-10-01T05:04:07Z</time>
      </trkpt>
      <trkpt lat="45.28091" lon="5.88585">
        <ele>236.44099426269</ele>
        <time>2017-10-01T05:04:09Z</time>
      </trkpt>
      <trkpt lat="45.28087" lon="5.88573">
        <ele>236.44099426269</ele>
        <time>2017-10-01T05:04:11Z</time>
      </trkpt>
      <trkpt lat="45.28083" lon="5.88558">
        <ele>236.44099426269</ele>
        <time>2017-10-01T05:04:13Z</time>
      </trkpt>
      <trkpt lat="45.2808" lon="5.88543">
        <ele>235.44099426269</ele>
        <time>2017-10-01T05:04:15Z</time>
      </trkpt>
      <trkpt lat="45.28077" lon="5.88529">
        <ele>236.44099426269</ele>
        <time>2017-10-01T05:04:17Z</time>
      </trkpt>
      <trkpt lat="45.28072" lon="5.88515">
        <ele>237.44099426269</ele>
        <time>2017-10-01T05:04:19Z</time>
      </trkpt>
      <trkpt lat="45.28069" lon="5.885">
        <ele>236.44099426269</ele>
        <time>2017-10-01T05:04:21Z</time>
      </trkpt>
      <trkpt lat="45.28066" lon="5.88486">
        <ele>236.44000244141</ele>
        <time>2017-10-01T05:04:23Z</time>
      </trkpt>
      <trkpt lat="45.28061" lon="5.88471">
        <ele>236.44000244141</ele>
        <time>2017-10-01T05:04:25Z</time>
      </trkpt>
      <trkpt lat="45.28054" lon="5.8846">
        <ele>235.44000244141</ele>
        <time>2017-10-01T05:04:27Z</time>
      </trkpt>
      <trkpt lat="45.28044" lon="5.88452">
        <ele>235.44000244141</ele>
        <time>2017-10-01T05:04:29Z</time>
      </trkpt>
      <trkpt lat="45.28036" lon="5.88441">
        <ele>235.44000244141</ele>
        <time>2017-10-01T05:04:31Z</time>
      </trkpt>
      <trkpt lat="45.28028" lon="5.88427">
        <ele>237.44000244141</ele>
        <time>2017-10-01T05:04:33Z</time>
      </trkpt>
      <trkpt lat="45.28029" lon="5.88418">
        <ele>235.44000244141</ele>
        <time>2017-10-01T05:04:34Z</time>
      </trkpt>
      <trkpt lat="45.28022" lon="5.88405">
        <ele>235.44000244141</ele>
        <time>2017-10-01T05:04:36Z</time>
      </trkpt>
      <trkpt lat="45.28017" lon="5.884">
        <ele>236.44000244141</ele>
        <time>2017-10-01T05:04:37Z</time>
      </trkpt>
      <trkpt lat="45.28006" lon="5.88394">
        <ele>236.44000244141</ele>
        <time>2017-10-01T05:04:39Z</time>
      </trkpt>
      <trkpt lat="45.27997" lon="5.88387">
        <ele>236.44000244141</ele>
        <time>2017-10-01T05:04:41Z</time>
      </trkpt>
      <trkpt lat="45.27986" lon="5.88381">
        <ele>237.44000244141</ele>
        <time>2017-10-01T05:04:43Z</time>
      </trkpt>
      <trkpt lat="45.27976" lon="5.88373">
        <ele>237.44000244141</ele>
        <time>2017-10-01T05:04:45Z</time>
      </trkpt>
      <trkpt lat="45.27966" lon="5.88358">
        <ele>234.44000244141</ele>
        <time>2017-10-01T05:04:48Z</time>
      </trkpt>
      <trkpt lat="45.2796" lon="5.88343">
        <ele>236.44000244141</ele>
        <time>2017-10-01T05:04:50Z</time>
      </trkpt>
      <trkpt lat="45.27967" lon="5.88328">
        <ele>239.44000244141</ele>
        <time>2017-10-01T05:04:52Z</time>
      </trkpt>
      <trkpt lat="45.27972" lon="5.88314">
        <ele>242.44000244141</ele>
        <time>2017-10-01T05:04:54Z</time>
      </trkpt>
      <trkpt lat="45.27978" lon="5.88301">
        <ele>244.44000244141</ele>
        <time>2017-10-01T05:04:56Z</time>
      </trkpt>
      <trkpt lat="45.2798" lon="5.88288">
        <ele>244.44000244141</ele>
        <time>2017-10-01T05:04:58Z</time>
      </trkpt>
      <trkpt lat="45.27982" lon="5.88275">
        <ele>244.44000244141</ele>
        <time>2017-10-01T05:05:00Z</time>
      </trkpt>
      <trkpt lat="45.27988" lon="5.88263">
        <ele>245.44000244141</ele>
        <time>2017-10-01T05:05:02Z</time>
      </trkpt>
      <trkpt lat="45.27991" lon="5.8825">
        <ele>244.44000244141</ele>
        <time>2017-10-01T05:05:04Z</time>
      </trkpt>
      <trkpt lat="45.27991" lon="5.88243">
        <ele>244.44000244141</ele>
        <time>2017-10-01T05:05:05Z</time>
      </trkpt>
      <trkpt lat="45.27989" lon="5.8823">
        <ele>245.44000244141</ele>
        <time>2017-10-01T05:05:07Z</time>
      </trkpt>
      <trkpt lat="45.27988" lon="5.88212">
        <ele>245.44000244141</ele>
        <time>2017-10-01T05:05:10Z</time>
      </trkpt>
      <trkpt lat="45.27982" lon="5.882">
        <ele>245.44000244141</ele>
        <time>2017-10-01T05:05:12Z</time>
      </trkpt>
      <trkpt lat="45.2798" lon="5.88193">
        <ele>245.44000244141</ele>
        <time>2017-10-01T05:05:13Z</time>
      </trkpt>
      <trkpt lat="45.27979" lon="5.8818">
        <ele>245.44000244141</ele>
        <time>2017-10-01T05:05:15Z</time>
      </trkpt>
      <trkpt lat="45.27975" lon="5.88167">
        <ele>246.44000244141</ele>
        <time>2017-10-01T05:05:17Z</time>
      </trkpt>
      <trkpt lat="45.27974" lon="5.88155">
        <ele>246.44000244141</ele>
        <time>2017-10-01T05:05:19Z</time>
      </trkpt>
      <trkpt lat="45.2797" lon="5.88142">
        <ele>246.44000244141</ele>
        <time>2017-10-01T05:05:21Z</time>
      </trkpt>
      <trkpt lat="45.2797" lon="5.88129">
        <ele>248.44000244141</ele>
        <time>2017-10-01T05:05:23Z</time>
      </trkpt>
      <trkpt lat="45.27975" lon="5.88111">
        <ele>248.44000244141</ele>
        <time>2017-10-01T05:05:26Z</time>
      </trkpt>
      <trkpt lat="45.27978" lon="5.881">
        <ele>247.44000244141</ele>
        <time>2017-10-01T05:05:28Z</time>
      </trkpt>
      <trkpt lat="45.27981" lon="5.88083">
        <ele>247.44000244141</ele>
        <time>2017-10-01T05:05:31Z</time>
      </trkpt>
      <trkpt lat="45.27986" lon="5.88071">
        <ele>247.44000244141</ele>
        <time>2017-10-01T05:05:33Z</time>
      </trkpt>
      <trkpt lat="45.2799" lon="5.88061">
        <ele>249.44000244141</ele>
        <time>2017-10-01T05:05:35Z</time>
      </trkpt>
      <trkpt lat="45.27992" lon="5.88049">
        <ele>248.44000244141</ele>
        <time>2017-10-01T05:05:37Z</time>
      </trkpt>
      <trkpt lat="45.27991" lon="5.88036">
        <ele>249.44000244141</ele>
        <time>2017-10-01T05:05:39Z</time>
      </trkpt>
      <trkpt lat="45.27986" lon="5.88024">
        <ele>249.44000244141</ele>
        <time>2017-10-01T05:05:41Z</time>
      </trkpt>
      <trkpt lat="45.27979" lon="5.88014">
        <ele>248.44000244141</ele>
        <time>2017-10-01T05:05:43Z</time>
      </trkpt>
      <trkpt lat="45.27967" lon="5.88002">
        <ele>249.44000244141</ele>
        <time>2017-10-01T05:05:46Z</time>
      </trkpt>
      <trkpt lat="45.2796" lon="5.87994">
        <ele>248.44000244141</ele>
        <time>2017-10-01T05:05:48Z</time>
      </trkpt>
      <trkpt lat="45.27953" lon="5.87985">
        <ele>249.44000244141</ele>
        <time>2017-10-01T05:05:50Z</time>
      </trkpt>
      <trkpt lat="45.27946" lon="5.87977">
        <ele>248.44000244141</ele>
        <time>2017-10-01T05:05:52Z</time>
      </trkpt>
      <trkpt lat="45.27938" lon="5.87968">
        <ele>248.44000244141</ele>
        <time>2017-10-01T05:05:54Z</time>
      </trkpt>
      <trkpt lat="45.2793" lon="5.87957">
        <ele>249.43899536133</ele>
        <time>2017-10-01T05:05:56Z</time>
      </trkpt>
      <trkpt lat="45.27922" lon="5.87948">
        <ele>248.43899536133</ele>
        <time>2017-10-01T05:05:58Z</time>
      </trkpt>
      <trkpt lat="45.27918" lon="5.87943">
        <ele>248.43899536133</ele>
        <time>2017-10-01T05:05:59Z</time>
      </trkpt>
      <trkpt lat="45.2791" lon="5.87933">
        <ele>248.43899536133</ele>
        <time>2017-10-01T05:06:01Z</time>
      </trkpt>
      <trkpt lat="45.27901" lon="5.87924">
        <ele>251.43899536133</ele>
        <time>2017-10-01T05:06:03Z</time>
      </trkpt>
      <trkpt lat="45.2789" lon="5.8791">
        <ele>251.43899536133</ele>
        <time>2017-10-01T05:06:06Z</time>
      </trkpt>
      <trkpt lat="45.27883" lon="5.879">
        <ele>250.43899536133</ele>
        <time>2017-10-01T05:06:08Z</time>
      </trkpt>
      <trkpt lat="45.27875" lon="5.87892">
        <ele>250.43899536133</ele>
        <time>2017-10-01T05:06:10Z</time>
      </trkpt>
      <trkpt lat="45.27866" lon="5.87882">
        <ele>250.43899536133</ele>
        <time>2017-10-01T05:06:12Z</time>
      </trkpt>
      <trkpt lat="45.27856" lon="5.87869">
        <ele>247.43899536133</ele>
        <time>2017-10-01T05:06:15Z</time>
      </trkpt>
      <trkpt lat="45.27848" lon="5.87858">
        <ele>249.43899536133</ele>
        <time>2017-10-01T05:06:17Z</time>
      </trkpt>
      <trkpt lat="45.2784" lon="5.87848">
        <ele>249.43899536133</ele>
        <time>2017-10-01T05:06:19Z</time>
      </trkpt>
      <trkpt lat="45.27831" lon="5.87836">
        <ele>249.43899536133</ele>
        <time>2017-10-01T05:06:22Z</time>
      </trkpt>
      <trkpt lat="45.27825" lon="5.87828">
        <ele>249.43899536133</ele>
        <time>2017-10-01T05:06:24Z</time>
      </trkpt>
      <trkpt lat="45.27819" lon="5.87823">
        <ele>248.43899536133</ele>
        <time>2017-10-01T05:06:26Z</time>
      </trkpt>
      <trkpt lat="45.27812" lon="5.87816">
        <ele>247.43899536133</ele>
        <time>2017-10-01T05:06:28Z</time>
      </trkpt>
      <trkpt lat="45.27804" lon="5.87807">
        <ele>248.43899536133</ele>
        <time>2017-10-01T05:06:30Z</time>
      </trkpt>
      <trkpt lat="45.27796" lon="5.87797">
        <ele>249.43899536133</ele>
        <time>2017-10-01T05:06:32Z</time>
      </trkpt>
      <trkpt lat="45.27788" lon="5.87788">
        <ele>248.43899536133</ele>
        <time>2017-10-01T05:06:34Z</time>
      </trkpt>
      <trkpt lat="45.27785" lon="5.87776">
        <ele>247.43899536133</ele>
        <time>2017-10-01T05:06:36Z</time>
      </trkpt>
      <trkpt lat="45.27778" lon="5.87767">
        <ele>248.43899536133</ele>
        <time>2017-10-01T05:06:38Z</time>
      </trkpt>
      <trkpt lat="45.27766" lon="5.8776">
        <ele>246.43899536133</ele>
        <time>2017-10-01T05:06:41Z</time>
      </trkpt>
      <trkpt lat="45.27757" lon="5.87751">
        <ele>247.43899536133</ele>
        <time>2017-10-01T05:06:43Z</time>
      </trkpt>
      <trkpt lat="45.27748" lon="5.87744">
        <ele>247.43899536133</ele>
        <time>2017-10-01T05:06:45Z</time>
      </trkpt>
      <trkpt lat="45.27736" lon="5.87734">
        <ele>248.43899536133</ele>
        <time>2017-10-01T05:06:48Z</time>
      </trkpt>
      <trkpt lat="45.27729" lon="5.87726">
        <ele>249.43899536133</ele>
        <time>2017-10-01T05:06:50Z</time>
      </trkpt>
      <trkpt lat="45.27719" lon="5.8772">
        <ele>249.43899536133</ele>
        <time>2017-10-01T05:06:52Z</time>
      </trkpt>
      <trkpt lat="45.27705" lon="5.87711">
        <ele>246.43899536133</ele>
        <time>2017-10-01T05:06:55Z</time>
      </trkpt>
      <trkpt lat="45.27697" lon="5.87705">
        <ele>246.43899536133</ele>
        <time>2017-10-01T05:06:57Z</time>
      </trkpt>
      <trkpt lat="45.27687" lon="5.87698">
        <ele>247.43899536133</ele>
        <time>2017-10-01T05:06:59Z</time>
      </trkpt>
      <trkpt lat="45.27677" lon="5.87692">
        <ele>248.43899536133</ele>
        <time>2017-10-01T05:07:01Z</time>
      </trkpt>
      <trkpt lat="45.27665" lon="5.87682">
        <ele>247.43899536133</ele>
        <time>2017-10-01T05:07:04Z</time>
      </trkpt>
      <trkpt lat="45.27656" lon="5.87676">
        <ele>250.43899536133</ele>
        <time>2017-10-01T05:07:06Z</time>
      </trkpt>
      <trkpt lat="45.27645" lon="5.87671">
        <ele>248.43899536133</ele>
        <time>2017-10-01T05:07:08Z</time>
      </trkpt>
      <trkpt lat="45.27639" lon="5.87669">
        <ele>248.43800354004</ele>
        <time>2017-10-01T05:07:09Z</time>
      </trkpt>
      <trkpt lat="45.27628" lon="5.87662">
        <ele>248.43800354004</ele>
        <time>2017-10-01T05:07:11Z</time>
      </trkpt>
      <trkpt lat="45.27617" lon="5.87651">
        <ele>251.43800354004</ele>
        <time>2017-10-01T05:07:14Z</time>
      </trkpt>
      <trkpt lat="45.27605" lon="5.87647">
        <ele>250.43800354004</ele>
        <time>2017-10-01T05:07:16Z</time>
      </trkpt>
      <trkpt lat="45.27595" lon="5.8764">
        <ele>254.43800354004</ele>
        <time>2017-10-01T05:07:19Z</time>
      </trkpt>
      <trkpt lat="45.2759" lon="5.87637">
        <ele>253.43800354004</ele>
        <time>2017-10-01T05:07:20Z</time>
      </trkpt>
      <trkpt lat="45.2758" lon="5.87631">
        <ele>255.43800354004</ele>
        <time>2017-10-01T05:07:22Z</time>
      </trkpt>
      <trkpt lat="45.27573" lon="5.87622">
        <ele>257.43798828125</ele>
        <time>2017-10-01T05:07:24Z</time>
      </trkpt>
      <trkpt lat="45.27569" lon="5.87615">
        <ele>254.43800354004</ele>
        <time>2017-10-01T05:07:26Z</time>
      </trkpt>
      <trkpt lat="45.27561" lon="5.87613">
        <ele>254.43800354004</ele>
        <time>2017-10-01T05:07:28Z</time>
      </trkpt>
      <trkpt lat="45.27552" lon="5.87614">
        <ele>255.43800354004</ele>
        <time>2017-10-01T05:07:30Z</time>
      </trkpt>
      <trkpt lat="45.2754" lon="5.87608">
        <ele>254.43800354004</ele>
        <time>2017-10-01T05:07:32Z</time>
      </trkpt>
      <trkpt lat="45.27532" lon="5.87601">
        <ele>253.43800354004</ele>
        <time>2017-10-01T05:07:34Z</time>
      </trkpt>
      <trkpt lat="45.27518" lon="5.87593">
        <ele>253.43800354004</ele>
        <time>2017-10-01T05:07:37Z</time>
      </trkpt>
      <trkpt lat="45.27508" lon="5.87587">
        <ele>252.43800354004</ele>
        <time>2017-10-01T05:07:39Z</time>
      </trkpt>
      <trkpt lat="45.27498" lon="5.87583">
        <ele>253.43800354004</ele>
        <time>2017-10-01T05:07:41Z</time>
      </trkpt>
      <trkpt lat="45.27489" lon="5.87578">
        <ele>253.43800354004</ele>
        <time>2017-10-01T05:07:43Z</time>
      </trkpt>
      <trkpt lat="45.27479" lon="5.87573">
        <ele>253.43800354004</ele>
        <time>2017-10-01T05:07:45Z</time>
      </trkpt>
      <trkpt lat="45.27469" lon="5.87569">
        <ele>252.43800354004</ele>
        <time>2017-10-01T05:07:47Z</time>
      </trkpt>
      <trkpt lat="45.27459" lon="5.87565">
        <ele>254.43800354004</ele>
        <time>2017-10-01T05:07:49Z</time>
      </trkpt>
      <trkpt lat="45.27449" lon="5.8756">
        <ele>254.43800354004</ele>
        <time>2017-10-01T05:07:51Z</time>
      </trkpt>
      <trkpt lat="45.27439" lon="5.87555">
        <ele>254.43800354004</ele>
        <time>2017-10-01T05:07:53Z</time>
      </trkpt>
      <trkpt lat="45.27429" lon="5.87548">
        <ele>256.43798828125</ele>
        <time>2017-10-01T05:07:55Z</time>
      </trkpt>
      <trkpt lat="45.27417" lon="5.87542">
        <ele>256.43798828125</ele>
        <time>2017-10-01T05:07:57Z</time>
      </trkpt>
      <trkpt lat="45.27403" lon="5.87534">
        <ele>258.43798828125</ele>
        <time>2017-10-01T05:08:00Z</time>
      </trkpt>
      <trkpt lat="45.27393" lon="5.87528">
        <ele>259.43798828125</ele>
        <time>2017-10-01T05:08:02Z</time>
      </trkpt>
      <trkpt lat="45.27382" lon="5.8752">
        <ele>260.43798828125</ele>
        <time>2017-10-01T05:08:05Z</time>
      </trkpt>
      <trkpt lat="45.27372" lon="5.87514">
        <ele>260.43798828125</ele>
        <time>2017-10-01T05:08:07Z</time>
      </trkpt>
      <trkpt lat="45.27362" lon="5.87507">
        <ele>260.43798828125</ele>
        <time>2017-10-01T05:08:09Z</time>
      </trkpt>
      <trkpt lat="45.2735" lon="5.87502">
        <ele>260.43798828125</ele>
        <time>2017-10-01T05:08:11Z</time>
      </trkpt>
      <trkpt lat="45.2734" lon="5.87499">
        <ele>259.43798828125</ele>
        <time>2017-10-01T05:08:13Z</time>
      </trkpt>
      <trkpt lat="45.27331" lon="5.87493">
        <ele>260.43798828125</ele>
        <time>2017-10-01T05:08:15Z</time>
      </trkpt>
      <trkpt lat="45.27321" lon="5.87488">
        <ele>259.43798828125</ele>
        <time>2017-10-01T05:08:17Z</time>
      </trkpt>
      <trkpt lat="45.2731" lon="5.87483">
        <ele>259.43798828125</ele>
        <time>2017-10-01T05:08:19Z</time>
      </trkpt>
      <trkpt lat="45.27299" lon="5.87478">
        <ele>258.43798828125</ele>
        <time>2017-10-01T05:08:21Z</time>
      </trkpt>
      <trkpt lat="45.2729" lon="5.87472">
        <ele>259.43701171875</ele>
        <time>2017-10-01T05:08:23Z</time>
      </trkpt>
      <trkpt lat="45.27282" lon="5.87467">
        <ele>259.43701171875</ele>
        <time>2017-10-01T05:08:25Z</time>
      </trkpt>
      <trkpt lat="45.27273" lon="5.87461">
        <ele>261.43701171875</ele>
        <time>2017-10-01T05:08:27Z</time>
      </trkpt>
      <trkpt lat="45.27263" lon="5.87455">
        <ele>259.43701171875</ele>
        <time>2017-10-01T05:08:29Z</time>
      </trkpt>
      <trkpt lat="45.27254" lon="5.87449">
        <ele>259.43701171875</ele>
        <time>2017-10-01T05:08:31Z</time>
      </trkpt>
      <trkpt lat="45.27244" lon="5.87444">
        <ele>259.43701171875</ele>
        <time>2017-10-01T05:08:33Z</time>
      </trkpt>
      <trkpt lat="45.2724" lon="5.87442">
        <ele>257.43701171875</ele>
        <time>2017-10-01T05:08:34Z</time>
      </trkpt>
      <trkpt lat="45.27229" lon="5.87436">
        <ele>258.43701171875</ele>
        <time>2017-10-01T05:08:36Z</time>
      </trkpt>
      <trkpt lat="45.2722" lon="5.8743">
        <ele>258.43701171875</ele>
        <time>2017-10-01T05:08:38Z</time>
      </trkpt>
      <trkpt lat="45.27212" lon="5.8742">
        <ele>258.43701171875</ele>
        <time>2017-10-01T05:08:40Z</time>
      </trkpt>
      <trkpt lat="45.27201" lon="5.87403">
        <ele>261.43701171875</ele>
        <time>2017-10-01T05:08:43Z</time>
      </trkpt>
      <trkpt lat="45.27194" lon="5.87392">
        <ele>261.43701171875</ele>
        <time>2017-10-01T05:08:45Z</time>
      </trkpt>
      <trkpt lat="45.27187" lon="5.87383">
        <ele>263.43701171875</ele>
        <time>2017-10-01T05:08:47Z</time>
      </trkpt>
      <trkpt lat="45.27178" lon="5.87368">
        <ele>263.43701171875</ele>
        <time>2017-10-01T05:08:50Z</time>
      </trkpt>
      <trkpt lat="45.27172" lon="5.87358">
        <ele>264.43701171875</ele>
        <time>2017-10-01T05:08:52Z</time>
      </trkpt>
      <trkpt lat="45.27168" lon="5.8735">
        <ele>263.43701171875</ele>
        <time>2017-10-01T05:08:54Z</time>
      </trkpt>
      <trkpt lat="45.27161" lon="5.87342">
        <ele>263.43701171875</ele>
        <time>2017-10-01T05:08:56Z</time>
      </trkpt>
      <trkpt lat="45.27157" lon="5.87335">
        <ele>263.43701171875</ele>
        <time>2017-10-01T05:08:58Z</time>
      </trkpt>
      <trkpt lat="45.27151" lon="5.87327">
        <ele>263.43701171875</ele>
        <time>2017-10-01T05:09:00Z</time>
      </trkpt>
      <trkpt lat="45.27149" lon="5.87317">
        <ele>265.43701171875</ele>
        <time>2017-10-01T05:09:02Z</time>
      </trkpt>
      <trkpt lat="45.27143" lon="5.87311">
        <ele>265.43701171875</ele>
        <time>2017-10-01T05:09:04Z</time>
      </trkpt>
      <trkpt lat="45.2714" lon="5.87305">
        <ele>266.43701171875</ele>
        <time>2017-10-01T05:09:06Z</time>
      </trkpt>
      <trkpt lat="45.27135" lon="5.87297">
        <ele>265.43701171875</ele>
        <time>2017-10-01T05:09:08Z</time>
      </trkpt>
      <trkpt lat="45.2713" lon="5.8729">
        <ele>264.43701171875</ele>
        <time>2017-10-01T05:09:10Z</time>
      </trkpt>
      <trkpt lat="45.2712" lon="5.87278">
        <ele>265.43701171875</ele>
        <time>2017-10-01T05:09:13Z</time>
      </trkpt>
      <trkpt lat="45.27114" lon="5.87269">
        <ele>265.43701171875</ele>
        <time>2017-10-01T05:09:15Z</time>
      </trkpt>
      <trkpt lat="45.27109" lon="5.87256">
        <ele>264.43701171875</ele>
        <time>2017-10-01T05:09:17Z</time>
      </trkpt>
      <trkpt lat="45.27109" lon="5.87235">
        <ele>265.43701171875</ele>
        <time>2017-10-01T05:09:20Z</time>
      </trkpt>
      <trkpt lat="45.27114" lon="5.87224">
        <ele>265.43701171875</ele>
        <time>2017-10-01T05:09:22Z</time>
      </trkpt>
      <trkpt lat="45.27121" lon="5.87215">
        <ele>264.43701171875</ele>
        <time>2017-10-01T05:09:24Z</time>
      </trkpt>
      <trkpt lat="45.27126" lon="5.87206">
        <ele>265.43701171875</ele>
        <time>2017-10-01T05:09:26Z</time>
      </trkpt>
      <trkpt lat="45.27136" lon="5.87193">
        <ele>266.43701171875</ele>
        <time>2017-10-01T05:09:29Z</time>
      </trkpt>
      <trkpt lat="45.27141" lon="5.8718">
        <ele>266.43701171875</ele>
        <time>2017-10-01T05:09:31Z</time>
      </trkpt>
      <trkpt lat="45.2715" lon="5.87164">
        <ele>268.43701171875</ele>
        <time>2017-10-01T05:09:34Z</time>
      </trkpt>
      <trkpt lat="45.27158" lon="5.87156">
        <ele>268.43701171875</ele>
        <time>2017-10-01T05:09:36Z</time>
      </trkpt>
      <trkpt lat="45.27161" lon="5.87145">
        <ele>269.43701171875</ele>
        <time>2017-10-01T05:09:38Z</time>
      </trkpt>
      <trkpt lat="45.27169" lon="5.87138">
        <ele>268.43701171875</ele>
        <time>2017-10-01T05:09:40Z</time>
      </trkpt>
      <trkpt lat="45.27179" lon="5.87128">
        <ele>269.43701171875</ele>
        <time>2017-10-01T05:09:42Z</time>
      </trkpt>
      <trkpt lat="45.27192" lon="5.87117">
        <ele>268.43701171875</ele>
        <time>2017-10-01T05:09:45Z</time>
      </trkpt>
      <trkpt lat="45.27193" lon="5.87106">
        <ele>268.43701171875</ele>
        <time>2017-10-01T05:09:47Z</time>
      </trkpt>
      <trkpt lat="45.27197" lon="5.87097">
        <ele>267.43701171875</ele>
        <time>2017-10-01T05:09:49Z</time>
      </trkpt>
      <trkpt lat="45.27201" lon="5.87086">
        <ele>268.43701171875</ele>
        <time>2017-10-01T05:09:51Z</time>
      </trkpt>
      <trkpt lat="45.27206" lon="5.87071">
        <ele>269.43701171875</ele>
        <time>2017-10-01T05:09:53Z</time>
      </trkpt>
      <trkpt lat="45.27211" lon="5.87062">
        <ele>270.43701171875</ele>
        <time>2017-10-01T05:09:55Z</time>
      </trkpt>
      <trkpt lat="45.27215" lon="5.87053">
        <ele>270.43701171875</ele>
        <time>2017-10-01T05:09:57Z</time>
      </trkpt>
      <trkpt lat="45.27219" lon="5.87042">
        <ele>271.43701171875</ele>
        <time>2017-10-01T05:09:59Z</time>
      </trkpt>
      <trkpt lat="45.27225" lon="5.87032">
        <ele>271.43701171875</ele>
        <time>2017-10-01T05:10:01Z</time>
      </trkpt>
      <trkpt lat="45.27226" lon="5.87022">
        <ele>270.43701171875</ele>
        <time>2017-10-01T05:10:03Z</time>
      </trkpt>
      <trkpt lat="45.27233" lon="5.87014">
        <ele>270.43701171875</ele>
        <time>2017-10-01T05:10:05Z</time>
      </trkpt>
      <trkpt lat="45.2724" lon="5.87">
        <ele>270.43701171875</ele>
        <time>2017-10-01T05:10:08Z</time>
      </trkpt>
      <trkpt lat="45.27244" lon="5.86991">
        <ele>270.43701171875</ele>
        <time>2017-10-01T05:10:10Z</time>
      </trkpt>
      <trkpt lat="45.27249" lon="5.86982">
        <ele>271.43701171875</ele>
        <time>2017-10-01T05:10:12Z</time>
      </trkpt>
      <trkpt lat="45.27253" lon="5.86973">
        <ele>271.43701171875</ele>
        <time>2017-10-01T05:10:14Z</time>
      </trkpt>
      <trkpt lat="45.27259" lon="5.86965">
        <ele>270.43701171875</ele>
        <time>2017-10-01T05:10:16Z</time>
      </trkpt>
      <trkpt lat="45.2726" lon="5.86955">
        <ele>271.43701171875</ele>
        <time>2017-10-01T05:10:18Z</time>
      </trkpt>
      <trkpt lat="45.27263" lon="5.86947">
        <ele>271.43701171875</ele>
        <time>2017-10-01T05:10:20Z</time>
      </trkpt>
      <trkpt lat="45.27262" lon="5.8694">
        <ele>274.43701171875</ele>
        <time>2017-10-01T05:10:24Z</time>
      </trkpt>
      <trkpt lat="45.27263" lon="5.86932">
        <ele>277.43701171875</ele>
        <time>2017-10-01T05:10:27Z</time>
      </trkpt>
      <trkpt lat="45.27259" lon="5.86928">
        <ele>277.43701171875</ele>
        <time>2017-10-01T05:10:29Z</time>
      </trkpt>
      <trkpt lat="45.27247" lon="5.86924">
        <ele>278.43701171875</ele>
        <time>2017-10-01T05:10:31Z</time>
      </trkpt>
      <trkpt lat="45.27236" lon="5.8692">
        <ele>278.43701171875</ele>
        <time>2017-10-01T05:10:33Z</time>
      </trkpt>
      <trkpt lat="45.2723" lon="5.86918">
        <ele>277.43701171875</ele>
        <time>2017-10-01T05:10:34Z</time>
      </trkpt>
      <trkpt lat="45.27224" lon="5.86911">
        <ele>277.43701171875</ele>
        <time>2017-10-01T05:10:36Z</time>
      </trkpt>
      <trkpt lat="45.27214" lon="5.86903">
        <ele>277.43701171875</ele>
        <time>2017-10-01T05:10:38Z</time>
      </trkpt>
      <trkpt lat="45.27206" lon="5.86895">
        <ele>278.43701171875</ele>
        <time>2017-10-01T05:10:40Z</time>
      </trkpt>
      <trkpt lat="45.27197" lon="5.8689">
        <ele>278.43701171875</ele>
        <time>2017-10-01T05:10:42Z</time>
      </trkpt>
      <trkpt lat="45.27191" lon="5.86881">
        <ele>277.43600463867</ele>
        <time>2017-10-01T05:10:44Z</time>
      </trkpt>
      <trkpt lat="45.2718" lon="5.86868">
        <ele>277.43600463867</ele>
        <time>2017-10-01T05:10:47Z</time>
      </trkpt>
      <trkpt lat="45.27171" lon="5.86859">
        <ele>279.43600463867</ele>
        <time>2017-10-01T05:10:49Z</time>
      </trkpt>
      <trkpt lat="45.27165" lon="5.86852">
        <ele>281.43600463867</ele>
        <time>2017-10-01T05:10:51Z</time>
      </trkpt>
      <trkpt lat="45.2716" lon="5.86846">
        <ele>281.43600463867</ele>
        <time>2017-10-01T05:10:53Z</time>
      </trkpt>
      <trkpt lat="45.27154" lon="5.86838">
        <ele>280.43600463867</ele>
        <time>2017-10-01T05:10:55Z</time>
      </trkpt>
      <trkpt lat="45.27147" lon="5.86831">
        <ele>280.43600463867</ele>
        <time>2017-10-01T05:10:57Z</time>
      </trkpt>
      <trkpt lat="45.27137" lon="5.8682">
        <ele>280.43600463867</ele>
        <time>2017-10-01T05:11:00Z</time>
      </trkpt>
      <trkpt lat="45.27131" lon="5.86813">
        <ele>279.43600463867</ele>
        <time>2017-10-01T05:11:02Z</time>
      </trkpt>
      <trkpt lat="45.27121" lon="5.86802">
        <ele>280.43600463867</ele>
        <time>2017-10-01T05:11:05Z</time>
      </trkpt>
      <trkpt lat="45.27112" lon="5.86796">
        <ele>280.43600463867</ele>
        <time>2017-10-01T05:11:07Z</time>
      </trkpt>
      <trkpt lat="45.27106" lon="5.8679">
        <ele>282.43600463867</ele>
        <time>2017-10-01T05:11:09Z</time>
      </trkpt>
      <trkpt lat="45.27101" lon="5.86785">
        <ele>281.43600463867</ele>
        <time>2017-10-01T05:11:11Z</time>
      </trkpt>
      <trkpt lat="45.27095" lon="5.86779">
        <ele>283.43600463867</ele>
        <time>2017-10-01T05:11:13Z</time>
      </trkpt>
      <trkpt lat="45.27085" lon="5.86769">
        <ele>280.43600463867</ele>
        <time>2017-10-01T05:11:16Z</time>
      </trkpt>
      <trkpt lat="45.27077" lon="5.86764">
        <ele>281.43600463867</ele>
        <time>2017-10-01T05:11:18Z</time>
      </trkpt>
      <trkpt lat="45.2707" lon="5.86758">
        <ele>280.43600463867</ele>
        <time>2017-10-01T05:11:20Z</time>
      </trkpt>
      <trkpt lat="45.27062" lon="5.86751">
        <ele>281.43600463867</ele>
        <time>2017-10-01T05:11:22Z</time>
      </trkpt>
      <trkpt lat="45.27055" lon="5.86744">
        <ele>284.43600463867</ele>
        <time>2017-10-01T05:11:24Z</time>
      </trkpt>
      <trkpt lat="45.27049" lon="5.86737">
        <ele>286.43600463867</ele>
        <time>2017-10-01T05:11:26Z</time>
      </trkpt>
      <trkpt lat="45.27041" lon="5.86732">
        <ele>287.43600463867</ele>
        <time>2017-10-01T05:11:28Z</time>
      </trkpt>
      <trkpt lat="45.27034" lon="5.86726">
        <ele>286.43600463867</ele>
        <time>2017-10-01T05:11:30Z</time>
      </trkpt>
      <trkpt lat="45.27028" lon="5.86719">
        <ele>285.43600463867</ele>
        <time>2017-10-01T05:11:32Z</time>
      </trkpt>
      <trkpt lat="45.27019" lon="5.86712">
        <ele>283.43600463867</ele>
        <time>2017-10-01T05:11:34Z</time>
      </trkpt>
      <trkpt lat="45.27012" lon="5.86708">
        <ele>283.43600463867</ele>
        <time>2017-10-01T05:11:36Z</time>
      </trkpt>
      <trkpt lat="45.27005" lon="5.86702">
        <ele>283.43600463867</ele>
        <time>2017-10-01T05:11:38Z</time>
      </trkpt>
      <trkpt lat="45.26999" lon="5.86698">
        <ele>283.43600463867</ele>
        <time>2017-10-01T05:11:40Z</time>
      </trkpt>
      <trkpt lat="45.26994" lon="5.86698">
        <ele>281.43600463867</ele>
        <time>2017-10-01T05:11:42Z</time>
      </trkpt>
      <trkpt lat="45.26986" lon="5.86695">
        <ele>283.43600463867</ele>
        <time>2017-10-01T05:11:44Z</time>
      </trkpt>
      <trkpt lat="45.26978" lon="5.86687">
        <ele>284.43600463867</ele>
        <time>2017-10-01T05:11:46Z</time>
      </trkpt>
      <trkpt lat="45.26971" lon="5.86683">
        <ele>285.43600463867</ele>
        <time>2017-10-01T05:11:48Z</time>
      </trkpt>
      <trkpt lat="45.26965" lon="5.86675">
        <ele>285.43600463867</ele>
        <time>2017-10-01T05:11:50Z</time>
      </trkpt>
      <trkpt lat="45.26959" lon="5.86669">
        <ele>287.43600463867</ele>
        <time>2017-10-01T05:11:52Z</time>
      </trkpt>
      <trkpt lat="45.26953" lon="5.86665">
        <ele>286.43600463867</ele>
        <time>2017-10-01T05:11:54Z</time>
      </trkpt>
      <trkpt lat="45.26949" lon="5.86658">
        <ele>287.43600463867</ele>
        <time>2017-10-01T05:11:56Z</time>
      </trkpt>
      <trkpt lat="45.26942" lon="5.86652">
        <ele>288.43600463867</ele>
        <time>2017-10-01T05:11:58Z</time>
      </trkpt>
      <trkpt lat="45.26938" lon="5.86644">
        <ele>285.43600463867</ele>
        <time>2017-10-01T05:12:00Z</time>
      </trkpt>
      <trkpt lat="45.26932" lon="5.86638">
        <ele>288.43600463867</ele>
        <time>2017-10-01T05:12:02Z</time>
      </trkpt>
      <trkpt lat="45.2693" lon="5.86632">
        <ele>286.43600463867</ele>
        <time>2017-10-01T05:12:04Z</time>
      </trkpt>
      <trkpt lat="45.26926" lon="5.86625">
        <ele>286.43600463867</ele>
        <time>2017-10-01T05:12:06Z</time>
      </trkpt>
      <trkpt lat="45.26921" lon="5.86619">
        <ele>287.43600463867</ele>
        <time>2017-10-01T05:12:08Z</time>
      </trkpt>
      <trkpt lat="45.26919" lon="5.86613">
        <ele>290.43600463867</ele>
        <time>2017-10-01T05:12:10Z</time>
      </trkpt>
      <trkpt lat="45.26914" lon="5.86605">
        <ele>291.43600463867</ele>
        <time>2017-10-01T05:12:12Z</time>
      </trkpt>
      <trkpt lat="45.2691" lon="5.86601">
        <ele>290.43600463867</ele>
        <time>2017-10-01T05:12:14Z</time>
      </trkpt>
      <trkpt lat="45.26905" lon="5.86596">
        <ele>290.43600463867</ele>
        <time>2017-10-01T05:12:16Z</time>
      </trkpt>
      <trkpt lat="45.26901" lon="5.8659">
        <ele>291.43499755859</ele>
        <time>2017-10-01T05:12:18Z</time>
      </trkpt>
      <trkpt lat="45.26897" lon="5.86584">
        <ele>292.43499755859</ele>
        <time>2017-10-01T05:12:20Z</time>
      </trkpt>
      <trkpt lat="45.26894" lon="5.86577">
        <ele>293.43499755859</ele>
        <time>2017-10-01T05:12:22Z</time>
      </trkpt>
      <trkpt lat="45.26889" lon="5.86572">
        <ele>293.43499755859</ele>
        <time>2017-10-01T05:12:25Z</time>
      </trkpt>
      <trkpt lat="45.26884" lon="5.86565">
        <ele>292.43499755859</ele>
        <time>2017-10-01T05:12:28Z</time>
      </trkpt>
      <trkpt lat="45.26879" lon="5.8656">
        <ele>289.43499755859</ele>
        <time>2017-10-01T05:12:30Z</time>
      </trkpt>
      <trkpt lat="45.26874" lon="5.86553">
        <ele>294.43499755859</ele>
        <time>2017-10-01T05:12:32Z</time>
      </trkpt>
      <trkpt lat="45.2687" lon="5.86547">
        <ele>295.43499755859</ele>
        <time>2017-10-01T05:12:34Z</time>
      </trkpt>
      <trkpt lat="45.26868" lon="5.86539">
        <ele>295.43499755859</ele>
        <time>2017-10-01T05:12:36Z</time>
      </trkpt>
      <trkpt lat="45.26867" lon="5.86531">
        <ele>295.43499755859</ele>
        <time>2017-10-01T05:12:38Z</time>
      </trkpt>
      <trkpt lat="45.26864" lon="5.86524">
        <ele>295.43499755859</ele>
        <time>2017-10-01T05:12:40Z</time>
      </trkpt>
      <trkpt lat="45.26862" lon="5.86518">
        <ele>295.43499755859</ele>
        <time>2017-10-01T05:12:42Z</time>
      </trkpt>
      <trkpt lat="45.26858" lon="5.86512">
        <ele>296.43499755859</ele>
        <time>2017-10-01T05:12:44Z</time>
      </trkpt>
      <trkpt lat="45.26855" lon="5.86506">
        <ele>298.43499755859</ele>
        <time>2017-10-01T05:12:46Z</time>
      </trkpt>
      <trkpt lat="45.26851" lon="5.86499">
        <ele>299.43499755859</ele>
        <time>2017-10-01T05:12:48Z</time>
      </trkpt>
      <trkpt lat="45.26848" lon="5.86492">
        <ele>297.43499755859</ele>
        <time>2017-10-01T05:12:50Z</time>
      </trkpt>
      <trkpt lat="45.26846" lon="5.86483">
        <ele>297.43499755859</ele>
        <time>2017-10-01T05:12:53Z</time>
      </trkpt>
      <trkpt lat="45.26844" lon="5.86477">
        <ele>296.43499755859</ele>
        <time>2017-10-01T05:12:55Z</time>
      </trkpt>
      <trkpt lat="45.26841" lon="5.8647">
        <ele>297.43499755859</ele>
        <time>2017-10-01T05:12:57Z</time>
      </trkpt>
      <trkpt lat="45.26836" lon="5.86463">
        <ele>297.43499755859</ele>
        <time>2017-10-01T05:13:00Z</time>
      </trkpt>
      <trkpt lat="45.26832" lon="5.86457">
        <ele>297.43499755859</ele>
        <time>2017-10-01T05:13:02Z</time>
      </trkpt>
      <trkpt lat="45.26828" lon="5.86449">
        <ele>297.43499755859</ele>
        <time>2017-10-01T05:13:05Z</time>
      </trkpt>
      <trkpt lat="45.26824" lon="5.86444">
        <ele>298.43499755859</ele>
        <time>2017-10-01T05:13:07Z</time>
      </trkpt>
      <trkpt lat="45.2682" lon="5.86438">
        <ele>298.43499755859</ele>
        <time>2017-10-01T05:13:09Z</time>
      </trkpt>
      <trkpt lat="45.26818" lon="5.86431">
        <ele>298.43499755859</ele>
        <time>2017-10-01T05:13:11Z</time>
      </trkpt>
      <trkpt lat="45.26814" lon="5.86424">
        <ele>297.43499755859</ele>
        <time>2017-10-01T05:13:13Z</time>
      </trkpt>
      <trkpt lat="45.2681" lon="5.86418">
        <ele>302.43499755859</ele>
        <time>2017-10-01T05:13:15Z</time>
      </trkpt>
      <trkpt lat="45.26807" lon="5.86412">
        <ele>300.43499755859</ele>
        <time>2017-10-01T05:13:17Z</time>
      </trkpt>
      <trkpt lat="45.26804" lon="5.86407">
        <ele>300.43499755859</ele>
        <time>2017-10-01T05:13:19Z</time>
      </trkpt>
      <trkpt lat="45.268" lon="5.86402">
        <ele>299.43499755859</ele>
        <time>2017-10-01T05:13:21Z</time>
      </trkpt>
      <trkpt lat="45.26797" lon="5.86396">
        <ele>298.43499755859</ele>
        <time>2017-10-01T05:13:23Z</time>
      </trkpt>
      <trkpt lat="45.26792" lon="5.8639">
        <ele>299.43499755859</ele>
        <time>2017-10-01T05:13:25Z</time>
      </trkpt>
      <trkpt lat="45.26786" lon="5.86385">
        <ele>300.43499755859</ele>
        <time>2017-10-01T05:13:27Z</time>
      </trkpt>
      <trkpt lat="45.26783" lon="5.86377">
        <ele>301.43499755859</ele>
        <time>2017-10-01T05:13:29Z</time>
      </trkpt>
      <trkpt lat="45.26779" lon="5.86371">
        <ele>301.43499755859</ele>
        <time>2017-10-01T05:13:31Z</time>
      </trkpt>
      <trkpt lat="45.26774" lon="5.86364">
        <ele>303.43499755859</ele>
        <time>2017-10-01T05:13:33Z</time>
      </trkpt>
      <trkpt lat="45.26769" lon="5.86361">
        <ele>305.43499755859</ele>
        <time>2017-10-01T05:13:35Z</time>
      </trkpt>
      <trkpt lat="45.26765" lon="5.86355">
        <ele>307.43499755859</ele>
        <time>2017-10-01T05:13:37Z</time>
      </trkpt>
      <trkpt lat="45.2676" lon="5.86349">
        <ele>309.43499755859</ele>
        <time>2017-10-01T05:13:39Z</time>
      </trkpt>
      <trkpt lat="45.26756" lon="5.86342">
        <ele>309.43499755859</ele>
        <time>2017-10-01T05:13:41Z</time>
      </trkpt>
      <trkpt lat="45.26752" lon="5.86336">
        <ele>308.43499755859</ele>
        <time>2017-10-01T05:13:43Z</time>
      </trkpt>
      <trkpt lat="45.26747" lon="5.86331">
        <ele>311.43499755859</ele>
        <time>2017-10-01T05:13:45Z</time>
      </trkpt>
      <trkpt lat="45.26736" lon="5.8632">
        <ele>307.43499755859</ele>
        <time>2017-10-01T05:13:48Z</time>
      </trkpt>
      <trkpt lat="45.26732" lon="5.86316">
        <ele>307.43499755859</ele>
        <time>2017-10-01T05:13:50Z</time>
      </trkpt>
      <trkpt lat="45.26728" lon="5.86311">
        <ele>307.43499755859</ele>
        <time>2017-10-01T05:13:52Z</time>
      </trkpt>
      <trkpt lat="45.26722" lon="5.86304">
        <ele>307.43499755859</ele>
        <time>2017-10-01T05:13:55Z</time>
      </trkpt>
      <trkpt lat="45.26715" lon="5.86298">
        <ele>306.43499755859</ele>
        <time>2017-10-01T05:13:58Z</time>
      </trkpt>
      <trkpt lat="45.2671" lon="5.86293">
        <ele>304.43499755859</ele>
        <time>2017-10-01T05:14:00Z</time>
      </trkpt>
      <trkpt lat="45.26705" lon="5.86291">
        <ele>306.43499755859</ele>
        <time>2017-10-01T05:14:02Z</time>
      </trkpt>
      <trkpt lat="45.267" lon="5.86284">
        <ele>307.43499755859</ele>
        <time>2017-10-01T05:14:04Z</time>
      </trkpt>
      <trkpt lat="45.26695" lon="5.86278">
        <ele>307.43499755859</ele>
        <time>2017-10-01T05:14:06Z</time>
      </trkpt>
      <trkpt lat="45.26689" lon="5.86276">
        <ele>309.43499755859</ele>
        <time>2017-10-01T05:14:08Z</time>
      </trkpt>
      <trkpt lat="45.26685" lon="5.8627">
        <ele>309.43499755859</ele>
        <time>2017-10-01T05:14:10Z</time>
      </trkpt>
      <trkpt lat="45.2668" lon="5.86268">
        <ele>309.43499755859</ele>
        <time>2017-10-01T05:14:12Z</time>
      </trkpt>
      <trkpt lat="45.26675" lon="5.86262">
        <ele>311.43499755859</ele>
        <time>2017-10-01T05:14:14Z</time>
      </trkpt>
      <trkpt lat="45.2667" lon="5.86256">
        <ele>312.43499755859</ele>
        <time>2017-10-01T05:14:16Z</time>
      </trkpt>
      <trkpt lat="45.26665" lon="5.86251">
        <ele>313.43499755859</ele>
        <time>2017-10-01T05:14:18Z</time>
      </trkpt>
      <trkpt lat="45.2666" lon="5.86246">
        <ele>312.43499755859</ele>
        <time>2017-10-01T05:14:20Z</time>
      </trkpt>
      <trkpt lat="45.26656" lon="5.8624">
        <ele>312.43499755859</ele>
        <time>2017-10-01T05:14:22Z</time>
      </trkpt>
      <trkpt lat="45.26652" lon="5.86234">
        <ele>312.43399047852</ele>
        <time>2017-10-01T05:14:24Z</time>
      </trkpt>
      <trkpt lat="45.26647" lon="5.86229">
        <ele>312.43399047852</ele>
        <time>2017-10-01T05:14:26Z</time>
      </trkpt>
      <trkpt lat="45.26643" lon="5.86223">
        <ele>312.43399047852</ele>
        <time>2017-10-01T05:14:28Z</time>
      </trkpt>
      <trkpt lat="45.26639" lon="5.86217">
        <ele>313.43399047852</ele>
        <time>2017-10-01T05:14:30Z</time>
      </trkpt>
      <trkpt lat="45.26635" lon="5.86211">
        <ele>313.43399047852</ele>
        <time>2017-10-01T05:14:32Z</time>
      </trkpt>
      <trkpt lat="45.26631" lon="5.86205">
        <ele>313.43399047852</ele>
        <time>2017-10-01T05:14:34Z</time>
      </trkpt>
      <trkpt lat="45.26625" lon="5.86198">
        <ele>314.43399047852</ele>
        <time>2017-10-01T05:14:36Z</time>
      </trkpt>
      <trkpt lat="45.26622" lon="5.86192">
        <ele>315.43399047852</ele>
        <time>2017-10-01T05:14:38Z</time>
      </trkpt>
      <trkpt lat="45.26619" lon="5.86186">
        <ele>316.43399047852</ele>
        <time>2017-10-01T05:14:40Z</time>
      </trkpt>
      <trkpt lat="45.26618" lon="5.86177">
        <ele>315.43399047852</ele>
        <time>2017-10-01T05:14:42Z</time>
      </trkpt>
      <trkpt lat="45.26616" lon="5.86166">
        <ele>316.43399047852</ele>
        <time>2017-10-01T05:14:44Z</time>
      </trkpt>
      <trkpt lat="45.26615" lon="5.86156">
        <ele>317.43399047852</ele>
        <time>2017-10-01T05:14:46Z</time>
      </trkpt>
      <trkpt lat="45.26613" lon="5.86148">
        <ele>317.43399047852</ele>
        <time>2017-10-01T05:14:48Z</time>
      </trkpt>
      <trkpt lat="45.2661" lon="5.8614">
        <ele>318.43399047852</ele>
        <time>2017-10-01T05:14:50Z</time>
      </trkpt>
      <trkpt lat="45.26605" lon="5.86135">
        <ele>320.43399047852</ele>
        <time>2017-10-01T05:14:52Z</time>
      </trkpt>
      <trkpt lat="45.26598" lon="5.86134">
        <ele>319.43399047852</ele>
        <time>2017-10-01T05:14:54Z</time>
      </trkpt>
      <trkpt lat="45.2659" lon="5.86133">
        <ele>318.43399047852</ele>
        <time>2017-10-01T05:14:56Z</time>
      </trkpt>
      <trkpt lat="45.26579" lon="5.86126">
        <ele>319.43399047852</ele>
        <time>2017-10-01T05:14:59Z</time>
      </trkpt>
      <trkpt lat="45.26572" lon="5.86121">
        <ele>319.43399047852</ele>
        <time>2017-10-01T05:15:01Z</time>
      </trkpt>
      <trkpt lat="45.26563" lon="5.86114">
        <ele>319.43399047852</ele>
        <time>2017-10-01T05:15:04Z</time>
      </trkpt>
      <trkpt lat="45.26558" lon="5.86107">
        <ele>319.43399047852</ele>
        <time>2017-10-01T05:15:06Z</time>
      </trkpt>
      <trkpt lat="45.26552" lon="5.861">
        <ele>319.43399047852</ele>
        <time>2017-10-01T05:15:08Z</time>
      </trkpt>
      <trkpt lat="45.26547" lon="5.86093">
        <ele>320.43399047852</ele>
        <time>2017-10-01T05:15:10Z</time>
      </trkpt>
      <trkpt lat="45.26543" lon="5.86085">
        <ele>322.43399047852</ele>
        <time>2017-10-01T05:15:12Z</time>
      </trkpt>
      <trkpt lat="45.26537" lon="5.86076">
        <ele>324.43399047852</ele>
        <time>2017-10-01T05:16:10Z</time>
      </trkpt>
      <trkpt lat="45.26532" lon="5.86073">
        <ele>329.43399047852</ele>
        <time>2017-10-01T05:16:12Z</time>
      </trkpt>
      <trkpt lat="45.26528" lon="5.86068">
        <ele>332.43399047852</ele>
        <time>2017-10-01T05:16:14Z</time>
      </trkpt>
      <trkpt lat="45.26522" lon="5.86059">
        <ele>333.43399047852</ele>
        <time>2017-10-01T05:16:16Z</time>
      </trkpt>
      <trkpt lat="45.26516" lon="5.8605">
        <ele>334.43399047852</ele>
        <time>2017-10-01T05:16:18Z</time>
      </trkpt>
      <trkpt lat="45.2651" lon="5.86043">
        <ele>332.43399047852</ele>
        <time>2017-10-01T05:16:20Z</time>
      </trkpt>
      <trkpt lat="45.26501" lon="5.86031">
        <ele>333.43399047852</ele>
        <time>2017-10-01T05:16:23Z</time>
      </trkpt>
      <trkpt lat="45.26496" lon="5.86022">
        <ele>331.43399047852</ele>
        <time>2017-10-01T05:16:25Z</time>
      </trkpt>
      <trkpt lat="45.2649" lon="5.86013">
        <ele>331.43399047852</ele>
        <time>2017-10-01T05:16:27Z</time>
      </trkpt>
      <trkpt lat="45.26483" lon="5.86005">
        <ele>331.43399047852</ele>
        <time>2017-10-01T05:16:29Z</time>
      </trkpt>
      <trkpt lat="45.26477" lon="5.85998">
        <ele>330.43399047852</ele>
        <time>2017-10-01T05:16:31Z</time>
      </trkpt>
      <trkpt lat="45.26469" lon="5.8599">
        <ele>330.43399047852</ele>
        <time>2017-10-01T05:16:33Z</time>
      </trkpt>
      <trkpt lat="45.26463" lon="5.85981">
        <ele>329.43399047852</ele>
        <time>2017-10-01T05:16:35Z</time>
      </trkpt>
      <trkpt lat="45.26458" lon="5.85971">
        <ele>329.43399047852</ele>
        <time>2017-10-01T05:16:37Z</time>
      </trkpt>
      <trkpt lat="45.26452" lon="5.85964">
        <ele>330.43399047852</ele>
        <time>2017-10-01T05:16:39Z</time>
      </trkpt>
      <trkpt lat="45.26445" lon="5.85956">
        <ele>330.43399047852</ele>
        <time>2017-10-01T05:16:41Z</time>
      </trkpt>
      <trkpt lat="45.2644" lon="5.85948">
        <ele>330.43399047852</ele>
        <time>2017-10-01T05:16:43Z</time>
      </trkpt>
      <trkpt lat="45.26435" lon="5.8594">
        <ele>331.43399047852</ele>
        <time>2017-10-01T05:16:45Z</time>
      </trkpt>
      <trkpt lat="45.26429" lon="5.85932">
        <ele>330.43399047852</ele>
        <time>2017-10-01T05:16:47Z</time>
      </trkpt>
      <trkpt lat="45.26423" lon="5.85924">
        <ele>332.43399047852</ele>
        <time>2017-10-01T05:16:49Z</time>
      </trkpt>
      <trkpt lat="45.26416" lon="5.85916">
        <ele>332.43399047852</ele>
        <time>2017-10-01T05:16:51Z</time>
      </trkpt>
      <trkpt lat="45.2641" lon="5.85908">
        <ele>333.43399047852</ele>
        <time>2017-10-01T05:16:53Z</time>
      </trkpt>
      <trkpt lat="45.26404" lon="5.859">
        <ele>331.43399047852</ele>
        <time>2017-10-01T05:16:55Z</time>
      </trkpt>
      <trkpt lat="45.26399" lon="5.85893">
        <ele>330.43399047852</ele>
        <time>2017-10-01T05:16:57Z</time>
      </trkpt>
      <trkpt lat="45.26392" lon="5.85883">
        <ele>331.43301391602</ele>
        <time>2017-10-01T05:16:59Z</time>
      </trkpt>
      <trkpt lat="45.26386" lon="5.85876">
        <ele>331.43301391602</ele>
        <time>2017-10-01T05:17:01Z</time>
      </trkpt>
      <trkpt lat="45.26376" lon="5.85862">
        <ele>334.43301391602</ele>
        <time>2017-10-01T05:17:04Z</time>
      </trkpt>
      <trkpt lat="45.2637" lon="5.85855">
        <ele>334.43301391602</ele>
        <time>2017-10-01T05:17:06Z</time>
      </trkpt>
      <trkpt lat="45.26362" lon="5.8585">
        <ele>334.43301391602</ele>
        <time>2017-10-01T05:17:08Z</time>
      </trkpt>
      <trkpt lat="45.26352" lon="5.85838">
        <ele>336.43301391602</ele>
        <time>2017-10-01T05:17:11Z</time>
      </trkpt>
      <trkpt lat="45.26341" lon="5.85827">
        <ele>336.43301391602</ele>
        <time>2017-10-01T05:17:14Z</time>
      </trkpt>
      <trkpt lat="45.26331" lon="5.85817">
        <ele>335.43301391602</ele>
        <time>2017-10-01T05:17:17Z</time>
      </trkpt>
      <trkpt lat="45.26324" lon="5.85809">
        <ele>334.43301391602</ele>
        <time>2017-10-01T05:17:19Z</time>
      </trkpt>
      <trkpt lat="45.26318" lon="5.85803">
        <ele>336.43301391602</ele>
        <time>2017-10-01T05:17:21Z</time>
      </trkpt>
      <trkpt lat="45.26311" lon="5.85793">
        <ele>336.43301391602</ele>
        <time>2017-10-01T05:17:23Z</time>
      </trkpt>
      <trkpt lat="45.26304" lon="5.85784">
        <ele>337.43301391602</ele>
        <time>2017-10-01T05:17:25Z</time>
      </trkpt>
      <trkpt lat="45.26292" lon="5.85774">
        <ele>340.43301391602</ele>
        <time>2017-10-01T05:17:28Z</time>
      </trkpt>
      <trkpt lat="45.26286" lon="5.85768">
        <ele>339.43301391602</ele>
        <time>2017-10-01T05:17:30Z</time>
      </trkpt>
      <trkpt lat="45.26279" lon="5.85758">
        <ele>340.43301391602</ele>
        <time>2017-10-01T05:17:32Z</time>
      </trkpt>
      <trkpt lat="45.26272" lon="5.85749">
        <ele>341.43301391602</ele>
        <time>2017-10-01T05:17:34Z</time>
      </trkpt>
      <trkpt lat="45.26265" lon="5.8574">
        <ele>342.43301391602</ele>
        <time>2017-10-01T05:17:36Z</time>
      </trkpt>
      <trkpt lat="45.26258" lon="5.85732">
        <ele>342.43301391602</ele>
        <time>2017-10-01T05:17:38Z</time>
      </trkpt>
      <trkpt lat="45.2625" lon="5.85724">
        <ele>342.43301391602</ele>
        <time>2017-10-01T05:17:40Z</time>
      </trkpt>
      <trkpt lat="45.26243" lon="5.85716">
        <ele>341.43301391602</ele>
        <time>2017-10-01T05:17:42Z</time>
      </trkpt>
      <trkpt lat="45.26236" lon="5.85708">
        <ele>341.43301391602</ele>
        <time>2017-10-01T05:17:44Z</time>
      </trkpt>
      <trkpt lat="45.26229" lon="5.857">
        <ele>341.43301391602</ele>
        <time>2017-10-01T05:17:46Z</time>
      </trkpt>
      <trkpt lat="45.26222" lon="5.85691">
        <ele>341.43301391602</ele>
        <time>2017-10-01T05:17:48Z</time>
      </trkpt>
      <trkpt lat="45.26213" lon="5.85682">
        <ele>341.43301391602</ele>
        <time>2017-10-01T05:17:50Z</time>
      </trkpt>
      <trkpt lat="45.26205" lon="5.8567">
        <ele>342.43301391602</ele>
        <time>2017-10-01T05:17:52Z</time>
      </trkpt>
      <trkpt lat="45.26197" lon="5.8566">
        <ele>343.43301391602</ele>
        <time>2017-10-01T05:17:54Z</time>
      </trkpt>
      <trkpt lat="45.26187" lon="5.85647">
        <ele>344.43301391602</ele>
        <time>2017-10-01T05:17:57Z</time>
      </trkpt>
      <trkpt lat="45.26179" lon="5.85639">
        <ele>343.43301391602</ele>
        <time>2017-10-01T05:17:59Z</time>
      </trkpt>
      <trkpt lat="45.26173" lon="5.85631">
        <ele>343.43301391602</ele>
        <time>2017-10-01T05:18:01Z</time>
      </trkpt>
      <trkpt lat="45.26165" lon="5.85622">
        <ele>344.43301391602</ele>
        <time>2017-10-01T05:18:03Z</time>
      </trkpt>
      <trkpt lat="45.26158" lon="5.85614">
        <ele>344.43301391602</ele>
        <time>2017-10-01T05:18:05Z</time>
      </trkpt>
      <trkpt lat="45.2615" lon="5.85604">
        <ele>347.43301391602</ele>
        <time>2017-10-01T05:18:07Z</time>
      </trkpt>
      <trkpt lat="45.26143" lon="5.85597">
        <ele>345.43301391602</ele>
        <time>2017-10-01T05:18:09Z</time>
      </trkpt>
      <trkpt lat="45.26136" lon="5.85588">
        <ele>345.43301391602</ele>
        <time>2017-10-01T05:18:11Z</time>
      </trkpt>
      <trkpt lat="45.2613" lon="5.8558">
        <ele>345.43301391602</ele>
        <time>2017-10-01T05:18:13Z</time>
      </trkpt>
      <trkpt lat="45.26123" lon="5.8557">
        <ele>346.43200683594</ele>
        <time>2017-10-01T05:18:15Z</time>
      </trkpt>
      <trkpt lat="45.26116" lon="5.85561">
        <ele>346.43200683594</ele>
        <time>2017-10-01T05:18:17Z</time>
      </trkpt>
      <trkpt lat="45.2611" lon="5.85552">
        <ele>346.43200683594</ele>
        <time>2017-10-01T05:18:19Z</time>
      </trkpt>
      <trkpt lat="45.26103" lon="5.85542">
        <ele>347.43200683594</ele>
        <time>2017-10-01T05:18:21Z</time>
      </trkpt>
      <trkpt lat="45.26096" lon="5.85535">
        <ele>346.43200683594</ele>
        <time>2017-10-01T05:18:23Z</time>
      </trkpt>
      <trkpt lat="45.26089" lon="5.85524">
        <ele>347.43200683594</ele>
        <time>2017-10-01T05:18:25Z</time>
      </trkpt>
      <trkpt lat="45.26079" lon="5.8551">
        <ele>346.43200683594</ele>
        <time>2017-10-01T05:18:28Z</time>
      </trkpt>
      <trkpt lat="45.26073" lon="5.85501">
        <ele>346.43200683594</ele>
        <time>2017-10-01T05:18:30Z</time>
      </trkpt>
      <trkpt lat="45.26068" lon="5.85492">
        <ele>346.43200683594</ele>
        <time>2017-10-01T05:18:32Z</time>
      </trkpt>
      <trkpt lat="45.26063" lon="5.85483">
        <ele>347.43200683594</ele>
        <time>2017-10-01T05:18:34Z</time>
      </trkpt>
      <trkpt lat="45.26056" lon="5.8547">
        <ele>348.43200683594</ele>
        <time>2017-10-01T05:18:37Z</time>
      </trkpt>
      <trkpt lat="45.2605" lon="5.85461">
        <ele>348.43200683594</ele>
        <time>2017-10-01T05:18:39Z</time>
      </trkpt>
      <trkpt lat="45.26044" lon="5.85453">
        <ele>347.43200683594</ele>
        <time>2017-10-01T05:18:41Z</time>
      </trkpt>
      <trkpt lat="45.26039" lon="5.85443">
        <ele>346.43200683594</ele>
        <time>2017-10-01T05:18:43Z</time>
      </trkpt>
      <trkpt lat="45.26034" lon="5.85435">
        <ele>348.43200683594</ele>
        <time>2017-10-01T05:18:45Z</time>
      </trkpt>
      <trkpt lat="45.26028" lon="5.85426">
        <ele>348.43200683594</ele>
        <time>2017-10-01T05:18:47Z</time>
      </trkpt>
      <trkpt lat="45.26018" lon="5.85413">
        <ele>346.43200683594</ele>
        <time>2017-10-01T05:18:50Z</time>
      </trkpt>
      <trkpt lat="45.26013" lon="5.85405">
        <ele>347.43200683594</ele>
        <time>2017-10-01T05:18:52Z</time>
      </trkpt>
      <trkpt lat="45.26007" lon="5.85398">
        <ele>347.43200683594</ele>
        <time>2017-10-01T05:18:54Z</time>
      </trkpt>
      <trkpt lat="45.26001" lon="5.85389">
        <ele>348.43200683594</ele>
        <time>2017-10-01T05:18:56Z</time>
      </trkpt>
      <trkpt lat="45.25997" lon="5.8538">
        <ele>348.43200683594</ele>
        <time>2017-10-01T05:18:58Z</time>
      </trkpt>
      <trkpt lat="45.25992" lon="5.85372">
        <ele>348.43200683594</ele>
        <time>2017-10-01T05:19:00Z</time>
      </trkpt>
      <trkpt lat="45.25987" lon="5.85365">
        <ele>347.43200683594</ele>
        <time>2017-10-01T05:19:02Z</time>
      </trkpt>
      <trkpt lat="45.25983" lon="5.85356">
        <ele>350.43200683594</ele>
        <time>2017-10-01T05:19:04Z</time>
      </trkpt>
      <trkpt lat="45.25974" lon="5.85344">
        <ele>349.43200683594</ele>
        <time>2017-10-01T05:19:07Z</time>
      </trkpt>
      <trkpt lat="45.25966" lon="5.85329">
        <ele>349.43200683594</ele>
        <time>2017-10-01T05:19:10Z</time>
      </trkpt>
      <trkpt lat="45.25961" lon="5.85321">
        <ele>348.43200683594</ele>
        <time>2017-10-01T05:19:12Z</time>
      </trkpt>
      <trkpt lat="45.25956" lon="5.85312">
        <ele>349.43200683594</ele>
        <time>2017-10-01T05:19:14Z</time>
      </trkpt>
      <trkpt lat="45.2595" lon="5.85305">
        <ele>348.43200683594</ele>
        <time>2017-10-01T05:19:16Z</time>
      </trkpt>
      <trkpt lat="45.25946" lon="5.85297">
        <ele>349.43200683594</ele>
        <time>2017-10-01T05:19:18Z</time>
      </trkpt>
      <trkpt lat="45.25938" lon="5.85286">
        <ele>351.43200683594</ele>
        <time>2017-10-01T05:19:21Z</time>
      </trkpt>
      <trkpt lat="45.25931" lon="5.85275">
        <ele>351.43200683594</ele>
        <time>2017-10-01T05:19:23Z</time>
      </trkpt>
      <trkpt lat="45.25926" lon="5.85264">
        <ele>352.43200683594</ele>
        <time>2017-10-01T05:19:25Z</time>
      </trkpt>
      <trkpt lat="45.2592" lon="5.85254">
        <ele>353.43200683594</ele>
        <time>2017-10-01T05:19:27Z</time>
      </trkpt>
      <trkpt lat="45.25914" lon="5.85243">
        <ele>353.43200683594</ele>
        <time>2017-10-01T05:19:29Z</time>
      </trkpt>
      <trkpt lat="45.25908" lon="5.85234">
        <ele>352.43200683594</ele>
        <time>2017-10-01T05:19:31Z</time>
      </trkpt>
      <trkpt lat="45.259" lon="5.85218">
        <ele>355.43200683594</ele>
        <time>2017-10-01T05:19:34Z</time>
      </trkpt>
      <trkpt lat="45.25892" lon="5.85209">
        <ele>355.43200683594</ele>
        <time>2017-10-01T05:19:36Z</time>
      </trkpt>
      <trkpt lat="45.25885" lon="5.85197">
        <ele>352.43099975586</ele>
        <time>2017-10-01T05:19:39Z</time>
      </trkpt>
      <trkpt lat="45.25881" lon="5.8519">
        <ele>351.43099975586</ele>
        <time>2017-10-01T05:19:41Z</time>
      </trkpt>
      <trkpt lat="45.25874" lon="5.85181">
        <ele>352.43099975586</ele>
        <time>2017-10-01T05:19:43Z</time>
      </trkpt>
      <trkpt lat="45.25867" lon="5.85171">
        <ele>351.43099975586</ele>
        <time>2017-10-01T05:19:45Z</time>
      </trkpt>
      <trkpt lat="45.25857" lon="5.85158">
        <ele>352.43099975586</ele>
        <time>2017-10-01T05:19:48Z</time>
      </trkpt>
      <trkpt lat="45.2585" lon="5.85146">
        <ele>353.43099975586</ele>
        <time>2017-10-01T05:19:50Z</time>
      </trkpt>
      <trkpt lat="45.25844" lon="5.85133">
        <ele>354.43099975586</ele>
        <time>2017-10-01T05:19:52Z</time>
      </trkpt>
      <trkpt lat="45.25837" lon="5.85122">
        <ele>355.43099975586</ele>
        <time>2017-10-01T05:19:54Z</time>
      </trkpt>
      <trkpt lat="45.25826" lon="5.85108">
        <ele>353.43099975586</ele>
        <time>2017-10-01T05:19:57Z</time>
      </trkpt>
      <trkpt lat="45.25817" lon="5.85093">
        <ele>350.43099975586</ele>
        <time>2017-10-01T05:20:00Z</time>
      </trkpt>
      <trkpt lat="45.25811" lon="5.85081">
        <ele>350.43099975586</ele>
        <time>2017-10-01T05:20:02Z</time>
      </trkpt>
      <trkpt lat="45.25804" lon="5.8507">
        <ele>351.43099975586</ele>
        <time>2017-10-01T05:20:04Z</time>
      </trkpt>
      <trkpt lat="45.25797" lon="5.85058">
        <ele>351.43099975586</ele>
        <time>2017-10-01T05:20:06Z</time>
      </trkpt>
      <trkpt lat="45.25789" lon="5.85047">
        <ele>350.43099975586</ele>
        <time>2017-10-01T05:20:08Z</time>
      </trkpt>
      <trkpt lat="45.25781" lon="5.85035">
        <ele>352.43099975586</ele>
        <time>2017-10-01T05:20:10Z</time>
      </trkpt>
      <trkpt lat="45.25773" lon="5.85023">
        <ele>353.43099975586</ele>
        <time>2017-10-01T05:20:12Z</time>
      </trkpt>
      <trkpt lat="45.25765" lon="5.8501">
        <ele>352.43099975586</ele>
        <time>2017-10-01T05:20:14Z</time>
      </trkpt>
      <trkpt lat="45.25756" lon="5.84998">
        <ele>352.43099975586</ele>
        <time>2017-10-01T05:20:16Z</time>
      </trkpt>
      <trkpt lat="45.25749" lon="5.84986">
        <ele>352.43099975586</ele>
        <time>2017-10-01T05:20:18Z</time>
      </trkpt>
      <trkpt lat="45.25744" lon="5.84972">
        <ele>351.43099975586</ele>
        <time>2017-10-01T05:20:20Z</time>
      </trkpt>
      <trkpt lat="45.25737" lon="5.8496">
        <ele>352.43099975586</ele>
        <time>2017-10-01T05:20:22Z</time>
      </trkpt>
      <trkpt lat="45.2573" lon="5.84948">
        <ele>351.43099975586</ele>
        <time>2017-10-01T05:20:24Z</time>
      </trkpt>
      <trkpt lat="45.25722" lon="5.84938">
        <ele>351.43099975586</ele>
        <time>2017-10-01T05:20:26Z</time>
      </trkpt>
      <trkpt lat="45.25715" lon="5.84925">
        <ele>352.43099975586</ele>
        <time>2017-10-01T05:20:28Z</time>
      </trkpt>
      <trkpt lat="45.25709" lon="5.84912">
        <ele>352.43099975586</ele>
        <time>2017-10-01T05:20:30Z</time>
      </trkpt>
      <trkpt lat="45.25707" lon="5.84904">
        <ele>353.43099975586</ele>
        <time>2017-10-01T05:20:31Z</time>
      </trkpt>
      <trkpt lat="45.25701" lon="5.84891">
        <ele>353.43099975586</ele>
        <time>2017-10-01T05:20:33Z</time>
      </trkpt>
      <trkpt lat="45.25693" lon="5.84881">
        <ele>355.43099975586</ele>
        <time>2017-10-01T05:20:35Z</time>
      </trkpt>
      <trkpt lat="45.25689" lon="5.84868">
        <ele>355.43099975586</ele>
        <time>2017-10-01T05:20:37Z</time>
      </trkpt>
      <trkpt lat="45.25682" lon="5.84857">
        <ele>356.43099975586</ele>
        <time>2017-10-01T05:20:39Z</time>
      </trkpt>
      <trkpt lat="45.25675" lon="5.84844">
        <ele>357.43099975586</ele>
        <time>2017-10-01T05:20:41Z</time>
      </trkpt>
      <trkpt lat="45.25669" lon="5.84828">
        <ele>360.43099975586</ele>
        <time>2017-10-01T05:20:43Z</time>
      </trkpt>
      <trkpt lat="45.25661" lon="5.84817">
        <ele>361.42999267578</ele>
        <time>2017-10-01T05:20:45Z</time>
      </trkpt>
      <trkpt lat="45.25656" lon="5.84803">
        <ele>360.42999267578</ele>
        <time>2017-10-01T05:20:47Z</time>
      </trkpt>
      <trkpt lat="45.25651" lon="5.84789">
        <ele>361.42999267578</ele>
        <time>2017-10-01T05:20:49Z</time>
      </trkpt>
      <trkpt lat="45.25649" lon="5.84766">
        <ele>359.42999267578</ele>
        <time>2017-10-01T05:20:52Z</time>
      </trkpt>
      <trkpt lat="45.25643" lon="5.84752">
        <ele>360.42999267578</ele>
        <time>2017-10-01T05:20:54Z</time>
      </trkpt>
      <trkpt lat="45.25643" lon="5.84743">
        <ele>357.42999267578</ele>
        <time>2017-10-01T05:20:56Z</time>
      </trkpt>
      <trkpt lat="45.25649" lon="5.84737">
        <ele>357.42999267578</ele>
        <time>2017-10-01T05:20:58Z</time>
      </trkpt>
      <trkpt lat="45.25655" lon="5.84733">
        <ele>360.42999267578</ele>
        <time>2017-10-01T05:21:01Z</time>
      </trkpt>
      <trkpt lat="45.25661" lon="5.84728">
        <ele>360.42999267578</ele>
        <time>2017-10-01T05:21:03Z</time>
      </trkpt>
      <trkpt lat="45.25667" lon="5.84728">
        <ele>359.42999267578</ele>
        <time>2017-10-01T05:21:05Z</time>
      </trkpt>
      <trkpt lat="45.25672" lon="5.84728">
        <ele>362.42999267578</ele>
        <time>2017-10-01T05:21:07Z</time>
      </trkpt>
      <trkpt lat="45.25683" lon="5.84729">
        <ele>360.42999267578</ele>
        <time>2017-10-01T05:21:10Z</time>
      </trkpt>
      <trkpt lat="45.25689" lon="5.84728">
        <ele>358.42999267578</ele>
        <time>2017-10-01T05:21:12Z</time>
      </trkpt>
      <trkpt lat="45.25694" lon="5.84726">
        <ele>359.42999267578</ele>
        <time>2017-10-01T05:21:14Z</time>
      </trkpt>
      <trkpt lat="45.257" lon="5.84724">
        <ele>359.42999267578</ele>
        <time>2017-10-01T05:21:17Z</time>
      </trkpt>
      <trkpt lat="45.25706" lon="5.84724">
        <ele>360.42999267578</ele>
        <time>2017-10-01T05:21:20Z</time>
      </trkpt>
      <trkpt lat="45.25712" lon="5.84719">
        <ele>362.42999267578</ele>
        <time>2017-10-01T05:21:24Z</time>
      </trkpt>
      <trkpt lat="45.25717" lon="5.84715">
        <ele>359.42999267578</ele>
        <time>2017-10-01T05:21:28Z</time>
      </trkpt>
      <trkpt lat="45.25722" lon="5.84714">
        <ele>360.42999267578</ele>
        <time>2017-10-01T05:21:30Z</time>
      </trkpt>
      <trkpt lat="45.25727" lon="5.84715">
        <ele>359.42999267578</ele>
        <time>2017-10-01T05:21:32Z</time>
      </trkpt>
      <trkpt lat="45.25732" lon="5.84717">
        <ele>359.43099975586</ele>
        <time>2017-10-01T05:21:34Z</time>
      </trkpt>
      <trkpt lat="45.25738" lon="5.84713">
        <ele>358.43099975586</ele>
        <time>2017-10-01T05:21:36Z</time>
      </trkpt>
      <trkpt lat="45.25744" lon="5.84715">
        <ele>357.43099975586</ele>
        <time>2017-10-01T05:21:39Z</time>
      </trkpt>
      <trkpt lat="45.25749" lon="5.84715">
        <ele>356.43099975586</ele>
        <time>2017-10-01T05:21:41Z</time>
      </trkpt>
      <trkpt lat="45.25755" lon="5.84714">
        <ele>357.43099975586</ele>
        <time>2017-10-01T05:21:43Z</time>
      </trkpt>
      <trkpt lat="45.2576" lon="5.84714">
        <ele>357.43099975586</ele>
        <time>2017-10-01T05:21:45Z</time>
      </trkpt>
      <trkpt lat="45.25764" lon="5.84709">
        <ele>357.43099975586</ele>
        <time>2017-10-01T05:21:48Z</time>
      </trkpt>
      <trkpt lat="45.2577" lon="5.8471">
        <ele>356.43099975586</ele>
        <time>2017-10-01T05:21:50Z</time>
      </trkpt>
      <trkpt lat="45.25774" lon="5.84708">
        <ele>358.43099975586</ele>
        <time>2017-10-01T05:21:53Z</time>
      </trkpt>
      <trkpt lat="45.2578" lon="5.84707">
        <ele>359.43099975586</ele>
        <time>2017-10-01T05:21:55Z</time>
      </trkpt>
      <trkpt lat="45.25786" lon="5.8471">
        <ele>359.43099975586</ele>
        <time>2017-10-01T05:21:57Z</time>
      </trkpt>
      <trkpt lat="45.25793" lon="5.84707">
        <ele>360.43099975586</ele>
        <time>2017-10-01T05:21:59Z</time>
      </trkpt>
      <trkpt lat="45.25803" lon="5.84712">
        <ele>360.43099975586</ele>
        <time>2017-10-01T05:22:02Z</time>
      </trkpt>
      <trkpt lat="45.25806" lon="5.84706">
        <ele>359.43099975586</ele>
        <time>2017-10-01T05:22:05Z</time>
      </trkpt>
      <trkpt lat="45.25812" lon="5.84704">
        <ele>361.43099975586</ele>
        <time>2017-10-01T05:22:07Z</time>
      </trkpt>
      <trkpt lat="45.25818" lon="5.84701">
        <ele>363.43099975586</ele>
        <time>2017-10-01T05:22:10Z</time>
      </trkpt>
      <trkpt lat="45.25823" lon="5.84696">
        <ele>365.43099975586</ele>
        <time>2017-10-01T05:22:13Z</time>
      </trkpt>
      <trkpt lat="45.25828" lon="5.84695">
        <ele>366.43099975586</ele>
        <time>2017-10-01T05:22:15Z</time>
      </trkpt>
      <trkpt lat="45.25832" lon="5.84693">
        <ele>369.43099975586</ele>
        <time>2017-10-01T05:22:17Z</time>
      </trkpt>
      <trkpt lat="45.25837" lon="5.84688">
        <ele>373.43099975586</ele>
        <time>2017-10-01T05:22:20Z</time>
      </trkpt>
      <trkpt lat="45.25842" lon="5.84685">
        <ele>371.43099975586</ele>
        <time>2017-10-01T05:22:23Z</time>
      </trkpt>
      <trkpt lat="45.25847" lon="5.84685">
        <ele>371.43099975586</ele>
        <time>2017-10-01T05:22:25Z</time>
      </trkpt>
      <trkpt lat="45.25853" lon="5.84681">
        <ele>373.43099975586</ele>
        <time>2017-10-01T05:22:28Z</time>
      </trkpt>
      <trkpt lat="45.25858" lon="5.84679">
        <ele>373.43099975586</ele>
        <time>2017-10-01T05:22:30Z</time>
      </trkpt>
      <trkpt lat="45.25864" lon="5.84674">
        <ele>375.43099975586</ele>
        <time>2017-10-01T05:22:33Z</time>
      </trkpt>
      <trkpt lat="45.25868" lon="5.84671">
        <ele>375.43099975586</ele>
        <time>2017-10-01T05:22:35Z</time>
      </trkpt>
      <trkpt lat="45.25873" lon="5.84666">
        <ele>374.43099975586</ele>
        <time>2017-10-01T05:22:38Z</time>
      </trkpt>
      <trkpt lat="45.25876" lon="5.84658">
        <ele>372.43099975586</ele>
        <time>2017-10-01T05:22:42Z</time>
      </trkpt>
      <trkpt lat="45.2588" lon="5.84653">
        <ele>373.43099975586</ele>
        <time>2017-10-01T05:22:45Z</time>
      </trkpt>
      <trkpt lat="45.25884" lon="5.84649">
        <ele>375.43099975586</ele>
        <time>2017-10-01T05:22:47Z</time>
      </trkpt>
      <trkpt lat="45.25889" lon="5.84646">
        <ele>376.43099975586</ele>
        <time>2017-10-01T05:22:49Z</time>
      </trkpt>
      <trkpt lat="45.25895" lon="5.84643">
        <ele>378.43099975586</ele>
        <time>2017-10-01T05:22:52Z</time>
      </trkpt>
      <trkpt lat="45.259" lon="5.84641">
        <ele>380.43099975586</ele>
        <time>2017-10-01T05:22:54Z</time>
      </trkpt>
      <trkpt lat="45.25904" lon="5.84637">
        <ele>381.43099975586</ele>
        <time>2017-10-01T05:22:56Z</time>
      </trkpt>
      <trkpt lat="45.2591" lon="5.84634">
        <ele>381.43099975586</ele>
        <time>2017-10-01T05:22:59Z</time>
      </trkpt>
      <trkpt lat="45.25914" lon="5.84631">
        <ele>382.43099975586</ele>
        <time>2017-10-01T05:23:01Z</time>
      </trkpt>
      <trkpt lat="45.25919" lon="5.84628">
        <ele>382.43099975586</ele>
        <time>2017-10-01T05:23:03Z</time>
      </trkpt>
      <trkpt lat="45.25923" lon="5.84622">
        <ele>382.43099975586</ele>
        <time>2017-10-01T05:23:06Z</time>
      </trkpt>
      <trkpt lat="45.25927" lon="5.8462">
        <ele>382.43099975586</ele>
        <time>2017-10-01T05:23:08Z</time>
      </trkpt>
      <trkpt lat="45.25933" lon="5.84615">
        <ele>382.43099975586</ele>
        <time>2017-10-01T05:23:11Z</time>
      </trkpt>
      <trkpt lat="45.25939" lon="5.84614">
        <ele>381.43099975586</ele>
        <time>2017-10-01T05:23:14Z</time>
      </trkpt>
      <trkpt lat="45.25943" lon="5.84608">
        <ele>381.43099975586</ele>
        <time>2017-10-01T05:23:17Z</time>
      </trkpt>
      <trkpt lat="45.25947" lon="5.84604">
        <ele>381.43099975586</ele>
        <time>2017-10-01T05:23:20Z</time>
      </trkpt>
      <trkpt lat="45.25949" lon="5.84598">
        <ele>383.43099975586</ele>
        <time>2017-10-01T05:23:23Z</time>
      </trkpt>
      <trkpt lat="45.25953" lon="5.84592">
        <ele>382.43099975586</ele>
        <time>2017-10-01T05:23:26Z</time>
      </trkpt>
      <trkpt lat="45.25957" lon="5.84586">
        <ele>383.43099975586</ele>
        <time>2017-10-01T05:23:29Z</time>
      </trkpt>
      <trkpt lat="45.25963" lon="5.8458">
        <ele>382.43099975586</ele>
        <time>2017-10-01T05:23:33Z</time>
      </trkpt>
      <trkpt lat="45.25969" lon="5.84577">
        <ele>380.43099975586</ele>
        <time>2017-10-01T05:23:35Z</time>
      </trkpt>
      <trkpt lat="45.25972" lon="5.84572">
        <ele>382.43099975586</ele>
        <time>2017-10-01T05:23:38Z</time>
      </trkpt>
      <trkpt lat="45.25976" lon="5.84564">
        <ele>385.43099975586</ele>
        <time>2017-10-01T05:23:41Z</time>
      </trkpt>
      <trkpt lat="45.25981" lon="5.8456">
        <ele>384.43099975586</ele>
        <time>2017-10-01T05:23:44Z</time>
      </trkpt>
      <trkpt lat="45.25985" lon="5.84554">
        <ele>385.43099975586</ele>
        <time>2017-10-01T05:23:47Z</time>
      </trkpt>
      <trkpt lat="45.25988" lon="5.84548">
        <ele>384.43099975586</ele>
        <time>2017-10-01T05:23:50Z</time>
      </trkpt>
      <trkpt lat="45.25992" lon="5.84544">
        <ele>383.43099975586</ele>
        <time>2017-10-01T05:23:53Z</time>
      </trkpt>
      <trkpt lat="45.25996" lon="5.84538">
        <ele>384.43099975586</ele>
        <time>2017-10-01T05:23:56Z</time>
      </trkpt>
      <trkpt lat="45.26" lon="5.84533">
        <ele>385.43099975586</ele>
        <time>2017-10-01T05:23:59Z</time>
      </trkpt>
      <trkpt lat="45.26004" lon="5.84529">
        <ele>385.43099975586</ele>
        <time>2017-10-01T05:24:01Z</time>
      </trkpt>
      <trkpt lat="45.26009" lon="5.84527">
        <ele>386.43099975586</ele>
        <time>2017-10-01T05:24:04Z</time>
      </trkpt>
      <trkpt lat="45.26014" lon="5.84522">
        <ele>386.43099975586</ele>
        <time>2017-10-01T05:24:07Z</time>
      </trkpt>
      <trkpt lat="45.26017" lon="5.84517">
        <ele>386.43099975586</ele>
        <time>2017-10-01T05:24:10Z</time>
      </trkpt>
      <trkpt lat="45.26022" lon="5.84513">
        <ele>386.43099975586</ele>
        <time>2017-10-01T05:24:13Z</time>
      </trkpt>
      <trkpt lat="45.26026" lon="5.8451">
        <ele>388.43099975586</ele>
        <time>2017-10-01T05:24:17Z</time>
      </trkpt>
      <trkpt lat="45.26029" lon="5.84506">
        <ele>388.43099975586</ele>
        <time>2017-10-01T05:24:19Z</time>
      </trkpt>
      <trkpt lat="45.26035" lon="5.845">
        <ele>390.43099975586</ele>
        <time>2017-10-01T05:24:21Z</time>
      </trkpt>
      <trkpt lat="45.26039" lon="5.84494">
        <ele>392.43099975586</ele>
        <time>2017-10-01T05:24:24Z</time>
      </trkpt>
      <trkpt lat="45.26044" lon="5.84491">
        <ele>394.43099975586</ele>
        <time>2017-10-01T05:24:26Z</time>
      </trkpt>
      <trkpt lat="45.26048" lon="5.84487">
        <ele>395.43099975586</ele>
        <time>2017-10-01T05:24:28Z</time>
      </trkpt>
      <trkpt lat="45.26052" lon="5.84482">
        <ele>394.43099975586</ele>
        <time>2017-10-01T05:24:31Z</time>
      </trkpt>
      <trkpt lat="45.26057" lon="5.84477">
        <ele>396.43099975586</ele>
        <time>2017-10-01T05:24:34Z</time>
      </trkpt>
      <trkpt lat="45.26062" lon="5.84472">
        <ele>397.43099975586</ele>
        <time>2017-10-01T05:24:37Z</time>
      </trkpt>
      <trkpt lat="45.26066" lon="5.84466">
        <ele>399.43099975586</ele>
        <time>2017-10-01T05:24:40Z</time>
      </trkpt>
      <trkpt lat="45.2607" lon="5.84462">
        <ele>402.43099975586</ele>
        <time>2017-10-01T05:24:43Z</time>
      </trkpt>
      <trkpt lat="45.26072" lon="5.84455">
        <ele>401.43099975586</ele>
        <time>2017-10-01T05:24:46Z</time>
      </trkpt>
      <trkpt lat="45.26075" lon="5.84448">
        <ele>401.43099975586</ele>
        <time>2017-10-01T05:24:49Z</time>
      </trkpt>
      <trkpt lat="45.2608" lon="5.84444">
        <ele>402.43099975586</ele>
        <time>2017-10-01T05:24:52Z</time>
      </trkpt>
      <trkpt lat="45.26085" lon="5.84439">
        <ele>403.43099975586</ele>
        <time>2017-10-01T05:24:55Z</time>
      </trkpt>
      <trkpt lat="45.2609" lon="5.84435">
        <ele>403.43099975586</ele>
        <time>2017-10-01T05:24:58Z</time>
      </trkpt>
      <trkpt lat="45.26095" lon="5.84433">
        <ele>404.43099975586</ele>
        <time>2017-10-01T05:25:01Z</time>
      </trkpt>
      <trkpt lat="45.26099" lon="5.84428">
        <ele>401.43099975586</ele>
        <time>2017-10-01T05:25:04Z</time>
      </trkpt>
      <trkpt lat="45.26105" lon="5.84422">
        <ele>401.43099975586</ele>
        <time>2017-10-01T05:25:07Z</time>
      </trkpt>
      <trkpt lat="45.26111" lon="5.84419">
        <ele>401.43099975586</ele>
        <time>2017-10-01T05:25:09Z</time>
      </trkpt>
      <trkpt lat="45.26116" lon="5.84416">
        <ele>403.43099975586</ele>
        <time>2017-10-01T05:25:11Z</time>
      </trkpt>
      <trkpt lat="45.26121" lon="5.84411">
        <ele>404.43099975586</ele>
        <time>2017-10-01T05:25:13Z</time>
      </trkpt>
      <trkpt lat="45.26124" lon="5.84406">
        <ele>408.43099975586</ele>
        <time>2017-10-01T05:25:15Z</time>
      </trkpt>
      <trkpt lat="45.26129" lon="5.84402">
        <ele>409.43099975586</ele>
        <time>2017-10-01T05:25:17Z</time>
      </trkpt>
      <trkpt lat="45.26133" lon="5.84398">
        <ele>409.43099975586</ele>
        <time>2017-10-01T05:25:19Z</time>
      </trkpt>
      <trkpt lat="45.26138" lon="5.84395">
        <ele>412.43099975586</ele>
        <time>2017-10-01T05:25:21Z</time>
      </trkpt>
      <trkpt lat="45.26144" lon="5.84389">
        <ele>412.43099975586</ele>
        <time>2017-10-01T05:25:24Z</time>
      </trkpt>
      <trkpt lat="45.26148" lon="5.84386">
        <ele>413.43099975586</ele>
        <time>2017-10-01T05:25:26Z</time>
      </trkpt>
      <trkpt lat="45.26153" lon="5.84382">
        <ele>412.43099975586</ele>
        <time>2017-10-01T05:25:29Z</time>
      </trkpt>
      <trkpt lat="45.26158" lon="5.84378">
        <ele>414.43099975586</ele>
        <time>2017-10-01T05:25:31Z</time>
      </trkpt>
      <trkpt lat="45.26164" lon="5.84372">
        <ele>415.43099975586</ele>
        <time>2017-10-01T05:25:34Z</time>
      </trkpt>
      <trkpt lat="45.26168" lon="5.84369">
        <ele>416.43099975586</ele>
        <time>2017-10-01T05:25:36Z</time>
      </trkpt>
      <trkpt lat="45.26171" lon="5.84362">
        <ele>415.43099975586</ele>
        <time>2017-10-01T05:25:39Z</time>
      </trkpt>
      <trkpt lat="45.26175" lon="5.84357">
        <ele>414.43099975586</ele>
        <time>2017-10-01T05:25:42Z</time>
      </trkpt>
      <trkpt lat="45.26177" lon="5.84351">
        <ele>411.43099975586</ele>
        <time>2017-10-01T05:25:45Z</time>
      </trkpt>
      <trkpt lat="45.26184" lon="5.84346">
        <ele>412.43099975586</ele>
        <time>2017-10-01T05:25:48Z</time>
      </trkpt>
      <trkpt lat="45.26189" lon="5.84341">
        <ele>412.43099975586</ele>
        <time>2017-10-01T05:25:51Z</time>
      </trkpt>
      <trkpt lat="45.26193" lon="5.84338">
        <ele>413.43099975586</ele>
        <time>2017-10-01T05:25:53Z</time>
      </trkpt>
      <trkpt lat="45.26197" lon="5.84334">
        <ele>414.43099975586</ele>
        <time>2017-10-01T05:25:55Z</time>
      </trkpt>
      <trkpt lat="45.26201" lon="5.84332">
        <ele>413.43099975586</ele>
        <time>2017-10-01T05:25:57Z</time>
      </trkpt>
      <trkpt lat="45.26206" lon="5.84329">
        <ele>411.43099975586</ele>
        <time>2017-10-01T05:25:59Z</time>
      </trkpt>
      <trkpt lat="45.26209" lon="5.84324">
        <ele>412.43099975586</ele>
        <time>2017-10-01T05:26:02Z</time>
      </trkpt>
      <trkpt lat="45.26213" lon="5.84318">
        <ele>414.43099975586</ele>
        <time>2017-10-01T05:26:06Z</time>
      </trkpt>
      <trkpt lat="45.26217" lon="5.84315">
        <ele>414.43099975586</ele>
        <time>2017-10-01T05:26:09Z</time>
      </trkpt>
      <trkpt lat="45.2622" lon="5.84308">
        <ele>417.43099975586</ele>
        <time>2017-10-01T05:26:13Z</time>
      </trkpt>
      <trkpt lat="45.26224" lon="5.84306">
        <ele>423.43099975586</ele>
        <time>2017-10-01T05:26:43Z</time>
      </trkpt>
      <trkpt lat="45.26228" lon="5.84301">
        <ele>422.43099975586</ele>
        <time>2017-10-01T05:26:46Z</time>
      </trkpt>
      <trkpt lat="45.26233" lon="5.84297">
        <ele>418.43099975586</ele>
        <time>2017-10-01T05:26:49Z</time>
      </trkpt>
      <trkpt lat="45.26237" lon="5.84293">
        <ele>419.43099975586</ele>
        <time>2017-10-01T05:26:51Z</time>
      </trkpt>
      <trkpt lat="45.26241" lon="5.84289">
        <ele>422.43099975586</ele>
        <time>2017-10-01T05:26:53Z</time>
      </trkpt>
      <trkpt lat="45.26246" lon="5.84283">
        <ele>421.43099975586</ele>
        <time>2017-10-01T05:26:56Z</time>
      </trkpt>
      <trkpt lat="45.2625" lon="5.84279">
        <ele>421.43099975586</ele>
        <time>2017-10-01T05:26:58Z</time>
      </trkpt>
      <trkpt lat="45.26255" lon="5.84276">
        <ele>423.43099975586</ele>
        <time>2017-10-01T05:27:00Z</time>
      </trkpt>
      <trkpt lat="45.2626" lon="5.8427">
        <ele>425.43099975586</ele>
        <time>2017-10-01T05:27:03Z</time>
      </trkpt>
      <trkpt lat="45.26264" lon="5.84266">
        <ele>426.43099975586</ele>
        <time>2017-10-01T05:27:05Z</time>
      </trkpt>
      <trkpt lat="45.26269" lon="5.84261">
        <ele>427.43099975586</ele>
        <time>2017-10-01T05:27:08Z</time>
      </trkpt>
      <trkpt lat="45.2627" lon="5.84253">
        <ele>429.43099975586</ele>
        <time>2017-10-01T05:27:11Z</time>
      </trkpt>
      <trkpt lat="45.26275" lon="5.84248">
        <ele>431.43099975586</ele>
        <time>2017-10-01T05:27:14Z</time>
      </trkpt>
      <trkpt lat="45.26279" lon="5.84245">
        <ele>430.43099975586</ele>
        <time>2017-10-01T05:27:16Z</time>
      </trkpt>
      <trkpt lat="45.26283" lon="5.8424">
        <ele>428.43099975586</ele>
        <time>2017-10-01T05:27:19Z</time>
      </trkpt>
      <trkpt lat="45.26288" lon="5.84236">
        <ele>427.43099975586</ele>
        <time>2017-10-01T05:27:22Z</time>
      </trkpt>
      <trkpt lat="45.26292" lon="5.84233">
        <ele>428.43099975586</ele>
        <time>2017-10-01T05:27:24Z</time>
      </trkpt>
      <trkpt lat="45.26297" lon="5.84227">
        <ele>428.43099975586</ele>
        <time>2017-10-01T05:27:27Z</time>
      </trkpt>
      <trkpt lat="45.26301" lon="5.84224">
        <ele>430.43099975586</ele>
        <time>2017-10-01T05:27:29Z</time>
      </trkpt>
      <trkpt lat="45.26304" lon="5.84218">
        <ele>432.43099975586</ele>
        <time>2017-10-01T05:27:32Z</time>
      </trkpt>
      <trkpt lat="45.26307" lon="5.84213">
        <ele>433.43099975586</ele>
        <time>2017-10-01T05:27:35Z</time>
      </trkpt>
      <trkpt lat="45.26312" lon="5.84208">
        <ele>434.43099975586</ele>
        <time>2017-10-01T05:27:38Z</time>
      </trkpt>
      <trkpt lat="45.26316" lon="5.84203">
        <ele>434.43099975586</ele>
        <time>2017-10-01T05:27:41Z</time>
      </trkpt>
      <trkpt lat="45.26321" lon="5.84198">
        <ele>434.43099975586</ele>
        <time>2017-10-01T05:27:44Z</time>
      </trkpt>
      <trkpt lat="45.26324" lon="5.84193">
        <ele>434.43099975586</ele>
        <time>2017-10-01T05:27:47Z</time>
      </trkpt>
      <trkpt lat="45.26327" lon="5.84188">
        <ele>434.43099975586</ele>
        <time>2017-10-01T05:27:50Z</time>
      </trkpt>
      <trkpt lat="45.26332" lon="5.84183">
        <ele>437.43099975586</ele>
        <time>2017-10-01T05:27:53Z</time>
      </trkpt>
      <trkpt lat="45.26336" lon="5.84179">
        <ele>436.43099975586</ele>
        <time>2017-10-01T05:27:56Z</time>
      </trkpt>
      <trkpt lat="45.26341" lon="5.84175">
        <ele>436.43099975586</ele>
        <time>2017-10-01T05:27:59Z</time>
      </trkpt>
      <trkpt lat="45.26345" lon="5.8417">
        <ele>437.43099975586</ele>
        <time>2017-10-01T05:28:02Z</time>
      </trkpt>
      <trkpt lat="45.26349" lon="5.84165">
        <ele>438.43099975586</ele>
        <time>2017-10-01T05:28:05Z</time>
      </trkpt>
      <trkpt lat="45.26354" lon="5.8416">
        <ele>439.43099975586</ele>
        <time>2017-10-01T05:28:08Z</time>
      </trkpt>
      <trkpt lat="45.26357" lon="5.84157">
        <ele>440.43099975586</ele>
        <time>2017-10-01T05:28:11Z</time>
      </trkpt>
      <trkpt lat="45.26362" lon="5.84153">
        <ele>440.43099975586</ele>
        <time>2017-10-01T05:28:14Z</time>
      </trkpt>
      <trkpt lat="45.26366" lon="5.84149">
        <ele>440.43099975586</ele>
        <time>2017-10-01T05:28:17Z</time>
      </trkpt>
      <trkpt lat="45.2637" lon="5.84144">
        <ele>441.43099975586</ele>
        <time>2017-10-01T05:28:20Z</time>
      </trkpt>
      <trkpt lat="45.26375" lon="5.84139">
        <ele>442.43099975586</ele>
        <time>2017-10-01T05:28:23Z</time>
      </trkpt>
      <trkpt lat="45.26379" lon="5.84135">
        <ele>442.43099975586</ele>
        <time>2017-10-01T05:28:26Z</time>
      </trkpt>
      <trkpt lat="45.26383" lon="5.8413">
        <ele>443.43099975586</ele>
        <time>2017-10-01T05:28:29Z</time>
      </trkpt>
      <trkpt lat="45.26388" lon="5.84126">
        <ele>443.43099975586</ele>
        <time>2017-10-01T05:28:32Z</time>
      </trkpt>
      <trkpt lat="45.26393" lon="5.84121">
        <ele>444.43099975586</ele>
        <time>2017-10-01T05:28:36Z</time>
      </trkpt>
      <trkpt lat="45.26399" lon="5.84116">
        <ele>446.43099975586</ele>
        <time>2017-10-01T05:28:39Z</time>
      </trkpt>
      <trkpt lat="45.26403" lon="5.84111">
        <ele>447.43099975586</ele>
        <time>2017-10-01T05:28:42Z</time>
      </trkpt>
      <trkpt lat="45.26407" lon="5.84106">
        <ele>448.43099975586</ele>
        <time>2017-10-01T05:28:45Z</time>
      </trkpt>
      <trkpt lat="45.26413" lon="5.84103">
        <ele>448.43099975586</ele>
        <time>2017-10-01T05:28:48Z</time>
      </trkpt>
      <trkpt lat="45.26417" lon="5.84097">
        <ele>448.43099975586</ele>
        <time>2017-10-01T05:28:52Z</time>
      </trkpt>
      <trkpt lat="45.26421" lon="5.84092">
        <ele>448.43099975586</ele>
        <time>2017-10-01T05:28:55Z</time>
      </trkpt>
      <trkpt lat="45.26426" lon="5.84087">
        <ele>449.43099975586</ele>
        <time>2017-10-01T05:28:58Z</time>
      </trkpt>
      <trkpt lat="45.2643" lon="5.84083">
        <ele>450.43099975586</ele>
        <time>2017-10-01T05:29:01Z</time>
      </trkpt>
      <trkpt lat="45.26435" lon="5.84078">
        <ele>450.43099975586</ele>
        <time>2017-10-01T05:29:04Z</time>
      </trkpt>
      <trkpt lat="45.2644" lon="5.84074">
        <ele>450.43099975586</ele>
        <time>2017-10-01T05:29:07Z</time>
      </trkpt>
      <trkpt lat="45.26444" lon="5.84068">
        <ele>451.43099975586</ele>
        <time>2017-10-01T05:29:10Z</time>
      </trkpt>
      <trkpt lat="45.26449" lon="5.84064">
        <ele>452.43099975586</ele>
        <time>2017-10-01T05:29:13Z</time>
      </trkpt>
      <trkpt lat="45.26454" lon="5.8406">
        <ele>452.43099975586</ele>
        <time>2017-10-01T05:29:16Z</time>
      </trkpt>
      <trkpt lat="45.2646" lon="5.84056">
        <ele>454.43099975586</ele>
        <time>2017-10-01T05:29:19Z</time>
      </trkpt>
      <trkpt lat="45.26465" lon="5.84053">
        <ele>455.43099975586</ele>
        <time>2017-10-01T05:29:22Z</time>
      </trkpt>
      <trkpt lat="45.26471" lon="5.8405">
        <ele>455.43099975586</ele>
        <time>2017-10-01T05:29:25Z</time>
      </trkpt>
      <trkpt lat="45.26476" lon="5.84047">
        <ele>456.43099975586</ele>
        <time>2017-10-01T05:29:28Z</time>
      </trkpt>
      <trkpt lat="45.2648" lon="5.84041">
        <ele>455.43099975586</ele>
        <time>2017-10-01T05:29:31Z</time>
      </trkpt>
      <trkpt lat="45.26486" lon="5.84035">
        <ele>454.43099975586</ele>
        <time>2017-10-01T05:29:34Z</time>
      </trkpt>
      <trkpt lat="45.26493" lon="5.84035">
        <ele>454.43099975586</ele>
        <time>2017-10-01T05:29:37Z</time>
      </trkpt>
      <trkpt lat="45.265" lon="5.84037">
        <ele>456.43099975586</ele>
        <time>2017-10-01T05:29:40Z</time>
      </trkpt>
      <trkpt lat="45.26507" lon="5.84039">
        <ele>457.43099975586</ele>
        <time>2017-10-01T05:29:44Z</time>
      </trkpt>
      <trkpt lat="45.26511" lon="5.84043">
        <ele>458.43099975586</ele>
        <time>2017-10-01T05:29:46Z</time>
      </trkpt>
      <trkpt lat="45.26516" lon="5.84046">
        <ele>462.43099975586</ele>
        <time>2017-10-01T05:29:49Z</time>
      </trkpt>
      <trkpt lat="45.26521" lon="5.84046">
        <ele>461.43099975586</ele>
        <time>2017-10-01T05:29:51Z</time>
      </trkpt>
      <trkpt lat="45.26526" lon="5.84051">
        <ele>462.43099975586</ele>
        <time>2017-10-01T05:29:54Z</time>
      </trkpt>
      <trkpt lat="45.26532" lon="5.84057">
        <ele>462.43099975586</ele>
        <time>2017-10-01T05:29:58Z</time>
      </trkpt>
      <trkpt lat="45.26538" lon="5.84057">
        <ele>462.43099975586</ele>
        <time>2017-10-01T05:30:01Z</time>
      </trkpt>
      <trkpt lat="45.26544" lon="5.84058">
        <ele>462.43099975586</ele>
        <time>2017-10-01T05:30:04Z</time>
      </trkpt>
      <trkpt lat="45.26549" lon="5.84061">
        <ele>463.43099975586</ele>
        <time>2017-10-01T05:30:08Z</time>
      </trkpt>
      <trkpt lat="45.26554" lon="5.84062">
        <ele>463.43099975586</ele>
        <time>2017-10-01T05:30:11Z</time>
      </trkpt>
      <trkpt lat="45.26559" lon="5.84063">
        <ele>465.43099975586</ele>
        <time>2017-10-01T05:30:14Z</time>
      </trkpt>
      <trkpt lat="45.26565" lon="5.84061">
        <ele>464.43099975586</ele>
        <time>2017-10-01T05:30:17Z</time>
      </trkpt>
      <trkpt lat="45.2657" lon="5.84061">
        <ele>463.43099975586</ele>
        <time>2017-10-01T05:30:20Z</time>
      </trkpt>
      <trkpt lat="45.26576" lon="5.84062">
        <ele>464.43099975586</ele>
        <time>2017-10-01T05:30:23Z</time>
      </trkpt>
      <trkpt lat="45.26583" lon="5.84059">
        <ele>464.43099975586</ele>
        <time>2017-10-01T05:30:26Z</time>
      </trkpt>
      <trkpt lat="45.26587" lon="5.8406">
        <ele>465.43099975586</ele>
        <time>2017-10-01T05:30:28Z</time>
      </trkpt>
      <trkpt lat="45.26594" lon="5.84064">
        <ele>465.43099975586</ele>
        <time>2017-10-01T05:30:31Z</time>
      </trkpt>
      <trkpt lat="45.26597" lon="5.84068">
        <ele>466.43099975586</ele>
        <time>2017-10-01T05:30:33Z</time>
      </trkpt>
      <trkpt lat="45.26603" lon="5.8407">
        <ele>464.43099975586</ele>
        <time>2017-10-01T05:30:37Z</time>
      </trkpt>
      <trkpt lat="45.26609" lon="5.84072">
        <ele>467.43099975586</ele>
        <time>2017-10-01T05:30:40Z</time>
      </trkpt>
      <trkpt lat="45.26614" lon="5.84073">
        <ele>465.43099975586</ele>
        <time>2017-10-01T05:30:43Z</time>
      </trkpt>
      <trkpt lat="45.2662" lon="5.84073">
        <ele>466.43099975586</ele>
        <time>2017-10-01T05:30:45Z</time>
      </trkpt>
      <trkpt lat="45.26625" lon="5.84074">
        <ele>467.43099975586</ele>
        <time>2017-10-01T05:30:49Z</time>
      </trkpt>
      <trkpt lat="45.26631" lon="5.84076">
        <ele>470.43099975586</ele>
        <time>2017-10-01T05:30:53Z</time>
      </trkpt>
      <trkpt lat="45.26638" lon="5.84076">
        <ele>471.43200683594</ele>
        <time>2017-10-01T05:30:56Z</time>
      </trkpt>
      <trkpt lat="45.26643" lon="5.84079">
        <ele>473.43200683594</ele>
        <time>2017-10-01T05:30:58Z</time>
      </trkpt>
      <trkpt lat="45.26652" lon="5.8408">
        <ele>472.43200683594</ele>
        <time>2017-10-01T05:31:02Z</time>
      </trkpt>
      <trkpt lat="45.26657" lon="5.84084">
        <ele>474.43200683594</ele>
        <time>2017-10-01T05:31:05Z</time>
      </trkpt>
      <trkpt lat="45.26662" lon="5.84084">
        <ele>474.43200683594</ele>
        <time>2017-10-01T05:31:07Z</time>
      </trkpt>
      <trkpt lat="45.26667" lon="5.84085">
        <ele>476.43200683594</ele>
        <time>2017-10-01T05:31:09Z</time>
      </trkpt>
      <trkpt lat="45.26672" lon="5.84086">
        <ele>476.43200683594</ele>
        <time>2017-10-01T05:31:12Z</time>
      </trkpt>
      <trkpt lat="45.26678" lon="5.84087">
        <ele>474.43200683594</ele>
        <time>2017-10-01T05:31:15Z</time>
      </trkpt>
      <trkpt lat="45.26683" lon="5.84089">
        <ele>477.43200683594</ele>
        <time>2017-10-01T05:31:17Z</time>
      </trkpt>
      <trkpt lat="45.26689" lon="5.84089">
        <ele>475.43200683594</ele>
        <time>2017-10-01T05:31:21Z</time>
      </trkpt>
      <trkpt lat="45.26694" lon="5.84088">
        <ele>477.43200683594</ele>
        <time>2017-10-01T05:31:23Z</time>
      </trkpt>
      <trkpt lat="45.267" lon="5.84092">
        <ele>478.43200683594</ele>
        <time>2017-10-01T05:31:27Z</time>
      </trkpt>
      <trkpt lat="45.26705" lon="5.84095">
        <ele>480.43200683594</ele>
        <time>2017-10-01T05:31:29Z</time>
      </trkpt>
      <trkpt lat="45.26711" lon="5.84097">
        <ele>478.43200683594</ele>
        <time>2017-10-01T05:31:34Z</time>
      </trkpt>
      <trkpt lat="45.26717" lon="5.84099">
        <ele>481.43200683594</ele>
        <time>2017-10-01T05:31:37Z</time>
      </trkpt>
      <trkpt lat="45.26723" lon="5.84099">
        <ele>445.43200683594</ele>
        <time>2017-10-01T05:31:41Z</time>
      </trkpt>
      <trkpt lat="45.2673" lon="5.84102">
        <ele>463.43200683594</ele>
        <time>2017-10-01T05:31:44Z</time>
      </trkpt>
      <trkpt lat="45.26735" lon="5.84101">
        <ele>469.43200683594</ele>
        <time>2017-10-01T05:31:46Z</time>
      </trkpt>
      <trkpt lat="45.26739" lon="5.84104">
        <ele>471.43200683594</ele>
        <time>2017-10-01T05:31:48Z</time>
      </trkpt>
      <trkpt lat="45.26746" lon="5.84106">
        <ele>475.43200683594</ele>
        <time>2017-10-01T05:31:52Z</time>
      </trkpt>
      <trkpt lat="45.2675" lon="5.84102">
        <ele>477.43200683594</ele>
        <time>2017-10-01T05:31:54Z</time>
      </trkpt>
      <trkpt lat="45.26757" lon="5.84102">
        <ele>477.43200683594</ele>
        <time>2017-10-01T05:31:59Z</time>
      </trkpt>
      <trkpt lat="45.26761" lon="5.84104">
        <ele>477.43200683594</ele>
        <time>2017-10-01T05:32:01Z</time>
      </trkpt>
      <trkpt lat="45.26767" lon="5.84106">
        <ele>480.43200683594</ele>
        <time>2017-10-01T05:32:04Z</time>
      </trkpt>
      <trkpt lat="45.26771" lon="5.84107">
        <ele>484.43200683594</ele>
        <time>2017-10-01T05:32:07Z</time>
      </trkpt>
      <trkpt lat="45.26776" lon="5.8411">
        <ele>485.43200683594</ele>
        <time>2017-10-01T05:32:09Z</time>
      </trkpt>
      <trkpt lat="45.26781" lon="5.84113">
        <ele>484.43200683594</ele>
        <time>2017-10-01T05:32:12Z</time>
      </trkpt>
      <trkpt lat="45.26786" lon="5.84115">
        <ele>486.43200683594</ele>
        <time>2017-10-01T05:32:14Z</time>
      </trkpt>
      <trkpt lat="45.26793" lon="5.84113">
        <ele>486.43200683594</ele>
        <time>2017-10-01T05:32:18Z</time>
      </trkpt>
      <trkpt lat="45.268" lon="5.84115">
        <ele>486.43200683594</ele>
        <time>2017-10-01T05:32:21Z</time>
      </trkpt>
      <trkpt lat="45.26807" lon="5.84114">
        <ele>485.43200683594</ele>
        <time>2017-10-01T05:32:24Z</time>
      </trkpt>
      <trkpt lat="45.26812" lon="5.84114">
        <ele>486.43200683594</ele>
        <time>2017-10-01T05:32:26Z</time>
      </trkpt>
      <trkpt lat="45.26821" lon="5.84114">
        <ele>489.43200683594</ele>
        <time>2017-10-01T05:32:29Z</time>
      </trkpt>
      <trkpt lat="45.26826" lon="5.84112">
        <ele>488.43200683594</ele>
        <time>2017-10-01T05:32:31Z</time>
      </trkpt>
      <trkpt lat="45.26833" lon="5.84117">
        <ele>488.43200683594</ele>
        <time>2017-10-01T05:32:33Z</time>
      </trkpt>
      <trkpt lat="45.26838" lon="5.84116">
        <ele>486.43200683594</ele>
        <time>2017-10-01T05:32:35Z</time>
      </trkpt>
      <trkpt lat="45.26844" lon="5.84118">
        <ele>486.43200683594</ele>
        <time>2017-10-01T05:32:38Z</time>
      </trkpt>
      <trkpt lat="45.26849" lon="5.84119">
        <ele>488.43200683594</ele>
        <time>2017-10-01T05:32:39Z</time>
      </trkpt>
      <trkpt lat="45.26855" lon="5.84119">
        <ele>486.43200683594</ele>
        <time>2017-10-01T05:32:42Z</time>
      </trkpt>
      <trkpt lat="45.26859" lon="5.84116">
        <ele>485.43200683594</ele>
        <time>2017-10-01T05:32:44Z</time>
      </trkpt>
      <trkpt lat="45.26864" lon="5.84116">
        <ele>486.43200683594</ele>
        <time>2017-10-01T05:32:46Z</time>
      </trkpt>
      <trkpt lat="45.2687" lon="5.84118">
        <ele>488.43200683594</ele>
        <time>2017-10-01T05:32:48Z</time>
      </trkpt>
      <trkpt lat="45.26883" lon="5.84121">
        <ele>489.43200683594</ele>
        <time>2017-10-01T05:32:53Z</time>
      </trkpt>
      <trkpt lat="45.26888" lon="5.8412">
        <ele>490.43200683594</ele>
        <time>2017-10-01T05:32:55Z</time>
      </trkpt>
      <trkpt lat="45.26894" lon="5.84121">
        <ele>493.43200683594</ele>
        <time>2017-10-01T05:32:57Z</time>
      </trkpt>
      <trkpt lat="45.26901" lon="5.84115">
        <ele>490.43200683594</ele>
        <time>2017-10-01T05:32:59Z</time>
      </trkpt>
      <trkpt lat="45.26908" lon="5.84111">
        <ele>491.43200683594</ele>
        <time>2017-10-01T05:33:02Z</time>
      </trkpt>
      <trkpt lat="45.26915" lon="5.84114">
        <ele>492.43200683594</ele>
        <time>2017-10-01T05:33:04Z</time>
      </trkpt>
      <trkpt lat="45.26926" lon="5.84119">
        <ele>491.43200683594</ele>
        <time>2017-10-01T05:33:07Z</time>
      </trkpt>
      <trkpt lat="45.2693" lon="5.84119">
        <ele>492.43200683594</ele>
        <time>2017-10-01T05:33:09Z</time>
      </trkpt>
      <trkpt lat="45.26937" lon="5.8412">
        <ele>492.43200683594</ele>
        <time>2017-10-01T05:33:11Z</time>
      </trkpt>
      <trkpt lat="45.26945" lon="5.84118">
        <ele>493.43200683594</ele>
        <time>2017-10-01T05:33:15Z</time>
      </trkpt>
      <trkpt lat="45.26951" lon="5.84117">
        <ele>494.43200683594</ele>
        <time>2017-10-01T05:33:17Z</time>
      </trkpt>
      <trkpt lat="45.26956" lon="5.84115">
        <ele>495.43200683594</ele>
        <time>2017-10-01T05:33:20Z</time>
      </trkpt>
      <trkpt lat="45.26961" lon="5.84115">
        <ele>496.43200683594</ele>
        <time>2017-10-01T05:33:23Z</time>
      </trkpt>
      <trkpt lat="45.26968" lon="5.84116">
        <ele>497.43200683594</ele>
        <time>2017-10-01T05:33:25Z</time>
      </trkpt>
      <trkpt lat="45.26973" lon="5.84117">
        <ele>497.43200683594</ele>
        <time>2017-10-01T05:33:27Z</time>
      </trkpt>
      <trkpt lat="45.26978" lon="5.84117">
        <ele>497.43200683594</ele>
        <time>2017-10-01T05:33:29Z</time>
      </trkpt>
      <trkpt lat="45.26981" lon="5.84111">
        <ele>497.43200683594</ele>
        <time>2017-10-01T05:33:32Z</time>
      </trkpt>
      <trkpt lat="45.26987" lon="5.84113">
        <ele>498.43200683594</ele>
        <time>2017-10-01T05:33:34Z</time>
      </trkpt>
      <trkpt lat="45.26992" lon="5.84113">
        <ele>498.43200683594</ele>
        <time>2017-10-01T05:33:36Z</time>
      </trkpt>
      <trkpt lat="45.26998" lon="5.84116">
        <ele>499.43200683594</ele>
        <time>2017-10-01T05:33:38Z</time>
      </trkpt>
      <trkpt lat="45.27004" lon="5.8411">
        <ele>499.43200683594</ele>
        <time>2017-10-01T05:33:41Z</time>
      </trkpt>
      <trkpt lat="45.2701" lon="5.84112">
        <ele>500.43200683594</ele>
        <time>2017-10-01T05:33:43Z</time>
      </trkpt>
      <trkpt lat="45.27016" lon="5.84115">
        <ele>500.43200683594</ele>
        <time>2017-10-01T05:33:45Z</time>
      </trkpt>
      <trkpt lat="45.27023" lon="5.84118">
        <ele>500.43200683594</ele>
        <time>2017-10-01T05:33:47Z</time>
      </trkpt>
      <trkpt lat="45.27029" lon="5.84118">
        <ele>502.43200683594</ele>
        <time>2017-10-01T05:33:49Z</time>
      </trkpt>
      <trkpt lat="45.27035" lon="5.84116">
        <ele>502.43200683594</ele>
        <time>2017-10-01T05:33:52Z</time>
      </trkpt>
      <trkpt lat="45.27042" lon="5.84116">
        <ele>501.43200683594</ele>
        <time>2017-10-01T05:33:56Z</time>
      </trkpt>
      <trkpt lat="45.27047" lon="5.84115">
        <ele>503.43200683594</ele>
        <time>2017-10-01T05:33:58Z</time>
      </trkpt>
      <trkpt lat="45.27053" lon="5.84118">
        <ele>504.43200683594</ele>
        <time>2017-10-01T05:34:00Z</time>
      </trkpt>
      <trkpt lat="45.2706" lon="5.84116">
        <ele>505.43200683594</ele>
        <time>2017-10-01T05:34:03Z</time>
      </trkpt>
      <trkpt lat="45.27074" lon="5.84115">
        <ele>508.43200683594</ele>
        <time>2017-10-01T05:34:07Z</time>
      </trkpt>
      <trkpt lat="45.27072" lon="5.84107">
        <ele>510.43200683594</ele>
        <time>2017-10-01T05:34:09Z</time>
      </trkpt>
      <trkpt lat="45.2707" lon="5.84099">
        <ele>508.43200683594</ele>
        <time>2017-10-01T05:34:12Z</time>
      </trkpt>
      <trkpt lat="45.27068" lon="5.84089">
        <ele>507.43200683594</ele>
        <time>2017-10-01T05:34:17Z</time>
      </trkpt>
      <trkpt lat="45.27071" lon="5.84082">
        <ele>507.43200683594</ele>
        <time>2017-10-01T05:34:19Z</time>
      </trkpt>
      <trkpt lat="45.27068" lon="5.84075">
        <ele>507.43200683594</ele>
        <time>2017-10-01T05:34:24Z</time>
      </trkpt>
      <trkpt lat="45.27068" lon="5.84067">
        <ele>506.43200683594</ele>
        <time>2017-10-01T05:34:27Z</time>
      </trkpt>
      <trkpt lat="45.27067" lon="5.84062">
        <ele>502.43200683594</ele>
        <time>2017-10-01T05:34:30Z</time>
      </trkpt>
      <trkpt lat="45.27063" lon="5.84057">
        <ele>504.43200683594</ele>
        <time>2017-10-01T05:34:33Z</time>
      </trkpt>
      <trkpt lat="45.27065" lon="5.8405">
        <ele>505.43200683594</ele>
        <time>2017-10-01T05:34:35Z</time>
      </trkpt>
      <trkpt lat="45.27066" lon="5.84042">
        <ele>506.43200683594</ele>
        <time>2017-10-01T05:34:38Z</time>
      </trkpt>
      <trkpt lat="45.27066" lon="5.84036">
        <ele>507.43200683594</ele>
        <time>2017-10-01T05:34:41Z</time>
      </trkpt>
      <trkpt lat="45.27064" lon="5.84026">
        <ele>508.43200683594</ele>
        <time>2017-10-01T05:34:46Z</time>
      </trkpt>
      <trkpt lat="45.27065" lon="5.84018">
        <ele>510.43200683594</ele>
        <time>2017-10-01T05:34:49Z</time>
      </trkpt>
      <trkpt lat="45.27073" lon="5.84012">
        <ele>511.43200683594</ele>
        <time>2017-10-01T05:34:51Z</time>
      </trkpt>
      <trkpt lat="45.27071" lon="5.84008">
        <ele>508.43200683594</ele>
        <time>2017-10-01T05:34:53Z</time>
      </trkpt>
      <trkpt lat="45.27072" lon="5.84001">
        <ele>507.43200683594</ele>
        <time>2017-10-01T05:34:55Z</time>
      </trkpt>
      <trkpt lat="45.27075" lon="5.83995">
        <ele>507.43200683594</ele>
        <time>2017-10-01T05:34:58Z</time>
      </trkpt>
      <trkpt lat="45.27077" lon="5.83988">
        <ele>510.43200683594</ele>
        <time>2017-10-01T05:35:02Z</time>
      </trkpt>
      <trkpt lat="45.27079" lon="5.83981">
        <ele>509.43200683594</ele>
        <time>2017-10-01T05:35:05Z</time>
      </trkpt>
      <trkpt lat="45.2708" lon="5.83974">
        <ele>510.43200683594</ele>
        <time>2017-10-01T05:35:09Z</time>
      </trkpt>
      <trkpt lat="45.27081" lon="5.83965">
        <ele>512.43200683594</ele>
        <time>2017-10-01T05:35:12Z</time>
      </trkpt>
      <trkpt lat="45.27082" lon="5.83958">
        <ele>515.43200683594</ele>
        <time>2017-10-01T05:35:16Z</time>
      </trkpt>
      <trkpt lat="45.27085" lon="5.83952">
        <ele>519.43200683594</ele>
        <time>2017-10-01T05:35:19Z</time>
      </trkpt>
      <trkpt lat="45.27089" lon="5.83945">
        <ele>522.43200683594</ele>
        <time>2017-10-01T05:35:22Z</time>
      </trkpt>
      <trkpt lat="45.27088" lon="5.83938">
        <ele>522.43200683594</ele>
        <time>2017-10-01T05:35:26Z</time>
      </trkpt>
      <trkpt lat="45.27091" lon="5.83932">
        <ele>522.43200683594</ele>
        <time>2017-10-01T05:35:29Z</time>
      </trkpt>
      <trkpt lat="45.27093" lon="5.83926">
        <ele>521.43200683594</ele>
        <time>2017-10-01T05:35:32Z</time>
      </trkpt>
      <trkpt lat="45.27095" lon="5.8392">
        <ele>523.43200683594</ele>
        <time>2017-10-01T05:35:35Z</time>
      </trkpt>
      <trkpt lat="45.27098" lon="5.83913">
        <ele>527.43200683594</ele>
        <time>2017-10-01T05:35:39Z</time>
      </trkpt>
      <trkpt lat="45.27101" lon="5.83909">
        <ele>527.43200683594</ele>
        <time>2017-10-01T05:35:42Z</time>
      </trkpt>
      <trkpt lat="45.27106" lon="5.83905">
        <ele>531.43200683594</ele>
        <time>2017-10-01T05:36:21Z</time>
      </trkpt>
      <trkpt lat="45.27109" lon="5.839">
        <ele>532.43200683594</ele>
        <time>2017-10-01T05:36:24Z</time>
      </trkpt>
      <trkpt lat="45.27111" lon="5.83894">
        <ele>532.43200683594</ele>
        <time>2017-10-01T05:36:27Z</time>
      </trkpt>
      <trkpt lat="45.27115" lon="5.83889">
        <ele>531.43200683594</ele>
        <time>2017-10-01T05:36:30Z</time>
      </trkpt>
      <trkpt lat="45.27116" lon="5.83883">
        <ele>529.43200683594</ele>
        <time>2017-10-01T05:36:33Z</time>
      </trkpt>
      <trkpt lat="45.2712" lon="5.83877">
        <ele>527.43200683594</ele>
        <time>2017-10-01T05:36:36Z</time>
      </trkpt>
      <trkpt lat="45.27121" lon="5.83871">
        <ele>527.43200683594</ele>
        <time>2017-10-01T05:36:40Z</time>
      </trkpt>
      <trkpt lat="45.27123" lon="5.83863">
        <ele>529.43200683594</ele>
        <time>2017-10-01T05:36:44Z</time>
      </trkpt>
      <trkpt lat="45.27127" lon="5.83856">
        <ele>531.43200683594</ele>
        <time>2017-10-01T05:36:47Z</time>
      </trkpt>
      <trkpt lat="45.2713" lon="5.83849">
        <ele>534.43200683594</ele>
        <time>2017-10-01T05:36:51Z</time>
      </trkpt>
      <trkpt lat="45.27136" lon="5.83846">
        <ele>327.43200683594</ele>
        <time>2017-10-01T05:36:57Z</time>
      </trkpt>
      <trkpt lat="45.27134" lon="5.83839">
        <ele>526.43200683594</ele>
        <time>2017-10-01T05:37:19Z</time>
      </trkpt>
      <trkpt lat="45.2714" lon="5.83823">
        <ele>528.43200683594</ele>
        <time>2017-10-01T05:37:22Z</time>
      </trkpt>
      <trkpt lat="45.27145" lon="5.83806">
        <ele>532.43200683594</ele>
        <time>2017-10-01T05:37:25Z</time>
      </trkpt>
      <trkpt lat="45.27139" lon="5.83807">
        <ele>531.43200683594</ele>
        <time>2017-10-01T05:37:26Z</time>
      </trkpt>
      <trkpt lat="45.27145" lon="5.83798">
        <ele>530.43200683594</ele>
        <time>2017-10-01T05:37:31Z</time>
      </trkpt>
      <trkpt lat="45.27151" lon="5.83795">
        <ele>530.43200683594</ele>
        <time>2017-10-01T05:37:33Z</time>
      </trkpt>
      <trkpt lat="45.2715" lon="5.83789">
        <ele>535.43200683594</ele>
        <time>2017-10-01T05:37:36Z</time>
      </trkpt>
      <trkpt lat="45.27152" lon="5.83779">
        <ele>543.43200683594</ele>
        <time>2017-10-01T05:37:41Z</time>
      </trkpt>
      <trkpt lat="45.27155" lon="5.83769">
        <ele>540.43200683594</ele>
        <time>2017-10-01T05:37:47Z</time>
      </trkpt>
      <trkpt lat="45.27157" lon="5.83763">
        <ele>541.43200683594</ele>
        <time>2017-10-01T05:37:52Z</time>
      </trkpt>
      <trkpt lat="45.2716" lon="5.83758">
        <ele>542.43200683594</ele>
        <time>2017-10-01T05:37:55Z</time>
      </trkpt>
      <trkpt lat="45.27162" lon="5.83749">
        <ele>552.43200683594</ele>
        <time>2017-10-01T05:38:40Z</time>
      </trkpt>
      <trkpt lat="45.27165" lon="5.83741">
        <ele>552.43200683594</ele>
        <time>2017-10-01T05:38:43Z</time>
      </trkpt>
      <trkpt lat="45.27168" lon="5.83736">
        <ele>550.43200683594</ele>
        <time>2017-10-01T05:38:46Z</time>
      </trkpt>
      <trkpt lat="45.27172" lon="5.8373">
        <ele>551.43200683594</ele>
        <time>2017-10-01T05:38:51Z</time>
      </trkpt>
      <trkpt lat="45.2717" lon="5.83723">
        <ele>551.43200683594</ele>
        <time>2017-10-01T05:38:54Z</time>
      </trkpt>
      <trkpt lat="45.27172" lon="5.83716">
        <ele>552.43200683594</ele>
        <time>2017-10-01T05:38:59Z</time>
      </trkpt>
      <trkpt lat="45.27175" lon="5.83711">
        <ele>551.43200683594</ele>
        <time>2017-10-01T05:39:04Z</time>
      </trkpt>
      <trkpt lat="45.27176" lon="5.83704">
        <ele>553.43200683594</ele>
        <time>2017-10-01T05:39:13Z</time>
      </trkpt>
      <trkpt lat="45.27181" lon="5.83703">
        <ele>552.43200683594</ele>
        <time>2017-10-01T05:39:16Z</time>
      </trkpt>
      <trkpt lat="45.2718" lon="5.83696">
        <ele>553.43200683594</ele>
        <time>2017-10-01T05:39:23Z</time>
      </trkpt>
      <trkpt lat="45.27182" lon="5.8369">
        <ele>557.43200683594</ele>
        <time>2017-10-01T05:39:30Z</time>
      </trkpt>
      <trkpt lat="45.27185" lon="5.83685">
        <ele>558.43200683594</ele>
        <time>2017-10-01T05:39:44Z</time>
      </trkpt>
      <trkpt lat="45.27184" lon="5.83678">
        <ele>562.43200683594</ele>
        <time>2017-10-01T05:39:48Z</time>
      </trkpt>
      <trkpt lat="45.27186" lon="5.83672">
        <ele>563.43200683594</ele>
        <time>2017-10-01T05:39:52Z</time>
      </trkpt>
      <trkpt lat="45.2719" lon="5.83667">
        <ele>560.43200683594</ele>
        <time>2017-10-01T05:39:55Z</time>
      </trkpt>
      <trkpt lat="45.27192" lon="5.83661">
        <ele>564.43200683594</ele>
        <time>2017-10-01T05:39:59Z</time>
      </trkpt>
      <trkpt lat="45.27196" lon="5.83657">
        <ele>564.43200683594</ele>
        <time>2017-10-01T05:40:06Z</time>
      </trkpt>
      <trkpt lat="45.272" lon="5.83651">
        <ele>565.43200683594</ele>
        <time>2017-10-01T05:40:08Z</time>
      </trkpt>
      <trkpt lat="45.27202" lon="5.83645">
        <ele>562.43200683594</ele>
        <time>2017-10-01T05:40:11Z</time>
      </trkpt>
      <trkpt lat="45.27208" lon="5.83642">
        <ele>560.43200683594</ele>
        <time>2017-10-01T05:40:14Z</time>
      </trkpt>
      <trkpt lat="45.27212" lon="5.83636">
        <ele>560.43200683594</ele>
        <time>2017-10-01T05:40:20Z</time>
      </trkpt>
      <trkpt lat="45.27216" lon="5.83629">
        <ele>562.43200683594</ele>
        <time>2017-10-01T05:40:26Z</time>
      </trkpt>
      <trkpt lat="45.2722" lon="5.83627">
        <ele>563.43200683594</ele>
        <time>2017-10-01T05:40:31Z</time>
      </trkpt>
      <trkpt lat="45.27222" lon="5.83621">
        <ele>566.43200683594</ele>
        <time>2017-10-01T05:40:37Z</time>
      </trkpt>
      <trkpt lat="45.27226" lon="5.83613">
        <ele>565.43200683594</ele>
        <time>2017-10-01T05:42:03Z</time>
      </trkpt>
      <trkpt lat="45.27229" lon="5.83606">
        <ele>567.43200683594</ele>
        <time>2017-10-01T05:42:06Z</time>
      </trkpt>
      <trkpt lat="45.27233" lon="5.83601">
        <ele>570.43200683594</ele>
        <time>2017-10-01T05:42:09Z</time>
      </trkpt>
      <trkpt lat="45.27237" lon="5.83596">
        <ele>570.43200683594</ele>
        <time>2017-10-01T05:42:13Z</time>
      </trkpt>
      <trkpt lat="45.27241" lon="5.83594">
        <ele>577.43200683594</ele>
        <time>2017-10-01T05:42:16Z</time>
      </trkpt>
      <trkpt lat="45.27244" lon="5.83585">
        <ele>575.43200683594</ele>
        <time>2017-10-01T05:42:19Z</time>
      </trkpt>
      <trkpt lat="45.27245" lon="5.83578">
        <ele>574.43200683594</ele>
        <time>2017-10-01T05:42:21Z</time>
      </trkpt>
      <trkpt lat="45.27241" lon="5.8357">
        <ele>576.43200683594</ele>
        <time>2017-10-01T05:42:24Z</time>
      </trkpt>
      <trkpt lat="45.27243" lon="5.83563">
        <ele>577.43200683594</ele>
        <time>2017-10-01T05:42:28Z</time>
      </trkpt>
      <trkpt lat="45.27248" lon="5.83558">
        <ele>577.43200683594</ele>
        <time>2017-10-01T05:42:33Z</time>
      </trkpt>
      <trkpt lat="45.27252" lon="5.83553">
        <ele>579.43200683594</ele>
        <time>2017-10-01T05:42:38Z</time>
      </trkpt>
      <trkpt lat="45.27255" lon="5.83548">
        <ele>577.43200683594</ele>
        <time>2017-10-01T05:42:43Z</time>
      </trkpt>
      <trkpt lat="45.27257" lon="5.83541">
        <ele>575.43200683594</ele>
        <time>2017-10-01T05:42:48Z</time>
      </trkpt>
      <trkpt lat="45.2726" lon="5.83537">
        <ele>576.43200683594</ele>
        <time>2017-10-01T05:42:52Z</time>
      </trkpt>
      <trkpt lat="45.27264" lon="5.83532">
        <ele>579.43200683594</ele>
        <time>2017-10-01T05:42:57Z</time>
      </trkpt>
      <trkpt lat="45.27265" lon="5.83526">
        <ele>577.43200683594</ele>
        <time>2017-10-01T05:43:01Z</time>
      </trkpt>
      <trkpt lat="45.27268" lon="5.83521">
        <ele>576.43200683594</ele>
        <time>2017-10-01T05:43:06Z</time>
      </trkpt>
      <trkpt lat="45.27272" lon="5.83518">
        <ele>577.43200683594</ele>
        <time>2017-10-01T05:43:10Z</time>
      </trkpt>
      <trkpt lat="45.27275" lon="5.83513">
        <ele>578.43200683594</ele>
        <time>2017-10-01T05:43:15Z</time>
      </trkpt>
      <trkpt lat="45.27276" lon="5.83505">
        <ele>575.43200683594</ele>
        <time>2017-10-01T05:43:19Z</time>
      </trkpt>
      <trkpt lat="45.27277" lon="5.83496">
        <ele>577.43200683594</ele>
        <time>2017-10-01T05:43:23Z</time>
      </trkpt>
      <trkpt lat="45.27279" lon="5.8349">
        <ele>576.43200683594</ele>
        <time>2017-10-01T05:43:27Z</time>
      </trkpt>
      <trkpt lat="45.27281" lon="5.83483">
        <ele>577.43200683594</ele>
        <time>2017-10-01T05:43:32Z</time>
      </trkpt>
      <trkpt lat="45.27283" lon="5.83477">
        <ele>578.43200683594</ele>
        <time>2017-10-01T05:43:36Z</time>
      </trkpt>
      <trkpt lat="45.27288" lon="5.83473">
        <ele>580.43200683594</ele>
        <time>2017-10-01T05:43:40Z</time>
      </trkpt>
      <trkpt lat="45.27292" lon="5.8347">
        <ele>584.43200683594</ele>
        <time>2017-10-01T05:43:44Z</time>
      </trkpt>
      <trkpt lat="45.27296" lon="5.83466">
        <ele>584.43200683594</ele>
        <time>2017-10-01T05:43:49Z</time>
      </trkpt>
      <trkpt lat="45.273" lon="5.83463">
        <ele>585.43200683594</ele>
        <time>2017-10-01T05:43:52Z</time>
      </trkpt>
      <trkpt lat="45.27302" lon="5.83457">
        <ele>587.43200683594</ele>
        <time>2017-10-01T05:43:56Z</time>
      </trkpt>
      <trkpt lat="45.27303" lon="5.8345">
        <ele>587.43200683594</ele>
        <time>2017-10-01T05:43:59Z</time>
      </trkpt>
      <trkpt lat="45.27304" lon="5.83443">
        <ele>589.43200683594</ele>
        <time>2017-10-01T05:44:05Z</time>
      </trkpt>
      <trkpt lat="45.27305" lon="5.83437">
        <ele>590.43200683594</ele>
        <time>2017-10-01T05:44:10Z</time>
      </trkpt>
      <trkpt lat="45.27309" lon="5.83437">
        <ele>591.43200683594</ele>
        <time>2017-10-01T05:44:29Z</time>
      </trkpt>
      <trkpt lat="45.27314" lon="5.83434">
        <ele>595.43200683594</ele>
        <time>2017-10-01T05:44:47Z</time>
      </trkpt>
      <trkpt lat="45.27321" lon="5.83437">
        <ele>596.43200683594</ele>
        <time>2017-10-01T05:44:49Z</time>
      </trkpt>
      <trkpt lat="45.27324" lon="5.83432">
        <ele>594.43200683594</ele>
        <time>2017-10-01T05:44:52Z</time>
      </trkpt>
      <trkpt lat="45.27329" lon="5.83434">
        <ele>590.43200683594</ele>
        <time>2017-10-01T05:44:55Z</time>
      </trkpt>
      <trkpt lat="45.27333" lon="5.83431">
        <ele>588.43200683594</ele>
        <time>2017-10-01T05:44:58Z</time>
      </trkpt>
      <trkpt lat="45.27338" lon="5.83428">
        <ele>592.43200683594</ele>
        <time>2017-10-01T05:45:01Z</time>
      </trkpt>
      <trkpt lat="45.27343" lon="5.8343">
        <ele>592.43200683594</ele>
        <time>2017-10-01T05:45:04Z</time>
      </trkpt>
      <trkpt lat="45.27348" lon="5.83426">
        <ele>592.43200683594</ele>
        <time>2017-10-01T05:45:06Z</time>
      </trkpt>
      <trkpt lat="45.27352" lon="5.83424">
        <ele>595.43200683594</ele>
        <time>2017-10-01T05:45:09Z</time>
      </trkpt>
      <trkpt lat="45.27357" lon="5.83423">
        <ele>598.43200683594</ele>
        <time>2017-10-01T05:45:14Z</time>
      </trkpt>
      <trkpt lat="45.27362" lon="5.8342">
        <ele>598.43200683594</ele>
        <time>2017-10-01T05:45:19Z</time>
      </trkpt>
      <trkpt lat="45.27366" lon="5.83417">
        <ele>601.43200683594</ele>
        <time>2017-10-01T05:45:24Z</time>
      </trkpt>
      <trkpt lat="45.27369" lon="5.83412">
        <ele>603.43200683594</ele>
        <time>2017-10-01T05:45:28Z</time>
      </trkpt>
      <trkpt lat="45.27373" lon="5.83406">
        <ele>605.43200683594</ele>
        <time>2017-10-01T05:45:32Z</time>
      </trkpt>
      <trkpt lat="45.27376" lon="5.83401">
        <ele>602.43200683594</ele>
        <time>2017-10-01T05:45:36Z</time>
      </trkpt>
      <trkpt lat="45.2738" lon="5.83397">
        <ele>605.43200683594</ele>
        <time>2017-10-01T05:45:41Z</time>
      </trkpt>
      <trkpt lat="45.27383" lon="5.83382">
        <ele>609.43200683594</ele>
        <time>2017-10-01T05:45:48Z</time>
      </trkpt>
      <trkpt lat="45.27386" lon="5.83367">
        <ele>612.43200683594</ele>
        <time>2017-10-01T05:45:52Z</time>
      </trkpt>
      <trkpt lat="45.2739" lon="5.83368">
        <ele>612.43200683594</ele>
        <time>2017-10-01T05:45:57Z</time>
      </trkpt>
      <trkpt lat="45.27396" lon="5.83365">
        <ele>606.43200683594</ele>
        <time>2017-10-01T05:46:00Z</time>
      </trkpt>
      <trkpt lat="45.27404" lon="5.83364">
        <ele>607.43200683594</ele>
        <time>2017-10-01T05:46:03Z</time>
      </trkpt>
      <trkpt lat="45.27408" lon="5.8336">
        <ele>613.43200683594</ele>
        <time>2017-10-01T05:46:13Z</time>
      </trkpt>
      <trkpt lat="45.27413" lon="5.83358">
        <ele>616.43200683594</ele>
        <time>2017-10-01T05:46:16Z</time>
      </trkpt>
      <trkpt lat="45.27415" lon="5.83352">
        <ele>618.43200683594</ele>
        <time>2017-10-01T05:46:20Z</time>
      </trkpt>
      <trkpt lat="45.2742" lon="5.83353">
        <ele>618.43200683594</ele>
        <time>2017-10-01T05:46:24Z</time>
      </trkpt>
      <trkpt lat="45.2742" lon="5.83347">
        <ele>614.43200683594</ele>
        <time>2017-10-01T05:46:27Z</time>
      </trkpt>
      <trkpt lat="45.27425" lon="5.83344">
        <ele>612.43200683594</ele>
        <time>2017-10-01T05:46:30Z</time>
      </trkpt>
      <trkpt lat="45.27426" lon="5.83337">
        <ele>615.43200683594</ele>
        <time>2017-10-01T05:46:33Z</time>
      </trkpt>
      <trkpt lat="45.27432" lon="5.83334">
        <ele>614.43200683594</ele>
        <time>2017-10-01T05:46:37Z</time>
      </trkpt>
      <trkpt lat="45.27438" lon="5.83333">
        <ele>614.43200683594</ele>
        <time>2017-10-01T05:46:42Z</time>
      </trkpt>
      <trkpt lat="45.27443" lon="5.83328">
        <ele>620.43200683594</ele>
        <time>2017-10-01T05:46:46Z</time>
      </trkpt>
      <trkpt lat="45.27449" lon="5.83328">
        <ele>618.43200683594</ele>
        <time>2017-10-01T05:46:52Z</time>
      </trkpt>
      <trkpt lat="45.27454" lon="5.83331">
        <ele>618.43200683594</ele>
        <time>2017-10-01T05:46:55Z</time>
      </trkpt>
      <trkpt lat="45.27458" lon="5.83328">
        <ele>405.43200683594</ele>
        <time>2017-10-01T05:47:00Z</time>
      </trkpt>
      <trkpt lat="45.27465" lon="5.83331">
        <ele>490.43200683594</ele>
        <time>2017-10-01T05:47:04Z</time>
      </trkpt>
      <trkpt lat="45.27469" lon="5.83335">
        <ele>516.43200683594</ele>
        <time>2017-10-01T05:47:07Z</time>
      </trkpt>
      <trkpt lat="45.27474" lon="5.83338">
        <ele>541.43200683594</ele>
        <time>2017-10-01T05:47:10Z</time>
      </trkpt>
      <trkpt lat="45.27478" lon="5.83344">
        <ele>573.43200683594</ele>
        <time>2017-10-01T05:47:13Z</time>
      </trkpt>
      <trkpt lat="45.27485" lon="5.83351">
        <ele>581.43200683594</ele>
        <time>2017-10-01T05:47:15Z</time>
      </trkpt>
      <trkpt lat="45.27489" lon="5.83348">
        <ele>587.43200683594</ele>
        <time>2017-10-01T05:47:17Z</time>
      </trkpt>
      <trkpt lat="45.27492" lon="5.83355">
        <ele>544.43200683594</ele>
        <time>2017-10-01T05:47:25Z</time>
      </trkpt>
      <trkpt lat="45.27498" lon="5.8336">
        <ele>567.43200683594</ele>
        <time>2017-10-01T05:47:28Z</time>
      </trkpt>
      <trkpt lat="45.27506" lon="5.8336">
        <ele>598.43200683594</ele>
        <time>2017-10-01T05:47:33Z</time>
      </trkpt>
      <trkpt lat="45.27505" lon="5.83352">
        <ele>604.43200683594</ele>
        <time>2017-10-01T05:47:37Z</time>
      </trkpt>
      <trkpt lat="45.27515" lon="5.83353">
        <ele>616.43200683594</ele>
        <time>2017-10-01T05:47:43Z</time>
      </trkpt>
      <trkpt lat="45.27519" lon="5.83348">
        <ele>623.43200683594</ele>
        <time>2017-10-01T05:47:46Z</time>
      </trkpt>
      <trkpt lat="45.27524" lon="5.83344">
        <ele>628.43200683594</ele>
        <time>2017-10-01T05:47:51Z</time>
      </trkpt>
      <trkpt lat="45.27528" lon="5.83337">
        <ele>634.43200683594</ele>
        <time>2017-10-01T05:47:54Z</time>
      </trkpt>
      <trkpt lat="45.27532" lon="5.83341">
        <ele>640.43200683594</ele>
        <time>2017-10-01T05:48:00Z</time>
      </trkpt>
      <trkpt lat="45.27537" lon="5.83342">
        <ele>638.43200683594</ele>
        <time>2017-10-01T05:48:03Z</time>
      </trkpt>
      <trkpt lat="45.27543" lon="5.83344">
        <ele>637.43200683594</ele>
        <time>2017-10-01T05:48:07Z</time>
      </trkpt>
      <trkpt lat="45.27548" lon="5.8334">
        <ele>637.43200683594</ele>
        <time>2017-10-01T05:48:11Z</time>
      </trkpt>
      <trkpt lat="45.27553" lon="5.83338">
        <ele>635.43200683594</ele>
        <time>2017-10-01T05:48:13Z</time>
      </trkpt>
      <trkpt lat="45.2756" lon="5.83339">
        <ele>633.43200683594</ele>
        <time>2017-10-01T05:48:17Z</time>
      </trkpt>
      <trkpt lat="45.27564" lon="5.83337">
        <ele>642.43200683594</ele>
        <time>2017-10-01T05:48:20Z</time>
      </trkpt>
      <trkpt lat="45.2757" lon="5.83335">
        <ele>644.43200683594</ele>
        <time>2017-10-01T05:48:24Z</time>
      </trkpt>
      <trkpt lat="45.27576" lon="5.83334">
        <ele>644.43200683594</ele>
        <time>2017-10-01T05:48:26Z</time>
      </trkpt>
      <trkpt lat="45.27581" lon="5.83332">
        <ele>648.43200683594</ele>
        <time>2017-10-01T05:48:34Z</time>
      </trkpt>
      <trkpt lat="45.27587" lon="5.83329">
        <ele>649.43200683594</ele>
        <time>2017-10-01T05:48:38Z</time>
      </trkpt>
      <trkpt lat="45.27591" lon="5.83325">
        <ele>651.43200683594</ele>
        <time>2017-10-01T05:48:42Z</time>
      </trkpt>
      <trkpt lat="45.27594" lon="5.8332">
        <ele>654.43200683594</ele>
        <time>2017-10-01T05:48:48Z</time>
      </trkpt>
      <trkpt lat="45.276" lon="5.83315">
        <ele>657.43200683594</ele>
        <time>2017-10-01T05:48:52Z</time>
      </trkpt>
      <trkpt lat="45.27604" lon="5.83308">
        <ele>656.43200683594</ele>
        <time>2017-10-01T05:48:58Z</time>
      </trkpt>
      <trkpt lat="45.27607" lon="5.83303">
        <ele>656.43200683594</ele>
        <time>2017-10-01T05:49:02Z</time>
      </trkpt>
      <trkpt lat="45.27612" lon="5.83297">
        <ele>657.43200683594</ele>
        <time>2017-10-01T05:49:07Z</time>
      </trkpt>
      <trkpt lat="45.27616" lon="5.83292">
        <ele>658.43200683594</ele>
        <time>2017-10-01T05:49:12Z</time>
      </trkpt>
      <trkpt lat="45.2762" lon="5.83287">
        <ele>657.43200683594</ele>
        <time>2017-10-01T05:49:17Z</time>
      </trkpt>
      <trkpt lat="45.27623" lon="5.83282">
        <ele>658.43200683594</ele>
        <time>2017-10-01T05:49:21Z</time>
      </trkpt>
      <trkpt lat="45.27627" lon="5.83279">
        <ele>659.43200683594</ele>
        <time>2017-10-01T05:49:26Z</time>
      </trkpt>
      <trkpt lat="45.27631" lon="5.83276">
        <ele>660.43200683594</ele>
        <time>2017-10-01T05:49:31Z</time>
      </trkpt>
      <trkpt lat="45.27636" lon="5.83273">
        <ele>661.43200683594</ele>
        <time>2017-10-01T05:49:35Z</time>
      </trkpt>
      <trkpt lat="45.2764" lon="5.83272">
        <ele>662.43298339844</ele>
        <time>2017-10-01T05:49:39Z</time>
      </trkpt>
      <trkpt lat="45.27644" lon="5.83268">
        <ele>662.43298339844</ele>
        <time>2017-10-01T05:49:43Z</time>
      </trkpt>
      <trkpt lat="45.27649" lon="5.83267">
        <ele>662.43298339844</ele>
        <time>2017-10-01T05:49:47Z</time>
      </trkpt>
      <trkpt lat="45.27654" lon="5.83267">
        <ele>663.43298339844</ele>
        <time>2017-10-01T05:49:52Z</time>
      </trkpt>
      <trkpt lat="45.27658" lon="5.83265">
        <ele>665.43298339844</ele>
        <time>2017-10-01T05:49:54Z</time>
      </trkpt>
      <trkpt lat="45.27663" lon="5.83266">
        <ele>663.43298339844</ele>
        <time>2017-10-01T05:49:59Z</time>
      </trkpt>
      <trkpt lat="45.27669" lon="5.83268">
        <ele>663.43298339844</ele>
        <time>2017-10-01T05:50:02Z</time>
      </trkpt>
      <trkpt lat="45.27675" lon="5.83266">
        <ele>664.43298339844</ele>
        <time>2017-10-01T05:50:06Z</time>
      </trkpt>
      <trkpt lat="45.2768" lon="5.83263">
        <ele>666.43298339844</ele>
        <time>2017-10-01T05:50:10Z</time>
      </trkpt>
      <trkpt lat="45.27687" lon="5.83261">
        <ele>665.43298339844</ele>
        <time>2017-10-01T05:50:14Z</time>
      </trkpt>
      <trkpt lat="45.27692" lon="5.8326">
        <ele>664.43298339844</ele>
        <time>2017-10-01T05:50:16Z</time>
      </trkpt>
      <trkpt lat="45.27696" lon="5.83262">
        <ele>664.43298339844</ele>
        <time>2017-10-01T05:50:23Z</time>
      </trkpt>
      <trkpt lat="45.27699" lon="5.83256">
        <ele>666.43298339844</ele>
        <time>2017-10-01T05:50:26Z</time>
      </trkpt>
      <trkpt lat="45.27704" lon="5.83253">
        <ele>665.43298339844</ele>
        <time>2017-10-01T05:50:29Z</time>
      </trkpt>
      <trkpt lat="45.27709" lon="5.83255">
        <ele>666.43298339844</ele>
        <time>2017-10-01T05:50:32Z</time>
      </trkpt>
      <trkpt lat="45.27716" lon="5.83254">
        <ele>667.43298339844</ele>
        <time>2017-10-01T05:50:35Z</time>
      </trkpt>
      <trkpt lat="45.27725" lon="5.83246">
        <ele>668.43298339844</ele>
        <time>2017-10-01T05:50:44Z</time>
      </trkpt>
      <trkpt lat="45.27729" lon="5.83243">
        <ele>669.43298339844</ele>
        <time>2017-10-01T05:50:48Z</time>
      </trkpt>
      <trkpt lat="45.27734" lon="5.83243">
        <ele>672.43298339844</ele>
        <time>2017-10-01T05:50:52Z</time>
      </trkpt>
      <trkpt lat="45.27739" lon="5.83241">
        <ele>671.43298339844</ele>
        <time>2017-10-01T05:50:56Z</time>
      </trkpt>
      <trkpt lat="45.27743" lon="5.83237">
        <ele>675.43298339844</ele>
        <time>2017-10-01T05:50:59Z</time>
      </trkpt>
      <trkpt lat="45.27747" lon="5.83234">
        <ele>677.43298339844</ele>
        <time>2017-10-01T05:51:04Z</time>
      </trkpt>
      <trkpt lat="45.27786" lon="5.83226">
        <ele>704.43298339844</ele>
        <time>2017-10-01T05:51:37Z</time>
      </trkpt>
      <trkpt lat="45.27791" lon="5.83225">
        <ele>707.43298339844</ele>
        <time>2017-10-01T05:51:38Z</time>
      </trkpt>
      <trkpt lat="45.27794" lon="5.8323">
        <ele>698.43298339844</ele>
        <time>2017-10-01T05:51:42Z</time>
      </trkpt>
      <trkpt lat="45.27799" lon="5.83232">
        <ele>697.43298339844</ele>
        <time>2017-10-01T05:51:46Z</time>
      </trkpt>
      <trkpt lat="45.27804" lon="5.83233">
        <ele>692.43298339844</ele>
        <time>2017-10-01T05:51:51Z</time>
      </trkpt>
      <trkpt lat="45.27809" lon="5.83231">
        <ele>693.43298339844</ele>
        <time>2017-10-01T05:51:56Z</time>
      </trkpt>
      <trkpt lat="45.27814" lon="5.8323">
        <ele>693.43298339844</ele>
        <time>2017-10-01T05:52:01Z</time>
      </trkpt>
      <trkpt lat="45.27819" lon="5.83226">
        <ele>693.43298339844</ele>
        <time>2017-10-01T05:52:06Z</time>
      </trkpt>
      <trkpt lat="45.27824" lon="5.83223">
        <ele>694.43298339844</ele>
        <time>2017-10-01T05:52:10Z</time>
      </trkpt>
      <trkpt lat="45.27829" lon="5.83219">
        <ele>696.43298339844</ele>
        <time>2017-10-01T05:52:15Z</time>
      </trkpt>
      <trkpt lat="45.27835" lon="5.83216">
        <ele>697.43298339844</ele>
        <time>2017-10-01T05:52:22Z</time>
      </trkpt>
      <trkpt lat="45.27839" lon="5.83213">
        <ele>697.43298339844</ele>
        <time>2017-10-01T05:52:26Z</time>
      </trkpt>
      <trkpt lat="45.27844" lon="5.8321">
        <ele>697.43298339844</ele>
        <time>2017-10-01T05:52:30Z</time>
      </trkpt>
      <trkpt lat="45.27849" lon="5.8321">
        <ele>699.43298339844</ele>
        <time>2017-10-01T05:52:34Z</time>
      </trkpt>
      <trkpt lat="45.27854" lon="5.83208">
        <ele>701.43298339844</ele>
        <time>2017-10-01T05:52:38Z</time>
      </trkpt>
      <trkpt lat="45.27858" lon="5.83208">
        <ele>700.43298339844</ele>
        <time>2017-10-01T05:52:42Z</time>
      </trkpt>
      <trkpt lat="45.27863" lon="5.83209">
        <ele>700.43298339844</ele>
        <time>2017-10-01T05:52:46Z</time>
      </trkpt>
      <trkpt lat="45.27869" lon="5.83209">
        <ele>701.43298339844</ele>
        <time>2017-10-01T05:52:51Z</time>
      </trkpt>
      <trkpt lat="45.27874" lon="5.83209">
        <ele>699.43298339844</ele>
        <time>2017-10-01T05:52:55Z</time>
      </trkpt>
      <trkpt lat="45.2788" lon="5.83208">
        <ele>700.43298339844</ele>
        <time>2017-10-01T05:53:00Z</time>
      </trkpt>
      <trkpt lat="45.27884" lon="5.83211">
        <ele>701.43298339844</ele>
        <time>2017-10-01T05:53:03Z</time>
      </trkpt>
      <trkpt lat="45.27892" lon="5.83213">
        <ele>702.43298339844</ele>
        <time>2017-10-01T05:53:09Z</time>
      </trkpt>
      <trkpt lat="45.27897" lon="5.83216">
        <ele>702.43298339844</ele>
        <time>2017-10-01T05:53:11Z</time>
      </trkpt>
      <trkpt lat="45.27903" lon="5.83217">
        <ele>701.43298339844</ele>
        <time>2017-10-01T05:53:14Z</time>
      </trkpt>
      <trkpt lat="45.27908" lon="5.83215">
        <ele>701.43298339844</ele>
        <time>2017-10-01T05:53:16Z</time>
      </trkpt>
      <trkpt lat="45.27914" lon="5.83216">
        <ele>704.43298339844</ele>
        <time>2017-10-01T05:53:18Z</time>
      </trkpt>
      <trkpt lat="45.27919" lon="5.83211">
        <ele>704.43298339844</ele>
        <time>2017-10-01T05:53:20Z</time>
      </trkpt>
      <trkpt lat="45.27923" lon="5.83208">
        <ele>705.43298339844</ele>
        <time>2017-10-01T05:53:24Z</time>
      </trkpt>
      <trkpt lat="45.27929" lon="5.83206">
        <ele>704.43298339844</ele>
        <time>2017-10-01T05:53:28Z</time>
      </trkpt>
      <trkpt lat="45.27935" lon="5.83204">
        <ele>707.43298339844</ele>
        <time>2017-10-01T05:53:31Z</time>
      </trkpt>
      <trkpt lat="45.27944" lon="5.83206">
        <ele>711.43298339844</ele>
        <time>2017-10-01T05:53:34Z</time>
      </trkpt>
      <trkpt lat="45.2795" lon="5.83205">
        <ele>710.43298339844</ele>
        <time>2017-10-01T05:53:38Z</time>
      </trkpt>
      <trkpt lat="45.27955" lon="5.83205">
        <ele>712.43298339844</ele>
        <time>2017-10-01T05:53:43Z</time>
      </trkpt>
      <trkpt lat="45.2796" lon="5.83207">
        <ele>713.43298339844</ele>
        <time>2017-10-01T05:53:47Z</time>
      </trkpt>
      <trkpt lat="45.27965" lon="5.83206">
        <ele>715.43298339844</ele>
        <time>2017-10-01T05:53:52Z</time>
      </trkpt>
      <trkpt lat="45.27969" lon="5.83202">
        <ele>714.43298339844</ele>
        <time>2017-10-01T05:53:55Z</time>
      </trkpt>
      <trkpt lat="45.27977" lon="5.83201">
        <ele>717.43298339844</ele>
        <time>2017-10-01T05:54:02Z</time>
      </trkpt>
      <trkpt lat="45.27982" lon="5.83199">
        <ele>717.43298339844</ele>
        <time>2017-10-01T05:54:07Z</time>
      </trkpt>
      <trkpt lat="45.27987" lon="5.83201">
        <ele>717.43298339844</ele>
        <time>2017-10-01T05:54:09Z</time>
      </trkpt>
      <trkpt lat="45.27989" lon="5.83191">
        <ele>719.43298339844</ele>
        <time>2017-10-01T05:54:14Z</time>
      </trkpt>
      <trkpt lat="45.27992" lon="5.83186">
        <ele>719.43298339844</ele>
        <time>2017-10-01T05:54:16Z</time>
      </trkpt>
      <trkpt lat="45.27997" lon="5.83184">
        <ele>719.43298339844</ele>
        <time>2017-10-01T05:54:18Z</time>
      </trkpt>
      <trkpt lat="45.28002" lon="5.83185">
        <ele>721.43298339844</ele>
        <time>2017-10-01T05:54:25Z</time>
      </trkpt>
      <trkpt lat="45.28007" lon="5.83184">
        <ele>724.43298339844</ele>
        <time>2017-10-01T05:54:30Z</time>
      </trkpt>
      <trkpt lat="45.28012" lon="5.83185">
        <ele>723.43298339844</ele>
        <time>2017-10-01T05:54:35Z</time>
      </trkpt>
      <trkpt lat="45.28017" lon="5.83186">
        <ele>723.43298339844</ele>
        <time>2017-10-01T05:54:37Z</time>
      </trkpt>
      <trkpt lat="45.28023" lon="5.83184">
        <ele>724.43298339844</ele>
        <time>2017-10-01T05:54:40Z</time>
      </trkpt>
      <trkpt lat="45.28028" lon="5.83187">
        <ele>726.43298339844</ele>
        <time>2017-10-01T05:54:43Z</time>
      </trkpt>
      <trkpt lat="45.28034" lon="5.83189">
        <ele>729.43298339844</ele>
        <time>2017-10-01T05:54:48Z</time>
      </trkpt>
      <trkpt lat="45.28038" lon="5.83192">
        <ele>732.43298339844</ele>
        <time>2017-10-01T05:54:55Z</time>
      </trkpt>
      <trkpt lat="45.28043" lon="5.83193">
        <ele>735.43298339844</ele>
        <time>2017-10-01T05:54:59Z</time>
      </trkpt>
      <trkpt lat="45.28047" lon="5.83197">
        <ele>735.43298339844</ele>
        <time>2017-10-01T05:55:02Z</time>
      </trkpt>
      <trkpt lat="45.28049" lon="5.83203">
        <ele>732.43298339844</ele>
        <time>2017-10-01T05:55:04Z</time>
      </trkpt>
      <trkpt lat="45.28054" lon="5.83204">
        <ele>732.43298339844</ele>
        <time>2017-10-01T05:55:08Z</time>
      </trkpt>
      <trkpt lat="45.28058" lon="5.83208">
        <ele>730.43298339844</ele>
        <time>2017-10-01T05:55:11Z</time>
      </trkpt>
      <trkpt lat="45.28064" lon="5.83207">
        <ele>731.43298339844</ele>
        <time>2017-10-01T05:55:14Z</time>
      </trkpt>
      <trkpt lat="45.28069" lon="5.83209">
        <ele>730.43298339844</ele>
        <time>2017-10-01T05:55:18Z</time>
      </trkpt>
      <trkpt lat="45.28074" lon="5.83209">
        <ele>730.43298339844</ele>
        <time>2017-10-01T05:55:21Z</time>
      </trkpt>
      <trkpt lat="45.28081" lon="5.83207">
        <ele>731.43298339844</ele>
        <time>2017-10-01T05:55:25Z</time>
      </trkpt>
      <trkpt lat="45.28084" lon="5.83212">
        <ele>732.43298339844</ele>
        <time>2017-10-01T05:55:29Z</time>
      </trkpt>
      <trkpt lat="45.2809" lon="5.8321">
        <ele>734.43298339844</ele>
        <time>2017-10-01T05:55:31Z</time>
      </trkpt>
      <trkpt lat="45.28099" lon="5.83209">
        <ele>734.43298339844</ele>
        <time>2017-10-01T05:55:33Z</time>
      </trkpt>
      <trkpt lat="45.28104" lon="5.83207">
        <ele>737.43298339844</ele>
        <time>2017-10-01T05:55:35Z</time>
      </trkpt>
      <trkpt lat="45.28109" lon="5.83205">
        <ele>743.43298339844</ele>
        <time>2017-10-01T05:55:48Z</time>
      </trkpt>
      <trkpt lat="45.28114" lon="5.83202">
        <ele>746.43298339844</ele>
        <time>2017-10-01T05:55:52Z</time>
      </trkpt>
      <trkpt lat="45.28119" lon="5.83203">
        <ele>744.43298339844</ele>
        <time>2017-10-01T05:55:58Z</time>
      </trkpt>
      <trkpt lat="45.28122" lon="5.83198">
        <ele>748.43298339844</ele>
        <time>2017-10-01T05:56:01Z</time>
      </trkpt>
      <trkpt lat="45.28127" lon="5.83197">
        <ele>750.43298339844</ele>
        <time>2017-10-01T05:56:06Z</time>
      </trkpt>
      <trkpt lat="45.28131" lon="5.83201">
        <ele>752.43298339844</ele>
        <time>2017-10-01T05:56:09Z</time>
      </trkpt>
      <trkpt lat="45.28136" lon="5.83202">
        <ele>752.43298339844</ele>
        <time>2017-10-01T05:56:13Z</time>
      </trkpt>
      <trkpt lat="45.2814" lon="5.83199">
        <ele>756.43298339844</ele>
        <time>2017-10-01T05:56:18Z</time>
      </trkpt>
      <trkpt lat="45.28144" lon="5.83196">
        <ele>758.43298339844</ele>
        <time>2017-10-01T05:56:22Z</time>
      </trkpt>
      <trkpt lat="45.28149" lon="5.83193">
        <ele>760.43298339844</ele>
        <time>2017-10-01T05:56:27Z</time>
      </trkpt>
      <trkpt lat="45.28153" lon="5.83188">
        <ele>761.43298339844</ele>
        <time>2017-10-01T05:56:32Z</time>
      </trkpt>
      <trkpt lat="45.28157" lon="5.83184">
        <ele>759.43298339844</ele>
        <time>2017-10-01T05:56:37Z</time>
      </trkpt>
      <trkpt lat="45.28162" lon="5.83183">
        <ele>760.43298339844</ele>
        <time>2017-10-01T05:56:43Z</time>
      </trkpt>
      <trkpt lat="45.28167" lon="5.83184">
        <ele>759.43298339844</ele>
        <time>2017-10-01T05:56:47Z</time>
      </trkpt>
      <trkpt lat="45.28172" lon="5.83183">
        <ele>761.43298339844</ele>
        <time>2017-10-01T05:56:52Z</time>
      </trkpt>
      <trkpt lat="45.28177" lon="5.83182">
        <ele>760.43298339844</ele>
        <time>2017-10-01T05:56:57Z</time>
      </trkpt>
      <trkpt lat="45.28181" lon="5.83177">
        <ele>762.43402099609</ele>
        <time>2017-10-01T05:57:01Z</time>
      </trkpt>
      <trkpt lat="45.28186" lon="5.83178">
        <ele>764.43402099609</ele>
        <time>2017-10-01T05:57:03Z</time>
      </trkpt>
      <trkpt lat="45.28191" lon="5.83176">
        <ele>764.43402099609</ele>
        <time>2017-10-01T05:57:08Z</time>
      </trkpt>
      <trkpt lat="45.28195" lon="5.83179">
        <ele>767.43402099609</ele>
        <time>2017-10-01T05:57:12Z</time>
      </trkpt>
      <trkpt lat="45.282" lon="5.83179">
        <ele>768.43402099609</ele>
        <time>2017-10-01T05:57:16Z</time>
      </trkpt>
      <trkpt lat="45.28205" lon="5.83182">
        <ele>768.43402099609</ele>
        <time>2017-10-01T05:57:21Z</time>
      </trkpt>
      <trkpt lat="45.28209" lon="5.83185">
        <ele>769.43402099609</ele>
        <time>2017-10-01T05:57:24Z</time>
      </trkpt>
      <trkpt lat="45.28214" lon="5.83181">
        <ele>774.43402099609</ele>
        <time>2017-10-01T05:57:28Z</time>
      </trkpt>
      <trkpt lat="45.28218" lon="5.83177">
        <ele>775.43402099609</ele>
        <time>2017-10-01T05:57:31Z</time>
      </trkpt>
      <trkpt lat="45.28224" lon="5.83174">
        <ele>773.43402099609</ele>
        <time>2017-10-01T05:57:34Z</time>
      </trkpt>
      <trkpt lat="45.28229" lon="5.83175">
        <ele>773.43402099609</ele>
        <time>2017-10-01T05:57:38Z</time>
      </trkpt>
      <trkpt lat="45.28233" lon="5.83171">
        <ele>774.43402099609</ele>
        <time>2017-10-01T05:57:39Z</time>
      </trkpt>
      <trkpt lat="45.28237" lon="5.83163">
        <ele>774.43402099609</ele>
        <time>2017-10-01T05:57:42Z</time>
      </trkpt>
      <trkpt lat="45.28238" lon="5.83154">
        <ele>775.43402099609</ele>
        <time>2017-10-01T05:57:44Z</time>
      </trkpt>
      <trkpt lat="45.28244" lon="5.83153">
        <ele>782.43402099609</ele>
        <time>2017-10-01T05:57:49Z</time>
      </trkpt>
      <trkpt lat="45.28246" lon="5.83145">
        <ele>787.43402099609</ele>
        <time>2017-10-01T05:57:55Z</time>
      </trkpt>
      <trkpt lat="45.28249" lon="5.83138">
        <ele>789.43402099609</ele>
        <time>2017-10-01T05:57:57Z</time>
      </trkpt>
      <trkpt lat="45.28253" lon="5.83135">
        <ele>792.43402099609</ele>
        <time>2017-10-01T05:58:04Z</time>
      </trkpt>
      <trkpt lat="45.28259" lon="5.83133">
        <ele>792.43402099609</ele>
        <time>2017-10-01T05:58:08Z</time>
      </trkpt>
      <trkpt lat="45.28263" lon="5.83129">
        <ele>794.43402099609</ele>
        <time>2017-10-01T05:58:12Z</time>
      </trkpt>
      <trkpt lat="45.28268" lon="5.83129">
        <ele>795.43402099609</ele>
        <time>2017-10-01T05:58:15Z</time>
      </trkpt>
      <trkpt lat="45.28273" lon="5.83133">
        <ele>800.43402099609</ele>
        <time>2017-10-01T05:58:20Z</time>
      </trkpt>
      <trkpt lat="45.28276" lon="5.83139">
        <ele>801.43402099609</ele>
        <time>2017-10-01T05:58:23Z</time>
      </trkpt>
      <trkpt lat="45.28279" lon="5.83144">
        <ele>804.43402099609</ele>
        <time>2017-10-01T05:58:31Z</time>
      </trkpt>
      <trkpt lat="45.28285" lon="5.83145">
        <ele>809.43402099609</ele>
        <time>2017-10-01T05:58:36Z</time>
      </trkpt>
      <trkpt lat="45.28292" lon="5.83146">
        <ele>811.43402099609</ele>
        <time>2017-10-01T05:58:41Z</time>
      </trkpt>
      <trkpt lat="45.28297" lon="5.83145">
        <ele>812.43402099609</ele>
        <time>2017-10-01T05:58:43Z</time>
      </trkpt>
      <trkpt lat="45.28303" lon="5.83145">
        <ele>811.43402099609</ele>
        <time>2017-10-01T05:58:46Z</time>
      </trkpt>
      <trkpt lat="45.28307" lon="5.83144">
        <ele>813.43402099609</ele>
        <time>2017-10-01T05:58:52Z</time>
      </trkpt>
      <trkpt lat="45.28312" lon="5.83149">
        <ele>815.43402099609</ele>
        <time>2017-10-01T05:58:58Z</time>
      </trkpt>
      <trkpt lat="45.2832" lon="5.83152">
        <ele>815.43402099609</ele>
        <time>2017-10-01T05:59:02Z</time>
      </trkpt>
      <trkpt lat="45.28321" lon="5.83158">
        <ele>817.43402099609</ele>
        <time>2017-10-01T05:59:04Z</time>
      </trkpt>
      <trkpt lat="45.28321" lon="5.83166">
        <ele>818.43402099609</ele>
        <time>2017-10-01T05:59:06Z</time>
      </trkpt>
      <trkpt lat="45.28326" lon="5.83162">
        <ele>817.43402099609</ele>
        <time>2017-10-01T05:59:08Z</time>
      </trkpt>
      <trkpt lat="45.28325" lon="5.83169">
        <ele>818.43402099609</ele>
        <time>2017-10-01T05:59:12Z</time>
      </trkpt>
      <trkpt lat="45.28333" lon="5.8317">
        <ele>817.43402099609</ele>
        <time>2017-10-01T05:59:14Z</time>
      </trkpt>
      <trkpt lat="45.28341" lon="5.83173">
        <ele>817.43402099609</ele>
        <time>2017-10-01T05:59:17Z</time>
      </trkpt>
      <trkpt lat="45.28345" lon="5.83171">
        <ele>818.43402099609</ele>
        <time>2017-10-01T05:59:19Z</time>
      </trkpt>
      <trkpt lat="45.28352" lon="5.83164">
        <ele>819.43402099609</ele>
        <time>2017-10-01T05:59:27Z</time>
      </trkpt>
      <trkpt lat="45.28357" lon="5.83161">
        <ele>817.43402099609</ele>
        <time>2017-10-01T05:59:33Z</time>
      </trkpt>
      <trkpt lat="45.28359" lon="5.83155">
        <ele>820.43402099609</ele>
        <time>2017-10-01T05:59:37Z</time>
      </trkpt>
      <trkpt lat="45.28361" lon="5.83149">
        <ele>820.43402099609</ele>
        <time>2017-10-01T05:59:39Z</time>
      </trkpt>
      <trkpt lat="45.28363" lon="5.83143">
        <ele>820.43402099609</ele>
        <time>2017-10-01T05:59:41Z</time>
      </trkpt>
      <trkpt lat="45.28369" lon="5.8314">
        <ele>818.43402099609</ele>
        <time>2017-10-01T05:59:44Z</time>
      </trkpt>
      <trkpt lat="45.28375" lon="5.83137">
        <ele>819.43402099609</ele>
        <time>2017-10-01T05:59:49Z</time>
      </trkpt>
      <trkpt lat="45.28378" lon="5.83132">
        <ele>817.43402099609</ele>
        <time>2017-10-01T05:59:53Z</time>
      </trkpt>
      <trkpt lat="45.28384" lon="5.83126">
        <ele>817.43402099609</ele>
        <time>2017-10-01T05:59:56Z</time>
      </trkpt>
      <trkpt lat="45.28392" lon="5.83129">
        <ele>817.43402099609</ele>
        <time>2017-10-01T06:00:00Z</time>
      </trkpt>
      <trkpt lat="45.28392" lon="5.83122">
        <ele>816.43402099609</ele>
        <time>2017-10-01T06:00:04Z</time>
      </trkpt>
      <trkpt lat="45.28395" lon="5.83117">
        <ele>816.43402099609</ele>
        <time>2017-10-01T06:00:06Z</time>
      </trkpt>
      <trkpt lat="45.28403" lon="5.83119">
        <ele>819.43402099609</ele>
        <time>2017-10-01T06:00:10Z</time>
      </trkpt>
      <trkpt lat="45.28407" lon="5.83118">
        <ele>821.43402099609</ele>
        <time>2017-10-01T06:00:16Z</time>
      </trkpt>
      <trkpt lat="45.28413" lon="5.83116">
        <ele>822.43402099609</ele>
        <time>2017-10-01T06:00:22Z</time>
      </trkpt>
      <trkpt lat="45.28418" lon="5.83118">
        <ele>822.43402099609</ele>
        <time>2017-10-01T06:00:27Z</time>
      </trkpt>
      <trkpt lat="45.28424" lon="5.83116">
        <ele>829.43402099609</ele>
        <time>2017-10-01T06:00:31Z</time>
      </trkpt>
      <trkpt lat="45.28428" lon="5.83112">
        <ele>829.43402099609</ele>
        <time>2017-10-01T06:00:34Z</time>
      </trkpt>
      <trkpt lat="45.28433" lon="5.83112">
        <ele>829.43402099609</ele>
        <time>2017-10-01T06:00:36Z</time>
      </trkpt>
      <trkpt lat="45.28439" lon="5.83116">
        <ele>832.43402099609</ele>
        <time>2017-10-01T06:00:41Z</time>
      </trkpt>
      <trkpt lat="45.28443" lon="5.83111">
        <ele>834.43402099609</ele>
        <time>2017-10-01T06:00:45Z</time>
      </trkpt>
      <trkpt lat="45.28449" lon="5.83108">
        <ele>833.43402099609</ele>
        <time>2017-10-01T06:00:50Z</time>
      </trkpt>
      <trkpt lat="45.28453" lon="5.83107">
        <ele>835.43402099609</ele>
        <time>2017-10-01T06:00:54Z</time>
      </trkpt>
      <trkpt lat="45.28458" lon="5.83107">
        <ele>833.43402099609</ele>
        <time>2017-10-01T06:00:59Z</time>
      </trkpt>
      <trkpt lat="45.28462" lon="5.83113">
        <ele>833.43402099609</ele>
        <time>2017-10-01T06:01:01Z</time>
      </trkpt>
      <trkpt lat="45.28471" lon="5.83109">
        <ele>835.43402099609</ele>
        <time>2017-10-01T06:01:03Z</time>
      </trkpt>
      <trkpt lat="45.28477" lon="5.83107">
        <ele>837.43402099609</ele>
        <time>2017-10-01T06:01:06Z</time>
      </trkpt>
      <trkpt lat="45.28482" lon="5.83105">
        <ele>833.43402099609</ele>
        <time>2017-10-01T06:01:09Z</time>
      </trkpt>
      <trkpt lat="45.28488" lon="5.83108">
        <ele>836.43402099609</ele>
        <time>2017-10-01T06:01:15Z</time>
      </trkpt>
      <trkpt lat="45.28493" lon="5.83108">
        <ele>837.43402099609</ele>
        <time>2017-10-01T06:01:17Z</time>
      </trkpt>
      <trkpt lat="45.28499" lon="5.83109">
        <ele>837.43402099609</ele>
        <time>2017-10-01T06:01:25Z</time>
      </trkpt>
      <trkpt lat="45.28505" lon="5.83108">
        <ele>838.43402099609</ele>
        <time>2017-10-01T06:01:27Z</time>
      </trkpt>
      <trkpt lat="45.28506" lon="5.83118">
        <ele>839.43402099609</ele>
        <time>2017-10-01T06:01:30Z</time>
      </trkpt>
      <trkpt lat="45.2851" lon="5.83114">
        <ele>839.43402099609</ele>
        <time>2017-10-01T06:01:33Z</time>
      </trkpt>
      <trkpt lat="45.28514" lon="5.83117">
        <ele>841.43402099609</ele>
        <time>2017-10-01T06:01:38Z</time>
      </trkpt>
      <trkpt lat="45.2852" lon="5.83118">
        <ele>839.43402099609</ele>
        <time>2017-10-01T06:01:42Z</time>
      </trkpt>
      <trkpt lat="45.28524" lon="5.83121">
        <ele>839.43402099609</ele>
        <time>2017-10-01T06:01:45Z</time>
      </trkpt>
      <trkpt lat="45.2853" lon="5.83123">
        <ele>842.43402099609</ele>
        <time>2017-10-01T06:01:50Z</time>
      </trkpt>
      <trkpt lat="45.28534" lon="5.83125">
        <ele>845.43402099609</ele>
        <time>2017-10-01T06:01:52Z</time>
      </trkpt>
      <trkpt lat="45.2854" lon="5.8313">
        <ele>848.43402099609</ele>
        <time>2017-10-01T06:01:57Z</time>
      </trkpt>
      <trkpt lat="45.28546" lon="5.83128">
        <ele>852.43402099609</ele>
        <time>2017-10-01T06:02:02Z</time>
      </trkpt>
      <trkpt lat="45.28552" lon="5.83127">
        <ele>853.43402099609</ele>
        <time>2017-10-01T06:02:09Z</time>
      </trkpt>
      <trkpt lat="45.28557" lon="5.83127">
        <ele>855.43402099609</ele>
        <time>2017-10-01T06:02:16Z</time>
      </trkpt>
      <trkpt lat="45.28561" lon="5.83128">
        <ele>856.43402099609</ele>
        <time>2017-10-01T06:02:19Z</time>
      </trkpt>
      <trkpt lat="45.28566" lon="5.83127">
        <ele>856.43402099609</ele>
        <time>2017-10-01T06:02:24Z</time>
      </trkpt>
      <trkpt lat="45.2857" lon="5.83129">
        <ele>858.43402099609</ele>
        <time>2017-10-01T06:02:27Z</time>
      </trkpt>
      <trkpt lat="45.28576" lon="5.83128">
        <ele>860.43402099609</ele>
        <time>2017-10-01T06:02:29Z</time>
      </trkpt>
      <trkpt lat="45.2858" lon="5.83125">
        <ele>861.43402099609</ele>
        <time>2017-10-01T06:02:33Z</time>
      </trkpt>
      <trkpt lat="45.28585" lon="5.83122">
        <ele>862.43402099609</ele>
        <time>2017-10-01T06:02:35Z</time>
      </trkpt>
      <trkpt lat="45.2859" lon="5.83121">
        <ele>863.43402099609</ele>
        <time>2017-10-01T06:02:37Z</time>
      </trkpt>
      <trkpt lat="45.28594" lon="5.83117">
        <ele>865.43402099609</ele>
        <time>2017-10-01T06:02:41Z</time>
      </trkpt>
      <trkpt lat="45.28597" lon="5.83112">
        <ele>863.43402099609</ele>
        <time>2017-10-01T06:02:43Z</time>
      </trkpt>
      <trkpt lat="45.28603" lon="5.8311">
        <ele>864.43402099609</ele>
        <time>2017-10-01T06:02:45Z</time>
      </trkpt>
      <trkpt lat="45.28609" lon="5.83113">
        <ele>861.43402099609</ele>
        <time>2017-10-01T06:02:47Z</time>
      </trkpt>
      <trkpt lat="45.28613" lon="5.83109">
        <ele>861.43402099609</ele>
        <time>2017-10-01T06:02:52Z</time>
      </trkpt>
      <trkpt lat="45.28618" lon="5.83107">
        <ele>863.43402099609</ele>
        <time>2017-10-01T06:02:54Z</time>
      </trkpt>
      <trkpt lat="45.28623" lon="5.83104">
        <ele>869.43402099609</ele>
        <time>2017-10-01T06:03:01Z</time>
      </trkpt>
      <trkpt lat="45.2863" lon="5.831">
        <ele>872.43402099609</ele>
        <time>2017-10-01T06:03:05Z</time>
      </trkpt>
      <trkpt lat="45.28634" lon="5.83097">
        <ele>873.43402099609</ele>
        <time>2017-10-01T06:03:08Z</time>
      </trkpt>
      <trkpt lat="45.28639" lon="5.83095">
        <ele>875.43402099609</ele>
        <time>2017-10-01T06:03:12Z</time>
      </trkpt>
      <trkpt lat="45.28644" lon="5.83094">
        <ele>877.43402099609</ele>
        <time>2017-10-01T06:03:19Z</time>
      </trkpt>
      <trkpt lat="45.28652" lon="5.83091">
        <ele>880.43402099609</ele>
        <time>2017-10-01T06:03:24Z</time>
      </trkpt>
      <trkpt lat="45.28661" lon="5.83087">
        <ele>879.43402099609</ele>
        <time>2017-10-01T06:03:30Z</time>
      </trkpt>
      <trkpt lat="45.28666" lon="5.83091">
        <ele>884.43402099609</ele>
        <time>2017-10-01T06:03:42Z</time>
      </trkpt>
      <trkpt lat="45.28661" lon="5.83096">
        <ele>882.43402099609</ele>
        <time>2017-10-01T06:03:46Z</time>
      </trkpt>
      <trkpt lat="45.28664" lon="5.83103">
        <ele>884.43402099609</ele>
        <time>2017-10-01T06:03:48Z</time>
      </trkpt>
      <trkpt lat="45.28666" lon="5.83108">
        <ele>884.43402099609</ele>
        <time>2017-10-01T06:03:50Z</time>
      </trkpt>
      <trkpt lat="45.28661" lon="5.83113">
        <ele>883.43402099609</ele>
        <time>2017-10-01T06:03:57Z</time>
      </trkpt>
      <trkpt lat="45.28658" lon="5.83108">
        <ele>886.43402099609</ele>
        <time>2017-10-01T06:04:46Z</time>
      </trkpt>
      <trkpt lat="45.28658" lon="5.83115">
        <ele>887.43402099609</ele>
        <time>2017-10-01T06:04:50Z</time>
      </trkpt>
      <trkpt lat="45.28656" lon="5.83122">
        <ele>887.43402099609</ele>
        <time>2017-10-01T06:04:53Z</time>
      </trkpt>
      <trkpt lat="45.28651" lon="5.83129">
        <ele>886.43402099609</ele>
        <time>2017-10-01T06:04:56Z</time>
      </trkpt>
      <trkpt lat="45.28651" lon="5.83138">
        <ele>889.43402099609</ele>
        <time>2017-10-01T06:04:59Z</time>
      </trkpt>
      <trkpt lat="45.2865" lon="5.83145">
        <ele>888.43402099609</ele>
        <time>2017-10-01T06:05:02Z</time>
      </trkpt>
      <trkpt lat="45.28642" lon="5.8315">
        <ele>888.43402099609</ele>
        <time>2017-10-01T06:05:05Z</time>
      </trkpt>
      <trkpt lat="45.28646" lon="5.83156">
        <ele>886.43402099609</ele>
        <time>2017-10-01T06:05:07Z</time>
      </trkpt>
      <trkpt lat="45.28646" lon="5.83163">
        <ele>886.43402099609</ele>
        <time>2017-10-01T06:05:10Z</time>
      </trkpt>
      <trkpt lat="45.28639" lon="5.83167">
        <ele>885.43402099609</ele>
        <time>2017-10-01T06:05:14Z</time>
      </trkpt>
      <trkpt lat="45.28635" lon="5.83173">
        <ele>883.43402099609</ele>
        <time>2017-10-01T06:05:18Z</time>
      </trkpt>
      <trkpt lat="45.2863" lon="5.83176">
        <ele>883.43402099609</ele>
        <time>2017-10-01T06:05:20Z</time>
      </trkpt>
      <trkpt lat="45.28625" lon="5.83181">
        <ele>883.43402099609</ele>
        <time>2017-10-01T06:05:23Z</time>
      </trkpt>
      <trkpt lat="45.28625" lon="5.83189">
        <ele>877.43402099609</ele>
        <time>2017-10-01T06:05:28Z</time>
      </trkpt>
      <trkpt lat="45.28623" lon="5.83195">
        <ele>876.43402099609</ele>
        <time>2017-10-01T06:05:31Z</time>
      </trkpt>
      <trkpt lat="45.28627" lon="5.83198">
        <ele>885.43402099609</ele>
        <time>2017-10-01T06:05:40Z</time>
      </trkpt>
      <trkpt lat="45.28632" lon="5.83198">
        <ele>887.43402099609</ele>
        <time>2017-10-01T06:05:46Z</time>
      </trkpt>
      <trkpt lat="45.28635" lon="5.83192">
        <ele>890.43402099609</ele>
        <time>2017-10-01T06:05:50Z</time>
      </trkpt>
      <trkpt lat="45.28639" lon="5.83189">
        <ele>891.43402099609</ele>
        <time>2017-10-01T06:05:55Z</time>
      </trkpt>
      <trkpt lat="45.28644" lon="5.8319">
        <ele>887.43402099609</ele>
        <time>2017-10-01T06:05:59Z</time>
      </trkpt>
      <trkpt lat="45.28649" lon="5.8319">
        <ele>892.43402099609</ele>
        <time>2017-10-01T06:06:02Z</time>
      </trkpt>
      <trkpt lat="45.28654" lon="5.83193">
        <ele>891.43499755859</ele>
        <time>2017-10-01T06:06:04Z</time>
      </trkpt>
      <trkpt lat="45.2866" lon="5.83189">
        <ele>890.43499755859</ele>
        <time>2017-10-01T06:06:10Z</time>
      </trkpt>
      <trkpt lat="45.28665" lon="5.83186">
        <ele>887.43499755859</ele>
        <time>2017-10-01T06:06:12Z</time>
      </trkpt>
      <trkpt lat="45.28667" lon="5.83178">
        <ele>888.43499755859</ele>
        <time>2017-10-01T06:06:14Z</time>
      </trkpt>
      <trkpt lat="45.28667" lon="5.83186">
        <ele>885.43499755859</ele>
        <time>2017-10-01T06:06:16Z</time>
      </trkpt>
      <trkpt lat="45.28673" lon="5.83179">
        <ele>886.43499755859</ele>
        <time>2017-10-01T06:06:19Z</time>
      </trkpt>
      <trkpt lat="45.28676" lon="5.83173">
        <ele>887.43499755859</ele>
        <time>2017-10-01T06:06:21Z</time>
      </trkpt>
      <trkpt lat="45.28682" lon="5.83174">
        <ele>889.43499755859</ele>
        <time>2017-10-01T06:06:24Z</time>
      </trkpt>
      <trkpt lat="45.28687" lon="5.83171">
        <ele>889.43499755859</ele>
        <time>2017-10-01T06:06:28Z</time>
      </trkpt>
      <trkpt lat="45.28689" lon="5.83165">
        <ele>889.43499755859</ele>
        <time>2017-10-01T06:06:30Z</time>
      </trkpt>
      <trkpt lat="45.28695" lon="5.83162">
        <ele>890.43499755859</ele>
        <time>2017-10-01T06:06:35Z</time>
      </trkpt>
      <trkpt lat="45.287" lon="5.83162">
        <ele>891.43499755859</ele>
        <time>2017-10-01T06:06:38Z</time>
      </trkpt>
      <trkpt lat="45.28704" lon="5.83158">
        <ele>893.43499755859</ele>
        <time>2017-10-01T06:06:40Z</time>
      </trkpt>
      <trkpt lat="45.28708" lon="5.83153">
        <ele>893.43499755859</ele>
        <time>2017-10-01T06:06:43Z</time>
      </trkpt>
      <trkpt lat="45.28711" lon="5.83158">
        <ele>894.43499755859</ele>
        <time>2017-10-01T06:06:46Z</time>
      </trkpt>
      <trkpt lat="45.28715" lon="5.83154">
        <ele>893.43499755859</ele>
        <time>2017-10-01T06:06:49Z</time>
      </trkpt>
      <trkpt lat="45.2872" lon="5.83157">
        <ele>894.43499755859</ele>
        <time>2017-10-01T06:06:52Z</time>
      </trkpt>
      <trkpt lat="45.28724" lon="5.83153">
        <ele>894.43499755859</ele>
        <time>2017-10-01T06:06:55Z</time>
      </trkpt>
      <trkpt lat="45.28731" lon="5.83146">
        <ele>895.43499755859</ele>
        <time>2017-10-01T06:06:58Z</time>
      </trkpt>
      <trkpt lat="45.28733" lon="5.83139">
        <ele>895.43499755859</ele>
        <time>2017-10-01T06:07:00Z</time>
      </trkpt>
      <trkpt lat="45.28738" lon="5.83135">
        <ele>896.43499755859</ele>
        <time>2017-10-01T06:07:03Z</time>
      </trkpt>
      <trkpt lat="45.28738" lon="5.83143">
        <ele>898.43499755859</ele>
        <time>2017-10-01T06:07:07Z</time>
      </trkpt>
      <trkpt lat="45.28734" lon="5.83145">
        <ele>900.43499755859</ele>
        <time>2017-10-01T06:07:14Z</time>
      </trkpt>
      <trkpt lat="45.28734" lon="5.83153">
        <ele>899.43499755859</ele>
        <time>2017-10-01T06:07:16Z</time>
      </trkpt>
      <trkpt lat="45.28727" lon="5.83156">
        <ele>900.43499755859</ele>
        <time>2017-10-01T06:07:21Z</time>
      </trkpt>
      <trkpt lat="45.28723" lon="5.83161">
        <ele>904.43499755859</ele>
        <time>2017-10-01T06:07:25Z</time>
      </trkpt>
      <trkpt lat="45.28719" lon="5.83168">
        <ele>908.43499755859</ele>
        <time>2017-10-01T06:07:29Z</time>
      </trkpt>
      <trkpt lat="45.28713" lon="5.8317">
        <ele>908.43499755859</ele>
        <time>2017-10-01T06:07:32Z</time>
      </trkpt>
      <trkpt lat="45.28708" lon="5.83175">
        <ele>909.43499755859</ele>
        <time>2017-10-01T06:07:34Z</time>
      </trkpt>
      <trkpt lat="45.28704" lon="5.83178">
        <ele>912.43499755859</ele>
        <time>2017-10-01T06:07:37Z</time>
      </trkpt>
      <trkpt lat="45.28701" lon="5.83184">
        <ele>916.43499755859</ele>
        <time>2017-10-01T06:07:40Z</time>
      </trkpt>
      <trkpt lat="45.28698" lon="5.83189">
        <ele>917.43499755859</ele>
        <time>2017-10-01T06:07:43Z</time>
      </trkpt>
      <trkpt lat="45.28693" lon="5.83195">
        <ele>918.43499755859</ele>
        <time>2017-10-01T06:07:45Z</time>
      </trkpt>
      <trkpt lat="45.28689" lon="5.83206">
        <ele>920.43499755859</ele>
        <time>2017-10-01T06:07:49Z</time>
      </trkpt>
      <trkpt lat="45.28688" lon="5.83213">
        <ele>920.43499755859</ele>
        <time>2017-10-01T06:07:51Z</time>
      </trkpt>
      <trkpt lat="45.28689" lon="5.8322">
        <ele>921.43499755859</ele>
        <time>2017-10-01T06:07:53Z</time>
      </trkpt>
      <trkpt lat="45.28685" lon="5.83223">
        <ele>920.43499755859</ele>
        <time>2017-10-01T06:07:55Z</time>
      </trkpt>
      <trkpt lat="45.28674" lon="5.83226">
        <ele>920.43499755859</ele>
        <time>2017-10-01T06:07:59Z</time>
      </trkpt>
      <trkpt lat="45.28669" lon="5.83232">
        <ele>921.43499755859</ele>
        <time>2017-10-01T06:08:03Z</time>
      </trkpt>
      <trkpt lat="45.28663" lon="5.83234">
        <ele>919.43499755859</ele>
        <time>2017-10-01T06:08:05Z</time>
      </trkpt>
      <trkpt lat="45.28664" lon="5.83241">
        <ele>920.43499755859</ele>
        <time>2017-10-01T06:08:07Z</time>
      </trkpt>
      <trkpt lat="45.28661" lon="5.83247">
        <ele>919.43499755859</ele>
        <time>2017-10-01T06:08:10Z</time>
      </trkpt>
      <trkpt lat="45.28658" lon="5.83255">
        <ele>922.43499755859</ele>
        <time>2017-10-01T06:08:14Z</time>
      </trkpt>
      <trkpt lat="45.28653" lon="5.83257">
        <ele>922.43499755859</ele>
        <time>2017-10-01T06:08:20Z</time>
      </trkpt>
      <trkpt lat="45.2865" lon="5.83265">
        <ele>921.43499755859</ele>
        <time>2017-10-01T06:08:23Z</time>
      </trkpt>
      <trkpt lat="45.28648" lon="5.83274">
        <ele>923.43499755859</ele>
        <time>2017-10-01T06:08:26Z</time>
      </trkpt>
      <trkpt lat="45.28642" lon="5.83278">
        <ele>924.43499755859</ele>
        <time>2017-10-01T06:08:30Z</time>
      </trkpt>
      <trkpt lat="45.28636" lon="5.83284">
        <ele>926.43499755859</ele>
        <time>2017-10-01T06:08:33Z</time>
      </trkpt>
      <trkpt lat="45.28637" lon="5.83291">
        <ele>928.43499755859</ele>
        <time>2017-10-01T06:08:36Z</time>
      </trkpt>
      <trkpt lat="45.28633" lon="5.83296">
        <ele>930.43499755859</ele>
        <time>2017-10-01T06:08:39Z</time>
      </trkpt>
      <trkpt lat="45.2863" lon="5.83301">
        <ele>934.43499755859</ele>
        <time>2017-10-01T06:08:44Z</time>
      </trkpt>
      <trkpt lat="45.28626" lon="5.83306">
        <ele>937.43499755859</ele>
        <time>2017-10-01T06:08:47Z</time>
      </trkpt>
      <trkpt lat="45.28633" lon="5.83309">
        <ele>938.43499755859</ele>
        <time>2017-10-01T06:08:56Z</time>
      </trkpt>
      <trkpt lat="45.28637" lon="5.83311">
        <ele>935.43499755859</ele>
        <time>2017-10-01T06:09:00Z</time>
      </trkpt>
      <trkpt lat="45.28641" lon="5.83305">
        <ele>940.43499755859</ele>
        <time>2017-10-01T06:09:06Z</time>
      </trkpt>
      <trkpt lat="45.28643" lon="5.83298">
        <ele>939.43499755859</ele>
        <time>2017-10-01T06:09:09Z</time>
      </trkpt>
      <trkpt lat="45.28649" lon="5.83302">
        <ele>938.43499755859</ele>
        <time>2017-10-01T06:09:12Z</time>
      </trkpt>
      <trkpt lat="45.2865" lon="5.83295">
        <ele>939.43499755859</ele>
        <time>2017-10-01T06:09:14Z</time>
      </trkpt>
      <trkpt lat="45.28652" lon="5.83288">
        <ele>938.43499755859</ele>
        <time>2017-10-01T06:09:16Z</time>
      </trkpt>
      <trkpt lat="45.28664" lon="5.83292">
        <ele>939.43499755859</ele>
        <time>2017-10-01T06:09:19Z</time>
      </trkpt>
      <trkpt lat="45.28667" lon="5.83303">
        <ele>939.43499755859</ele>
        <time>2017-10-01T06:09:21Z</time>
      </trkpt>
      <trkpt lat="45.28671" lon="5.83309">
        <ele>940.43499755859</ele>
        <time>2017-10-01T06:09:24Z</time>
      </trkpt>
      <trkpt lat="45.28673" lon="5.83317">
        <ele>940.43499755859</ele>
        <time>2017-10-01T06:09:28Z</time>
      </trkpt>
      <trkpt lat="45.28679" lon="5.83307">
        <ele>938.43499755859</ele>
        <time>2017-10-01T06:09:30Z</time>
      </trkpt>
      <trkpt lat="45.28681" lon="5.83298">
        <ele>939.43499755859</ele>
        <time>2017-10-01T06:09:32Z</time>
      </trkpt>
      <trkpt lat="45.28689" lon="5.83297">
        <ele>937.43499755859</ele>
        <time>2017-10-01T06:09:34Z</time>
      </trkpt>
      <trkpt lat="45.28691" lon="5.83289">
        <ele>937.43499755859</ele>
        <time>2017-10-01T06:09:36Z</time>
      </trkpt>
      <trkpt lat="45.28695" lon="5.83294">
        <ele>937.43499755859</ele>
        <time>2017-10-01T06:09:38Z</time>
      </trkpt>
      <trkpt lat="45.28693" lon="5.83283">
        <ele>939.43499755859</ele>
        <time>2017-10-01T06:09:40Z</time>
      </trkpt>
      <trkpt lat="45.28697" lon="5.83278">
        <ele>939.43499755859</ele>
        <time>2017-10-01T06:09:42Z</time>
      </trkpt>
      <trkpt lat="45.28702" lon="5.83271">
        <ele>936.43499755859</ele>
        <time>2017-10-01T06:09:45Z</time>
      </trkpt>
      <trkpt lat="45.28707" lon="5.83267">
        <ele>935.43499755859</ele>
        <time>2017-10-01T06:09:48Z</time>
      </trkpt>
      <trkpt lat="45.28711" lon="5.83263">
        <ele>936.43499755859</ele>
        <time>2017-10-01T06:09:51Z</time>
      </trkpt>
      <trkpt lat="45.28714" lon="5.83255">
        <ele>940.43499755859</ele>
        <time>2017-10-01T06:09:54Z</time>
      </trkpt>
      <trkpt lat="45.28718" lon="5.8325">
        <ele>944.43499755859</ele>
        <time>2017-10-01T06:09:59Z</time>
      </trkpt>
      <trkpt lat="45.2872" lon="5.83244">
        <ele>947.43499755859</ele>
        <time>2017-10-01T06:10:02Z</time>
      </trkpt>
      <trkpt lat="45.28725" lon="5.83245">
        <ele>948.43499755859</ele>
        <time>2017-10-01T06:10:06Z</time>
      </trkpt>
      <trkpt lat="45.2873" lon="5.8324">
        <ele>947.43499755859</ele>
        <time>2017-10-01T06:10:10Z</time>
      </trkpt>
      <trkpt lat="45.28733" lon="5.83236">
        <ele>947.43499755859</ele>
        <time>2017-10-01T06:10:14Z</time>
      </trkpt>
      <trkpt lat="45.28738" lon="5.83235">
        <ele>947.43499755859</ele>
        <time>2017-10-01T06:10:18Z</time>
      </trkpt>
      <trkpt lat="45.28743" lon="5.83239">
        <ele>948.43499755859</ele>
        <time>2017-10-01T06:10:22Z</time>
      </trkpt>
      <trkpt lat="45.28746" lon="5.83247">
        <ele>948.43499755859</ele>
        <time>2017-10-01T06:10:27Z</time>
      </trkpt>
      <trkpt lat="45.28751" lon="5.83252">
        <ele>759.43499755859</ele>
        <time>2017-10-01T06:10:30Z</time>
      </trkpt>
      <trkpt lat="45.28755" lon="5.8325">
        <ele>769.43499755859</ele>
        <time>2017-10-01T06:10:32Z</time>
      </trkpt>
      <trkpt lat="45.28762" lon="5.83249">
        <ele>802.43499755859</ele>
        <time>2017-10-01T06:10:36Z</time>
      </trkpt>
      <trkpt lat="45.28766" lon="5.83242">
        <ele>815.43499755859</ele>
        <time>2017-10-01T06:10:38Z</time>
      </trkpt>
      <trkpt lat="45.2877" lon="5.83234">
        <ele>837.43499755859</ele>
        <time>2017-10-01T06:10:40Z</time>
      </trkpt>
      <trkpt lat="45.28778" lon="5.83236">
        <ele>845.43499755859</ele>
        <time>2017-10-01T06:10:42Z</time>
      </trkpt>
      <trkpt lat="45.28782" lon="5.83233">
        <ele>856.43499755859</ele>
        <time>2017-10-01T06:10:45Z</time>
      </trkpt>
      <trkpt lat="45.28786" lon="5.83229">
        <ele>874.43499755859</ele>
        <time>2017-10-01T06:10:47Z</time>
      </trkpt>
      <trkpt lat="45.28788" lon="5.8322">
        <ele>894.43499755859</ele>
        <time>2017-10-01T06:10:50Z</time>
      </trkpt>
      <trkpt lat="45.28789" lon="5.83209">
        <ele>907.43499755859</ele>
        <time>2017-10-01T06:10:54Z</time>
      </trkpt>
      <trkpt lat="45.28792" lon="5.83203">
        <ele>917.43499755859</ele>
        <time>2017-10-01T06:10:56Z</time>
      </trkpt>
      <trkpt lat="45.28794" lon="5.83192">
        <ele>917.43499755859</ele>
        <time>2017-10-01T06:10:59Z</time>
      </trkpt>
      <trkpt lat="45.28795" lon="5.83199">
        <ele>351.43499755859</ele>
        <time>2017-10-01T06:11:01Z</time>
      </trkpt>
      <trkpt lat="45.28793" lon="5.83205">
        <ele>748.43499755859</ele>
        <time>2017-10-01T06:11:15Z</time>
      </trkpt>
      <trkpt lat="45.28789" lon="5.83208">
        <ele>841.43499755859</ele>
        <time>2017-10-01T06:11:28Z</time>
      </trkpt>
      <trkpt lat="45.28784" lon="5.83214">
        <ele>844.43499755859</ele>
        <time>2017-10-01T06:11:29Z</time>
      </trkpt>
      <trkpt lat="45.28779" lon="5.83225">
        <ele>844.43499755859</ele>
        <time>2017-10-01T06:11:31Z</time>
      </trkpt>
      <trkpt lat="45.28775" lon="5.83232">
        <ele>834.43499755859</ele>
        <time>2017-10-01T06:11:33Z</time>
      </trkpt>
      <trkpt lat="45.28765" lon="5.8325">
        <ele>841.43499755859</ele>
        <time>2017-10-01T06:11:36Z</time>
      </trkpt>
      <trkpt lat="45.2876" lon="5.83258">
        <ele>854.43499755859</ele>
        <time>2017-10-01T06:11:38Z</time>
      </trkpt>
      <trkpt lat="45.28752" lon="5.83277">
        <ele>856.43499755859</ele>
        <time>2017-10-01T06:11:40Z</time>
      </trkpt>
      <trkpt lat="45.28747" lon="5.83287">
        <ele>863.43499755859</ele>
        <time>2017-10-01T06:11:41Z</time>
      </trkpt>
      <trkpt lat="45.28743" lon="5.83284">
        <ele>866.43499755859</ele>
        <time>2017-10-01T06:11:42Z</time>
      </trkpt>
      <trkpt lat="45.28735" lon="5.83288">
        <ele>881.43499755859</ele>
        <time>2017-10-01T06:11:44Z</time>
      </trkpt>
      <trkpt lat="45.28735" lon="5.83297">
        <ele>875.43499755859</ele>
        <time>2017-10-01T06:11:46Z</time>
      </trkpt>
      <trkpt lat="45.28736" lon="5.83305">
        <ele>869.43499755859</ele>
        <time>2017-10-01T06:11:48Z</time>
      </trkpt>
      <trkpt lat="45.28733" lon="5.8331">
        <ele>884.43499755859</ele>
        <time>2017-10-01T06:11:50Z</time>
      </trkpt>
      <trkpt lat="45.28732" lon="5.83318">
        <ele>595.43499755859</ele>
        <time>2017-10-01T06:11:57Z</time>
      </trkpt>
      <trkpt lat="45.28727" lon="5.83321">
        <ele>629.43499755859</ele>
        <time>2017-10-01T06:11:59Z</time>
      </trkpt>
      <trkpt lat="45.28723" lon="5.83327">
        <ele>787.43499755859</ele>
        <time>2017-10-01T06:12:07Z</time>
      </trkpt>
      <trkpt lat="45.28723" lon="5.83334">
        <ele>780.43499755859</ele>
        <time>2017-10-01T06:12:09Z</time>
      </trkpt>
      <trkpt lat="45.2872" lon="5.83339">
        <ele>858.43499755859</ele>
        <time>2017-10-01T06:12:15Z</time>
      </trkpt>
      <trkpt lat="45.28714" lon="5.83338">
        <ele>900.43499755859</ele>
        <time>2017-10-01T06:12:20Z</time>
      </trkpt>
      <trkpt lat="45.2871" lon="5.8334">
        <ele>921.43499755859</ele>
        <time>2017-10-01T06:12:23Z</time>
      </trkpt>
      <trkpt lat="45.28705" lon="5.83345">
        <ele>954.43499755859</ele>
        <time>2017-10-01T06:12:30Z</time>
      </trkpt>
      <trkpt lat="45.28703" lon="5.83352">
        <ele>951.43499755859</ele>
        <time>2017-10-01T06:12:35Z</time>
      </trkpt>
      <trkpt lat="45.28707" lon="5.83345">
        <ele>946.43499755859</ele>
        <time>2017-10-01T06:12:49Z</time>
      </trkpt>
      <trkpt lat="45.28712" lon="5.83342">
        <ele>941.43499755859</ele>
        <time>2017-10-01T06:12:52Z</time>
      </trkpt>
      <trkpt lat="45.28715" lon="5.83332">
        <ele>953.43499755859</ele>
        <time>2017-10-01T06:12:56Z</time>
      </trkpt>
      <trkpt lat="45.28715" lon="5.8332">
        <ele>959.43499755859</ele>
        <time>2017-10-01T06:12:58Z</time>
      </trkpt>
      <trkpt lat="45.2872" lon="5.83309">
        <ele>959.43499755859</ele>
        <time>2017-10-01T06:13:02Z</time>
      </trkpt>
      <trkpt lat="45.28724" lon="5.83317">
        <ele>960.43499755859</ele>
        <time>2017-10-01T06:13:04Z</time>
      </trkpt>
      <trkpt lat="45.28733" lon="5.83312">
        <ele>959.43499755859</ele>
        <time>2017-10-01T06:13:07Z</time>
      </trkpt>
      <trkpt lat="45.28738" lon="5.83302">
        <ele>960.43499755859</ele>
        <time>2017-10-01T06:13:09Z</time>
      </trkpt>
      <trkpt lat="45.28745" lon="5.83298">
        <ele>961.43499755859</ele>
        <time>2017-10-01T06:13:11Z</time>
      </trkpt>
      <trkpt lat="45.28744" lon="5.83291">
        <ele>962.43499755859</ele>
        <time>2017-10-01T06:13:12Z</time>
      </trkpt>
      <trkpt lat="45.28748" lon="5.83283">
        <ele>962.43499755859</ele>
        <time>2017-10-01T06:13:14Z</time>
      </trkpt>
      <trkpt lat="45.2875" lon="5.83276">
        <ele>965.43499755859</ele>
        <time>2017-10-01T06:13:16Z</time>
      </trkpt>
      <trkpt lat="45.28756" lon="5.8327">
        <ele>962.43499755859</ele>
        <time>2017-10-01T06:13:19Z</time>
      </trkpt>
      <trkpt lat="45.28764" lon="5.83268">
        <ele>965.43499755859</ele>
        <time>2017-10-01T06:13:21Z</time>
      </trkpt>
      <trkpt lat="45.28775" lon="5.83265">
        <ele>964.43499755859</ele>
        <time>2017-10-01T06:13:23Z</time>
      </trkpt>
      <trkpt lat="45.28784" lon="5.83261">
        <ele>968.43499755859</ele>
        <time>2017-10-01T06:13:25Z</time>
      </trkpt>
      <trkpt lat="45.28787" lon="5.83253">
        <ele>967.43499755859</ele>
        <time>2017-10-01T06:13:26Z</time>
      </trkpt>
      <trkpt lat="45.28787" lon="5.83245">
        <ele>967.43499755859</ele>
        <time>2017-10-01T06:13:28Z</time>
      </trkpt>
      <trkpt lat="45.28792" lon="5.83237">
        <ele>963.43499755859</ele>
        <time>2017-10-01T06:13:34Z</time>
      </trkpt>
      <trkpt lat="45.28794" lon="5.83229">
        <ele>960.43499755859</ele>
        <time>2017-10-01T06:13:36Z</time>
      </trkpt>
      <trkpt lat="45.28797" lon="5.83207">
        <ele>960.43499755859</ele>
        <time>2017-10-01T06:13:39Z</time>
      </trkpt>
      <trkpt lat="45.28791" lon="5.83206">
        <ele>962.43499755859</ele>
        <time>2017-10-01T06:13:45Z</time>
      </trkpt>
      <trkpt lat="45.28791" lon="5.83215">
        <ele>963.43499755859</ele>
        <time>2017-10-01T06:13:47Z</time>
      </trkpt>
      <trkpt lat="45.2879" lon="5.83222">
        <ele>959.43499755859</ele>
        <time>2017-10-01T06:13:51Z</time>
      </trkpt>
      <trkpt lat="45.28787" lon="5.83231">
        <ele>954.43499755859</ele>
        <time>2017-10-01T06:13:57Z</time>
      </trkpt>
      <trkpt lat="45.28781" lon="5.83231">
        <ele>954.43499755859</ele>
        <time>2017-10-01T06:13:59Z</time>
      </trkpt>
      <trkpt lat="45.28768" lon="5.8323">
        <ele>954.43499755859</ele>
        <time>2017-10-01T06:14:02Z</time>
      </trkpt>
      <trkpt lat="45.28766" lon="5.83237">
        <ele>955.43499755859</ele>
        <time>2017-10-01T06:14:03Z</time>
      </trkpt>
      <trkpt lat="45.28763" lon="5.83244">
        <ele>955.43499755859</ele>
        <time>2017-10-01T06:14:05Z</time>
      </trkpt>
      <trkpt lat="45.28758" lon="5.83249">
        <ele>955.43499755859</ele>
        <time>2017-10-01T06:14:08Z</time>
      </trkpt>
      <trkpt lat="45.28753" lon="5.8325">
        <ele>958.43499755859</ele>
        <time>2017-10-01T06:14:10Z</time>
      </trkpt>
      <trkpt lat="45.28748" lon="5.83254">
        <ele>956.43499755859</ele>
        <time>2017-10-01T06:14:12Z</time>
      </trkpt>
      <trkpt lat="45.28743" lon="5.83259">
        <ele>956.43499755859</ele>
        <time>2017-10-01T06:14:14Z</time>
      </trkpt>
      <trkpt lat="45.28737" lon="5.83259">
        <ele>955.43499755859</ele>
        <time>2017-10-01T06:14:16Z</time>
      </trkpt>
      <trkpt lat="45.28726" lon="5.83257">
        <ele>955.43499755859</ele>
        <time>2017-10-01T06:14:18Z</time>
      </trkpt>
      <trkpt lat="45.28719" lon="5.83259">
        <ele>956.43499755859</ele>
        <time>2017-10-01T06:14:21Z</time>
      </trkpt>
      <trkpt lat="45.28712" lon="5.83262">
        <ele>954.43499755859</ele>
        <time>2017-10-01T06:14:23Z</time>
      </trkpt>
      <trkpt lat="45.28712" lon="5.83269">
        <ele>954.43499755859</ele>
        <time>2017-10-01T06:14:26Z</time>
      </trkpt>
      <trkpt lat="45.28705" lon="5.83271">
        <ele>952.43499755859</ele>
        <time>2017-10-01T06:14:29Z</time>
      </trkpt>
      <trkpt lat="45.28698" lon="5.8327">
        <ele>953.43499755859</ele>
        <time>2017-10-01T06:14:31Z</time>
      </trkpt>
      <trkpt lat="45.28694" lon="5.83274">
        <ele>955.43499755859</ele>
        <time>2017-10-01T06:14:32Z</time>
      </trkpt>
      <trkpt lat="45.28685" lon="5.83282">
        <ele>955.43499755859</ele>
        <time>2017-10-01T06:14:34Z</time>
      </trkpt>
      <trkpt lat="45.28678" lon="5.83283">
        <ele>956.43499755859</ele>
        <time>2017-10-01T06:14:38Z</time>
      </trkpt>
      <trkpt lat="45.28674" lon="5.83292">
        <ele>956.43499755859</ele>
        <time>2017-10-01T06:14:41Z</time>
      </trkpt>
      <trkpt lat="45.28666" lon="5.83296">
        <ele>956.43499755859</ele>
        <time>2017-10-01T06:14:43Z</time>
      </trkpt>
      <trkpt lat="45.28653" lon="5.833">
        <ele>958.43499755859</ele>
        <time>2017-10-01T06:14:45Z</time>
      </trkpt>
      <trkpt lat="45.28649" lon="5.83304">
        <ele>958.43499755859</ele>
        <time>2017-10-01T06:14:46Z</time>
      </trkpt>
      <trkpt lat="45.28642" lon="5.83306">
        <ele>958.43499755859</ele>
        <time>2017-10-01T06:14:48Z</time>
      </trkpt>
      <trkpt lat="45.28644" lon="5.833">
        <ele>958.43499755859</ele>
        <time>2017-10-01T06:14:49Z</time>
      </trkpt>
      <trkpt lat="45.28638" lon="5.83299">
        <ele>961.43499755859</ele>
        <time>2017-10-01T06:14:52Z</time>
      </trkpt>
      <trkpt lat="45.28642" lon="5.83289">
        <ele>965.43499755859</ele>
        <time>2017-10-01T06:15:08Z</time>
      </trkpt>
      <trkpt lat="45.28647" lon="5.83284">
        <ele>956.43499755859</ele>
        <time>2017-10-01T06:15:10Z</time>
      </trkpt>
      <trkpt lat="45.28651" lon="5.8328">
        <ele>953.43499755859</ele>
        <time>2017-10-01T06:15:12Z</time>
      </trkpt>
      <trkpt lat="45.28659" lon="5.83273">
        <ele>949.43499755859</ele>
        <time>2017-10-01T06:15:15Z</time>
      </trkpt>
      <trkpt lat="45.2867" lon="5.83255">
        <ele>943.43499755859</ele>
        <time>2017-10-01T06:15:19Z</time>
      </trkpt>
      <trkpt lat="45.28674" lon="5.83247">
        <ele>944.43499755859</ele>
        <time>2017-10-01T06:15:20Z</time>
      </trkpt>
      <trkpt lat="45.28684" lon="5.83234">
        <ele>937.43499755859</ele>
        <time>2017-10-01T06:15:22Z</time>
      </trkpt>
      <trkpt lat="45.28692" lon="5.83226">
        <ele>940.43499755859</ele>
        <time>2017-10-01T06:15:24Z</time>
      </trkpt>
      <trkpt lat="45.28702" lon="5.83213">
        <ele>938.43499755859</ele>
        <time>2017-10-01T06:15:27Z</time>
      </trkpt>
      <trkpt lat="45.28708" lon="5.83198">
        <ele>940.43499755859</ele>
        <time>2017-10-01T06:15:28Z</time>
      </trkpt>
      <trkpt lat="45.28717" lon="5.83167">
        <ele>940.43499755859</ele>
        <time>2017-10-01T06:15:30Z</time>
      </trkpt>
      <trkpt lat="45.28711" lon="5.83172">
        <ele>941.43499755859</ele>
        <time>2017-10-01T06:15:31Z</time>
      </trkpt>
      <trkpt lat="45.28713" lon="5.83152">
        <ele>942.43499755859</ele>
        <time>2017-10-01T06:15:33Z</time>
      </trkpt>
      <trkpt lat="45.28718" lon="5.83145">
        <ele>939.43499755859</ele>
        <time>2017-10-01T06:15:35Z</time>
      </trkpt>
      <trkpt lat="45.28722" lon="5.83157">
        <ele>938.43499755859</ele>
        <time>2017-10-01T06:15:37Z</time>
      </trkpt>
      <trkpt lat="45.28725" lon="5.83152">
        <ele>937.43499755859</ele>
        <time>2017-10-01T06:15:39Z</time>
      </trkpt>
      <trkpt lat="45.28727" lon="5.83142">
        <ele>936.43499755859</ele>
        <time>2017-10-01T06:15:41Z</time>
      </trkpt>
      <trkpt lat="45.28733" lon="5.83137">
        <ele>935.43499755859</ele>
        <time>2017-10-01T06:15:43Z</time>
      </trkpt>
      <trkpt lat="45.28736" lon="5.83126">
        <ele>934.43499755859</ele>
        <time>2017-10-01T06:15:44Z</time>
      </trkpt>
      <trkpt lat="45.28736" lon="5.83118">
        <ele>936.43499755859</ele>
        <time>2017-10-01T06:15:45Z</time>
      </trkpt>
      <trkpt lat="45.28734" lon="5.83128">
        <ele>936.43499755859</ele>
        <time>2017-10-01T06:15:46Z</time>
      </trkpt>
      <trkpt lat="45.28736" lon="5.83136">
        <ele>932.43499755859</ele>
        <time>2017-10-01T06:15:50Z</time>
      </trkpt>
      <trkpt lat="45.28734" lon="5.83144">
        <ele>932.43499755859</ele>
        <time>2017-10-01T06:15:53Z</time>
      </trkpt>
      <trkpt lat="45.2873" lon="5.83141">
        <ele>932.43499755859</ele>
        <time>2017-10-01T06:15:55Z</time>
      </trkpt>
      <trkpt lat="45.28724" lon="5.83137">
        <ele>930.43499755859</ele>
        <time>2017-10-01T06:15:58Z</time>
      </trkpt>
      <trkpt lat="45.28719" lon="5.8314">
        <ele>930.43499755859</ele>
        <time>2017-10-01T06:16:01Z</time>
      </trkpt>
      <trkpt lat="45.28713" lon="5.8314">
        <ele>930.43499755859</ele>
        <time>2017-10-01T06:16:04Z</time>
      </trkpt>
      <trkpt lat="45.28702" lon="5.83143">
        <ele>930.43499755859</ele>
        <time>2017-10-01T06:16:06Z</time>
      </trkpt>
      <trkpt lat="45.28696" lon="5.83144">
        <ele>931.43499755859</ele>
        <time>2017-10-01T06:16:07Z</time>
      </trkpt>
      <trkpt lat="45.28687" lon="5.83151">
        <ele>931.43499755859</ele>
        <time>2017-10-01T06:16:09Z</time>
      </trkpt>
      <trkpt lat="45.2868" lon="5.83152">
        <ele>931.43499755859</ele>
        <time>2017-10-01T06:16:11Z</time>
      </trkpt>
      <trkpt lat="45.28673" lon="5.83152">
        <ele>931.43402099609</ele>
        <time>2017-10-01T06:16:13Z</time>
      </trkpt>
      <trkpt lat="45.28671" lon="5.8316">
        <ele>929.43402099609</ele>
        <time>2017-10-01T06:16:16Z</time>
      </trkpt>
      <trkpt lat="45.28665" lon="5.83167">
        <ele>927.43402099609</ele>
        <time>2017-10-01T06:16:18Z</time>
      </trkpt>
      <trkpt lat="45.28662" lon="5.83175">
        <ele>928.43402099609</ele>
        <time>2017-10-01T06:16:20Z</time>
      </trkpt>
      <trkpt lat="45.28658" lon="5.83179">
        <ele>925.43402099609</ele>
        <time>2017-10-01T06:16:23Z</time>
      </trkpt>
      <trkpt lat="45.2865" lon="5.83179">
        <ele>924.43402099609</ele>
        <time>2017-10-01T06:16:25Z</time>
      </trkpt>
      <trkpt lat="45.28646" lon="5.83186">
        <ele>922.43402099609</ele>
        <time>2017-10-01T06:16:28Z</time>
      </trkpt>
      <trkpt lat="45.28641" lon="5.83194">
        <ele>921.43402099609</ele>
        <time>2017-10-01T06:16:30Z</time>
      </trkpt>
      <trkpt lat="45.28632" lon="5.83193">
        <ele>924.43402099609</ele>
        <time>2017-10-01T06:16:32Z</time>
      </trkpt>
      <trkpt lat="45.28628" lon="5.83189">
        <ele>922.43402099609</ele>
        <time>2017-10-01T06:16:33Z</time>
      </trkpt>
      <trkpt lat="45.28624" lon="5.83182">
        <ele>923.43402099609</ele>
        <time>2017-10-01T06:16:37Z</time>
      </trkpt>
      <trkpt lat="45.28628" lon="5.83179">
        <ele>923.43402099609</ele>
        <time>2017-10-01T06:16:40Z</time>
      </trkpt>
      <trkpt lat="45.28635" lon="5.83177">
        <ele>919.43402099609</ele>
        <time>2017-10-01T06:16:42Z</time>
      </trkpt>
      <trkpt lat="45.28634" lon="5.83168">
        <ele>920.43402099609</ele>
        <time>2017-10-01T06:16:44Z</time>
      </trkpt>
      <trkpt lat="45.28646" lon="5.83164">
        <ele>905.43402099609</ele>
        <time>2017-10-01T06:16:48Z</time>
      </trkpt>
      <trkpt lat="45.28651" lon="5.83161">
        <ele>899.43402099609</ele>
        <time>2017-10-01T06:16:50Z</time>
      </trkpt>
      <trkpt lat="45.28653" lon="5.83156">
        <ele>901.43402099609</ele>
        <time>2017-10-01T06:16:52Z</time>
      </trkpt>
      <trkpt lat="45.28658" lon="5.83149">
        <ele>897.43402099609</ele>
        <time>2017-10-01T06:16:54Z</time>
      </trkpt>
      <trkpt lat="45.28665" lon="5.83144">
        <ele>894.43402099609</ele>
        <time>2017-10-01T06:16:56Z</time>
      </trkpt>
      <trkpt lat="45.28674" lon="5.83135">
        <ele>888.43402099609</ele>
        <time>2017-10-01T06:16:59Z</time>
      </trkpt>
      <trkpt lat="45.28684" lon="5.83134">
        <ele>884.43402099609</ele>
        <time>2017-10-01T06:17:01Z</time>
      </trkpt>
      <trkpt lat="45.28691" lon="5.83128">
        <ele>881.43402099609</ele>
        <time>2017-10-01T06:17:03Z</time>
      </trkpt>
      <trkpt lat="45.28703" lon="5.83134">
        <ele>878.43499755859</ele>
        <time>2017-10-01T06:17:06Z</time>
      </trkpt>
      <trkpt lat="45.2871" lon="5.83128">
        <ele>878.43499755859</ele>
        <time>2017-10-01T06:17:09Z</time>
      </trkpt>
      <trkpt lat="45.28709" lon="5.83122">
        <ele>874.43499755859</ele>
        <time>2017-10-01T06:17:11Z</time>
      </trkpt>
      <trkpt lat="45.28701" lon="5.83115">
        <ele>877.43402099609</ele>
        <time>2017-10-01T06:17:19Z</time>
      </trkpt>
      <trkpt lat="45.28695" lon="5.83115">
        <ele>877.43402099609</ele>
        <time>2017-10-01T06:17:21Z</time>
      </trkpt>
      <trkpt lat="45.28698" lon="5.83125">
        <ele>877.43499755859</ele>
        <time>2017-10-01T06:17:22Z</time>
      </trkpt>
      <trkpt lat="45.28697" lon="5.83096">
        <ele>878.43402099609</ele>
        <time>2017-10-01T06:17:24Z</time>
      </trkpt>
      <trkpt lat="45.28688" lon="5.83084">
        <ele>877.43402099609</ele>
        <time>2017-10-01T06:17:26Z</time>
      </trkpt>
      <trkpt lat="45.28693" lon="5.83072">
        <ele>877.43402099609</ele>
        <time>2017-10-01T06:17:27Z</time>
      </trkpt>
      <trkpt lat="45.28697" lon="5.83093">
        <ele>877.43402099609</ele>
        <time>2017-10-01T06:17:29Z</time>
      </trkpt>
      <trkpt lat="45.28703" lon="5.83101">
        <ele>877.43402099609</ele>
        <time>2017-10-01T06:17:30Z</time>
      </trkpt>
      <trkpt lat="45.28706" lon="5.83106">
        <ele>877.43402099609</ele>
        <time>2017-10-01T06:17:31Z</time>
      </trkpt>
      <trkpt lat="45.28713" lon="5.83106">
        <ele>877.43499755859</ele>
        <time>2017-10-01T06:17:33Z</time>
      </trkpt>
      <trkpt lat="45.28716" lon="5.83113">
        <ele>877.43499755859</ele>
        <time>2017-10-01T06:17:36Z</time>
      </trkpt>
      <trkpt lat="45.28721" lon="5.83112">
        <ele>877.43499755859</ele>
        <time>2017-10-01T06:17:40Z</time>
      </trkpt>
      <trkpt lat="45.2872" lon="5.83123">
        <ele>877.43499755859</ele>
        <time>2017-10-01T06:17:42Z</time>
      </trkpt>
      <trkpt lat="45.28718" lon="5.83136">
        <ele>877.43499755859</ele>
        <time>2017-10-01T06:17:43Z</time>
      </trkpt>
      <trkpt lat="45.28711" lon="5.83123">
        <ele>876.43499755859</ele>
        <time>2017-10-01T06:17:45Z</time>
      </trkpt>
      <trkpt lat="45.28705" lon="5.83118">
        <ele>875.43499755859</ele>
        <time>2017-10-01T06:17:46Z</time>
      </trkpt>
      <trkpt lat="45.28696" lon="5.83118">
        <ele>875.43402099609</ele>
        <time>2017-10-01T06:17:49Z</time>
      </trkpt>
      <trkpt lat="45.28689" lon="5.83116">
        <ele>874.43402099609</ele>
        <time>2017-10-01T06:17:51Z</time>
      </trkpt>
      <trkpt lat="45.28683" lon="5.83112">
        <ele>871.43402099609</ele>
        <time>2017-10-01T06:17:54Z</time>
      </trkpt>
      <trkpt lat="45.28682" lon="5.83103">
        <ele>871.43402099609</ele>
        <time>2017-10-01T06:17:57Z</time>
      </trkpt>
      <trkpt lat="45.28679" lon="5.83094">
        <ele>871.43402099609</ele>
        <time>2017-10-01T06:17:59Z</time>
      </trkpt>
      <trkpt lat="45.28674" lon="5.83093">
        <ele>873.43402099609</ele>
        <time>2017-10-01T06:18:01Z</time>
      </trkpt>
      <trkpt lat="45.28665" lon="5.83089">
        <ele>877.43402099609</ele>
        <time>2017-10-01T06:18:03Z</time>
      </trkpt>
      <trkpt lat="45.28661" lon="5.83081">
        <ele>880.43402099609</ele>
        <time>2017-10-01T06:18:05Z</time>
      </trkpt>
      <trkpt lat="45.28658" lon="5.83071">
        <ele>883.43402099609</ele>
        <time>2017-10-01T06:18:07Z</time>
      </trkpt>
      <trkpt lat="45.28652" lon="5.83072">
        <ele>885.43402099609</ele>
        <time>2017-10-01T06:18:14Z</time>
      </trkpt>
      <trkpt lat="45.28643" lon="5.83071">
        <ele>886.43402099609</ele>
        <time>2017-10-01T06:18:17Z</time>
      </trkpt>
      <trkpt lat="45.28637" lon="5.8307">
        <ele>883.43402099609</ele>
        <time>2017-10-01T06:18:19Z</time>
      </trkpt>
      <trkpt lat="45.28631" lon="5.83073">
        <ele>882.43402099609</ele>
        <time>2017-10-01T06:18:21Z</time>
      </trkpt>
      <trkpt lat="45.28628" lon="5.83079">
        <ele>883.43402099609</ele>
        <time>2017-10-01T06:18:23Z</time>
      </trkpt>
      <trkpt lat="45.28624" lon="5.83084">
        <ele>885.43402099609</ele>
        <time>2017-10-01T06:18:25Z</time>
      </trkpt>
      <trkpt lat="45.28619" lon="5.83087">
        <ele>886.43402099609</ele>
        <time>2017-10-01T06:18:27Z</time>
      </trkpt>
      <trkpt lat="45.28609" lon="5.83094">
        <ele>885.43402099609</ele>
        <time>2017-10-01T06:18:29Z</time>
      </trkpt>
      <trkpt lat="45.28603" lon="5.83097">
        <ele>884.43402099609</ele>
        <time>2017-10-01T06:18:31Z</time>
      </trkpt>
      <trkpt lat="45.28599" lon="5.83098">
        <ele>885.43402099609</ele>
        <time>2017-10-01T06:18:33Z</time>
      </trkpt>
      <trkpt lat="45.28591" lon="5.83102">
        <ele>882.43402099609</ele>
        <time>2017-10-01T06:18:36Z</time>
      </trkpt>
      <trkpt lat="45.28583" lon="5.83107">
        <ele>882.43402099609</ele>
        <time>2017-10-01T06:18:38Z</time>
      </trkpt>
      <trkpt lat="45.28578" lon="5.83107">
        <ele>881.43402099609</ele>
        <time>2017-10-01T06:18:41Z</time>
      </trkpt>
      <trkpt lat="45.28571" lon="5.83109">
        <ele>884.43402099609</ele>
        <time>2017-10-01T06:18:44Z</time>
      </trkpt>
      <trkpt lat="45.28566" lon="5.83109">
        <ele>883.43402099609</ele>
        <time>2017-10-01T06:18:46Z</time>
      </trkpt>
      <trkpt lat="45.28561" lon="5.83112">
        <ele>882.43402099609</ele>
        <time>2017-10-01T06:18:49Z</time>
      </trkpt>
      <trkpt lat="45.28556" lon="5.83114">
        <ele>880.43402099609</ele>
        <time>2017-10-01T06:18:51Z</time>
      </trkpt>
      <trkpt lat="45.28552" lon="5.83109">
        <ele>876.43402099609</ele>
        <time>2017-10-01T06:19:01Z</time>
      </trkpt>
      <trkpt lat="45.28538" lon="5.83104">
        <ele>873.43402099609</ele>
        <time>2017-10-01T06:19:04Z</time>
      </trkpt>
      <trkpt lat="45.28532" lon="5.83098">
        <ele>875.43402099609</ele>
        <time>2017-10-01T06:19:06Z</time>
      </trkpt>
      <trkpt lat="45.28528" lon="5.83092">
        <ele>875.43402099609</ele>
        <time>2017-10-01T06:19:08Z</time>
      </trkpt>
      <trkpt lat="45.28523" lon="5.83087">
        <ele>874.43402099609</ele>
        <time>2017-10-01T06:19:10Z</time>
      </trkpt>
      <trkpt lat="45.28516" lon="5.83083">
        <ele>877.43402099609</ele>
        <time>2017-10-01T06:19:12Z</time>
      </trkpt>
      <trkpt lat="45.28507" lon="5.8308">
        <ele>877.43402099609</ele>
        <time>2017-10-01T06:19:14Z</time>
      </trkpt>
      <trkpt lat="45.28499" lon="5.83081">
        <ele>875.43402099609</ele>
        <time>2017-10-01T06:19:16Z</time>
      </trkpt>
      <trkpt lat="45.28494" lon="5.83084">
        <ele>871.43402099609</ele>
        <time>2017-10-01T06:19:18Z</time>
      </trkpt>
      <trkpt lat="45.28481" lon="5.83093">
        <ele>863.43402099609</ele>
        <time>2017-10-01T06:19:21Z</time>
      </trkpt>
      <trkpt lat="45.28477" lon="5.83096">
        <ele>863.43402099609</ele>
        <time>2017-10-01T06:19:23Z</time>
      </trkpt>
      <trkpt lat="45.2847" lon="5.83093">
        <ele>861.43402099609</ele>
        <time>2017-10-01T06:19:26Z</time>
      </trkpt>
      <trkpt lat="45.28462" lon="5.83093">
        <ele>860.43402099609</ele>
        <time>2017-10-01T06:19:28Z</time>
      </trkpt>
      <trkpt lat="45.28456" lon="5.83092">
        <ele>859.43402099609</ele>
        <time>2017-10-01T06:19:30Z</time>
      </trkpt>
      <trkpt lat="45.28451" lon="5.83095">
        <ele>855.43402099609</ele>
        <time>2017-10-01T06:19:53Z</time>
      </trkpt>
      <trkpt lat="45.28446" lon="5.83099">
        <ele>855.43402099609</ele>
        <time>2017-10-01T06:19:56Z</time>
      </trkpt>
      <trkpt lat="45.28441" lon="5.83102">
        <ele>855.43402099609</ele>
        <time>2017-10-01T06:19:58Z</time>
      </trkpt>
      <trkpt lat="45.28437" lon="5.83099">
        <ele>854.43402099609</ele>
        <time>2017-10-01T06:20:01Z</time>
      </trkpt>
      <trkpt lat="45.28431" lon="5.83098">
        <ele>853.43402099609</ele>
        <time>2017-10-01T06:20:03Z</time>
      </trkpt>
      <trkpt lat="45.28423" lon="5.83096">
        <ele>854.43402099609</ele>
        <time>2017-10-01T06:20:05Z</time>
      </trkpt>
      <trkpt lat="45.28417" lon="5.83096">
        <ele>855.43402099609</ele>
        <time>2017-10-01T06:20:07Z</time>
      </trkpt>
      <trkpt lat="45.28408" lon="5.831">
        <ele>853.43402099609</ele>
        <time>2017-10-01T06:20:09Z</time>
      </trkpt>
      <trkpt lat="45.28398" lon="5.83109">
        <ele>846.43402099609</ele>
        <time>2017-10-01T06:20:11Z</time>
      </trkpt>
      <trkpt lat="45.28387" lon="5.83122">
        <ele>834.43402099609</ele>
        <time>2017-10-01T06:20:15Z</time>
      </trkpt>
      <trkpt lat="45.28382" lon="5.83125">
        <ele>830.43402099609</ele>
        <time>2017-10-01T06:20:17Z</time>
      </trkpt>
      <trkpt lat="45.28378" lon="5.83127">
        <ele>833.43402099609</ele>
        <time>2017-10-01T06:20:24Z</time>
      </trkpt>
      <trkpt lat="45.28382" lon="5.83131">
        <ele>828.43402099609</ele>
        <time>2017-10-01T06:20:34Z</time>
      </trkpt>
      <trkpt lat="45.28386" lon="5.83128">
        <ele>830.43402099609</ele>
        <time>2017-10-01T06:20:49Z</time>
      </trkpt>
      <trkpt lat="45.28393" lon="5.83125">
        <ele>831.43402099609</ele>
        <time>2017-10-01T06:20:51Z</time>
      </trkpt>
      <trkpt lat="45.284" lon="5.83126">
        <ele>832.43402099609</ele>
        <time>2017-10-01T06:20:53Z</time>
      </trkpt>
      <trkpt lat="45.28404" lon="5.83124">
        <ele>835.43402099609</ele>
        <time>2017-10-01T06:20:55Z</time>
      </trkpt>
      <trkpt lat="45.28409" lon="5.83122">
        <ele>834.43402099609</ele>
        <time>2017-10-01T06:21:00Z</time>
      </trkpt>
      <trkpt lat="45.28413" lon="5.83126">
        <ele>835.43402099609</ele>
        <time>2017-10-01T06:21:05Z</time>
      </trkpt>
      <trkpt lat="45.28419" lon="5.8312">
        <ele>835.43402099609</ele>
        <time>2017-10-01T06:21:10Z</time>
      </trkpt>
      <trkpt lat="45.28425" lon="5.83121">
        <ele>835.43402099609</ele>
        <time>2017-10-01T06:21:12Z</time>
      </trkpt>
      <trkpt lat="45.2843" lon="5.83123">
        <ele>835.43402099609</ele>
        <time>2017-10-01T06:21:15Z</time>
      </trkpt>
      <trkpt lat="45.28434" lon="5.83117">
        <ele>835.43402099609</ele>
        <time>2017-10-01T06:21:17Z</time>
      </trkpt>
      <trkpt lat="45.28441" lon="5.83115">
        <ele>836.43402099609</ele>
        <time>2017-10-01T06:21:20Z</time>
      </trkpt>
      <trkpt lat="45.28444" lon="5.83112">
        <ele>840.43402099609</ele>
        <time>2017-10-01T06:21:24Z</time>
      </trkpt>
      <trkpt lat="45.28449" lon="5.83109">
        <ele>840.43402099609</ele>
        <time>2017-10-01T06:21:27Z</time>
      </trkpt>
      <trkpt lat="45.28455" lon="5.8311">
        <ele>840.43402099609</ele>
        <time>2017-10-01T06:21:31Z</time>
      </trkpt>
      <trkpt lat="45.28461" lon="5.83106">
        <ele>842.43402099609</ele>
        <time>2017-10-01T06:21:34Z</time>
      </trkpt>
      <trkpt lat="45.28466" lon="5.83108">
        <ele>841.43402099609</ele>
        <time>2017-10-01T06:21:38Z</time>
      </trkpt>
      <trkpt lat="45.28469" lon="5.83114">
        <ele>842.43402099609</ele>
        <time>2017-10-01T06:21:42Z</time>
      </trkpt>
      <trkpt lat="45.28474" lon="5.83119">
        <ele>838.43402099609</ele>
        <time>2017-10-01T06:21:49Z</time>
      </trkpt>
      <trkpt lat="45.28482" lon="5.83118">
        <ele>842.43402099609</ele>
        <time>2017-10-01T06:21:53Z</time>
      </trkpt>
      <trkpt lat="45.28487" lon="5.83116">
        <ele>844.43402099609</ele>
        <time>2017-10-01T06:21:55Z</time>
      </trkpt>
      <trkpt lat="45.28491" lon="5.83117">
        <ele>846.43402099609</ele>
        <time>2017-10-01T06:21:58Z</time>
      </trkpt>
      <trkpt lat="45.28496" lon="5.83115">
        <ele>849.43402099609</ele>
        <time>2017-10-01T06:22:00Z</time>
      </trkpt>
      <trkpt lat="45.28501" lon="5.83114">
        <ele>846.43402099609</ele>
        <time>2017-10-01T06:22:04Z</time>
      </trkpt>
      <trkpt lat="45.28506" lon="5.83115">
        <ele>847.43402099609</ele>
        <time>2017-10-01T06:22:06Z</time>
      </trkpt>
      <trkpt lat="45.28511" lon="5.83116">
        <ele>846.43402099609</ele>
        <time>2017-10-01T06:22:10Z</time>
      </trkpt>
      <trkpt lat="45.28515" lon="5.83116">
        <ele>849.43402099609</ele>
        <time>2017-10-01T06:22:18Z</time>
      </trkpt>
      <trkpt lat="45.2852" lon="5.83116">
        <ele>848.43402099609</ele>
        <time>2017-10-01T06:22:21Z</time>
      </trkpt>
      <trkpt lat="45.28523" lon="5.83122">
        <ele>849.43402099609</ele>
        <time>2017-10-01T06:22:26Z</time>
      </trkpt>
      <trkpt lat="45.28527" lon="5.83128">
        <ele>853.43402099609</ele>
        <time>2017-10-01T06:22:29Z</time>
      </trkpt>
      <trkpt lat="45.28532" lon="5.83125">
        <ele>852.43402099609</ele>
        <time>2017-10-01T06:22:34Z</time>
      </trkpt>
      <trkpt lat="45.28536" lon="5.83124">
        <ele>851.43402099609</ele>
        <time>2017-10-01T06:22:44Z</time>
      </trkpt>
      <trkpt lat="45.28541" lon="5.83125">
        <ele>852.43402099609</ele>
        <time>2017-10-01T06:23:06Z</time>
      </trkpt>
      <trkpt lat="45.28547" lon="5.8313">
        <ele>851.43402099609</ele>
        <time>2017-10-01T06:23:09Z</time>
      </trkpt>
      <trkpt lat="45.28553" lon="5.83127">
        <ele>851.43402099609</ele>
        <time>2017-10-01T06:23:12Z</time>
      </trkpt>
      <trkpt lat="45.28558" lon="5.83125">
        <ele>852.43402099609</ele>
        <time>2017-10-01T06:23:15Z</time>
      </trkpt>
      <trkpt lat="45.28564" lon="5.83125">
        <ele>851.43402099609</ele>
        <time>2017-10-01T06:23:17Z</time>
      </trkpt>
      <trkpt lat="45.2857" lon="5.83125">
        <ele>851.43402099609</ele>
        <time>2017-10-01T06:23:19Z</time>
      </trkpt>
      <trkpt lat="45.28577" lon="5.83124">
        <ele>850.43402099609</ele>
        <time>2017-10-01T06:23:21Z</time>
      </trkpt>
      <trkpt lat="45.28582" lon="5.83122">
        <ele>848.43402099609</ele>
        <time>2017-10-01T06:23:23Z</time>
      </trkpt>
      <trkpt lat="45.28586" lon="5.83128">
        <ele>848.43402099609</ele>
        <time>2017-10-01T06:23:25Z</time>
      </trkpt>
      <trkpt lat="45.28593" lon="5.83125">
        <ele>848.43402099609</ele>
        <time>2017-10-01T06:23:27Z</time>
      </trkpt>
      <trkpt lat="45.28591" lon="5.83117">
        <ele>848.43402099609</ele>
        <time>2017-10-01T06:23:29Z</time>
      </trkpt>
      <trkpt lat="45.28596" lon="5.83112">
        <ele>848.43402099609</ele>
        <time>2017-10-01T06:23:31Z</time>
      </trkpt>
      <trkpt lat="45.28601" lon="5.83113">
        <ele>847.43402099609</ele>
        <time>2017-10-01T06:23:36Z</time>
      </trkpt>
      <trkpt lat="45.28606" lon="5.83116">
        <ele>846.43402099609</ele>
        <time>2017-10-01T06:23:38Z</time>
      </trkpt>
      <trkpt lat="45.28611" lon="5.8311">
        <ele>852.43402099609</ele>
        <time>2017-10-01T06:23:43Z</time>
      </trkpt>
      <trkpt lat="45.28617" lon="5.83108">
        <ele>854.43402099609</ele>
        <time>2017-10-01T06:23:45Z</time>
      </trkpt>
      <trkpt lat="45.28623" lon="5.83108">
        <ele>854.43402099609</ele>
        <time>2017-10-01T06:23:47Z</time>
      </trkpt>
      <trkpt lat="45.28627" lon="5.83102">
        <ele>857.43402099609</ele>
        <time>2017-10-01T06:23:50Z</time>
      </trkpt>
      <trkpt lat="45.28634" lon="5.83102">
        <ele>858.43402099609</ele>
        <time>2017-10-01T06:23:52Z</time>
      </trkpt>
      <trkpt lat="45.28634" lon="5.83093">
        <ele>853.43402099609</ele>
        <time>2017-10-01T06:23:55Z</time>
      </trkpt>
      <trkpt lat="45.28632" lon="5.83086">
        <ele>853.43402099609</ele>
        <time>2017-10-01T06:23:57Z</time>
      </trkpt>
      <trkpt lat="45.28635" lon="5.83081">
        <ele>853.43402099609</ele>
        <time>2017-10-01T06:24:01Z</time>
      </trkpt>
      <trkpt lat="45.2864" lon="5.83083">
        <ele>855.43402099609</ele>
        <time>2017-10-01T06:24:07Z</time>
      </trkpt>
      <trkpt lat="45.28643" lon="5.83088">
        <ele>856.43402099609</ele>
        <time>2017-10-01T06:24:11Z</time>
      </trkpt>
      <trkpt lat="45.28647" lon="5.83093">
        <ele>858.43402099609</ele>
        <time>2017-10-01T06:24:18Z</time>
      </trkpt>
      <trkpt lat="45.28652" lon="5.83094">
        <ele>860.43402099609</ele>
        <time>2017-10-01T06:24:22Z</time>
      </trkpt>
      <trkpt lat="45.28656" lon="5.83094">
        <ele>861.43402099609</ele>
        <time>2017-10-01T06:24:25Z</time>
      </trkpt>
      <trkpt lat="45.2866" lon="5.83098">
        <ele>861.43402099609</ele>
        <time>2017-10-01T06:24:33Z</time>
      </trkpt>
      <trkpt lat="45.28665" lon="5.83096">
        <ele>862.43402099609</ele>
        <time>2017-10-01T06:24:37Z</time>
      </trkpt>
      <trkpt lat="45.28664" lon="5.83104">
        <ele>864.43402099609</ele>
        <time>2017-10-01T06:24:40Z</time>
      </trkpt>
      <trkpt lat="45.28667" lon="5.83112">
        <ele>858.43402099609</ele>
        <time>2017-10-01T06:24:48Z</time>
      </trkpt>
      <trkpt lat="45.28673" lon="5.83115">
        <ele>860.43402099609</ele>
        <time>2017-10-01T06:24:52Z</time>
      </trkpt>
      <trkpt lat="45.28675" lon="5.83124">
        <ele>861.43402099609</ele>
        <time>2017-10-01T06:24:55Z</time>
      </trkpt>
      <trkpt lat="45.28678" lon="5.83129">
        <ele>860.43402099609</ele>
        <time>2017-10-01T06:24:59Z</time>
      </trkpt>
      <trkpt lat="45.28678" lon="5.83135">
        <ele>861.43402099609</ele>
        <time>2017-10-01T06:25:04Z</time>
      </trkpt>
      <trkpt lat="45.28682" lon="5.83133">
        <ele>861.43402099609</ele>
        <time>2017-10-01T06:25:07Z</time>
      </trkpt>
      <trkpt lat="45.28679" lon="5.83143">
        <ele>857.43402099609</ele>
        <time>2017-10-01T06:26:10Z</time>
      </trkpt>
      <trkpt lat="45.28678" lon="5.8315">
        <ele>856.43402099609</ele>
        <time>2017-10-01T06:26:12Z</time>
      </trkpt>
      <trkpt lat="45.28673" lon="5.83157">
        <ele>854.43402099609</ele>
        <time>2017-10-01T06:26:15Z</time>
      </trkpt>
      <trkpt lat="45.28668" lon="5.83158">
        <ele>856.43402099609</ele>
        <time>2017-10-01T06:26:18Z</time>
      </trkpt>
      <trkpt lat="45.28663" lon="5.8317">
        <ele>856.43402099609</ele>
        <time>2017-10-01T06:26:22Z</time>
      </trkpt>
      <trkpt lat="45.28662" lon="5.83177">
        <ele>854.43499755859</ele>
        <time>2017-10-01T06:26:26Z</time>
      </trkpt>
      <trkpt lat="45.28657" lon="5.83181">
        <ele>854.43402099609</ele>
        <time>2017-10-01T06:26:30Z</time>
      </trkpt>
      <trkpt lat="45.28653" lon="5.83186">
        <ele>855.43402099609</ele>
        <time>2017-10-01T06:26:34Z</time>
      </trkpt>
      <trkpt lat="45.2865" lon="5.83192">
        <ele>854.43402099609</ele>
        <time>2017-10-01T06:26:37Z</time>
      </trkpt>
      <trkpt lat="45.28647" lon="5.83199">
        <ele>847.43402099609</ele>
        <time>2017-10-01T06:26:41Z</time>
      </trkpt>
      <trkpt lat="45.28643" lon="5.83196">
        <ele>849.43402099609</ele>
        <time>2017-10-01T06:26:43Z</time>
      </trkpt>
      <trkpt lat="45.28641" lon="5.83206">
        <ele>843.43402099609</ele>
        <time>2017-10-01T06:26:46Z</time>
      </trkpt>
      <trkpt lat="45.28636" lon="5.83205">
        <ele>843.43402099609</ele>
        <time>2017-10-01T06:26:48Z</time>
      </trkpt>
      <trkpt lat="45.28636" lon="5.83212">
        <ele>839.43402099609</ele>
        <time>2017-10-01T06:26:51Z</time>
      </trkpt>
      <trkpt lat="45.2864" lon="5.83214">
        <ele>836.43499755859</ele>
        <time>2017-10-01T06:26:53Z</time>
      </trkpt>
      <trkpt lat="45.28645" lon="5.83213">
        <ele>833.43499755859</ele>
        <time>2017-10-01T06:26:59Z</time>
      </trkpt>
      <trkpt lat="45.28649" lon="5.83217">
        <ele>830.43499755859</ele>
        <time>2017-10-01T06:27:01Z</time>
      </trkpt>
      <trkpt lat="45.28652" lon="5.8321">
        <ele>831.43499755859</ele>
        <time>2017-10-01T06:27:05Z</time>
      </trkpt>
      <trkpt lat="45.28657" lon="5.8321">
        <ele>830.43499755859</ele>
        <time>2017-10-01T06:27:08Z</time>
      </trkpt>
      <trkpt lat="45.28663" lon="5.83208">
        <ele>830.43499755859</ele>
        <time>2017-10-01T06:27:10Z</time>
      </trkpt>
      <trkpt lat="45.28668" lon="5.83207">
        <ele>829.43499755859</ele>
        <time>2017-10-01T06:27:12Z</time>
      </trkpt>
      <trkpt lat="45.2867" lon="5.832">
        <ele>834.43499755859</ele>
        <time>2017-10-01T06:27:17Z</time>
      </trkpt>
      <trkpt lat="45.28675" lon="5.83197">
        <ele>833.43499755859</ele>
        <time>2017-10-01T06:27:24Z</time>
      </trkpt>
      <trkpt lat="45.28682" lon="5.83197">
        <ele>830.43499755859</ele>
        <time>2017-10-01T06:27:49Z</time>
      </trkpt>
      <trkpt lat="45.28689" lon="5.83196">
        <ele>829.43499755859</ele>
        <time>2017-10-01T06:27:51Z</time>
      </trkpt>
      <trkpt lat="45.28698" lon="5.8319">
        <ele>830.43499755859</ele>
        <time>2017-10-01T06:27:53Z</time>
      </trkpt>
      <trkpt lat="45.28712" lon="5.83185">
        <ele>831.43499755859</ele>
        <time>2017-10-01T06:27:55Z</time>
      </trkpt>
      <trkpt lat="45.28723" lon="5.83191">
        <ele>828.43499755859</ele>
        <time>2017-10-01T06:27:56Z</time>
      </trkpt>
      <trkpt lat="45.28734" lon="5.83183">
        <ele>828.43499755859</ele>
        <time>2017-10-01T06:27:58Z</time>
      </trkpt>
      <trkpt lat="45.28738" lon="5.83201">
        <ele>831.43499755859</ele>
        <time>2017-10-01T06:28:02Z</time>
      </trkpt>
      <trkpt lat="45.28742" lon="5.8319">
        <ele>834.43499755859</ele>
        <time>2017-10-01T06:28:06Z</time>
      </trkpt>
      <trkpt lat="45.28747" lon="5.83183">
        <ele>833.43499755859</ele>
        <time>2017-10-01T06:28:08Z</time>
      </trkpt>
      <trkpt lat="45.28749" lon="5.83175">
        <ele>835.43499755859</ele>
        <time>2017-10-01T06:28:10Z</time>
      </trkpt>
      <trkpt lat="45.28748" lon="5.83159">
        <ele>836.43499755859</ele>
        <time>2017-10-01T06:28:12Z</time>
      </trkpt>
      <trkpt lat="45.28748" lon="5.8316">
        <ele>839.43499755859</ele>
        <time>2017-10-01T06:28:15Z</time>
      </trkpt>
      <trkpt lat="45.2875" lon="5.83153">
        <ele>841.43499755859</ele>
        <time>2017-10-01T06:28:18Z</time>
      </trkpt>
      <trkpt lat="45.28747" lon="5.83161">
        <ele>848.43499755859</ele>
        <time>2017-10-01T06:28:43Z</time>
      </trkpt>
      <trkpt lat="45.2874" lon="5.83178">
        <ele>855.43499755859</ele>
        <time>2017-10-01T06:28:46Z</time>
      </trkpt>
      <trkpt lat="45.28737" lon="5.83186">
        <ele>860.43499755859</ele>
        <time>2017-10-01T06:28:50Z</time>
      </trkpt>
      <trkpt lat="45.28734" lon="5.8319">
        <ele>859.43499755859</ele>
        <time>2017-10-01T06:28:52Z</time>
      </trkpt>
      <trkpt lat="45.28725" lon="5.83203">
        <ele>865.43499755859</ele>
        <time>2017-10-01T06:28:56Z</time>
      </trkpt>
      <trkpt lat="45.28721" lon="5.83199">
        <ele>866.43499755859</ele>
        <time>2017-10-01T06:28:59Z</time>
      </trkpt>
      <trkpt lat="45.28717" lon="5.83202">
        <ele>873.43499755859</ele>
        <time>2017-10-01T06:29:03Z</time>
      </trkpt>
      <trkpt lat="45.28714" lon="5.83207">
        <ele>878.43499755859</ele>
        <time>2017-10-01T06:29:05Z</time>
      </trkpt>
      <trkpt lat="45.2871" lon="5.83212">
        <ele>881.43499755859</ele>
        <time>2017-10-01T06:29:07Z</time>
      </trkpt>
      <trkpt lat="45.28708" lon="5.83219">
        <ele>879.43499755859</ele>
        <time>2017-10-01T06:29:10Z</time>
      </trkpt>
      <trkpt lat="45.28703" lon="5.83222">
        <ele>880.43499755859</ele>
        <time>2017-10-01T06:29:12Z</time>
      </trkpt>
      <trkpt lat="45.28698" lon="5.83231">
        <ele>879.43499755859</ele>
        <time>2017-10-01T06:29:14Z</time>
      </trkpt>
      <trkpt lat="45.28696" lon="5.8324">
        <ele>877.43499755859</ele>
        <time>2017-10-01T06:29:16Z</time>
      </trkpt>
      <trkpt lat="45.28692" lon="5.8325">
        <ele>873.43499755859</ele>
        <time>2017-10-01T06:29:19Z</time>
      </trkpt>
      <trkpt lat="45.28687" lon="5.83252">
        <ele>872.43499755859</ele>
        <time>2017-10-01T06:29:22Z</time>
      </trkpt>
      <trkpt lat="45.28687" lon="5.83262">
        <ele>867.43499755859</ele>
        <time>2017-10-01T06:29:29Z</time>
      </trkpt>
      <trkpt lat="45.28687" lon="5.83268">
        <ele>866.43499755859</ele>
        <time>2017-10-01T06:29:31Z</time>
      </trkpt>
      <trkpt lat="45.28687" lon="5.83275">
        <ele>865.43499755859</ele>
        <time>2017-10-01T06:29:33Z</time>
      </trkpt>
      <trkpt lat="45.28685" lon="5.83282">
        <ele>861.43499755859</ele>
        <time>2017-10-01T06:29:35Z</time>
      </trkpt>
      <trkpt lat="45.28681" lon="5.83281">
        <ele>862.43499755859</ele>
        <time>2017-10-01T06:29:40Z</time>
      </trkpt>
      <trkpt lat="45.28677" lon="5.83286">
        <ele>862.43499755859</ele>
        <time>2017-10-01T06:29:42Z</time>
      </trkpt>
      <trkpt lat="45.28672" lon="5.83288">
        <ele>863.43499755859</ele>
        <time>2017-10-01T06:29:45Z</time>
      </trkpt>
      <trkpt lat="45.28666" lon="5.83296">
        <ele>862.43499755859</ele>
        <time>2017-10-01T06:29:50Z</time>
      </trkpt>
      <trkpt lat="45.28662" lon="5.83301">
        <ele>864.43499755859</ele>
        <time>2017-10-01T06:29:55Z</time>
      </trkpt>
      <trkpt lat="45.28659" lon="5.83306">
        <ele>866.43499755859</ele>
        <time>2017-10-01T06:29:57Z</time>
      </trkpt>
      <trkpt lat="45.28654" lon="5.8331">
        <ele>867.43499755859</ele>
        <time>2017-10-01T06:30:02Z</time>
      </trkpt>
      <trkpt lat="45.2865" lon="5.83313">
        <ele>869.43499755859</ele>
        <time>2017-10-01T06:30:04Z</time>
      </trkpt>
      <trkpt lat="45.28646" lon="5.83319">
        <ele>875.43499755859</ele>
        <time>2017-10-01T06:30:09Z</time>
      </trkpt>
      <trkpt lat="45.28645" lon="5.83326">
        <ele>875.43499755859</ele>
        <time>2017-10-01T06:30:12Z</time>
      </trkpt>
      <trkpt lat="45.2864" lon="5.83329">
        <ele>881.43499755859</ele>
        <time>2017-10-01T06:30:16Z</time>
      </trkpt>
      <trkpt lat="45.28637" lon="5.83336">
        <ele>882.43499755859</ele>
        <time>2017-10-01T06:30:20Z</time>
      </trkpt>
      <trkpt lat="45.2864" lon="5.83323">
        <ele>895.43499755859</ele>
        <time>2017-10-01T06:30:26Z</time>
      </trkpt>
      <trkpt lat="45.28646" lon="5.83327">
        <ele>899.43499755859</ele>
        <time>2017-10-01T06:30:29Z</time>
      </trkpt>
      <trkpt lat="45.28651" lon="5.83324">
        <ele>904.43499755859</ele>
        <time>2017-10-01T06:30:32Z</time>
      </trkpt>
      <trkpt lat="45.28651" lon="5.83318">
        <ele>909.43499755859</ele>
        <time>2017-10-01T06:30:34Z</time>
      </trkpt>
      <trkpt lat="45.28656" lon="5.83318">
        <ele>912.43499755859</ele>
        <time>2017-10-01T06:30:38Z</time>
      </trkpt>
      <trkpt lat="45.28658" lon="5.8331">
        <ele>917.43499755859</ele>
        <time>2017-10-01T06:30:41Z</time>
      </trkpt>
      <trkpt lat="45.28657" lon="5.83296">
        <ele>921.43499755859</ele>
        <time>2017-10-01T06:30:43Z</time>
      </trkpt>
      <trkpt lat="45.28658" lon="5.83289">
        <ele>922.43499755859</ele>
        <time>2017-10-01T06:30:45Z</time>
      </trkpt>
      <trkpt lat="45.28666" lon="5.83291">
        <ele>927.43499755859</ele>
        <time>2017-10-01T06:31:17Z</time>
      </trkpt>
      <trkpt lat="45.2867" lon="5.8329">
        <ele>927.43499755859</ele>
        <time>2017-10-01T06:31:20Z</time>
      </trkpt>
      <trkpt lat="45.28677" lon="5.83287">
        <ele>924.43499755859</ele>
        <time>2017-10-01T06:31:22Z</time>
      </trkpt>
      <trkpt lat="45.28681" lon="5.8328">
        <ele>927.43499755859</ele>
        <time>2017-10-01T06:31:26Z</time>
      </trkpt>
      <trkpt lat="45.28685" lon="5.83271">
        <ele>927.43499755859</ele>
        <time>2017-10-01T06:31:28Z</time>
      </trkpt>
      <trkpt lat="45.2869" lon="5.83268">
        <ele>931.43499755859</ele>
        <time>2017-10-01T06:31:32Z</time>
      </trkpt>
      <trkpt lat="45.28694" lon="5.83261">
        <ele>932.43499755859</ele>
        <time>2017-10-01T06:31:35Z</time>
      </trkpt>
      <trkpt lat="45.28701" lon="5.83256">
        <ele>933.43499755859</ele>
        <time>2017-10-01T06:31:38Z</time>
      </trkpt>
      <trkpt lat="45.28706" lon="5.8325">
        <ele>931.43499755859</ele>
        <time>2017-10-01T06:31:41Z</time>
      </trkpt>
      <trkpt lat="45.28709" lon="5.83242">
        <ele>933.43499755859</ele>
        <time>2017-10-01T06:31:43Z</time>
      </trkpt>
      <trkpt lat="45.28716" lon="5.83243">
        <ele>933.43499755859</ele>
        <time>2017-10-01T06:31:46Z</time>
      </trkpt>
      <trkpt lat="45.28723" lon="5.83247">
        <ele>932.43499755859</ele>
        <time>2017-10-01T06:31:48Z</time>
      </trkpt>
      <trkpt lat="45.2873" lon="5.83237">
        <ele>933.43499755859</ele>
        <time>2017-10-01T06:31:50Z</time>
      </trkpt>
      <trkpt lat="45.28735" lon="5.83238">
        <ele>933.43499755859</ele>
        <time>2017-10-01T06:31:51Z</time>
      </trkpt>
      <trkpt lat="45.28747" lon="5.83256">
        <ele>932.43499755859</ele>
        <time>2017-10-01T06:31:53Z</time>
      </trkpt>
      <trkpt lat="45.28743" lon="5.83252">
        <ele>932.43499755859</ele>
        <time>2017-10-01T06:31:54Z</time>
      </trkpt>
      <trkpt lat="45.2875" lon="5.83262">
        <ele>931.43499755859</ele>
        <time>2017-10-01T06:31:58Z</time>
      </trkpt>
      <trkpt lat="45.28758" lon="5.83261">
        <ele>931.43499755859</ele>
        <time>2017-10-01T06:32:00Z</time>
      </trkpt>
      <trkpt lat="45.28759" lon="5.83237">
        <ele>932.43499755859</ele>
        <time>2017-10-01T06:32:03Z</time>
      </trkpt>
      <trkpt lat="45.28768" lon="5.83234">
        <ele>932.43499755859</ele>
        <time>2017-10-01T06:32:05Z</time>
      </trkpt>
      <trkpt lat="45.28773" lon="5.83225">
        <ele>933.43499755859</ele>
        <time>2017-10-01T06:32:06Z</time>
      </trkpt>
      <trkpt lat="45.2878" lon="5.83221">
        <ele>933.43499755859</ele>
        <time>2017-10-01T06:32:07Z</time>
      </trkpt>
      <trkpt lat="45.28783" lon="5.83226">
        <ele>932.43499755859</ele>
        <time>2017-10-01T06:32:09Z</time>
      </trkpt>
      <trkpt lat="45.2878" lon="5.83222">
        <ele>933.43499755859</ele>
        <time>2017-10-01T06:32:11Z</time>
      </trkpt>
      <trkpt lat="45.28782" lon="5.83215">
        <ele>932.43499755859</ele>
        <time>2017-10-01T06:32:13Z</time>
      </trkpt>
      <trkpt lat="45.28788" lon="5.8322">
        <ele>929.43499755859</ele>
        <time>2017-10-01T06:32:15Z</time>
      </trkpt>
      <trkpt lat="45.28793" lon="5.83205">
        <ele>930.43499755859</ele>
        <time>2017-10-01T06:32:19Z</time>
      </trkpt>
      <trkpt lat="45.28795" lon="5.83211">
        <ele>933.43499755859</ele>
        <time>2017-10-01T06:32:27Z</time>
      </trkpt>
      <trkpt lat="45.2879" lon="5.83221">
        <ele>936.43499755859</ele>
        <time>2017-10-01T06:33:05Z</time>
      </trkpt>
      <trkpt lat="45.28785" lon="5.83227">
        <ele>937.43499755859</ele>
        <time>2017-10-01T06:33:07Z</time>
      </trkpt>
      <trkpt lat="45.28787" lon="5.83236">
        <ele>933.43499755859</ele>
        <time>2017-10-01T06:33:09Z</time>
      </trkpt>
      <trkpt lat="45.28784" lon="5.83256">
        <ele>935.43499755859</ele>
        <time>2017-10-01T06:33:12Z</time>
      </trkpt>
      <trkpt lat="45.28778" lon="5.8326">
        <ele>937.43499755859</ele>
        <time>2017-10-01T06:33:15Z</time>
      </trkpt>
      <trkpt lat="45.28773" lon="5.83267">
        <ele>942.43499755859</ele>
        <time>2017-10-01T06:33:18Z</time>
      </trkpt>
      <trkpt lat="45.28767" lon="5.8327">
        <ele>946.43499755859</ele>
        <time>2017-10-01T06:33:22Z</time>
      </trkpt>
      <trkpt lat="45.28764" lon="5.83276">
        <ele>943.43499755859</ele>
        <time>2017-10-01T06:33:26Z</time>
      </trkpt>
      <trkpt lat="45.28757" lon="5.8329">
        <ele>945.43499755859</ele>
        <time>2017-10-01T06:33:28Z</time>
      </trkpt>
      <trkpt lat="45.28753" lon="5.83303">
        <ele>949.43499755859</ele>
        <time>2017-10-01T06:33:30Z</time>
      </trkpt>
      <trkpt lat="45.28746" lon="5.83306">
        <ele>952.43499755859</ele>
        <time>2017-10-01T06:33:34Z</time>
      </trkpt>
      <trkpt lat="45.28741" lon="5.83308">
        <ele>954.43499755859</ele>
        <time>2017-10-01T06:33:37Z</time>
      </trkpt>
      <trkpt lat="45.2874" lon="5.83315">
        <ele>953.43499755859</ele>
        <time>2017-10-01T06:33:39Z</time>
      </trkpt>
      <trkpt lat="45.28733" lon="5.83315">
        <ele>955.43499755859</ele>
        <time>2017-10-01T06:33:44Z</time>
      </trkpt>
      <trkpt lat="45.28726" lon="5.8332">
        <ele>958.43499755859</ele>
        <time>2017-10-01T06:33:46Z</time>
      </trkpt>
      <trkpt lat="45.28718" lon="5.8333">
        <ele>959.43499755859</ele>
        <time>2017-10-01T06:33:48Z</time>
      </trkpt>
      <trkpt lat="45.28711" lon="5.83339">
        <ele>961.43499755859</ele>
        <time>2017-10-01T06:33:50Z</time>
      </trkpt>
      <trkpt lat="45.28704" lon="5.83348">
        <ele>965.43499755859</ele>
        <time>2017-10-01T06:33:52Z</time>
      </trkpt>
      <trkpt lat="45.2871" lon="5.83346">
        <ele>963.43499755859</ele>
        <time>2017-10-01T06:33:53Z</time>
      </trkpt>
      <trkpt lat="45.2871" lon="5.83354">
        <ele>962.43499755859</ele>
        <time>2017-10-01T06:33:55Z</time>
      </trkpt>
      <trkpt lat="45.28706" lon="5.83347">
        <ele>970.43499755859</ele>
        <time>2017-10-01T06:33:58Z</time>
      </trkpt>
      <trkpt lat="45.28704" lon="5.83354">
        <ele>961.43499755859</ele>
        <time>2017-10-01T06:34:04Z</time>
      </trkpt>
      <trkpt lat="45.28699" lon="5.83357">
        <ele>966.43499755859</ele>
        <time>2017-10-01T06:34:10Z</time>
      </trkpt>
      <trkpt lat="45.28699" lon="5.83363">
        <ele>963.43499755859</ele>
        <time>2017-10-01T06:34:12Z</time>
      </trkpt>
      <trkpt lat="45.28694" lon="5.83367">
        <ele>963.43499755859</ele>
        <time>2017-10-01T06:34:27Z</time>
      </trkpt>
      <trkpt lat="45.28698" lon="5.83364">
        <ele>966.43499755859</ele>
        <time>2017-10-01T06:35:23Z</time>
      </trkpt>
      <trkpt lat="45.28704" lon="5.83366">
        <ele>966.43499755859</ele>
        <time>2017-10-01T06:35:25Z</time>
      </trkpt>
      <trkpt lat="45.28706" lon="5.83371">
        <ele>966.43499755859</ele>
        <time>2017-10-01T06:35:26Z</time>
      </trkpt>
      <trkpt lat="45.2871" lon="5.83376">
        <ele>967.43499755859</ele>
        <time>2017-10-01T06:35:28Z</time>
      </trkpt>
      <trkpt lat="45.28716" lon="5.83373">
        <ele>976.43499755859</ele>
        <time>2017-10-01T06:35:35Z</time>
      </trkpt>
      <trkpt lat="45.2872" lon="5.83364">
        <ele>980.43499755859</ele>
        <time>2017-10-01T06:35:38Z</time>
      </trkpt>
      <trkpt lat="45.28724" lon="5.83359">
        <ele>982.43499755859</ele>
        <time>2017-10-01T06:35:40Z</time>
      </trkpt>
      <trkpt lat="45.2873" lon="5.83362">
        <ele>982.43499755859</ele>
        <time>2017-10-01T06:35:43Z</time>
      </trkpt>
      <trkpt lat="45.28732" lon="5.83353">
        <ele>985.43499755859</ele>
        <time>2017-10-01T06:35:45Z</time>
      </trkpt>
      <trkpt lat="45.28735" lon="5.83347">
        <ele>987.43499755859</ele>
        <time>2017-10-01T06:35:47Z</time>
      </trkpt>
      <trkpt lat="45.28743" lon="5.83348">
        <ele>988.43499755859</ele>
        <time>2017-10-01T06:35:49Z</time>
      </trkpt>
      <trkpt lat="45.28748" lon="5.83353">
        <ele>991.43499755859</ele>
        <time>2017-10-01T06:35:51Z</time>
      </trkpt>
      <trkpt lat="45.28754" lon="5.83359">
        <ele>991.43499755859</ele>
        <time>2017-10-01T06:35:53Z</time>
      </trkpt>
      <trkpt lat="45.28761" lon="5.83362">
        <ele>988.43499755859</ele>
        <time>2017-10-01T06:35:56Z</time>
      </trkpt>
      <trkpt lat="45.28766" lon="5.83362">
        <ele>985.43499755859</ele>
        <time>2017-10-01T06:36:00Z</time>
      </trkpt>
      <trkpt lat="45.28771" lon="5.8336">
        <ele>987.43499755859</ele>
        <time>2017-10-01T06:36:06Z</time>
      </trkpt>
      <trkpt lat="45.28775" lon="5.83353">
        <ele>988.43499755859</ele>
        <time>2017-10-01T06:36:09Z</time>
      </trkpt>
      <trkpt lat="45.28781" lon="5.83352">
        <ele>989.43499755859</ele>
        <time>2017-10-01T06:36:12Z</time>
      </trkpt>
      <trkpt lat="45.28781" lon="5.8334">
        <ele>992.43499755859</ele>
        <time>2017-10-01T06:36:16Z</time>
      </trkpt>
      <trkpt lat="45.28782" lon="5.83326">
        <ele>995.43499755859</ele>
        <time>2017-10-01T06:36:18Z</time>
      </trkpt>
      <trkpt lat="45.28787" lon="5.83327">
        <ele>996.43499755859</ele>
        <time>2017-10-01T06:36:21Z</time>
      </trkpt>
      <trkpt lat="45.28789" lon="5.83321">
        <ele>996.43499755859</ele>
        <time>2017-10-01T06:36:23Z</time>
      </trkpt>
      <trkpt lat="45.28792" lon="5.83326">
        <ele>996.43499755859</ele>
        <time>2017-10-01T06:36:25Z</time>
      </trkpt>
      <trkpt lat="45.28797" lon="5.8332">
        <ele>998.43499755859</ele>
        <time>2017-10-01T06:36:30Z</time>
      </trkpt>
      <trkpt lat="45.28802" lon="5.83318">
        <ele>998.43499755859</ele>
        <time>2017-10-01T06:36:32Z</time>
      </trkpt>
      <trkpt lat="45.28806" lon="5.83315">
        <ele>998.43499755859</ele>
        <time>2017-10-01T06:36:36Z</time>
      </trkpt>
      <trkpt lat="45.28809" lon="5.83307">
        <ele>1001.4349975586</ele>
        <time>2017-10-01T06:36:38Z</time>
      </trkpt>
      <trkpt lat="45.28814" lon="5.83302">
        <ele>1003.4349975586</ele>
        <time>2017-10-01T06:36:40Z</time>
      </trkpt>
      <trkpt lat="45.28816" lon="5.83293">
        <ele>1006.4349975586</ele>
        <time>2017-10-01T06:36:43Z</time>
      </trkpt>
      <trkpt lat="45.28821" lon="5.83289">
        <ele>1009.4349975586</ele>
        <time>2017-10-01T06:36:47Z</time>
      </trkpt>
      <trkpt lat="45.28819" lon="5.83295">
        <ele>1020.4349975586</ele>
        <time>2017-10-01T06:37:07Z</time>
      </trkpt>
      <trkpt lat="45.28816" lon="5.83301">
        <ele>904.43499755859</ele>
        <time>2017-10-01T06:37:14Z</time>
      </trkpt>
      <trkpt lat="45.28813" lon="5.83309">
        <ele>996.43499755859</ele>
        <time>2017-10-01T06:37:36Z</time>
      </trkpt>
      <trkpt lat="45.2881" lon="5.8333">
        <ele>996.43499755859</ele>
        <time>2017-10-01T06:37:38Z</time>
      </trkpt>
      <trkpt lat="45.28804" lon="5.83343">
        <ele>995.43499755859</ele>
        <time>2017-10-01T06:37:40Z</time>
      </trkpt>
      <trkpt lat="45.28795" lon="5.83348">
        <ele>1001.4349975586</ele>
        <time>2017-10-01T06:37:43Z</time>
      </trkpt>
      <trkpt lat="45.28788" lon="5.83349">
        <ele>1001.4349975586</ele>
        <time>2017-10-01T06:37:46Z</time>
      </trkpt>
      <trkpt lat="45.28781" lon="5.83352">
        <ele>999.43499755859</ele>
        <time>2017-10-01T06:37:48Z</time>
      </trkpt>
      <trkpt lat="45.28776" lon="5.83364">
        <ele>1004.4349975586</ele>
        <time>2017-10-01T06:37:53Z</time>
      </trkpt>
      <trkpt lat="45.28776" lon="5.83372">
        <ele>1003.4349975586</ele>
        <time>2017-10-01T06:37:56Z</time>
      </trkpt>
      <trkpt lat="45.28779" lon="5.8338">
        <ele>1013.4349975586</ele>
        <time>2017-10-01T06:38:05Z</time>
      </trkpt>
      <trkpt lat="45.28778" lon="5.83387">
        <ele>1014.4349975586</ele>
        <time>2017-10-01T06:38:08Z</time>
      </trkpt>
      <trkpt lat="45.28772" lon="5.83387">
        <ele>1018.4349975586</ele>
        <time>2017-10-01T06:38:11Z</time>
      </trkpt>
      <trkpt lat="45.28771" lon="5.83394">
        <ele>1014.4349975586</ele>
        <time>2017-10-01T06:38:13Z</time>
      </trkpt>
      <trkpt lat="45.28767" lon="5.83401">
        <ele>1016.4349975586</ele>
        <time>2017-10-01T06:38:18Z</time>
      </trkpt>
      <trkpt lat="45.28768" lon="5.83408">
        <ele>1013.4349975586</ele>
        <time>2017-10-01T06:38:20Z</time>
      </trkpt>
      <trkpt lat="45.28763" lon="5.83409">
        <ele>1019.4349975586</ele>
        <time>2017-10-01T06:38:24Z</time>
      </trkpt>
      <trkpt lat="45.28759" lon="5.83413">
        <ele>1018.4349975586</ele>
        <time>2017-10-01T06:38:27Z</time>
      </trkpt>
      <trkpt lat="45.28754" lon="5.83418">
        <ele>1021.4349975586</ele>
        <time>2017-10-01T06:38:31Z</time>
      </trkpt>
      <trkpt lat="45.28749" lon="5.83415">
        <ele>1023.4349975586</ele>
        <time>2017-10-01T06:38:33Z</time>
      </trkpt>
      <trkpt lat="45.28741" lon="5.83416">
        <ele>1028.4350585938</ele>
        <time>2017-10-01T06:38:36Z</time>
      </trkpt>
      <trkpt lat="45.28738" lon="5.83425">
        <ele>1029.4350585938</ele>
        <time>2017-10-01T06:38:37Z</time>
      </trkpt>
      <trkpt lat="45.28734" lon="5.83429">
        <ele>1032.4350585938</ele>
        <time>2017-10-01T06:38:39Z</time>
      </trkpt>
      <trkpt lat="45.28728" lon="5.83431">
        <ele>1036.4350585938</ele>
        <time>2017-10-01T06:38:41Z</time>
      </trkpt>
      <trkpt lat="45.28727" lon="5.83438">
        <ele>1033.4350585938</ele>
        <time>2017-10-01T06:38:43Z</time>
      </trkpt>
      <trkpt lat="45.28733" lon="5.83443">
        <ele>1036.4350585938</ele>
        <time>2017-10-01T06:38:52Z</time>
      </trkpt>
      <trkpt lat="45.28736" lon="5.83436">
        <ele>1043.4350585938</ele>
        <time>2017-10-01T06:39:00Z</time>
      </trkpt>
      <trkpt lat="45.2874" lon="5.8344">
        <ele>1042.4350585938</ele>
        <time>2017-10-01T06:39:02Z</time>
      </trkpt>
      <trkpt lat="45.28749" lon="5.83445">
        <ele>1043.4350585938</ele>
        <time>2017-10-01T06:39:07Z</time>
      </trkpt>
      <trkpt lat="45.28754" lon="5.83451">
        <ele>1042.4350585938</ele>
        <time>2017-10-01T06:39:10Z</time>
      </trkpt>
      <trkpt lat="45.28758" lon="5.83453">
        <ele>1045.4350585938</ele>
        <time>2017-10-01T06:39:13Z</time>
      </trkpt>
      <trkpt lat="45.28762" lon="5.83457">
        <ele>1045.4350585938</ele>
        <time>2017-10-01T06:39:15Z</time>
      </trkpt>
      <trkpt lat="45.28763" lon="5.83445">
        <ele>1048.4350585938</ele>
        <time>2017-10-01T06:39:19Z</time>
      </trkpt>
      <trkpt lat="45.28764" lon="5.83439">
        <ele>1050.4350585938</ele>
        <time>2017-10-01T06:39:20Z</time>
      </trkpt>
      <trkpt lat="45.28764" lon="5.83446">
        <ele>1049.4350585938</ele>
        <time>2017-10-01T06:39:23Z</time>
      </trkpt>
      <trkpt lat="45.2877" lon="5.83434">
        <ele>1050.4350585938</ele>
        <time>2017-10-01T06:39:29Z</time>
      </trkpt>
      <trkpt lat="45.28775" lon="5.83426">
        <ele>1052.4350585938</ele>
        <time>2017-10-01T06:39:34Z</time>
      </trkpt>
      <trkpt lat="45.28774" lon="5.8342">
        <ele>1055.4350585938</ele>
        <time>2017-10-01T06:39:37Z</time>
      </trkpt>
      <trkpt lat="45.28778" lon="5.83423">
        <ele>1056.4350585938</ele>
        <time>2017-10-01T06:39:39Z</time>
      </trkpt>
      <trkpt lat="45.2878" lon="5.83415">
        <ele>1053.4350585938</ele>
        <time>2017-10-01T06:39:42Z</time>
      </trkpt>
      <trkpt lat="45.28781" lon="5.83407">
        <ele>1052.4350585938</ele>
        <time>2017-10-01T06:39:44Z</time>
      </trkpt>
      <trkpt lat="45.28785" lon="5.83402">
        <ele>1054.4350585938</ele>
        <time>2017-10-01T06:39:46Z</time>
      </trkpt>
      <trkpt lat="45.2879" lon="5.83406">
        <ele>1052.4350585938</ele>
        <time>2017-10-01T06:39:50Z</time>
      </trkpt>
      <trkpt lat="45.28793" lon="5.83411">
        <ele>1051.4350585938</ele>
        <time>2017-10-01T06:39:53Z</time>
      </trkpt>
      <trkpt lat="45.28798" lon="5.83409">
        <ele>1052.4350585938</ele>
        <time>2017-10-01T06:39:55Z</time>
      </trkpt>
      <trkpt lat="45.28803" lon="5.8341">
        <ele>1052.4350585938</ele>
        <time>2017-10-01T06:39:58Z</time>
      </trkpt>
      <trkpt lat="45.28805" lon="5.834">
        <ele>1055.4350585938</ele>
        <time>2017-10-01T06:40:03Z</time>
      </trkpt>
      <trkpt lat="45.28806" lon="5.83391">
        <ele>1055.4350585938</ele>
        <time>2017-10-01T06:40:07Z</time>
      </trkpt>
      <trkpt lat="45.2881" lon="5.83388">
        <ele>1056.4350585938</ele>
        <time>2017-10-01T06:40:09Z</time>
      </trkpt>
      <trkpt lat="45.28814" lon="5.83388">
        <ele>1057.4350585938</ele>
        <time>2017-10-01T06:40:11Z</time>
      </trkpt>
      <trkpt lat="45.28824" lon="5.83391">
        <ele>1056.4350585938</ele>
        <time>2017-10-01T06:40:16Z</time>
      </trkpt>
      <trkpt lat="45.28827" lon="5.83396">
        <ele>1056.4350585938</ele>
        <time>2017-10-01T06:40:19Z</time>
      </trkpt>
      <trkpt lat="45.28828" lon="5.83388">
        <ele>1058.4350585938</ele>
        <time>2017-10-01T06:40:22Z</time>
      </trkpt>
      <trkpt lat="45.28831" lon="5.83382">
        <ele>1060.4350585938</ele>
        <time>2017-10-01T06:40:25Z</time>
      </trkpt>
      <trkpt lat="45.28832" lon="5.83373">
        <ele>1063.4350585938</ele>
        <time>2017-10-01T06:40:28Z</time>
      </trkpt>
      <trkpt lat="45.28833" lon="5.83365">
        <ele>1064.4350585938</ele>
        <time>2017-10-01T06:40:30Z</time>
      </trkpt>
      <trkpt lat="45.28834" lon="5.83357">
        <ele>1066.4350585938</ele>
        <time>2017-10-01T06:40:34Z</time>
      </trkpt>
      <trkpt lat="45.28831" lon="5.83364">
        <ele>1071.4350585938</ele>
        <time>2017-10-01T06:41:07Z</time>
      </trkpt>
      <trkpt lat="45.28828" lon="5.83374">
        <ele>1071.4350585938</ele>
        <time>2017-10-01T06:41:09Z</time>
      </trkpt>
      <trkpt lat="45.28823" lon="5.83379">
        <ele>1072.4350585938</ele>
        <time>2017-10-01T06:41:13Z</time>
      </trkpt>
      <trkpt lat="45.28818" lon="5.83385">
        <ele>1074.4350585938</ele>
        <time>2017-10-01T06:41:18Z</time>
      </trkpt>
      <trkpt lat="45.28809" lon="5.83389">
        <ele>1075.4350585938</ele>
        <time>2017-10-01T06:41:21Z</time>
      </trkpt>
      <trkpt lat="45.28806" lon="5.83398">
        <ele>1076.4350585938</ele>
        <time>2017-10-01T06:41:24Z</time>
      </trkpt>
      <trkpt lat="45.28802" lon="5.83404">
        <ele>1076.4350585938</ele>
        <time>2017-10-01T06:41:27Z</time>
      </trkpt>
      <trkpt lat="45.28804" lon="5.83399">
        <ele>1080.4350585938</ele>
        <time>2017-10-01T06:41:34Z</time>
      </trkpt>
      <trkpt lat="45.2881" lon="5.83403">
        <ele>1080.4350585938</ele>
        <time>2017-10-01T06:41:38Z</time>
      </trkpt>
      <trkpt lat="45.28811" lon="5.8341">
        <ele>1079.4350585938</ele>
        <time>2017-10-01T06:41:42Z</time>
      </trkpt>
      <trkpt lat="45.28815" lon="5.83412">
        <ele>1079.4350585938</ele>
        <time>2017-10-01T06:41:47Z</time>
      </trkpt>
      <trkpt lat="45.28819" lon="5.83419">
        <ele>1078.4350585938</ele>
        <time>2017-10-01T06:41:49Z</time>
      </trkpt>
      <trkpt lat="45.28818" lon="5.8341">
        <ele>1080.4350585938</ele>
        <time>2017-10-01T06:41:52Z</time>
      </trkpt>
      <trkpt lat="45.28823" lon="5.83406">
        <ele>1084.4350585938</ele>
        <time>2017-10-01T06:41:55Z</time>
      </trkpt>
      <trkpt lat="45.28829" lon="5.83409">
        <ele>1084.4350585938</ele>
        <time>2017-10-01T06:41:59Z</time>
      </trkpt>
      <trkpt lat="45.28834" lon="5.83404">
        <ele>1085.4350585938</ele>
        <time>2017-10-01T06:42:03Z</time>
      </trkpt>
      <trkpt lat="45.2884" lon="5.83402">
        <ele>1086.4350585938</ele>
        <time>2017-10-01T06:42:08Z</time>
      </trkpt>
      <trkpt lat="45.28841" lon="5.83396">
        <ele>1088.4350585938</ele>
        <time>2017-10-01T06:42:10Z</time>
      </trkpt>
      <trkpt lat="45.28843" lon="5.8339">
        <ele>1090.4350585938</ele>
        <time>2017-10-01T06:42:12Z</time>
      </trkpt>
      <trkpt lat="45.28848" lon="5.83385">
        <ele>1090.4350585938</ele>
        <time>2017-10-01T06:42:21Z</time>
      </trkpt>
      <trkpt lat="45.28849" lon="5.83375">
        <ele>1095.4350585938</ele>
        <time>2017-10-01T06:42:23Z</time>
      </trkpt>
      <trkpt lat="45.28849" lon="5.83367">
        <ele>1097.4350585938</ele>
        <time>2017-10-01T06:42:25Z</time>
      </trkpt>
      <trkpt lat="45.28846" lon="5.83361">
        <ele>1096.4350585938</ele>
        <time>2017-10-01T06:42:28Z</time>
      </trkpt>
      <trkpt lat="45.28843" lon="5.83354">
        <ele>1098.4350585938</ele>
        <time>2017-10-01T06:42:30Z</time>
      </trkpt>
      <trkpt lat="45.28843" lon="5.83343">
        <ele>1100.4350585938</ele>
        <time>2017-10-01T06:42:35Z</time>
      </trkpt>
      <trkpt lat="45.2885" lon="5.83357">
        <ele>1101.4350585938</ele>
        <time>2017-10-01T06:42:42Z</time>
      </trkpt>
      <trkpt lat="45.28846" lon="5.83364">
        <ele>1101.4350585938</ele>
        <time>2017-10-01T06:42:49Z</time>
      </trkpt>
      <trkpt lat="45.28846" lon="5.83374">
        <ele>1102.4350585938</ele>
        <time>2017-10-01T06:42:56Z</time>
      </trkpt>
      <trkpt lat="45.28846" lon="5.83382">
        <ele>1102.4350585938</ele>
        <time>2017-10-01T06:42:58Z</time>
      </trkpt>
      <trkpt lat="45.28843" lon="5.83387">
        <ele>1104.4350585938</ele>
        <time>2017-10-01T06:43:03Z</time>
      </trkpt>
      <trkpt lat="45.28842" lon="5.83394">
        <ele>1103.4350585938</ele>
        <time>2017-10-01T06:43:05Z</time>
      </trkpt>
      <trkpt lat="45.28842" lon="5.83405">
        <ele>1101.4350585938</ele>
        <time>2017-10-01T06:43:09Z</time>
      </trkpt>
      <trkpt lat="45.28845" lon="5.83417">
        <ele>1099.4350585938</ele>
        <time>2017-10-01T06:43:12Z</time>
      </trkpt>
      <trkpt lat="45.28842" lon="5.83425">
        <ele>1098.4350585938</ele>
        <time>2017-10-01T06:43:15Z</time>
      </trkpt>
      <trkpt lat="45.2884" lon="5.83418">
        <ele>1100.4350585938</ele>
        <time>2017-10-01T06:43:17Z</time>
      </trkpt>
      <trkpt lat="45.28837" lon="5.83423">
        <ele>1100.4350585938</ele>
        <time>2017-10-01T06:43:20Z</time>
      </trkpt>
      <trkpt lat="45.28833" lon="5.83419">
        <ele>1102.4350585938</ele>
        <time>2017-10-01T06:43:24Z</time>
      </trkpt>
      <trkpt lat="45.28829" lon="5.83421">
        <ele>1104.4350585938</ele>
        <time>2017-10-01T06:43:26Z</time>
      </trkpt>
      <trkpt lat="45.28824" lon="5.83421">
        <ele>1100.4350585938</ele>
        <time>2017-10-01T06:43:31Z</time>
      </trkpt>
      <trkpt lat="45.2882" lon="5.83426">
        <ele>1103.4350585938</ele>
        <time>2017-10-01T06:43:35Z</time>
      </trkpt>
      <trkpt lat="45.28816" lon="5.83431">
        <ele>1105.4350585938</ele>
        <time>2017-10-01T06:43:37Z</time>
      </trkpt>
      <trkpt lat="45.28812" lon="5.83437">
        <ele>1106.4350585938</ele>
        <time>2017-10-01T06:43:42Z</time>
      </trkpt>
      <trkpt lat="45.28813" lon="5.83446">
        <ele>1104.4350585938</ele>
        <time>2017-10-01T06:43:44Z</time>
      </trkpt>
      <trkpt lat="45.28815" lon="5.83439">
        <ele>1107.4350585938</ele>
        <time>2017-10-01T06:43:49Z</time>
      </trkpt>
      <trkpt lat="45.2882" lon="5.83443">
        <ele>1106.4350585938</ele>
        <time>2017-10-01T06:43:53Z</time>
      </trkpt>
      <trkpt lat="45.28822" lon="5.83437">
        <ele>1109.4350585938</ele>
        <time>2017-10-01T06:43:55Z</time>
      </trkpt>
      <trkpt lat="45.28824" lon="5.8343">
        <ele>1108.4350585938</ele>
        <time>2017-10-01T06:44:00Z</time>
      </trkpt>
      <trkpt lat="45.28828" lon="5.83435">
        <ele>1107.4350585938</ele>
        <time>2017-10-01T06:44:03Z</time>
      </trkpt>
      <trkpt lat="45.28833" lon="5.83436">
        <ele>1106.4350585938</ele>
        <time>2017-10-01T06:44:08Z</time>
      </trkpt>
      <trkpt lat="45.28837" lon="5.83432">
        <ele>1109.4350585938</ele>
        <time>2017-10-01T06:44:11Z</time>
      </trkpt>
      <trkpt lat="45.2884" lon="5.83425">
        <ele>1112.4350585938</ele>
        <time>2017-10-01T06:44:14Z</time>
      </trkpt>
      <trkpt lat="45.28847" lon="5.83424">
        <ele>1113.4350585938</ele>
        <time>2017-10-01T06:44:20Z</time>
      </trkpt>
      <trkpt lat="45.28851" lon="5.83427">
        <ele>1113.4350585938</ele>
        <time>2017-10-01T06:44:24Z</time>
      </trkpt>
      <trkpt lat="45.28854" lon="5.8342">
        <ele>1114.4350585938</ele>
        <time>2017-10-01T06:44:27Z</time>
      </trkpt>
      <trkpt lat="45.28857" lon="5.83414">
        <ele>1117.4350585938</ele>
        <time>2017-10-01T06:44:31Z</time>
      </trkpt>
      <trkpt lat="45.28859" lon="5.83408">
        <ele>1119.4350585938</ele>
        <time>2017-10-01T06:44:34Z</time>
      </trkpt>
      <trkpt lat="45.28866" lon="5.83412">
        <ele>1119.4350585938</ele>
        <time>2017-10-01T06:44:37Z</time>
      </trkpt>
      <trkpt lat="45.28873" lon="5.83414">
        <ele>1120.4350585938</ele>
        <time>2017-10-01T06:44:41Z</time>
      </trkpt>
      <trkpt lat="45.28875" lon="5.83408">
        <ele>1122.4350585938</ele>
        <time>2017-10-01T06:44:44Z</time>
      </trkpt>
      <trkpt lat="45.28881" lon="5.83407">
        <ele>1121.4350585938</ele>
        <time>2017-10-01T06:44:48Z</time>
      </trkpt>
      <trkpt lat="45.28886" lon="5.83406">
        <ele>1124.4350585938</ele>
        <time>2017-10-01T06:44:55Z</time>
      </trkpt>
      <trkpt lat="45.28881" lon="5.83406">
        <ele>1128.4350585938</ele>
        <time>2017-10-01T06:45:17Z</time>
      </trkpt>
      <trkpt lat="45.28876" lon="5.83412">
        <ele>1128.4350585938</ele>
        <time>2017-10-01T06:45:20Z</time>
      </trkpt>
      <trkpt lat="45.28869" lon="5.8342">
        <ele>1130.4350585938</ele>
        <time>2017-10-01T06:45:25Z</time>
      </trkpt>
      <trkpt lat="45.28863" lon="5.83433">
        <ele>1134.4350585938</ele>
        <time>2017-10-01T06:45:28Z</time>
      </trkpt>
      <trkpt lat="45.28858" lon="5.83433">
        <ele>1135.4350585938</ele>
        <time>2017-10-01T06:45:32Z</time>
      </trkpt>
      <trkpt lat="45.28854" lon="5.83439">
        <ele>1137.4350585938</ele>
        <time>2017-10-01T06:45:35Z</time>
      </trkpt>
      <trkpt lat="45.28852" lon="5.83448">
        <ele>1137.4350585938</ele>
        <time>2017-10-01T06:45:38Z</time>
      </trkpt>
      <trkpt lat="45.2885" lon="5.83456">
        <ele>1136.4350585938</ele>
        <time>2017-10-01T06:45:40Z</time>
      </trkpt>
      <trkpt lat="45.28846" lon="5.83464">
        <ele>1138.4350585938</ele>
        <time>2017-10-01T06:45:43Z</time>
      </trkpt>
      <trkpt lat="45.28844" lon="5.83476">
        <ele>1136.4350585938</ele>
        <time>2017-10-01T06:45:45Z</time>
      </trkpt>
      <trkpt lat="45.28842" lon="5.83482">
        <ele>1139.4350585938</ele>
        <time>2017-10-01T06:45:50Z</time>
      </trkpt>
      <trkpt lat="45.28841" lon="5.83489">
        <ele>1139.4350585938</ele>
        <time>2017-10-01T06:45:54Z</time>
      </trkpt>
      <trkpt lat="45.28835" lon="5.83494">
        <ele>1139.4350585938</ele>
        <time>2017-10-01T06:45:56Z</time>
      </trkpt>
      <trkpt lat="45.28832" lon="5.835">
        <ele>1140.4350585938</ele>
        <time>2017-10-01T06:45:58Z</time>
      </trkpt>
      <trkpt lat="45.28826" lon="5.83505">
        <ele>1141.4350585938</ele>
        <time>2017-10-01T06:46:00Z</time>
      </trkpt>
      <trkpt lat="45.28824" lon="5.83511">
        <ele>1142.4350585938</ele>
        <time>2017-10-01T06:46:04Z</time>
      </trkpt>
      <trkpt lat="45.28829" lon="5.83513">
        <ele>1142.4350585938</ele>
        <time>2017-10-01T06:46:11Z</time>
      </trkpt>
      <trkpt lat="45.28833" lon="5.83509">
        <ele>1144.4350585938</ele>
        <time>2017-10-01T06:46:15Z</time>
      </trkpt>
      <trkpt lat="45.28836" lon="5.83502">
        <ele>1150.4350585938</ele>
        <time>2017-10-01T06:46:19Z</time>
      </trkpt>
      <trkpt lat="45.2884" lon="5.835">
        <ele>1150.4350585938</ele>
        <time>2017-10-01T06:46:22Z</time>
      </trkpt>
      <trkpt lat="45.28842" lon="5.83493">
        <ele>1152.4350585938</ele>
        <time>2017-10-01T06:46:25Z</time>
      </trkpt>
      <trkpt lat="45.28847" lon="5.83495">
        <ele>1150.4350585938</ele>
        <time>2017-10-01T06:46:29Z</time>
      </trkpt>
      <trkpt lat="45.28849" lon="5.83487">
        <ele>1154.4350585938</ele>
        <time>2017-10-01T06:46:32Z</time>
      </trkpt>
      <trkpt lat="45.28853" lon="5.83489">
        <ele>1155.4350585938</ele>
        <time>2017-10-01T06:46:37Z</time>
      </trkpt>
      <trkpt lat="45.28856" lon="5.83494">
        <ele>1159.4350585938</ele>
        <time>2017-10-01T06:46:43Z</time>
      </trkpt>
      <trkpt lat="45.28859" lon="5.83499">
        <ele>1159.4350585938</ele>
        <time>2017-10-01T06:46:55Z</time>
      </trkpt>
      <trkpt lat="45.28863" lon="5.83506">
        <ele>1160.4350585938</ele>
        <time>2017-10-01T06:47:19Z</time>
      </trkpt>
      <trkpt lat="45.28869" lon="5.83511">
        <ele>1163.4350585938</ele>
        <time>2017-10-01T06:47:23Z</time>
      </trkpt>
      <trkpt lat="45.2887" lon="5.83519">
        <ele>1163.4350585938</ele>
        <time>2017-10-01T06:47:27Z</time>
      </trkpt>
      <trkpt lat="45.28866" lon="5.83525">
        <ele>1166.4350585938</ele>
        <time>2017-10-01T06:47:31Z</time>
      </trkpt>
      <trkpt lat="45.28863" lon="5.83532">
        <ele>1169.4350585938</ele>
        <time>2017-10-01T06:47:36Z</time>
      </trkpt>
      <trkpt lat="45.2886" lon="5.83538">
        <ele>1172.4350585938</ele>
        <time>2017-10-01T06:47:40Z</time>
      </trkpt>
      <trkpt lat="45.28856" lon="5.83542">
        <ele>1171.4350585938</ele>
        <time>2017-10-01T06:47:45Z</time>
      </trkpt>
      <trkpt lat="45.28852" lon="5.83545">
        <ele>1175.4350585938</ele>
        <time>2017-10-01T06:47:50Z</time>
      </trkpt>
      <trkpt lat="45.28849" lon="5.83552">
        <ele>1175.4350585938</ele>
        <time>2017-10-01T06:47:55Z</time>
      </trkpt>
      <trkpt lat="45.28847" lon="5.83559">
        <ele>1177.4350585938</ele>
        <time>2017-10-01T06:48:00Z</time>
      </trkpt>
      <trkpt lat="45.28843" lon="5.83564">
        <ele>1180.4350585938</ele>
        <time>2017-10-01T06:48:03Z</time>
      </trkpt>
      <trkpt lat="45.28843" lon="5.83573">
        <ele>1178.4350585938</ele>
        <time>2017-10-01T06:48:05Z</time>
      </trkpt>
      <trkpt lat="45.28842" lon="5.8358">
        <ele>1175.4350585938</ele>
        <time>2017-10-01T06:48:07Z</time>
      </trkpt>
      <trkpt lat="45.28837" lon="5.83584">
        <ele>1178.4350585938</ele>
        <time>2017-10-01T06:48:12Z</time>
      </trkpt>
      <trkpt lat="45.28835" lon="5.83591">
        <ele>1180.4350585938</ele>
        <time>2017-10-01T06:48:15Z</time>
      </trkpt>
      <trkpt lat="45.28832" lon="5.83599">
        <ele>1181.4350585938</ele>
        <time>2017-10-01T06:48:19Z</time>
      </trkpt>
      <trkpt lat="45.28828" lon="5.83606">
        <ele>1184.4350585938</ele>
        <time>2017-10-01T06:48:23Z</time>
      </trkpt>
      <trkpt lat="45.28825" lon="5.83615">
        <ele>1184.4350585938</ele>
        <time>2017-10-01T06:48:26Z</time>
      </trkpt>
      <trkpt lat="45.28822" lon="5.83609">
        <ele>1186.4350585938</ele>
        <time>2017-10-01T06:48:30Z</time>
      </trkpt>
      <trkpt lat="45.28822" lon="5.83619">
        <ele>1185.4350585938</ele>
        <time>2017-10-01T06:48:33Z</time>
      </trkpt>
      <trkpt lat="45.28821" lon="5.83626">
        <ele>1185.4350585938</ele>
        <time>2017-10-01T06:48:35Z</time>
      </trkpt>
      <trkpt lat="45.28818" lon="5.83637">
        <ele>1183.4350585938</ele>
        <time>2017-10-01T06:48:37Z</time>
      </trkpt>
      <trkpt lat="45.28813" lon="5.83637">
        <ele>1186.4350585938</ele>
        <time>2017-10-01T06:48:40Z</time>
      </trkpt>
      <trkpt lat="45.28811" lon="5.83644">
        <ele>1191.4350585938</ele>
        <time>2017-10-01T06:48:45Z</time>
      </trkpt>
      <trkpt lat="45.28806" lon="5.83647">
        <ele>1195.4350585938</ele>
        <time>2017-10-01T06:48:49Z</time>
      </trkpt>
      <trkpt lat="45.28802" lon="5.8365">
        <ele>1194.4350585938</ele>
        <time>2017-10-01T06:48:54Z</time>
      </trkpt>
      <trkpt lat="45.28799" lon="5.83654">
        <ele>1194.4350585938</ele>
        <time>2017-10-01T06:48:59Z</time>
      </trkpt>
      <trkpt lat="45.28795" lon="5.83658">
        <ele>1194.4350585938</ele>
        <time>2017-10-01T06:49:06Z</time>
      </trkpt>
      <trkpt lat="45.28791" lon="5.83663">
        <ele>1191.4350585938</ele>
        <time>2017-10-01T06:49:09Z</time>
      </trkpt>
      <trkpt lat="45.28791" lon="5.8367">
        <ele>1191.4350585938</ele>
        <time>2017-10-01T06:49:12Z</time>
      </trkpt>
      <trkpt lat="45.28789" lon="5.83676">
        <ele>1189.4350585938</ele>
        <time>2017-10-01T06:49:14Z</time>
      </trkpt>
      <trkpt lat="45.28786" lon="5.83683">
        <ele>1188.4350585938</ele>
        <time>2017-10-01T06:49:16Z</time>
      </trkpt>
      <trkpt lat="45.28783" lon="5.8369">
        <ele>1187.4350585938</ele>
        <time>2017-10-01T06:49:20Z</time>
      </trkpt>
      <trkpt lat="45.28778" lon="5.837">
        <ele>1190.4350585938</ele>
        <time>2017-10-01T06:49:26Z</time>
      </trkpt>
      <trkpt lat="45.28775" lon="5.83707">
        <ele>1190.4350585938</ele>
        <time>2017-10-01T06:49:28Z</time>
      </trkpt>
      <trkpt lat="45.28773" lon="5.83715">
        <ele>1191.4350585938</ele>
        <time>2017-10-01T06:49:33Z</time>
      </trkpt>
      <trkpt lat="45.28776" lon="5.83722">
        <ele>1191.4350585938</ele>
        <time>2017-10-01T06:49:37Z</time>
      </trkpt>
      <trkpt lat="45.28776" lon="5.83731">
        <ele>1190.4350585938</ele>
        <time>2017-10-01T06:49:40Z</time>
      </trkpt>
      <trkpt lat="45.28777" lon="5.83739">
        <ele>1190.4360351562</ele>
        <time>2017-10-01T06:49:43Z</time>
      </trkpt>
      <trkpt lat="45.28777" lon="5.83747">
        <ele>1190.4360351562</ele>
        <time>2017-10-01T06:49:47Z</time>
      </trkpt>
      <trkpt lat="45.28773" lon="5.83747">
        <ele>1189.4360351562</ele>
        <time>2017-10-01T06:49:52Z</time>
      </trkpt>
      <trkpt lat="45.28767" lon="5.83745">
        <ele>1190.4350585938</ele>
        <time>2017-10-01T06:49:54Z</time>
      </trkpt>
      <trkpt lat="45.28765" lon="5.83738">
        <ele>1190.4350585938</ele>
        <time>2017-10-01T06:49:57Z</time>
      </trkpt>
      <trkpt lat="45.28764" lon="5.83732">
        <ele>1188.4350585938</ele>
        <time>2017-10-01T06:50:01Z</time>
      </trkpt>
      <trkpt lat="45.28767" lon="5.83727">
        <ele>1189.4350585938</ele>
        <time>2017-10-01T06:50:04Z</time>
      </trkpt>
      <trkpt lat="45.28771" lon="5.83721">
        <ele>1187.4350585938</ele>
        <time>2017-10-01T06:50:06Z</time>
      </trkpt>
      <trkpt lat="45.28774" lon="5.83712">
        <ele>1190.4350585938</ele>
        <time>2017-10-01T06:50:09Z</time>
      </trkpt>
      <trkpt lat="45.28768" lon="5.83712">
        <ele>1191.4350585938</ele>
        <time>2017-10-01T06:50:18Z</time>
      </trkpt>
      <trkpt lat="45.28764" lon="5.83717">
        <ele>1195.4350585938</ele>
        <time>2017-10-01T06:50:23Z</time>
      </trkpt>
      <trkpt lat="45.28761" lon="5.83724">
        <ele>1196.4350585938</ele>
        <time>2017-10-01T06:50:26Z</time>
      </trkpt>
      <trkpt lat="45.28759" lon="5.83729">
        <ele>1196.4350585938</ele>
        <time>2017-10-01T06:50:30Z</time>
      </trkpt>
      <trkpt lat="45.28758" lon="5.83736">
        <ele>1196.4350585938</ele>
        <time>2017-10-01T06:50:37Z</time>
      </trkpt>
      <trkpt lat="45.2876" lon="5.83743">
        <ele>1195.4350585938</ele>
        <time>2017-10-01T06:50:41Z</time>
      </trkpt>
      <trkpt lat="45.28763" lon="5.83749">
        <ele>1194.4350585938</ele>
        <time>2017-10-01T06:50:45Z</time>
      </trkpt>
      <trkpt lat="45.28765" lon="5.83754">
        <ele>1195.4350585938</ele>
        <time>2017-10-01T06:50:52Z</time>
      </trkpt>
      <trkpt lat="45.28767" lon="5.83761">
        <ele>1159.4360351562</ele>
        <time>2017-10-01T06:50:59Z</time>
      </trkpt>
      <trkpt lat="45.28771" lon="5.83765">
        <ele>1199.4360351562</ele>
        <time>2017-10-01T06:51:21Z</time>
      </trkpt>
      <trkpt lat="45.28778" lon="5.83767">
        <ele>1200.4360351562</ele>
        <time>2017-10-01T06:51:41Z</time>
      </trkpt>
      <trkpt lat="45.28783" lon="5.83767">
        <ele>1199.4360351562</ele>
        <time>2017-10-01T06:51:43Z</time>
      </trkpt>
      <trkpt lat="45.28791" lon="5.83767">
        <ele>1200.4360351562</ele>
        <time>2017-10-01T06:51:46Z</time>
      </trkpt>
      <trkpt lat="45.28797" lon="5.83767">
        <ele>1200.4360351562</ele>
        <time>2017-10-01T06:51:49Z</time>
      </trkpt>
      <trkpt lat="45.28802" lon="5.83769">
        <ele>1201.4360351562</ele>
        <time>2017-10-01T06:51:52Z</time>
      </trkpt>
      <trkpt lat="45.28806" lon="5.8377">
        <ele>1201.4360351562</ele>
        <time>2017-10-01T06:51:55Z</time>
      </trkpt>
      <trkpt lat="45.28811" lon="5.83772">
        <ele>1202.4360351562</ele>
        <time>2017-10-01T06:51:59Z</time>
      </trkpt>
      <trkpt lat="45.28817" lon="5.83771">
        <ele>1201.4360351562</ele>
        <time>2017-10-01T06:52:03Z</time>
      </trkpt>
      <trkpt lat="45.2882" lon="5.83766">
        <ele>1200.4360351562</ele>
        <time>2017-10-01T06:52:04Z</time>
      </trkpt>
      <trkpt lat="45.28826" lon="5.83766">
        <ele>1199.4360351562</ele>
        <time>2017-10-01T06:52:10Z</time>
      </trkpt>
      <trkpt lat="45.28832" lon="5.83766">
        <ele>1201.4360351562</ele>
        <time>2017-10-01T06:52:13Z</time>
      </trkpt>
      <trkpt lat="45.28836" lon="5.83765">
        <ele>1202.4360351562</ele>
        <time>2017-10-01T06:52:17Z</time>
      </trkpt>
      <trkpt lat="45.28846" lon="5.83758">
        <ele>1201.4360351562</ele>
        <time>2017-10-01T06:52:20Z</time>
      </trkpt>
      <trkpt lat="45.28851" lon="5.83756">
        <ele>1203.4360351562</ele>
        <time>2017-10-01T06:52:22Z</time>
      </trkpt>
      <trkpt lat="45.28853" lon="5.83748">
        <ele>1203.4360351562</ele>
        <time>2017-10-01T06:52:26Z</time>
      </trkpt>
      <trkpt lat="45.28852" lon="5.83741">
        <ele>1202.4360351562</ele>
        <time>2017-10-01T06:52:31Z</time>
      </trkpt>
      <trkpt lat="45.28851" lon="5.83732">
        <ele>1206.4360351562</ele>
        <time>2017-10-01T06:52:36Z</time>
      </trkpt>
      <trkpt lat="45.28852" lon="5.83722">
        <ele>1208.4360351562</ele>
        <time>2017-10-01T06:52:38Z</time>
      </trkpt>
      <trkpt lat="45.28859" lon="5.83714">
        <ele>1208.4360351562</ele>
        <time>2017-10-01T06:52:41Z</time>
      </trkpt>
      <trkpt lat="45.28864" lon="5.83713">
        <ele>1211.4360351562</ele>
        <time>2017-10-01T06:52:48Z</time>
      </trkpt>
      <trkpt lat="45.28869" lon="5.83717">
        <ele>1210.4360351562</ele>
        <time>2017-10-01T06:52:52Z</time>
      </trkpt>
      <trkpt lat="45.28875" lon="5.83716">
        <ele>1209.4360351562</ele>
        <time>2017-10-01T06:52:56Z</time>
      </trkpt>
      <trkpt lat="45.2888" lon="5.83714">
        <ele>1210.4360351562</ele>
        <time>2017-10-01T06:52:59Z</time>
      </trkpt>
      <trkpt lat="45.28885" lon="5.83715">
        <ele>1211.4360351562</ele>
        <time>2017-10-01T06:53:03Z</time>
      </trkpt>
      <trkpt lat="45.28891" lon="5.83713">
        <ele>1211.4360351562</ele>
        <time>2017-10-01T06:53:08Z</time>
      </trkpt>
      <trkpt lat="45.28896" lon="5.83716">
        <ele>1213.4360351562</ele>
        <time>2017-10-01T06:53:13Z</time>
      </trkpt>
      <trkpt lat="45.28901" lon="5.83716">
        <ele>1218.4360351562</ele>
        <time>2017-10-01T06:53:22Z</time>
      </trkpt>
      <trkpt lat="45.28906" lon="5.83714">
        <ele>1224.4360351562</ele>
        <time>2017-10-01T06:53:38Z</time>
      </trkpt>
      <trkpt lat="45.28907" lon="5.83707">
        <ele>1223.4360351562</ele>
        <time>2017-10-01T06:53:42Z</time>
      </trkpt>
      <trkpt lat="45.28911" lon="5.83704">
        <ele>1224.4360351562</ele>
        <time>2017-10-01T06:53:45Z</time>
      </trkpt>
      <trkpt lat="45.28915" lon="5.83698">
        <ele>1225.4360351562</ele>
        <time>2017-10-01T06:53:48Z</time>
      </trkpt>
      <trkpt lat="45.28918" lon="5.83694">
        <ele>1230.4360351562</ele>
        <time>2017-10-01T06:53:52Z</time>
      </trkpt>
      <trkpt lat="45.28922" lon="5.83688">
        <ele>1232.4360351562</ele>
        <time>2017-10-01T06:53:56Z</time>
      </trkpt>
      <trkpt lat="45.28924" lon="5.83681">
        <ele>1233.4360351562</ele>
        <time>2017-10-01T06:53:58Z</time>
      </trkpt>
      <trkpt lat="45.28927" lon="5.83676">
        <ele>1236.4360351562</ele>
        <time>2017-10-01T06:54:02Z</time>
      </trkpt>
      <trkpt lat="45.28931" lon="5.83669">
        <ele>1240.4360351562</ele>
        <time>2017-10-01T06:54:07Z</time>
      </trkpt>
      <trkpt lat="45.28937" lon="5.83667">
        <ele>1241.4360351562</ele>
        <time>2017-10-01T06:54:09Z</time>
      </trkpt>
      <trkpt lat="45.28936" lon="5.83659">
        <ele>1239.4360351562</ele>
        <time>2017-10-01T06:54:15Z</time>
      </trkpt>
      <trkpt lat="45.28939" lon="5.83654">
        <ele>1242.4360351562</ele>
        <time>2017-10-01T06:54:22Z</time>
      </trkpt>
      <trkpt lat="45.28944" lon="5.83649">
        <ele>1243.4360351562</ele>
        <time>2017-10-01T06:54:28Z</time>
      </trkpt>
      <trkpt lat="45.28948" lon="5.83646">
        <ele>1243.4360351562</ele>
        <time>2017-10-01T06:54:31Z</time>
      </trkpt>
      <trkpt lat="45.28951" lon="5.83641">
        <ele>1245.4360351562</ele>
        <time>2017-10-01T06:54:36Z</time>
      </trkpt>
      <trkpt lat="45.28955" lon="5.83636">
        <ele>1249.4360351562</ele>
        <time>2017-10-01T06:54:40Z</time>
      </trkpt>
      <trkpt lat="45.28958" lon="5.83632">
        <ele>1251.4360351562</ele>
        <time>2017-10-01T06:54:53Z</time>
      </trkpt>
      <trkpt lat="45.28963" lon="5.83628">
        <ele>1249.4360351562</ele>
        <time>2017-10-01T06:55:04Z</time>
      </trkpt>
      <trkpt lat="45.28965" lon="5.83623">
        <ele>1252.4360351562</ele>
        <time>2017-10-01T06:55:07Z</time>
      </trkpt>
      <trkpt lat="45.28969" lon="5.83617">
        <ele>1252.4360351562</ele>
        <time>2017-10-01T06:55:13Z</time>
      </trkpt>
      <trkpt lat="45.28972" lon="5.83612">
        <ele>1250.4360351562</ele>
        <time>2017-10-01T06:55:20Z</time>
      </trkpt>
      <trkpt lat="45.28977" lon="5.83612">
        <ele>1252.4360351562</ele>
        <time>2017-10-01T06:55:26Z</time>
      </trkpt>
      <trkpt lat="45.28982" lon="5.8361">
        <ele>1252.4360351562</ele>
        <time>2017-10-01T06:55:33Z</time>
      </trkpt>
      <trkpt lat="45.28985" lon="5.83614">
        <ele>1256.4360351562</ele>
        <time>2017-10-01T06:55:54Z</time>
      </trkpt>
      <trkpt lat="45.2899" lon="5.83613">
        <ele>1261.4360351562</ele>
        <time>2017-10-01T06:56:00Z</time>
      </trkpt>
      <trkpt lat="45.28996" lon="5.83611">
        <ele>1263.4360351562</ele>
        <time>2017-10-01T06:56:06Z</time>
      </trkpt>
      <trkpt lat="45.29" lon="5.83612">
        <ele>1264.4360351562</ele>
        <time>2017-10-01T06:56:17Z</time>
      </trkpt>
      <trkpt lat="45.29005" lon="5.83613">
        <ele>1148.4360351562</ele>
        <time>2017-10-01T06:56:39Z</time>
      </trkpt>
      <trkpt lat="45.29011" lon="5.83618">
        <ele>1165.4360351562</ele>
        <time>2017-10-01T06:56:42Z</time>
      </trkpt>
      <trkpt lat="45.29018" lon="5.8362">
        <ele>1218.4360351562</ele>
        <time>2017-10-01T06:56:46Z</time>
      </trkpt>
      <trkpt lat="45.29022" lon="5.83618">
        <ele>1248.4360351562</ele>
        <time>2017-10-01T06:56:50Z</time>
      </trkpt>
      <trkpt lat="45.29027" lon="5.8362">
        <ele>1257.4360351562</ele>
        <time>2017-10-01T06:56:54Z</time>
      </trkpt>
      <trkpt lat="45.29031" lon="5.83622">
        <ele>1263.4360351562</ele>
        <time>2017-10-01T06:56:57Z</time>
      </trkpt>
      <trkpt lat="45.29036" lon="5.83621">
        <ele>1269.4360351562</ele>
        <time>2017-10-01T06:57:00Z</time>
      </trkpt>
      <trkpt lat="45.2904" lon="5.83618">
        <ele>1278.4360351562</ele>
        <time>2017-10-01T06:57:06Z</time>
      </trkpt>
      <trkpt lat="45.29045" lon="5.83617">
        <ele>1285.4360351562</ele>
        <time>2017-10-01T06:57:13Z</time>
      </trkpt>
      <trkpt lat="45.29049" lon="5.83617">
        <ele>1296.4360351562</ele>
        <time>2017-10-01T06:57:37Z</time>
      </trkpt>
      <trkpt lat="45.29054" lon="5.83618">
        <ele>1296.4360351562</ele>
        <time>2017-10-01T06:57:41Z</time>
      </trkpt>
      <trkpt lat="45.29059" lon="5.83613">
        <ele>1289.4360351562</ele>
        <time>2017-10-01T06:57:46Z</time>
      </trkpt>
      <trkpt lat="45.29064" lon="5.83614">
        <ele>1292.4360351562</ele>
        <time>2017-10-01T06:57:49Z</time>
      </trkpt>
      <trkpt lat="45.29069" lon="5.83616">
        <ele>1298.4360351562</ele>
        <time>2017-10-01T06:57:54Z</time>
      </trkpt>
      <trkpt lat="45.29074" lon="5.83619">
        <ele>1300.4360351562</ele>
        <time>2017-10-01T06:57:58Z</time>
      </trkpt>
      <trkpt lat="45.29079" lon="5.83621">
        <ele>1302.4360351562</ele>
        <time>2017-10-01T06:58:02Z</time>
      </trkpt>
      <trkpt lat="45.29084" lon="5.83621">
        <ele>1306.4360351562</ele>
        <time>2017-10-01T06:58:11Z</time>
      </trkpt>
      <trkpt lat="45.29089" lon="5.83622">
        <ele>1304.4360351562</ele>
        <time>2017-10-01T06:58:14Z</time>
      </trkpt>
      <trkpt lat="45.29094" lon="5.83626">
        <ele>1305.4360351562</ele>
        <time>2017-10-01T06:58:19Z</time>
      </trkpt>
      <trkpt lat="45.291" lon="5.83625">
        <ele>1305.4360351562</ele>
        <time>2017-10-01T06:58:23Z</time>
      </trkpt>
      <trkpt lat="45.29104" lon="5.83628">
        <ele>1307.4360351562</ele>
        <time>2017-10-01T06:58:27Z</time>
      </trkpt>
      <trkpt lat="45.2911" lon="5.83628">
        <ele>1308.4360351562</ele>
        <time>2017-10-01T06:58:30Z</time>
      </trkpt>
      <trkpt lat="45.29115" lon="5.83627">
        <ele>1308.4360351562</ele>
        <time>2017-10-01T06:58:33Z</time>
      </trkpt>
      <trkpt lat="45.29119" lon="5.83628">
        <ele>1311.4360351562</ele>
        <time>2017-10-01T06:58:38Z</time>
      </trkpt>
      <trkpt lat="45.29125" lon="5.8363">
        <ele>1315.4360351562</ele>
        <time>2017-10-01T06:58:45Z</time>
      </trkpt>
      <trkpt lat="45.29131" lon="5.83631">
        <ele>1269.4360351562</ele>
        <time>2017-10-01T06:59:10Z</time>
      </trkpt>
      <trkpt lat="45.29136" lon="5.83633">
        <ele>1285.4360351562</ele>
        <time>2017-10-01T06:59:12Z</time>
      </trkpt>
      <trkpt lat="45.29142" lon="5.83634">
        <ele>1291.4360351562</ele>
        <time>2017-10-01T06:59:16Z</time>
      </trkpt>
      <trkpt lat="45.29146" lon="5.83631">
        <ele>1296.4360351562</ele>
        <time>2017-10-01T06:59:19Z</time>
      </trkpt>
      <trkpt lat="45.29151" lon="5.83633">
        <ele>1302.4360351562</ele>
        <time>2017-10-01T06:59:22Z</time>
      </trkpt>
      <trkpt lat="45.29157" lon="5.83631">
        <ele>1303.4360351562</ele>
        <time>2017-10-01T06:59:24Z</time>
      </trkpt>
      <trkpt lat="45.29162" lon="5.83629">
        <ele>1318.4360351562</ele>
        <time>2017-10-01T06:59:31Z</time>
      </trkpt>
      <trkpt lat="45.29167" lon="5.83628">
        <ele>1319.4360351562</ele>
        <time>2017-10-01T06:59:35Z</time>
      </trkpt>
      <trkpt lat="45.29171" lon="5.83628">
        <ele>1320.4360351562</ele>
        <time>2017-10-01T06:59:39Z</time>
      </trkpt>
      <trkpt lat="45.29177" lon="5.83628">
        <ele>1321.4360351562</ele>
        <time>2017-10-01T06:59:44Z</time>
      </trkpt>
      <trkpt lat="45.29183" lon="5.83629">
        <ele>1322.4360351562</ele>
        <time>2017-10-01T06:59:50Z</time>
      </trkpt>
      <trkpt lat="45.29188" lon="5.83628">
        <ele>1321.4360351562</ele>
        <time>2017-10-01T06:59:54Z</time>
      </trkpt>
      <trkpt lat="45.29194" lon="5.83629">
        <ele>1321.4360351562</ele>
        <time>2017-10-01T06:59:56Z</time>
      </trkpt>
      <trkpt lat="45.29199" lon="5.83628">
        <ele>1329.4360351562</ele>
        <time>2017-10-01T07:00:01Z</time>
      </trkpt>
      <trkpt lat="45.29204" lon="5.83627">
        <ele>1334.4360351562</ele>
        <time>2017-10-01T07:00:07Z</time>
      </trkpt>
      <trkpt lat="45.29208" lon="5.83625">
        <ele>1338.4360351562</ele>
        <time>2017-10-01T07:00:15Z</time>
      </trkpt>
      <trkpt lat="45.29213" lon="5.83623">
        <ele>1339.4360351562</ele>
        <time>2017-10-01T07:00:21Z</time>
      </trkpt>
      <trkpt lat="45.29217" lon="5.8362">
        <ele>1339.4360351562</ele>
        <time>2017-10-01T07:00:25Z</time>
      </trkpt>
      <trkpt lat="45.29222" lon="5.83617">
        <ele>1340.4360351562</ele>
        <time>2017-10-01T07:00:32Z</time>
      </trkpt>
      <trkpt lat="45.29227" lon="5.83618">
        <ele>1341.4360351562</ele>
        <time>2017-10-01T07:00:38Z</time>
      </trkpt>
      <trkpt lat="45.29231" lon="5.83618">
        <ele>1343.4360351562</ele>
        <time>2017-10-01T07:00:42Z</time>
      </trkpt>
      <trkpt lat="45.29236" lon="5.83618">
        <ele>1346.4360351562</ele>
        <time>2017-10-01T07:00:47Z</time>
      </trkpt>
      <trkpt lat="45.29241" lon="5.8362">
        <ele>1348.4360351562</ele>
        <time>2017-10-01T07:00:51Z</time>
      </trkpt>
      <trkpt lat="45.29246" lon="5.8362">
        <ele>1351.4360351562</ele>
        <time>2017-10-01T07:00:54Z</time>
      </trkpt>
      <trkpt lat="45.29251" lon="5.83621">
        <ele>1353.4360351562</ele>
        <time>2017-10-01T07:01:01Z</time>
      </trkpt>
      <trkpt lat="45.29256" lon="5.83621">
        <ele>1352.4360351562</ele>
        <time>2017-10-01T07:01:05Z</time>
      </trkpt>
      <trkpt lat="45.29261" lon="5.83623">
        <ele>1353.4360351562</ele>
        <time>2017-10-01T07:01:11Z</time>
      </trkpt>
      <trkpt lat="45.29266" lon="5.83622">
        <ele>1352.4360351562</ele>
        <time>2017-10-01T07:01:26Z</time>
      </trkpt>
      <trkpt lat="45.29271" lon="5.83623">
        <ele>1353.4360351562</ele>
        <time>2017-10-01T07:01:32Z</time>
      </trkpt>
      <trkpt lat="45.29276" lon="5.83624">
        <ele>1354.4360351562</ele>
        <time>2017-10-01T07:01:38Z</time>
      </trkpt>
      <trkpt lat="45.2928" lon="5.83624">
        <ele>1355.4360351562</ele>
        <time>2017-10-01T07:01:43Z</time>
      </trkpt>
      <trkpt lat="45.29285" lon="5.83628">
        <ele>1358.4360351562</ele>
        <time>2017-10-01T07:01:50Z</time>
      </trkpt>
      <trkpt lat="45.2929" lon="5.83629">
        <ele>1360.4360351562</ele>
        <time>2017-10-01T07:01:54Z</time>
      </trkpt>
      <trkpt lat="45.29291" lon="5.83622">
        <ele>1364.4360351562</ele>
        <time>2017-10-01T07:02:01Z</time>
      </trkpt>
      <trkpt lat="45.29296" lon="5.83618">
        <ele>1360.4360351562</ele>
        <time>2017-10-01T07:02:11Z</time>
      </trkpt>
      <trkpt lat="45.29301" lon="5.83618">
        <ele>1360.4360351562</ele>
        <time>2017-10-01T07:02:16Z</time>
      </trkpt>
      <trkpt lat="45.29306" lon="5.83619">
        <ele>1361.4360351562</ele>
        <time>2017-10-01T07:02:21Z</time>
      </trkpt>
      <trkpt lat="45.2931" lon="5.83622">
        <ele>1363.4360351562</ele>
        <time>2017-10-01T07:02:28Z</time>
      </trkpt>
      <trkpt lat="45.29315" lon="5.83624">
        <ele>1365.4360351562</ele>
        <time>2017-10-01T07:02:36Z</time>
      </trkpt>
      <trkpt lat="45.2932" lon="5.83621">
        <ele>1366.4360351562</ele>
        <time>2017-10-01T07:02:40Z</time>
      </trkpt>
      <trkpt lat="45.29325" lon="5.83622">
        <ele>1366.4360351562</ele>
        <time>2017-10-01T07:02:44Z</time>
      </trkpt>
      <trkpt lat="45.2933" lon="5.83619">
        <ele>1366.4360351562</ele>
        <time>2017-10-01T07:02:48Z</time>
      </trkpt>
      <trkpt lat="45.29335" lon="5.83623">
        <ele>1368.4370117188</ele>
        <time>2017-10-01T07:03:16Z</time>
      </trkpt>
      <trkpt lat="45.2934" lon="5.83627">
        <ele>1366.4370117188</ele>
        <time>2017-10-01T07:03:19Z</time>
      </trkpt>
      <trkpt lat="45.29344" lon="5.83632">
        <ele>1364.4370117188</ele>
        <time>2017-10-01T07:03:23Z</time>
      </trkpt>
      <trkpt lat="45.29347" lon="5.83637">
        <ele>1369.4370117188</ele>
        <time>2017-10-01T07:03:28Z</time>
      </trkpt>
      <trkpt lat="45.29352" lon="5.83638">
        <ele>1368.4370117188</ele>
        <time>2017-10-01T07:03:33Z</time>
      </trkpt>
      <trkpt lat="45.29356" lon="5.8364">
        <ele>1369.4370117188</ele>
        <time>2017-10-01T07:03:39Z</time>
      </trkpt>
      <trkpt lat="45.29361" lon="5.83643">
        <ele>1373.4370117188</ele>
        <time>2017-10-01T07:03:54Z</time>
      </trkpt>
      <trkpt lat="45.29366" lon="5.83643">
        <ele>1373.4370117188</ele>
        <time>2017-10-01T07:03:58Z</time>
      </trkpt>
      <trkpt lat="45.2937" lon="5.83648">
        <ele>1379.4370117188</ele>
        <time>2017-10-01T07:04:04Z</time>
      </trkpt>
      <trkpt lat="45.29375" lon="5.83647">
        <ele>1380.4370117188</ele>
        <time>2017-10-01T07:04:09Z</time>
      </trkpt>
      <trkpt lat="45.29381" lon="5.83645">
        <ele>1379.4370117188</ele>
        <time>2017-10-01T07:04:14Z</time>
      </trkpt>
      <trkpt lat="45.29386" lon="5.83639">
        <ele>1381.4370117188</ele>
        <time>2017-10-01T07:04:17Z</time>
      </trkpt>
      <trkpt lat="45.29393" lon="5.83638">
        <ele>1382.4370117188</ele>
        <time>2017-10-01T07:04:20Z</time>
      </trkpt>
      <trkpt lat="45.29398" lon="5.83636">
        <ele>1383.4370117188</ele>
        <time>2017-10-01T07:04:23Z</time>
      </trkpt>
      <trkpt lat="45.29403" lon="5.83632">
        <ele>1386.4370117188</ele>
        <time>2017-10-01T07:04:28Z</time>
      </trkpt>
      <trkpt lat="45.29406" lon="5.83628">
        <ele>1387.4370117188</ele>
        <time>2017-10-01T07:04:32Z</time>
      </trkpt>
      <trkpt lat="45.29411" lon="5.83627">
        <ele>1387.4370117188</ele>
        <time>2017-10-01T07:04:37Z</time>
      </trkpt>
      <trkpt lat="45.29414" lon="5.83621">
        <ele>1389.4370117188</ele>
        <time>2017-10-01T07:04:40Z</time>
      </trkpt>
      <trkpt lat="45.29419" lon="5.83619">
        <ele>1392.4370117188</ele>
        <time>2017-10-01T07:04:42Z</time>
      </trkpt>
      <trkpt lat="45.29425" lon="5.8362">
        <ele>1393.4370117188</ele>
        <time>2017-10-01T07:04:44Z</time>
      </trkpt>
      <trkpt lat="45.29429" lon="5.83617">
        <ele>1394.4370117188</ele>
        <time>2017-10-01T07:04:47Z</time>
      </trkpt>
      <trkpt lat="45.29433" lon="5.83612">
        <ele>1394.4370117188</ele>
        <time>2017-10-01T07:04:51Z</time>
      </trkpt>
      <trkpt lat="45.29439" lon="5.83609">
        <ele>1398.4370117188</ele>
        <time>2017-10-01T07:04:56Z</time>
      </trkpt>
      <trkpt lat="45.29444" lon="5.83606">
        <ele>1402.4370117188</ele>
        <time>2017-10-01T07:05:01Z</time>
      </trkpt>
      <trkpt lat="45.29451" lon="5.83602">
        <ele>1402.4370117188</ele>
        <time>2017-10-01T07:05:04Z</time>
      </trkpt>
      <trkpt lat="45.29455" lon="5.83599">
        <ele>1408.4370117188</ele>
        <time>2017-10-01T07:05:13Z</time>
      </trkpt>
      <trkpt lat="45.2946" lon="5.83596">
        <ele>1408.4370117188</ele>
        <time>2017-10-01T07:05:17Z</time>
      </trkpt>
      <trkpt lat="45.29463" lon="5.83589">
        <ele>1409.4370117188</ele>
        <time>2017-10-01T07:05:23Z</time>
      </trkpt>
      <trkpt lat="45.29464" lon="5.83583">
        <ele>1412.4370117188</ele>
        <time>2017-10-01T07:05:27Z</time>
      </trkpt>
      <trkpt lat="45.29469" lon="5.83579">
        <ele>1414.4370117188</ele>
        <time>2017-10-01T07:05:31Z</time>
      </trkpt>
      <trkpt lat="45.29471" lon="5.83574">
        <ele>1415.4370117188</ele>
        <time>2017-10-01T07:05:34Z</time>
      </trkpt>
      <trkpt lat="45.29475" lon="5.83569">
        <ele>1418.4370117188</ele>
        <time>2017-10-01T07:05:37Z</time>
      </trkpt>
      <trkpt lat="45.29478" lon="5.83565">
        <ele>1419.4370117188</ele>
        <time>2017-10-01T07:05:41Z</time>
      </trkpt>
      <trkpt lat="45.29484" lon="5.83563">
        <ele>1421.4370117188</ele>
        <time>2017-10-01T07:05:47Z</time>
      </trkpt>
      <trkpt lat="45.29488" lon="5.8356">
        <ele>1420.4370117188</ele>
        <time>2017-10-01T07:05:50Z</time>
      </trkpt>
      <trkpt lat="45.29493" lon="5.83558">
        <ele>1421.4370117188</ele>
        <time>2017-10-01T07:05:53Z</time>
      </trkpt>
      <trkpt lat="45.29497" lon="5.83553">
        <ele>1422.4370117188</ele>
        <time>2017-10-01T07:05:57Z</time>
      </trkpt>
      <trkpt lat="45.29501" lon="5.83548">
        <ele>1426.4370117188</ele>
        <time>2017-10-01T07:06:06Z</time>
      </trkpt>
      <trkpt lat="45.29505" lon="5.83543">
        <ele>1426.4370117188</ele>
        <time>2017-10-01T07:06:11Z</time>
      </trkpt>
      <trkpt lat="45.29507" lon="5.83537">
        <ele>1424.4370117188</ele>
        <time>2017-10-01T07:06:15Z</time>
      </trkpt>
      <trkpt lat="45.2951" lon="5.83532">
        <ele>1426.4370117188</ele>
        <time>2017-10-01T07:06:20Z</time>
      </trkpt>
      <trkpt lat="45.29518" lon="5.83526">
        <ele>1427.4370117188</ele>
        <time>2017-10-01T07:06:23Z</time>
      </trkpt>
      <trkpt lat="45.29522" lon="5.83519">
        <ele>1426.4370117188</ele>
        <time>2017-10-01T07:06:27Z</time>
      </trkpt>
      <trkpt lat="45.29525" lon="5.83513">
        <ele>1424.4370117188</ele>
        <time>2017-10-01T07:06:29Z</time>
      </trkpt>
      <trkpt lat="45.2953" lon="5.83509">
        <ele>1423.4370117188</ele>
        <time>2017-10-01T07:06:33Z</time>
      </trkpt>
      <trkpt lat="45.29536" lon="5.83507">
        <ele>1427.4370117188</ele>
        <time>2017-10-01T07:06:38Z</time>
      </trkpt>
      <trkpt lat="45.2954" lon="5.83506">
        <ele>1431.4370117188</ele>
        <time>2017-10-01T07:06:43Z</time>
      </trkpt>
      <trkpt lat="45.29536" lon="5.83503">
        <ele>1430.4370117188</ele>
        <time>2017-10-01T07:07:18Z</time>
      </trkpt>
      <trkpt lat="45.2953" lon="5.83505">
        <ele>1433.4370117188</ele>
        <time>2017-10-01T07:07:20Z</time>
      </trkpt>
      <trkpt lat="45.29525" lon="5.83507">
        <ele>1435.4370117188</ele>
        <time>2017-10-01T07:07:23Z</time>
      </trkpt>
      <trkpt lat="45.2952" lon="5.83508">
        <ele>1433.4370117188</ele>
        <time>2017-10-01T07:07:25Z</time>
      </trkpt>
      <trkpt lat="45.29515" lon="5.8351">
        <ele>1432.4370117188</ele>
        <time>2017-10-01T07:07:31Z</time>
      </trkpt>
      <trkpt lat="45.2951" lon="5.83511">
        <ele>1431.4370117188</ele>
        <time>2017-10-01T07:07:48Z</time>
      </trkpt>
      <trkpt lat="45.29499" lon="5.83512">
        <ele>1428.4370117188</ele>
        <time>2017-10-01T07:07:52Z</time>
      </trkpt>
      <trkpt lat="45.29495" lon="5.83515">
        <ele>1429.4370117188</ele>
        <time>2017-10-01T07:07:54Z</time>
      </trkpt>
      <trkpt lat="45.2949" lon="5.83517">
        <ele>1432.4370117188</ele>
        <time>2017-10-01T07:08:00Z</time>
      </trkpt>
      <trkpt lat="45.29486" lon="5.83513">
        <ele>1426.4370117188</ele>
        <time>2017-10-01T07:08:06Z</time>
      </trkpt>
      <trkpt lat="45.29481" lon="5.83511">
        <ele>1425.4370117188</ele>
        <time>2017-10-01T07:08:11Z</time>
      </trkpt>
      <trkpt lat="45.29477" lon="5.83508">
        <ele>1424.4370117188</ele>
        <time>2017-10-01T07:08:14Z</time>
      </trkpt>
      <trkpt lat="45.2947" lon="5.83509">
        <ele>1424.4370117188</ele>
        <time>2017-10-01T07:08:18Z</time>
      </trkpt>
      <trkpt lat="45.29466" lon="5.83511">
        <ele>1424.4370117188</ele>
        <time>2017-10-01T07:08:20Z</time>
      </trkpt>
      <trkpt lat="45.29462" lon="5.83515">
        <ele>1427.4370117188</ele>
        <time>2017-10-01T07:08:22Z</time>
      </trkpt>
      <trkpt lat="45.29463" lon="5.83508">
        <ele>1425.4370117188</ele>
        <time>2017-10-01T07:08:36Z</time>
      </trkpt>
      <trkpt lat="45.29468" lon="5.83504">
        <ele>1428.4370117188</ele>
        <time>2017-10-01T07:08:42Z</time>
      </trkpt>
      <trkpt lat="45.29471" lon="5.83498">
        <ele>1432.4370117188</ele>
        <time>2017-10-01T07:08:49Z</time>
      </trkpt>
      <trkpt lat="45.29475" lon="5.83493">
        <ele>1434.4370117188</ele>
        <time>2017-10-01T07:08:54Z</time>
      </trkpt>
      <trkpt lat="45.29472" lon="5.83487">
        <ele>1437.4370117188</ele>
        <time>2017-10-01T07:09:09Z</time>
      </trkpt>
      <trkpt lat="45.29473" lon="5.8348">
        <ele>1439.4370117188</ele>
        <time>2017-10-01T07:09:16Z</time>
      </trkpt>
      <trkpt lat="45.29477" lon="5.83474">
        <ele>1441.4370117188</ele>
        <time>2017-10-01T07:09:25Z</time>
      </trkpt>
      <trkpt lat="45.29481" lon="5.8347">
        <ele>1445.4370117188</ele>
        <time>2017-10-01T07:09:31Z</time>
      </trkpt>
      <trkpt lat="45.29485" lon="5.83467">
        <ele>1448.4370117188</ele>
        <time>2017-10-01T07:09:35Z</time>
      </trkpt>
      <trkpt lat="45.29488" lon="5.83463">
        <ele>1451.4370117188</ele>
        <time>2017-10-01T07:09:40Z</time>
      </trkpt>
      <trkpt lat="45.29485" lon="5.83456">
        <ele>1453.4370117188</ele>
        <time>2017-10-01T07:09:50Z</time>
      </trkpt>
      <trkpt lat="45.2948" lon="5.83456">
        <ele>1451.4370117188</ele>
        <time>2017-10-01T07:09:55Z</time>
      </trkpt>
      <trkpt lat="45.29484" lon="5.83451">
        <ele>1451.4370117188</ele>
        <time>2017-10-01T07:10:05Z</time>
      </trkpt>
      <trkpt lat="45.29487" lon="5.83447">
        <ele>1451.4370117188</ele>
        <time>2017-10-01T07:10:09Z</time>
      </trkpt>
      <trkpt lat="45.29489" lon="5.83441">
        <ele>1453.4370117188</ele>
        <time>2017-10-01T07:10:14Z</time>
      </trkpt>
      <trkpt lat="45.29493" lon="5.83436">
        <ele>1453.4370117188</ele>
        <time>2017-10-01T07:10:18Z</time>
      </trkpt>
      <trkpt lat="45.29498" lon="5.83432">
        <ele>1413.4370117188</ele>
        <time>2017-10-01T07:10:25Z</time>
      </trkpt>
      <trkpt lat="45.29503" lon="5.83428">
        <ele>1441.4370117188</ele>
        <time>2017-10-01T07:10:30Z</time>
      </trkpt>
      <trkpt lat="45.29507" lon="5.83424">
        <ele>1450.4370117188</ele>
        <time>2017-10-01T07:10:34Z</time>
      </trkpt>
      <trkpt lat="45.29509" lon="5.83419">
        <ele>1454.4370117188</ele>
        <time>2017-10-01T07:10:38Z</time>
      </trkpt>
      <trkpt lat="45.29513" lon="5.83414">
        <ele>1457.4370117188</ele>
        <time>2017-10-01T07:10:43Z</time>
      </trkpt>
      <trkpt lat="45.29516" lon="5.83409">
        <ele>1460.4370117188</ele>
        <time>2017-10-01T07:10:47Z</time>
      </trkpt>
      <trkpt lat="45.2952" lon="5.83404">
        <ele>1462.4370117188</ele>
        <time>2017-10-01T07:10:52Z</time>
      </trkpt>
      <trkpt lat="45.29524" lon="5.83401">
        <ele>1463.4370117188</ele>
        <time>2017-10-01T07:10:56Z</time>
      </trkpt>
      <trkpt lat="45.29529" lon="5.83398">
        <ele>1464.4370117188</ele>
        <time>2017-10-01T07:10:59Z</time>
      </trkpt>
      <trkpt lat="45.29534" lon="5.83396">
        <ele>1465.4370117188</ele>
        <time>2017-10-01T07:11:05Z</time>
      </trkpt>
      <trkpt lat="45.29539" lon="5.83395">
        <ele>1467.4370117188</ele>
        <time>2017-10-01T07:11:10Z</time>
      </trkpt>
      <trkpt lat="45.29544" lon="5.83395">
        <ele>1470.4370117188</ele>
        <time>2017-10-01T07:11:17Z</time>
      </trkpt>
      <trkpt lat="45.29549" lon="5.83397">
        <ele>1469.4370117188</ele>
        <time>2017-10-01T07:11:22Z</time>
      </trkpt>
      <trkpt lat="45.29555" lon="5.834">
        <ele>1470.4370117188</ele>
        <time>2017-10-01T07:11:27Z</time>
      </trkpt>
      <trkpt lat="45.29559" lon="5.83404">
        <ele>1473.4370117188</ele>
        <time>2017-10-01T07:11:30Z</time>
      </trkpt>
      <trkpt lat="45.29563" lon="5.83409">
        <ele>1475.4370117188</ele>
        <time>2017-10-01T07:11:34Z</time>
      </trkpt>
      <trkpt lat="45.29564" lon="5.83416">
        <ele>1478.4370117188</ele>
        <time>2017-10-01T07:11:38Z</time>
      </trkpt>
      <trkpt lat="45.29566" lon="5.83424">
        <ele>1478.4370117188</ele>
        <time>2017-10-01T07:11:43Z</time>
      </trkpt>
      <trkpt lat="45.29569" lon="5.83429">
        <ele>1476.4370117188</ele>
        <time>2017-10-01T07:11:47Z</time>
      </trkpt>
      <trkpt lat="45.29573" lon="5.83432">
        <ele>1476.4370117188</ele>
        <time>2017-10-01T07:11:52Z</time>
      </trkpt>
      <trkpt lat="45.29577" lon="5.83436">
        <ele>1477.4370117188</ele>
        <time>2017-10-01T07:11:56Z</time>
      </trkpt>
      <trkpt lat="45.29582" lon="5.8344">
        <ele>1478.4370117188</ele>
        <time>2017-10-01T07:12:02Z</time>
      </trkpt>
      <trkpt lat="45.29587" lon="5.83442">
        <ele>1480.4370117188</ele>
        <time>2017-10-01T07:12:06Z</time>
      </trkpt>
      <trkpt lat="45.29592" lon="5.83444">
        <ele>1479.4370117188</ele>
        <time>2017-10-01T07:12:10Z</time>
      </trkpt>
      <trkpt lat="45.29597" lon="5.83447">
        <ele>1481.4370117188</ele>
        <time>2017-10-01T07:12:14Z</time>
      </trkpt>
      <trkpt lat="45.29602" lon="5.83449">
        <ele>1482.4370117188</ele>
        <time>2017-10-01T07:12:18Z</time>
      </trkpt>
      <trkpt lat="45.29608" lon="5.83448">
        <ele>1480.4370117188</ele>
        <time>2017-10-01T07:12:21Z</time>
      </trkpt>
      <trkpt lat="45.29613" lon="5.83449">
        <ele>1480.4370117188</ele>
        <time>2017-10-01T07:12:24Z</time>
      </trkpt>
      <trkpt lat="45.29618" lon="5.8345">
        <ele>1480.4370117188</ele>
        <time>2017-10-01T07:12:29Z</time>
      </trkpt>
      <trkpt lat="45.29624" lon="5.8345">
        <ele>1481.4370117188</ele>
        <time>2017-10-01T07:12:33Z</time>
      </trkpt>
      <trkpt lat="45.2963" lon="5.83449">
        <ele>1482.4370117188</ele>
        <time>2017-10-01T07:12:38Z</time>
      </trkpt>
      <trkpt lat="45.29635" lon="5.83447">
        <ele>1484.4370117188</ele>
        <time>2017-10-01T07:12:42Z</time>
      </trkpt>
      <trkpt lat="45.2964" lon="5.83446">
        <ele>1486.4370117188</ele>
        <time>2017-10-01T07:12:47Z</time>
      </trkpt>
      <trkpt lat="45.29645" lon="5.83445">
        <ele>1488.4370117188</ele>
        <time>2017-10-01T07:12:53Z</time>
      </trkpt>
      <trkpt lat="45.2965" lon="5.83445">
        <ele>1488.4370117188</ele>
        <time>2017-10-01T07:12:59Z</time>
      </trkpt>
      <trkpt lat="45.29646" lon="5.83441">
        <ele>1491.4370117188</ele>
        <time>2017-10-01T07:13:42Z</time>
      </trkpt>
      <trkpt lat="45.29642" lon="5.83437">
        <ele>1490.4370117188</ele>
        <time>2017-10-01T07:13:46Z</time>
      </trkpt>
      <trkpt lat="45.29638" lon="5.83433">
        <ele>1489.4370117188</ele>
        <time>2017-10-01T07:13:50Z</time>
      </trkpt>
      <trkpt lat="45.29632" lon="5.83433">
        <ele>1488.4370117188</ele>
        <time>2017-10-01T07:13:55Z</time>
      </trkpt>
      <trkpt lat="45.29626" lon="5.83431">
        <ele>1488.4370117188</ele>
        <time>2017-10-01T07:13:58Z</time>
      </trkpt>
      <trkpt lat="45.29621" lon="5.83429">
        <ele>1488.4370117188</ele>
        <time>2017-10-01T07:14:01Z</time>
      </trkpt>
      <trkpt lat="45.29617" lon="5.83427">
        <ele>1485.4370117188</ele>
        <time>2017-10-01T07:14:06Z</time>
      </trkpt>
      <trkpt lat="45.29613" lon="5.83423">
        <ele>1482.4370117188</ele>
        <time>2017-10-01T07:14:11Z</time>
      </trkpt>
      <trkpt lat="45.29608" lon="5.83418">
        <ele>1481.4370117188</ele>
        <time>2017-10-01T07:14:15Z</time>
      </trkpt>
      <trkpt lat="45.29603" lon="5.83413">
        <ele>1481.4370117188</ele>
        <time>2017-10-01T07:14:19Z</time>
      </trkpt>
      <trkpt lat="45.296" lon="5.83408">
        <ele>1480.4370117188</ele>
        <time>2017-10-01T07:14:22Z</time>
      </trkpt>
      <trkpt lat="45.29594" lon="5.83406">
        <ele>1481.4370117188</ele>
        <time>2017-10-01T07:14:26Z</time>
      </trkpt>
      <trkpt lat="45.29592" lon="5.834">
        <ele>1487.4370117188</ele>
        <time>2017-10-01T07:14:50Z</time>
      </trkpt>
      <trkpt lat="45.29594" lon="5.83394">
        <ele>1490.4370117188</ele>
        <time>2017-10-01T07:14:56Z</time>
      </trkpt>
      <trkpt lat="45.29596" lon="5.83388">
        <ele>1490.4370117188</ele>
        <time>2017-10-01T07:15:01Z</time>
      </trkpt>
      <trkpt lat="45.29598" lon="5.8338">
        <ele>1492.4370117188</ele>
        <time>2017-10-01T07:15:05Z</time>
      </trkpt>
      <trkpt lat="45.29601" lon="5.83375">
        <ele>1493.4370117188</ele>
        <time>2017-10-01T07:15:09Z</time>
      </trkpt>
      <trkpt lat="45.29605" lon="5.83368">
        <ele>1495.4370117188</ele>
        <time>2017-10-01T07:15:13Z</time>
      </trkpt>
      <trkpt lat="45.29607" lon="5.83376">
        <ele>1461.4370117188</ele>
        <time>2017-10-01T07:15:22Z</time>
      </trkpt>
      <trkpt lat="45.29611" lon="5.83382">
        <ele>1482.4370117188</ele>
        <time>2017-10-01T07:15:27Z</time>
      </trkpt>
      <trkpt lat="45.29613" lon="5.83387">
        <ele>1485.4370117188</ele>
        <time>2017-10-01T07:15:36Z</time>
      </trkpt>
      <trkpt lat="45.29618" lon="5.83386">
        <ele>1496.4370117188</ele>
        <time>2017-10-01T07:15:44Z</time>
      </trkpt>
      <trkpt lat="45.29623" lon="5.83385">
        <ele>1498.4370117188</ele>
        <time>2017-10-01T07:15:49Z</time>
      </trkpt>
      <trkpt lat="45.29627" lon="5.83382">
        <ele>1501.4370117188</ele>
        <time>2017-10-01T07:15:55Z</time>
      </trkpt>
      <trkpt lat="45.29632" lon="5.83378">
        <ele>1503.4370117188</ele>
        <time>2017-10-01T07:16:02Z</time>
      </trkpt>
      <trkpt lat="45.29637" lon="5.83378">
        <ele>1505.4370117188</ele>
        <time>2017-10-01T07:16:24Z</time>
      </trkpt>
      <trkpt lat="45.29642" lon="5.83376">
        <ele>1507.4370117188</ele>
        <time>2017-10-01T07:16:30Z</time>
      </trkpt>
      <trkpt lat="45.29647" lon="5.83374">
        <ele>1508.4370117188</ele>
        <time>2017-10-01T07:16:34Z</time>
      </trkpt>
      <trkpt lat="45.29652" lon="5.83369">
        <ele>1508.4370117188</ele>
        <time>2017-10-01T07:16:40Z</time>
      </trkpt>
      <trkpt lat="45.29654" lon="5.83362">
        <ele>1510.4370117188</ele>
        <time>2017-10-01T07:16:49Z</time>
      </trkpt>
      <trkpt lat="45.29658" lon="5.83359">
        <ele>1510.4370117188</ele>
        <time>2017-10-01T07:16:53Z</time>
      </trkpt>
      <trkpt lat="45.29663" lon="5.83354">
        <ele>1511.4370117188</ele>
        <time>2017-10-01T07:16:58Z</time>
      </trkpt>
      <trkpt lat="45.29667" lon="5.83351">
        <ele>1515.4370117188</ele>
        <time>2017-10-01T07:17:10Z</time>
      </trkpt>
      <trkpt lat="45.29671" lon="5.83344">
        <ele>1514.4370117188</ele>
        <time>2017-10-01T07:17:19Z</time>
      </trkpt>
      <trkpt lat="45.29674" lon="5.8334">
        <ele>1515.4370117188</ele>
        <time>2017-10-01T07:17:23Z</time>
      </trkpt>
      <trkpt lat="45.29679" lon="5.83336">
        <ele>1518.4370117188</ele>
        <time>2017-10-01T07:17:28Z</time>
      </trkpt>
      <trkpt lat="45.29688" lon="5.83335">
        <ele>1525.4370117188</ele>
        <time>2017-10-01T07:17:33Z</time>
      </trkpt>
      <trkpt lat="45.29691" lon="5.8333">
        <ele>1530.4370117188</ele>
        <time>2017-10-01T07:17:38Z</time>
      </trkpt>
      <trkpt lat="45.29696" lon="5.83327">
        <ele>1529.4370117188</ele>
        <time>2017-10-01T07:18:22Z</time>
      </trkpt>
      <trkpt lat="45.297" lon="5.83321">
        <ele>1535.4370117188</ele>
        <time>2017-10-01T07:18:28Z</time>
      </trkpt>
      <trkpt lat="45.29706" lon="5.8332">
        <ele>1539.4370117188</ele>
        <time>2017-10-01T07:18:31Z</time>
      </trkpt>
      <trkpt lat="45.29711" lon="5.83319">
        <ele>1538.4370117188</ele>
        <time>2017-10-01T07:18:36Z</time>
      </trkpt>
      <trkpt lat="45.29716" lon="5.83318">
        <ele>1538.4370117188</ele>
        <time>2017-10-01T07:18:57Z</time>
      </trkpt>
      <trkpt lat="45.29716" lon="5.83311">
        <ele>1545.4370117188</ele>
        <time>2017-10-01T07:19:07Z</time>
      </trkpt>
      <trkpt lat="45.29719" lon="5.83306">
        <ele>1546.4370117188</ele>
        <time>2017-10-01T07:19:13Z</time>
      </trkpt>
      <trkpt lat="45.29724" lon="5.833">
        <ele>1549.4370117188</ele>
        <time>2017-10-01T07:19:17Z</time>
      </trkpt>
      <trkpt lat="45.2973" lon="5.83301">
        <ele>1548.4370117188</ele>
        <time>2017-10-01T07:19:20Z</time>
      </trkpt>
      <trkpt lat="45.29728" lon="5.83294">
        <ele>1551.4370117188</ele>
        <time>2017-10-01T07:19:26Z</time>
      </trkpt>
      <trkpt lat="45.29727" lon="5.83288">
        <ele>1551.4370117188</ele>
        <time>2017-10-01T07:19:34Z</time>
      </trkpt>
      <trkpt lat="45.29726" lon="5.83278">
        <ele>1550.4370117188</ele>
        <time>2017-10-01T07:19:40Z</time>
      </trkpt>
      <trkpt lat="45.29729" lon="5.83272">
        <ele>1547.4370117188</ele>
        <time>2017-10-01T07:19:45Z</time>
      </trkpt>
      <trkpt lat="45.2973" lon="5.83264">
        <ele>1545.4370117188</ele>
        <time>2017-10-01T07:19:50Z</time>
      </trkpt>
      <trkpt lat="45.2973" lon="5.83257">
        <ele>1543.4370117188</ele>
        <time>2017-10-01T07:19:54Z</time>
      </trkpt>
      <trkpt lat="45.29731" lon="5.83251">
        <ele>1540.4370117188</ele>
        <time>2017-10-01T07:20:04Z</time>
      </trkpt>
      <trkpt lat="45.29731" lon="5.83244">
        <ele>1538.4370117188</ele>
        <time>2017-10-01T07:20:15Z</time>
      </trkpt>
      <trkpt lat="45.29733" lon="5.83237">
        <ele>1539.4370117188</ele>
        <time>2017-10-01T07:20:18Z</time>
      </trkpt>
      <trkpt lat="45.29731" lon="5.8323">
        <ele>1540.4370117188</ele>
        <time>2017-10-01T07:20:21Z</time>
      </trkpt>
      <trkpt lat="45.29731" lon="5.83223">
        <ele>1540.4370117188</ele>
        <time>2017-10-01T07:20:28Z</time>
      </trkpt>
      <trkpt lat="45.2973" lon="5.83216">
        <ele>1545.4370117188</ele>
        <time>2017-10-01T07:21:08Z</time>
      </trkpt>
      <trkpt lat="45.29731" lon="5.83208">
        <ele>1544.4370117188</ele>
        <time>2017-10-01T07:21:15Z</time>
      </trkpt>
      <trkpt lat="45.29732" lon="5.83202">
        <ele>1543.4370117188</ele>
        <time>2017-10-01T07:21:20Z</time>
      </trkpt>
      <trkpt lat="45.29734" lon="5.83196">
        <ele>1543.4370117188</ele>
        <time>2017-10-01T07:21:36Z</time>
      </trkpt>
      <trkpt lat="45.29736" lon="5.8319">
        <ele>1543.4370117188</ele>
        <time>2017-10-01T07:21:41Z</time>
      </trkpt>
      <trkpt lat="45.29735" lon="5.83183">
        <ele>1542.4370117188</ele>
        <time>2017-10-01T07:21:44Z</time>
      </trkpt>
      <trkpt lat="45.29735" lon="5.83174">
        <ele>1541.4370117188</ele>
        <time>2017-10-01T07:21:48Z</time>
      </trkpt>
      <trkpt lat="45.29738" lon="5.83167">
        <ele>1546.4370117188</ele>
        <time>2017-10-01T07:21:52Z</time>
      </trkpt>
      <trkpt lat="45.29743" lon="5.83169">
        <ele>1545.4370117188</ele>
        <time>2017-10-01T07:21:56Z</time>
      </trkpt>
      <trkpt lat="45.29742" lon="5.8316">
        <ele>1547.4370117188</ele>
        <time>2017-10-01T07:22:22Z</time>
      </trkpt>
      <trkpt lat="45.29743" lon="5.83153">
        <ele>1546.4370117188</ele>
        <time>2017-10-01T07:22:25Z</time>
      </trkpt>
      <trkpt lat="45.29743" lon="5.83145">
        <ele>1550.4370117188</ele>
        <time>2017-10-01T07:22:29Z</time>
      </trkpt>
      <trkpt lat="45.29743" lon="5.83139">
        <ele>1552.4370117188</ele>
        <time>2017-10-01T07:22:43Z</time>
      </trkpt>
      <trkpt lat="45.29746" lon="5.83132">
        <ele>1553.4370117188</ele>
        <time>2017-10-01T07:22:55Z</time>
      </trkpt>
      <trkpt lat="45.29749" lon="5.83128">
        <ele>1557.4370117188</ele>
        <time>2017-10-01T07:22:59Z</time>
      </trkpt>
      <trkpt lat="45.29751" lon="5.83121">
        <ele>1561.4370117188</ele>
        <time>2017-10-01T07:23:08Z</time>
      </trkpt>
      <trkpt lat="45.29752" lon="5.83113">
        <ele>1562.4370117188</ele>
        <time>2017-10-01T07:23:13Z</time>
      </trkpt>
      <trkpt lat="45.29753" lon="5.83104">
        <ele>1563.4370117188</ele>
        <time>2017-10-01T07:23:36Z</time>
      </trkpt>
      <trkpt lat="45.29751" lon="5.83097">
        <ele>1561.4370117188</ele>
        <time>2017-10-01T07:23:39Z</time>
      </trkpt>
      <trkpt lat="45.29752" lon="5.83089">
        <ele>1565.4370117188</ele>
        <time>2017-10-01T07:23:46Z</time>
      </trkpt>
      <trkpt lat="45.29751" lon="5.83081">
        <ele>1568.4370117188</ele>
        <time>2017-10-01T07:23:53Z</time>
      </trkpt>
      <trkpt lat="45.29754" lon="5.83075">
        <ele>1501.4370117188</ele>
        <time>2017-10-01T07:24:00Z</time>
      </trkpt>
      <trkpt lat="45.29754" lon="5.83068">
        <ele>1544.4370117188</ele>
        <time>2017-10-01T07:24:06Z</time>
      </trkpt>
      <trkpt lat="45.29752" lon="5.83062">
        <ele>1546.4370117188</ele>
        <time>2017-10-01T07:24:12Z</time>
      </trkpt>
      <trkpt lat="45.29749" lon="5.83056">
        <ele>1546.4370117188</ele>
        <time>2017-10-01T07:24:16Z</time>
      </trkpt>
      <trkpt lat="45.29754" lon="5.83056">
        <ele>1564.4370117188</ele>
        <time>2017-10-01T07:24:22Z</time>
      </trkpt>
      <trkpt lat="45.29757" lon="5.8305">
        <ele>1569.4370117188</ele>
        <time>2017-10-01T07:24:29Z</time>
      </trkpt>
      <trkpt lat="45.29752" lon="5.83047">
        <ele>1561.4370117188</ele>
        <time>2017-10-01T07:24:35Z</time>
      </trkpt>
      <trkpt lat="45.29755" lon="5.83042">
        <ele>1572.4370117188</ele>
        <time>2017-10-01T07:25:57Z</time>
      </trkpt>
      <trkpt lat="45.29758" lon="5.83035">
        <ele>1574.4370117188</ele>
        <time>2017-10-01T07:26:03Z</time>
      </trkpt>
      <trkpt lat="45.29762" lon="5.8303">
        <ele>1576.4370117188</ele>
        <time>2017-10-01T07:26:06Z</time>
      </trkpt>
      <trkpt lat="45.29767" lon="5.83028">
        <ele>1585.4370117188</ele>
        <time>2017-10-01T07:26:18Z</time>
      </trkpt>
      <trkpt lat="45.29767" lon="5.83021">
        <ele>1584.4370117188</ele>
        <time>2017-10-01T07:26:23Z</time>
      </trkpt>
      <trkpt lat="45.29769" lon="5.83015">
        <ele>1588.4370117188</ele>
        <time>2017-10-01T07:26:29Z</time>
      </trkpt>
      <trkpt lat="45.29771" lon="5.8301">
        <ele>1595.4370117188</ele>
        <time>2017-10-01T07:26:38Z</time>
      </trkpt>
      <trkpt lat="45.2977" lon="5.83004">
        <ele>1595.4370117188</ele>
        <time>2017-10-01T07:26:43Z</time>
      </trkpt>
      <trkpt lat="45.29773" lon="5.82996">
        <ele>1603.4370117188</ele>
        <time>2017-10-01T07:27:03Z</time>
      </trkpt>
      <trkpt lat="45.2977" lon="5.82991">
        <ele>1599.4370117188</ele>
        <time>2017-10-01T07:27:07Z</time>
      </trkpt>
      <trkpt lat="45.29768" lon="5.82983">
        <ele>1600.4370117188</ele>
        <time>2017-10-01T07:27:28Z</time>
      </trkpt>
      <trkpt lat="45.2977" lon="5.82976">
        <ele>1602.4370117188</ele>
        <time>2017-10-01T07:27:41Z</time>
      </trkpt>
      <trkpt lat="45.29769" lon="5.82967">
        <ele>1603.4370117188</ele>
        <time>2017-10-01T07:27:47Z</time>
      </trkpt>
      <trkpt lat="45.29771" lon="5.82961">
        <ele>1605.4370117188</ele>
        <time>2017-10-01T07:27:57Z</time>
      </trkpt>
      <trkpt lat="45.29774" lon="5.82955">
        <ele>1605.4370117188</ele>
        <time>2017-10-01T07:28:04Z</time>
      </trkpt>
      <trkpt lat="45.29776" lon="5.82948">
        <ele>1606.4370117188</ele>
        <time>2017-10-01T07:28:10Z</time>
      </trkpt>
      <trkpt lat="45.29778" lon="5.82942">
        <ele>1608.4370117188</ele>
        <time>2017-10-01T07:28:25Z</time>
      </trkpt>
      <trkpt lat="45.29778" lon="5.82934">
        <ele>1607.4360351562</ele>
        <time>2017-10-01T07:28:29Z</time>
      </trkpt>
      <trkpt lat="45.29783" lon="5.82936">
        <ele>1612.4370117188</ele>
        <time>2017-10-01T07:28:33Z</time>
      </trkpt>
      <trkpt lat="45.29789" lon="5.82937">
        <ele>1618.4370117188</ele>
        <time>2017-10-01T07:28:42Z</time>
      </trkpt>
      <trkpt lat="45.29792" lon="5.82932">
        <ele>1618.4370117188</ele>
        <time>2017-10-01T07:28:45Z</time>
      </trkpt>
      <trkpt lat="45.29795" lon="5.82927">
        <ele>1617.4370117188</ele>
        <time>2017-10-01T07:28:51Z</time>
      </trkpt>
      <trkpt lat="45.298" lon="5.82927">
        <ele>1621.4370117188</ele>
        <time>2017-10-01T07:28:58Z</time>
      </trkpt>
      <trkpt lat="45.29805" lon="5.82925">
        <ele>1623.4370117188</ele>
        <time>2017-10-01T07:29:02Z</time>
      </trkpt>
      <trkpt lat="45.29809" lon="5.82922">
        <ele>1625.4370117188</ele>
        <time>2017-10-01T07:29:08Z</time>
      </trkpt>
      <trkpt lat="45.29814" lon="5.82921">
        <ele>1628.4370117188</ele>
        <time>2017-10-01T07:29:14Z</time>
      </trkpt>
      <trkpt lat="45.2982" lon="5.8292">
        <ele>1629.4370117188</ele>
        <time>2017-10-01T07:29:21Z</time>
      </trkpt>
      <trkpt lat="45.29824" lon="5.8292">
        <ele>1631.4370117188</ele>
        <time>2017-10-01T07:29:25Z</time>
      </trkpt>
      <trkpt lat="45.2983" lon="5.82921">
        <ele>1633.4370117188</ele>
        <time>2017-10-01T07:29:29Z</time>
      </trkpt>
      <trkpt lat="45.29836" lon="5.8292">
        <ele>1634.4370117188</ele>
        <time>2017-10-01T07:29:34Z</time>
      </trkpt>
      <trkpt lat="45.2984" lon="5.82922">
        <ele>1634.4370117188</ele>
        <time>2017-10-01T07:29:37Z</time>
      </trkpt>
      <trkpt lat="45.29845" lon="5.82921">
        <ele>1629.4370117188</ele>
        <time>2017-10-01T07:29:47Z</time>
      </trkpt>
      <trkpt lat="45.29851" lon="5.82921">
        <ele>1623.4370117188</ele>
        <time>2017-10-01T07:30:13Z</time>
      </trkpt>
      <trkpt lat="45.29856" lon="5.8292">
        <ele>1621.4370117188</ele>
        <time>2017-10-01T07:30:18Z</time>
      </trkpt>
      <trkpt lat="45.2986" lon="5.82918">
        <ele>1617.4370117188</ele>
        <time>2017-10-01T07:30:20Z</time>
      </trkpt>
      <trkpt lat="45.29864" lon="5.82923">
        <ele>1618.4370117188</ele>
        <time>2017-10-01T07:30:23Z</time>
      </trkpt>
      <trkpt lat="45.29869" lon="5.82923">
        <ele>1615.4370117188</ele>
        <time>2017-10-01T07:30:39Z</time>
      </trkpt>
      <trkpt lat="45.29874" lon="5.82925">
        <ele>1616.4370117188</ele>
        <time>2017-10-01T07:30:54Z</time>
      </trkpt>
      <trkpt lat="45.29878" lon="5.82922">
        <ele>1620.4370117188</ele>
        <time>2017-10-01T07:31:02Z</time>
      </trkpt>
      <trkpt lat="45.29877" lon="5.82915">
        <ele>1624.4370117188</ele>
        <time>2017-10-01T07:31:49Z</time>
      </trkpt>
      <trkpt lat="45.29873" lon="5.82909">
        <ele>1624.4370117188</ele>
        <time>2017-10-01T07:31:51Z</time>
      </trkpt>
      <trkpt lat="45.29873" lon="5.82903">
        <ele>1629.4370117188</ele>
        <time>2017-10-01T07:32:00Z</time>
      </trkpt>
      <trkpt lat="45.2987" lon="5.82897">
        <ele>1629.4370117188</ele>
        <time>2017-10-01T07:32:06Z</time>
      </trkpt>
      <trkpt lat="45.29868" lon="5.8289">
        <ele>1629.4370117188</ele>
        <time>2017-10-01T07:32:09Z</time>
      </trkpt>
      <trkpt lat="45.29865" lon="5.82882">
        <ele>1630.4370117188</ele>
        <time>2017-10-01T07:32:11Z</time>
      </trkpt>
      <trkpt lat="45.29863" lon="5.82874">
        <ele>1636.4370117188</ele>
        <time>2017-10-01T07:32:21Z</time>
      </trkpt>
      <trkpt lat="45.29858" lon="5.8287">
        <ele>1644.4370117188</ele>
        <time>2017-10-01T07:32:38Z</time>
      </trkpt>
      <trkpt lat="45.29855" lon="5.82864">
        <ele>1648.4370117188</ele>
        <time>2017-10-01T07:32:44Z</time>
      </trkpt>
      <trkpt lat="45.2985" lon="5.82866">
        <ele>1652.4370117188</ele>
        <time>2017-10-01T07:33:07Z</time>
      </trkpt>
      <trkpt lat="45.29845" lon="5.82865">
        <ele>1656.4370117188</ele>
        <time>2017-10-01T07:33:23Z</time>
      </trkpt>
      <trkpt lat="45.29842" lon="5.8286">
        <ele>1655.4370117188</ele>
        <time>2017-10-01T07:33:28Z</time>
      </trkpt>
      <trkpt lat="45.29837" lon="5.82857">
        <ele>1658.4370117188</ele>
        <time>2017-10-01T07:33:38Z</time>
      </trkpt>
      <trkpt lat="45.29833" lon="5.82859">
        <ele>1658.4370117188</ele>
        <time>2017-10-01T07:33:56Z</time>
      </trkpt>
      <trkpt lat="45.29828" lon="5.82858">
        <ele>1658.4370117188</ele>
        <time>2017-10-01T07:33:59Z</time>
      </trkpt>
      <trkpt lat="45.29823" lon="5.82855">
        <ele>1658.4360351562</ele>
        <time>2017-10-01T07:34:02Z</time>
      </trkpt>
      <trkpt lat="45.2982" lon="5.8285">
        <ele>1662.4360351562</ele>
        <time>2017-10-01T07:34:05Z</time>
      </trkpt>
      <trkpt lat="45.29816" lon="5.82847">
        <ele>1663.4360351562</ele>
        <time>2017-10-01T07:34:08Z</time>
      </trkpt>
      <trkpt lat="45.29812" lon="5.8284">
        <ele>1666.4360351562</ele>
        <time>2017-10-01T07:34:36Z</time>
      </trkpt>
      <trkpt lat="45.29808" lon="5.82833">
        <ele>1666.4360351562</ele>
        <time>2017-10-01T07:34:38Z</time>
      </trkpt>
      <trkpt lat="45.29804" lon="5.8283">
        <ele>1670.4360351562</ele>
        <time>2017-10-01T07:34:44Z</time>
      </trkpt>
      <trkpt lat="45.29801" lon="5.82825">
        <ele>1671.4360351562</ele>
        <time>2017-10-01T07:34:54Z</time>
      </trkpt>
      <trkpt lat="45.29798" lon="5.8282">
        <ele>1675.4360351562</ele>
        <time>2017-10-01T07:35:20Z</time>
      </trkpt>
      <trkpt lat="45.29794" lon="5.82816">
        <ele>1677.4360351562</ele>
        <time>2017-10-01T07:35:29Z</time>
      </trkpt>
      <trkpt lat="45.2979" lon="5.82812">
        <ele>1683.4360351562</ele>
        <time>2017-10-01T07:35:45Z</time>
      </trkpt>
      <trkpt lat="45.29787" lon="5.82819">
        <ele>1690.4360351562</ele>
        <time>2017-10-01T07:36:19Z</time>
      </trkpt>
      <trkpt lat="45.29783" lon="5.82823">
        <ele>1690.4360351562</ele>
        <time>2017-10-01T07:36:27Z</time>
      </trkpt>
      <trkpt lat="45.29778" lon="5.82825">
        <ele>1693.4360351562</ele>
        <time>2017-10-01T07:36:37Z</time>
      </trkpt>
      <trkpt lat="45.29774" lon="5.82825">
        <ele>1697.4360351562</ele>
        <time>2017-10-01T07:36:54Z</time>
      </trkpt>
      <trkpt lat="45.29768" lon="5.82825">
        <ele>1697.4360351562</ele>
        <time>2017-10-01T07:37:08Z</time>
      </trkpt>
      <trkpt lat="45.29762" lon="5.82826">
        <ele>1696.4360351562</ele>
        <time>2017-10-01T07:37:11Z</time>
      </trkpt>
      <trkpt lat="45.29757" lon="5.82824">
        <ele>1695.4360351562</ele>
        <time>2017-10-01T07:37:13Z</time>
      </trkpt>
      <trkpt lat="45.29752" lon="5.82823">
        <ele>1700.4360351562</ele>
        <time>2017-10-01T07:37:31Z</time>
      </trkpt>
      <trkpt lat="45.29748" lon="5.82819">
        <ele>1706.4360351562</ele>
        <time>2017-10-01T07:38:08Z</time>
      </trkpt>
      <trkpt lat="45.29744" lon="5.82817">
        <ele>1706.4360351562</ele>
        <time>2017-10-01T07:38:13Z</time>
      </trkpt>
      <trkpt lat="45.2974" lon="5.82814">
        <ele>1713.4360351562</ele>
        <time>2017-10-01T07:38:19Z</time>
      </trkpt>
      <trkpt lat="45.29733" lon="5.82809">
        <ele>1715.4360351562</ele>
        <time>2017-10-01T07:38:30Z</time>
      </trkpt>
      <trkpt lat="45.29728" lon="5.82807">
        <ele>1718.4360351562</ele>
        <time>2017-10-01T07:38:36Z</time>
      </trkpt>
      <trkpt lat="45.29724" lon="5.8281">
        <ele>1721.4360351562</ele>
        <time>2017-10-01T07:38:45Z</time>
      </trkpt>
      <trkpt lat="45.29719" lon="5.82811">
        <ele>1723.4360351562</ele>
        <time>2017-10-01T07:38:56Z</time>
      </trkpt>
      <trkpt lat="45.29714" lon="5.82812">
        <ele>1724.4360351562</ele>
        <time>2017-10-01T07:39:05Z</time>
      </trkpt>
      <trkpt lat="45.2971" lon="5.82815">
        <ele>1727.4360351562</ele>
        <time>2017-10-01T07:39:13Z</time>
      </trkpt>
      <trkpt lat="45.29706" lon="5.82817">
        <ele>1729.4360351562</ele>
        <time>2017-10-01T07:39:21Z</time>
      </trkpt>
      <trkpt lat="45.29702" lon="5.82821">
        <ele>1732.4360351562</ele>
        <time>2017-10-01T07:39:28Z</time>
      </trkpt>
      <trkpt lat="45.29697" lon="5.82824">
        <ele>1732.4360351562</ele>
        <time>2017-10-01T07:39:36Z</time>
      </trkpt>
      <trkpt lat="45.29692" lon="5.82825">
        <ele>1732.4360351562</ele>
        <time>2017-10-01T07:39:42Z</time>
      </trkpt>
      <trkpt lat="45.29687" lon="5.82828">
        <ele>1734.4360351562</ele>
        <time>2017-10-01T07:39:48Z</time>
      </trkpt>
      <trkpt lat="45.29683" lon="5.82832">
        <ele>1734.4360351562</ele>
        <time>2017-10-01T07:39:53Z</time>
      </trkpt>
      <trkpt lat="45.29679" lon="5.82835">
        <ele>1736.4360351562</ele>
        <time>2017-10-01T07:39:58Z</time>
      </trkpt>
      <trkpt lat="45.29674" lon="5.82836">
        <ele>1736.4360351562</ele>
        <time>2017-10-01T07:40:04Z</time>
      </trkpt>
      <trkpt lat="45.2967" lon="5.8284">
        <ele>1737.4360351562</ele>
        <time>2017-10-01T07:40:09Z</time>
      </trkpt>
      <trkpt lat="45.29666" lon="5.82843">
        <ele>1737.4360351562</ele>
        <time>2017-10-01T07:40:15Z</time>
      </trkpt>
      <trkpt lat="45.29665" lon="5.82849">
        <ele>1737.4360351562</ele>
        <time>2017-10-01T07:45:01Z</time>
      </trkpt>
      <trkpt lat="45.29666" lon="5.82842">
        <ele>1736.4360351562</ele>
        <time>2017-10-01T07:46:53Z</time>
      </trkpt>
      <trkpt lat="45.29666" lon="5.82835">
        <ele>1726.4360351562</ele>
        <time>2017-10-01T07:46:58Z</time>
      </trkpt>
      <trkpt lat="45.29667" lon="5.82828">
        <ele>1735.4360351562</ele>
        <time>2017-10-01T07:47:03Z</time>
      </trkpt>
      <trkpt lat="45.29669" lon="5.82822">
        <ele>1735.4360351562</ele>
        <time>2017-10-01T07:47:07Z</time>
      </trkpt>
      <trkpt lat="45.29668" lon="5.82815">
        <ele>1737.4360351562</ele>
        <time>2017-10-01T07:47:10Z</time>
      </trkpt>
      <trkpt lat="45.2967" lon="5.82807">
        <ele>1737.4360351562</ele>
        <time>2017-10-01T07:47:14Z</time>
      </trkpt>
      <trkpt lat="45.29672" lon="5.828">
        <ele>1737.4360351562</ele>
        <time>2017-10-01T07:47:17Z</time>
      </trkpt>
      <trkpt lat="45.29671" lon="5.82793">
        <ele>1735.4360351562</ele>
        <time>2017-10-01T07:47:24Z</time>
      </trkpt>
      <trkpt lat="45.29672" lon="5.82786">
        <ele>1733.4360351562</ele>
        <time>2017-10-01T07:47:27Z</time>
      </trkpt>
      <trkpt lat="45.29672" lon="5.82777">
        <ele>1732.4360351562</ele>
        <time>2017-10-01T07:47:31Z</time>
      </trkpt>
      <trkpt lat="45.29674" lon="5.82771">
        <ele>1731.4360351562</ele>
        <time>2017-10-01T07:47:33Z</time>
      </trkpt>
      <trkpt lat="45.29672" lon="5.82763">
        <ele>1731.4360351562</ele>
        <time>2017-10-01T07:47:36Z</time>
      </trkpt>
      <trkpt lat="45.29671" lon="5.82756">
        <ele>1729.4360351562</ele>
        <time>2017-10-01T07:47:38Z</time>
      </trkpt>
      <trkpt lat="45.29669" lon="5.8275">
        <ele>1727.4360351562</ele>
        <time>2017-10-01T07:47:40Z</time>
      </trkpt>
      <trkpt lat="45.29668" lon="5.82744">
        <ele>1727.4360351562</ele>
        <time>2017-10-01T07:47:42Z</time>
      </trkpt>
      <trkpt lat="45.29665" lon="5.82739">
        <ele>1726.4360351562</ele>
        <time>2017-10-01T07:47:44Z</time>
      </trkpt>
      <trkpt lat="45.29662" lon="5.82733">
        <ele>1724.4360351562</ele>
        <time>2017-10-01T07:47:47Z</time>
      </trkpt>
      <trkpt lat="45.29661" lon="5.82726">
        <ele>1722.4360351562</ele>
        <time>2017-10-01T07:47:50Z</time>
      </trkpt>
      <trkpt lat="45.29659" lon="5.82718">
        <ele>1720.4360351562</ele>
        <time>2017-10-01T07:47:53Z</time>
      </trkpt>
      <trkpt lat="45.29654" lon="5.82713">
        <ele>1719.4360351562</ele>
        <time>2017-10-01T07:47:55Z</time>
      </trkpt>
      <trkpt lat="45.29649" lon="5.82709">
        <ele>1716.4360351562</ele>
        <time>2017-10-01T07:47:58Z</time>
      </trkpt>
      <trkpt lat="45.29647" lon="5.82702">
        <ele>1714.4360351562</ele>
        <time>2017-10-01T07:48:01Z</time>
      </trkpt>
      <trkpt lat="45.29643" lon="5.82697">
        <ele>1712.4360351562</ele>
        <time>2017-10-01T07:48:03Z</time>
      </trkpt>
      <trkpt lat="45.29637" lon="5.82693">
        <ele>1710.4360351562</ele>
        <time>2017-10-01T07:48:06Z</time>
      </trkpt>
      <trkpt lat="45.29633" lon="5.82691">
        <ele>1707.4360351562</ele>
        <time>2017-10-01T07:48:11Z</time>
      </trkpt>
      <trkpt lat="45.29627" lon="5.82686">
        <ele>1705.4360351562</ele>
        <time>2017-10-01T07:48:17Z</time>
      </trkpt>
      <trkpt lat="45.29622" lon="5.82682">
        <ele>1702.4360351562</ele>
        <time>2017-10-01T07:48:23Z</time>
      </trkpt>
      <trkpt lat="45.29618" lon="5.82676">
        <ele>1699.4360351562</ele>
        <time>2017-10-01T07:48:27Z</time>
      </trkpt>
      <trkpt lat="45.29615" lon="5.8267">
        <ele>1701.4360351562</ele>
        <time>2017-10-01T07:48:31Z</time>
      </trkpt>
      <trkpt lat="45.2961" lon="5.82669">
        <ele>1700.4360351562</ele>
        <time>2017-10-01T07:48:34Z</time>
      </trkpt>
      <trkpt lat="45.29605" lon="5.82665">
        <ele>1699.4360351562</ele>
        <time>2017-10-01T07:48:37Z</time>
      </trkpt>
      <trkpt lat="45.29601" lon="5.82661">
        <ele>1697.4360351562</ele>
        <time>2017-10-01T07:48:41Z</time>
      </trkpt>
      <trkpt lat="45.29597" lon="5.82656">
        <ele>1693.4360351562</ele>
        <time>2017-10-01T07:48:56Z</time>
      </trkpt>
      <trkpt lat="45.29594" lon="5.82651">
        <ele>1691.4360351562</ele>
        <time>2017-10-01T07:48:59Z</time>
      </trkpt>
      <trkpt lat="45.29591" lon="5.82645">
        <ele>1689.4360351562</ele>
        <time>2017-10-01T07:49:04Z</time>
      </trkpt>
      <trkpt lat="45.29592" lon="5.82638">
        <ele>1681.4360351562</ele>
        <time>2017-10-01T07:50:05Z</time>
      </trkpt>
      <trkpt lat="45.29588" lon="5.82634">
        <ele>1681.4360351562</ele>
        <time>2017-10-01T07:50:10Z</time>
      </trkpt>
      <trkpt lat="45.29584" lon="5.82631">
        <ele>1680.4360351562</ele>
        <time>2017-10-01T07:50:17Z</time>
      </trkpt>
      <trkpt lat="45.29579" lon="5.82629">
        <ele>1680.4360351562</ele>
        <time>2017-10-01T07:50:20Z</time>
      </trkpt>
      <trkpt lat="45.29576" lon="5.82623">
        <ele>1678.4360351562</ele>
        <time>2017-10-01T07:50:25Z</time>
      </trkpt>
      <trkpt lat="45.29575" lon="5.82615">
        <ele>1675.4360351562</ele>
        <time>2017-10-01T07:50:35Z</time>
      </trkpt>
      <trkpt lat="45.29571" lon="5.8261">
        <ele>1672.4360351562</ele>
        <time>2017-10-01T07:50:40Z</time>
      </trkpt>
      <trkpt lat="45.29574" lon="5.82606">
        <ele>1665.4360351562</ele>
        <time>2017-10-01T07:50:46Z</time>
      </trkpt>
      <trkpt lat="45.29571" lon="5.826">
        <ele>1665.4360351562</ele>
        <time>2017-10-01T07:50:59Z</time>
      </trkpt>
      <trkpt lat="45.29569" lon="5.82593">
        <ele>1663.4360351562</ele>
        <time>2017-10-01T07:51:02Z</time>
      </trkpt>
      <trkpt lat="45.29565" lon="5.82586">
        <ele>1662.4360351562</ele>
        <time>2017-10-01T07:51:06Z</time>
      </trkpt>
      <trkpt lat="45.29563" lon="5.8258">
        <ele>1661.4360351562</ele>
        <time>2017-10-01T07:51:09Z</time>
      </trkpt>
      <trkpt lat="45.29559" lon="5.82576">
        <ele>1659.4360351562</ele>
        <time>2017-10-01T07:51:12Z</time>
      </trkpt>
      <trkpt lat="45.29553" lon="5.82576">
        <ele>1658.4360351562</ele>
        <time>2017-10-01T07:51:18Z</time>
      </trkpt>
      <trkpt lat="45.29549" lon="5.82578">
        <ele>1656.4360351562</ele>
        <time>2017-10-01T07:51:25Z</time>
      </trkpt>
      <trkpt lat="45.29545" lon="5.82575">
        <ele>1656.4360351562</ele>
        <time>2017-10-01T07:51:31Z</time>
      </trkpt>
      <trkpt lat="45.29542" lon="5.82569">
        <ele>1618.4360351562</ele>
        <time>2017-10-01T07:51:47Z</time>
      </trkpt>
      <trkpt lat="45.29538" lon="5.82562">
        <ele>1649.4350585938</ele>
        <time>2017-10-01T07:51:55Z</time>
      </trkpt>
      <trkpt lat="45.29533" lon="5.82559">
        <ele>1646.4350585938</ele>
        <time>2017-10-01T07:51:59Z</time>
      </trkpt>
      <trkpt lat="45.29528" lon="5.82555">
        <ele>1648.4350585938</ele>
        <time>2017-10-01T07:52:01Z</time>
      </trkpt>
      <trkpt lat="45.29525" lon="5.8255">
        <ele>1648.4350585938</ele>
        <time>2017-10-01T07:52:04Z</time>
      </trkpt>
      <trkpt lat="45.29519" lon="5.82546">
        <ele>1646.4350585938</ele>
        <time>2017-10-01T07:52:07Z</time>
      </trkpt>
      <trkpt lat="45.29515" lon="5.82543">
        <ele>1646.4350585938</ele>
        <time>2017-10-01T07:52:11Z</time>
      </trkpt>
      <trkpt lat="45.2951" lon="5.82542">
        <ele>1648.4350585938</ele>
        <time>2017-10-01T07:52:16Z</time>
      </trkpt>
      <trkpt lat="45.29505" lon="5.82542">
        <ele>1647.4350585938</ele>
        <time>2017-10-01T07:52:19Z</time>
      </trkpt>
      <trkpt lat="45.295" lon="5.82539">
        <ele>1646.4350585938</ele>
        <time>2017-10-01T07:52:23Z</time>
      </trkpt>
      <trkpt lat="45.29496" lon="5.82535">
        <ele>1646.4350585938</ele>
        <time>2017-10-01T07:52:28Z</time>
      </trkpt>
      <trkpt lat="45.29491" lon="5.82532">
        <ele>1645.4350585938</ele>
        <time>2017-10-01T07:52:32Z</time>
      </trkpt>
      <trkpt lat="45.29486" lon="5.82529">
        <ele>1645.4350585938</ele>
        <time>2017-10-01T07:52:36Z</time>
      </trkpt>
      <trkpt lat="45.29481" lon="5.82527">
        <ele>1646.4350585938</ele>
        <time>2017-10-01T07:52:40Z</time>
      </trkpt>
      <trkpt lat="45.29476" lon="5.82524">
        <ele>1644.4350585938</ele>
        <time>2017-10-01T07:52:45Z</time>
      </trkpt>
      <trkpt lat="45.29471" lon="5.82522">
        <ele>1644.4350585938</ele>
        <time>2017-10-01T07:52:49Z</time>
      </trkpt>
      <trkpt lat="45.29466" lon="5.82518">
        <ele>1642.4350585938</ele>
        <time>2017-10-01T07:52:57Z</time>
      </trkpt>
      <trkpt lat="45.29461" lon="5.82516">
        <ele>1639.4350585938</ele>
        <time>2017-10-01T07:53:01Z</time>
      </trkpt>
      <trkpt lat="45.29456" lon="5.82512">
        <ele>1638.4350585938</ele>
        <time>2017-10-01T07:53:03Z</time>
      </trkpt>
      <trkpt lat="45.29451" lon="5.82512">
        <ele>1639.4350585938</ele>
        <time>2017-10-01T07:53:06Z</time>
      </trkpt>
      <trkpt lat="45.29446" lon="5.8251">
        <ele>1638.4350585938</ele>
        <time>2017-10-01T07:53:10Z</time>
      </trkpt>
      <trkpt lat="45.29442" lon="5.82506">
        <ele>1637.4350585938</ele>
        <time>2017-10-01T07:53:17Z</time>
      </trkpt>
      <trkpt lat="45.29441" lon="5.82499">
        <ele>1634.4350585938</ele>
        <time>2017-10-01T07:53:24Z</time>
      </trkpt>
      <trkpt lat="45.29438" lon="5.82491">
        <ele>1633.4350585938</ele>
        <time>2017-10-01T07:53:27Z</time>
      </trkpt>
      <trkpt lat="45.29434" lon="5.82487">
        <ele>1632.4350585938</ele>
        <time>2017-10-01T07:53:33Z</time>
      </trkpt>
      <trkpt lat="45.29429" lon="5.82484">
        <ele>1631.4350585938</ele>
        <time>2017-10-01T07:53:38Z</time>
      </trkpt>
      <trkpt lat="45.29424" lon="5.82485">
        <ele>1628.4350585938</ele>
        <time>2017-10-01T07:53:44Z</time>
      </trkpt>
      <trkpt lat="45.29419" lon="5.82485">
        <ele>1629.4350585938</ele>
        <time>2017-10-01T07:53:49Z</time>
      </trkpt>
      <trkpt lat="45.29414" lon="5.82487">
        <ele>1625.4350585938</ele>
        <time>2017-10-01T07:53:57Z</time>
      </trkpt>
      <trkpt lat="45.29409" lon="5.82485">
        <ele>1625.4350585938</ele>
        <time>2017-10-01T07:53:59Z</time>
      </trkpt>
      <trkpt lat="45.29403" lon="5.82485">
        <ele>1625.4350585938</ele>
        <time>2017-10-01T07:54:02Z</time>
      </trkpt>
      <trkpt lat="45.29399" lon="5.82481">
        <ele>1621.4350585938</ele>
        <time>2017-10-01T07:54:07Z</time>
      </trkpt>
      <trkpt lat="45.29395" lon="5.82476">
        <ele>1620.4350585938</ele>
        <time>2017-10-01T07:54:11Z</time>
      </trkpt>
      <trkpt lat="45.2939" lon="5.82471">
        <ele>1619.4350585938</ele>
        <time>2017-10-01T07:54:15Z</time>
      </trkpt>
      <trkpt lat="45.29385" lon="5.82467">
        <ele>1618.4350585938</ele>
        <time>2017-10-01T07:54:17Z</time>
      </trkpt>
      <trkpt lat="45.29379" lon="5.82468">
        <ele>1616.4350585938</ele>
        <time>2017-10-01T07:54:38Z</time>
      </trkpt>
      <trkpt lat="45.29374" lon="5.82466">
        <ele>1615.4350585938</ele>
        <time>2017-10-01T07:54:41Z</time>
      </trkpt>
      <trkpt lat="45.29369" lon="5.82463">
        <ele>1614.4350585938</ele>
        <time>2017-10-01T07:54:43Z</time>
      </trkpt>
      <trkpt lat="45.29364" lon="5.8246">
        <ele>1609.4350585938</ele>
        <time>2017-10-01T07:54:49Z</time>
      </trkpt>
      <trkpt lat="45.29359" lon="5.82456">
        <ele>1606.4350585938</ele>
        <time>2017-10-01T07:54:51Z</time>
      </trkpt>
      <trkpt lat="45.29354" lon="5.82453">
        <ele>1606.4350585938</ele>
        <time>2017-10-01T07:54:54Z</time>
      </trkpt>
      <trkpt lat="45.29349" lon="5.8245">
        <ele>1605.4350585938</ele>
        <time>2017-10-01T07:54:57Z</time>
      </trkpt>
      <trkpt lat="45.29343" lon="5.82446">
        <ele>1605.4350585938</ele>
        <time>2017-10-01T07:55:00Z</time>
      </trkpt>
      <trkpt lat="45.29338" lon="5.82442">
        <ele>1604.4350585938</ele>
        <time>2017-10-01T07:55:02Z</time>
      </trkpt>
      <trkpt lat="45.29334" lon="5.82438">
        <ele>1605.4350585938</ele>
        <time>2017-10-01T07:55:05Z</time>
      </trkpt>
      <trkpt lat="45.29329" lon="5.82439">
        <ele>1603.4350585938</ele>
        <time>2017-10-01T07:55:14Z</time>
      </trkpt>
      <trkpt lat="45.29324" lon="5.82435">
        <ele>1600.4350585938</ele>
        <time>2017-10-01T07:55:18Z</time>
      </trkpt>
      <trkpt lat="45.29319" lon="5.82434">
        <ele>1598.4350585938</ele>
        <time>2017-10-01T07:55:23Z</time>
      </trkpt>
      <trkpt lat="45.29314" lon="5.82429">
        <ele>1596.4350585938</ele>
        <time>2017-10-01T07:55:28Z</time>
      </trkpt>
      <trkpt lat="45.29309" lon="5.82428">
        <ele>1595.4350585938</ele>
        <time>2017-10-01T07:55:32Z</time>
      </trkpt>
      <trkpt lat="45.29303" lon="5.82426">
        <ele>1595.4350585938</ele>
        <time>2017-10-01T07:55:35Z</time>
      </trkpt>
      <trkpt lat="45.29298" lon="5.82422">
        <ele>1593.4350585938</ele>
        <time>2017-10-01T07:55:40Z</time>
      </trkpt>
      <trkpt lat="45.29293" lon="5.82418">
        <ele>1593.4350585938</ele>
        <time>2017-10-01T07:55:43Z</time>
      </trkpt>
      <trkpt lat="45.2929" lon="5.82412">
        <ele>1592.4350585938</ele>
        <time>2017-10-01T07:55:52Z</time>
      </trkpt>
      <trkpt lat="45.29286" lon="5.82406">
        <ele>1591.4350585938</ele>
        <time>2017-10-01T07:55:56Z</time>
      </trkpt>
      <trkpt lat="45.29281" lon="5.82402">
        <ele>1586.4350585938</ele>
        <time>2017-10-01T07:56:03Z</time>
      </trkpt>
      <trkpt lat="45.29277" lon="5.824">
        <ele>1586.4350585938</ele>
        <time>2017-10-01T07:56:07Z</time>
      </trkpt>
      <trkpt lat="45.29272" lon="5.82395">
        <ele>1584.4350585938</ele>
        <time>2017-10-01T07:56:12Z</time>
      </trkpt>
      <trkpt lat="45.29269" lon="5.82388">
        <ele>1581.4350585938</ele>
        <time>2017-10-01T07:56:18Z</time>
      </trkpt>
      <trkpt lat="45.29265" lon="5.82386">
        <ele>1580.4350585938</ele>
        <time>2017-10-01T07:56:24Z</time>
      </trkpt>
      <trkpt lat="45.29261" lon="5.82379">
        <ele>1578.4350585938</ele>
        <time>2017-10-01T07:56:42Z</time>
      </trkpt>
      <trkpt lat="45.29257" lon="5.8237">
        <ele>1576.4350585938</ele>
        <time>2017-10-01T07:56:44Z</time>
      </trkpt>
      <trkpt lat="45.29252" lon="5.82362">
        <ele>1575.4350585938</ele>
        <time>2017-10-01T07:56:46Z</time>
      </trkpt>
      <trkpt lat="45.29249" lon="5.82356">
        <ele>1573.4350585938</ele>
        <time>2017-10-01T07:56:48Z</time>
      </trkpt>
      <trkpt lat="45.29245" lon="5.82349">
        <ele>1571.4350585938</ele>
        <time>2017-10-01T07:56:51Z</time>
      </trkpt>
      <trkpt lat="45.2924" lon="5.82342">
        <ele>1571.4350585938</ele>
        <time>2017-10-01T07:56:53Z</time>
      </trkpt>
      <trkpt lat="45.29244" lon="5.82337">
        <ele>1563.4350585938</ele>
        <time>2017-10-01T07:57:02Z</time>
      </trkpt>
      <trkpt lat="45.29241" lon="5.82328">
        <ele>1552.4350585938</ele>
        <time>2017-10-01T07:57:13Z</time>
      </trkpt>
      <trkpt lat="45.29235" lon="5.82325">
        <ele>1549.4350585938</ele>
        <time>2017-10-01T07:57:15Z</time>
      </trkpt>
      <trkpt lat="45.2923" lon="5.82319">
        <ele>1550.4350585938</ele>
        <time>2017-10-01T07:57:17Z</time>
      </trkpt>
      <trkpt lat="45.29225" lon="5.82315">
        <ele>1547.4350585938</ele>
        <time>2017-10-01T07:57:22Z</time>
      </trkpt>
      <trkpt lat="45.2922" lon="5.8231">
        <ele>1543.4339599609</ele>
        <time>2017-10-01T07:57:31Z</time>
      </trkpt>
      <trkpt lat="45.29214" lon="5.82306">
        <ele>1538.4339599609</ele>
        <time>2017-10-01T07:57:40Z</time>
      </trkpt>
      <trkpt lat="45.29206" lon="5.82299">
        <ele>1538.4339599609</ele>
        <time>2017-10-01T07:57:44Z</time>
      </trkpt>
      <trkpt lat="45.29201" lon="5.82297">
        <ele>1535.4339599609</ele>
        <time>2017-10-01T07:57:47Z</time>
      </trkpt>
      <trkpt lat="45.29196" lon="5.82292">
        <ele>1533.4339599609</ele>
        <time>2017-10-01T07:57:50Z</time>
      </trkpt>
      <trkpt lat="45.29191" lon="5.82291">
        <ele>1532.4339599609</ele>
        <time>2017-10-01T07:57:53Z</time>
      </trkpt>
      <trkpt lat="45.29185" lon="5.82288">
        <ele>1531.4339599609</ele>
        <time>2017-10-01T07:57:56Z</time>
      </trkpt>
      <trkpt lat="45.29179" lon="5.82289">
        <ele>1530.4339599609</ele>
        <time>2017-10-01T07:57:58Z</time>
      </trkpt>
      <trkpt lat="45.29175" lon="5.8229">
        <ele>1530.4339599609</ele>
        <time>2017-10-01T07:58:00Z</time>
      </trkpt>
      <trkpt lat="45.29169" lon="5.82293">
        <ele>1531.4339599609</ele>
        <time>2017-10-01T07:58:02Z</time>
      </trkpt>
      <trkpt lat="45.29162" lon="5.82296">
        <ele>1532.4339599609</ele>
        <time>2017-10-01T07:58:04Z</time>
      </trkpt>
      <trkpt lat="45.29157" lon="5.82295">
        <ele>1531.4339599609</ele>
        <time>2017-10-01T07:58:06Z</time>
      </trkpt>
      <trkpt lat="45.29151" lon="5.823">
        <ele>1530.4339599609</ele>
        <time>2017-10-01T07:58:09Z</time>
      </trkpt>
      <trkpt lat="45.29145" lon="5.82301">
        <ele>1529.4339599609</ele>
        <time>2017-10-01T07:58:11Z</time>
      </trkpt>
      <trkpt lat="45.29139" lon="5.82303">
        <ele>1529.4339599609</ele>
        <time>2017-10-01T07:58:13Z</time>
      </trkpt>
      <trkpt lat="45.29134" lon="5.82304">
        <ele>1528.4339599609</ele>
        <time>2017-10-01T07:58:15Z</time>
      </trkpt>
      <trkpt lat="45.29127" lon="5.82307">
        <ele>1527.4339599609</ele>
        <time>2017-10-01T07:58:18Z</time>
      </trkpt>
      <trkpt lat="45.29123" lon="5.82307">
        <ele>1525.4339599609</ele>
        <time>2017-10-01T07:58:22Z</time>
      </trkpt>
      <trkpt lat="45.29118" lon="5.82304">
        <ele>1525.4339599609</ele>
        <time>2017-10-01T07:58:26Z</time>
      </trkpt>
      <trkpt lat="45.2911" lon="5.82305">
        <ele>1528.4339599609</ele>
        <time>2017-10-01T07:58:29Z</time>
      </trkpt>
      <trkpt lat="45.29107" lon="5.82298">
        <ele>1524.4339599609</ele>
        <time>2017-10-01T07:58:35Z</time>
      </trkpt>
      <trkpt lat="45.29103" lon="5.82291">
        <ele>1522.4339599609</ele>
        <time>2017-10-01T07:58:37Z</time>
      </trkpt>
      <trkpt lat="45.29093" lon="5.82288">
        <ele>1519.4339599609</ele>
        <time>2017-10-01T07:58:40Z</time>
      </trkpt>
      <trkpt lat="45.29087" lon="5.82285">
        <ele>1519.4339599609</ele>
        <time>2017-10-01T07:58:42Z</time>
      </trkpt>
      <trkpt lat="45.29082" lon="5.82286">
        <ele>1519.4339599609</ele>
        <time>2017-10-01T07:58:44Z</time>
      </trkpt>
      <trkpt lat="45.29076" lon="5.82285">
        <ele>1518.4339599609</ele>
        <time>2017-10-01T07:58:46Z</time>
      </trkpt>
      <trkpt lat="45.2907" lon="5.82289">
        <ele>1519.4339599609</ele>
        <time>2017-10-01T07:58:49Z</time>
      </trkpt>
      <trkpt lat="45.29065" lon="5.82286">
        <ele>1516.4339599609</ele>
        <time>2017-10-01T07:58:51Z</time>
      </trkpt>
      <trkpt lat="45.29059" lon="5.82283">
        <ele>1515.4339599609</ele>
        <time>2017-10-01T07:58:54Z</time>
      </trkpt>
      <trkpt lat="45.29054" lon="5.82285">
        <ele>1509.4339599609</ele>
        <time>2017-10-01T07:58:58Z</time>
      </trkpt>
      <trkpt lat="45.2905" lon="5.82281">
        <ele>1506.4339599609</ele>
        <time>2017-10-01T07:59:00Z</time>
      </trkpt>
      <trkpt lat="45.29044" lon="5.82279">
        <ele>1506.4339599609</ele>
        <time>2017-10-01T07:59:02Z</time>
      </trkpt>
      <trkpt lat="45.29039" lon="5.82278">
        <ele>1506.4339599609</ele>
        <time>2017-10-01T07:59:04Z</time>
      </trkpt>
      <trkpt lat="45.29033" lon="5.82278">
        <ele>1506.4339599609</ele>
        <time>2017-10-01T07:59:06Z</time>
      </trkpt>
      <trkpt lat="45.29027" lon="5.82275">
        <ele>1504.4339599609</ele>
        <time>2017-10-01T07:59:08Z</time>
      </trkpt>
      <trkpt lat="45.29023" lon="5.82267">
        <ele>1504.4339599609</ele>
        <time>2017-10-01T07:59:10Z</time>
      </trkpt>
      <trkpt lat="45.29018" lon="5.82265">
        <ele>1506.4339599609</ele>
        <time>2017-10-01T07:59:13Z</time>
      </trkpt>
      <trkpt lat="45.29014" lon="5.82262">
        <ele>1502.4339599609</ele>
        <time>2017-10-01T07:59:16Z</time>
      </trkpt>
      <trkpt lat="45.29009" lon="5.82259">
        <ele>1498.4339599609</ele>
        <time>2017-10-01T07:59:20Z</time>
      </trkpt>
      <trkpt lat="45.29006" lon="5.82254">
        <ele>1492.4339599609</ele>
        <time>2017-10-01T07:59:27Z</time>
      </trkpt>
      <trkpt lat="45.29002" lon="5.82251">
        <ele>1489.4339599609</ele>
        <time>2017-10-01T07:59:31Z</time>
      </trkpt>
      <trkpt lat="45.28997" lon="5.82248">
        <ele>1489.4339599609</ele>
        <time>2017-10-01T07:59:34Z</time>
      </trkpt>
      <trkpt lat="45.28993" lon="5.82244">
        <ele>1486.4339599609</ele>
        <time>2017-10-01T07:59:38Z</time>
      </trkpt>
      <trkpt lat="45.2899" lon="5.8224">
        <ele>1484.4339599609</ele>
        <time>2017-10-01T07:59:42Z</time>
      </trkpt>
      <trkpt lat="45.28985" lon="5.82239">
        <ele>1486.4339599609</ele>
        <time>2017-10-01T07:59:45Z</time>
      </trkpt>
      <trkpt lat="45.28979" lon="5.82233">
        <ele>1488.4339599609</ele>
        <time>2017-10-01T07:59:48Z</time>
      </trkpt>
      <trkpt lat="45.28974" lon="5.8223">
        <ele>1488.4339599609</ele>
        <time>2017-10-01T07:59:50Z</time>
      </trkpt>
      <trkpt lat="45.2897" lon="5.82228">
        <ele>1485.4339599609</ele>
        <time>2017-10-01T07:59:52Z</time>
      </trkpt>
      <trkpt lat="45.28963" lon="5.82222">
        <ele>1484.4339599609</ele>
        <time>2017-10-01T07:59:56Z</time>
      </trkpt>
      <trkpt lat="45.28957" lon="5.82218">
        <ele>1483.4339599609</ele>
        <time>2017-10-01T07:59:59Z</time>
      </trkpt>
      <trkpt lat="45.28952" lon="5.82215">
        <ele>1480.4339599609</ele>
        <time>2017-10-01T08:00:04Z</time>
      </trkpt>
      <trkpt lat="45.28946" lon="5.82213">
        <ele>1479.4339599609</ele>
        <time>2017-10-01T08:00:09Z</time>
      </trkpt>
      <trkpt lat="45.2894" lon="5.82208">
        <ele>1477.4339599609</ele>
        <time>2017-10-01T08:00:11Z</time>
      </trkpt>
      <trkpt lat="45.28934" lon="5.82207">
        <ele>1479.4339599609</ele>
        <time>2017-10-01T08:00:14Z</time>
      </trkpt>
      <trkpt lat="45.2893" lon="5.82207">
        <ele>1478.4339599609</ele>
        <time>2017-10-01T08:00:16Z</time>
      </trkpt>
      <trkpt lat="45.28923" lon="5.82204">
        <ele>1474.4339599609</ele>
        <time>2017-10-01T08:00:20Z</time>
      </trkpt>
      <trkpt lat="45.28919" lon="5.82201">
        <ele>1472.4339599609</ele>
        <time>2017-10-01T08:00:23Z</time>
      </trkpt>
      <trkpt lat="45.28914" lon="5.82199">
        <ele>1471.4339599609</ele>
        <time>2017-10-01T08:00:31Z</time>
      </trkpt>
      <trkpt lat="45.28907" lon="5.82196">
        <ele>1470.4339599609</ele>
        <time>2017-10-01T08:00:36Z</time>
      </trkpt>
      <trkpt lat="45.28903" lon="5.82194">
        <ele>1470.4339599609</ele>
        <time>2017-10-01T08:00:39Z</time>
      </trkpt>
      <trkpt lat="45.28897" lon="5.82191">
        <ele>1466.4339599609</ele>
        <time>2017-10-01T08:00:43Z</time>
      </trkpt>
      <trkpt lat="45.28892" lon="5.82189">
        <ele>1464.4339599609</ele>
        <time>2017-10-01T08:00:46Z</time>
      </trkpt>
      <trkpt lat="45.28886" lon="5.82189">
        <ele>1462.4339599609</ele>
        <time>2017-10-01T08:00:49Z</time>
      </trkpt>
      <trkpt lat="45.28887" lon="5.82196">
        <ele>1463.4339599609</ele>
        <time>2017-10-01T08:00:52Z</time>
      </trkpt>
      <trkpt lat="45.28881" lon="5.82195">
        <ele>1459.4339599609</ele>
        <time>2017-10-01T08:00:57Z</time>
      </trkpt>
      <trkpt lat="45.28877" lon="5.82193">
        <ele>1457.4339599609</ele>
        <time>2017-10-01T08:01:00Z</time>
      </trkpt>
      <trkpt lat="45.28872" lon="5.82191">
        <ele>1459.4339599609</ele>
        <time>2017-10-01T08:01:06Z</time>
      </trkpt>
      <trkpt lat="45.28868" lon="5.82186">
        <ele>1454.4339599609</ele>
        <time>2017-10-01T08:01:14Z</time>
      </trkpt>
      <trkpt lat="45.28862" lon="5.8218">
        <ele>1453.4339599609</ele>
        <time>2017-10-01T08:01:18Z</time>
      </trkpt>
      <trkpt lat="45.28858" lon="5.82175">
        <ele>1452.4339599609</ele>
        <time>2017-10-01T08:01:20Z</time>
      </trkpt>
      <trkpt lat="45.28852" lon="5.82165">
        <ele>1450.4339599609</ele>
        <time>2017-10-01T08:01:22Z</time>
      </trkpt>
      <trkpt lat="45.28844" lon="5.82156">
        <ele>1450.4329833984</ele>
        <time>2017-10-01T08:01:24Z</time>
      </trkpt>
      <trkpt lat="45.28835" lon="5.8215">
        <ele>1448.4329833984</ele>
        <time>2017-10-01T08:01:26Z</time>
      </trkpt>
      <trkpt lat="45.28831" lon="5.82141">
        <ele>1448.4329833984</ele>
        <time>2017-10-01T08:01:29Z</time>
      </trkpt>
      <trkpt lat="45.28823" lon="5.82131">
        <ele>1444.4329833984</ele>
        <time>2017-10-01T08:01:31Z</time>
      </trkpt>
      <trkpt lat="45.28817" lon="5.82135">
        <ele>1441.4329833984</ele>
        <time>2017-10-01T08:01:33Z</time>
      </trkpt>
      <trkpt lat="45.28813" lon="5.82128">
        <ele>1439.4329833984</ele>
        <time>2017-10-01T08:01:38Z</time>
      </trkpt>
      <trkpt lat="45.28809" lon="5.82125">
        <ele>1434.4329833984</ele>
        <time>2017-10-01T08:01:42Z</time>
      </trkpt>
      <trkpt lat="45.28804" lon="5.82121">
        <ele>1433.4329833984</ele>
        <time>2017-10-01T08:01:46Z</time>
      </trkpt>
      <trkpt lat="45.28793" lon="5.82116">
        <ele>1430.4329833984</ele>
        <time>2017-10-01T08:01:50Z</time>
      </trkpt>
      <trkpt lat="45.28787" lon="5.82111">
        <ele>1428.4329833984</ele>
        <time>2017-10-01T08:01:52Z</time>
      </trkpt>
      <trkpt lat="45.28776" lon="5.82104">
        <ele>1426.4329833984</ele>
        <time>2017-10-01T08:01:57Z</time>
      </trkpt>
      <trkpt lat="45.28771" lon="5.82102">
        <ele>1424.4329833984</ele>
        <time>2017-10-01T08:02:00Z</time>
      </trkpt>
      <trkpt lat="45.28767" lon="5.82104">
        <ele>1424.4329833984</ele>
        <time>2017-10-01T08:02:02Z</time>
      </trkpt>
      <trkpt lat="45.28761" lon="5.82102">
        <ele>1423.4329833984</ele>
        <time>2017-10-01T08:02:05Z</time>
      </trkpt>
      <trkpt lat="45.28754" lon="5.82096">
        <ele>1420.4329833984</ele>
        <time>2017-10-01T08:02:08Z</time>
      </trkpt>
      <trkpt lat="45.28749" lon="5.82092">
        <ele>1420.4329833984</ele>
        <time>2017-10-01T08:02:11Z</time>
      </trkpt>
      <trkpt lat="45.28743" lon="5.82092">
        <ele>1418.4329833984</ele>
        <time>2017-10-01T08:02:14Z</time>
      </trkpt>
      <trkpt lat="45.28738" lon="5.82088">
        <ele>1415.4329833984</ele>
        <time>2017-10-01T08:02:17Z</time>
      </trkpt>
      <trkpt lat="45.28733" lon="5.82085">
        <ele>1411.4329833984</ele>
        <time>2017-10-01T08:02:19Z</time>
      </trkpt>
      <trkpt lat="45.28728" lon="5.82083">
        <ele>1412.4329833984</ele>
        <time>2017-10-01T08:02:20Z</time>
      </trkpt>
      <trkpt lat="45.2872" lon="5.82077">
        <ele>1413.4329833984</ele>
        <time>2017-10-01T08:02:22Z</time>
      </trkpt>
      <trkpt lat="45.28711" lon="5.82071">
        <ele>1413.4329833984</ele>
        <time>2017-10-01T08:02:29Z</time>
      </trkpt>
      <trkpt lat="45.28706" lon="5.82071">
        <ele>1414.4329833984</ele>
        <time>2017-10-01T08:02:33Z</time>
      </trkpt>
      <trkpt lat="45.28701" lon="5.82069">
        <ele>1413.4329833984</ele>
        <time>2017-10-01T08:02:40Z</time>
      </trkpt>
      <trkpt lat="45.28696" lon="5.82065">
        <ele>1410.4329833984</ele>
        <time>2017-10-01T08:02:45Z</time>
      </trkpt>
      <trkpt lat="45.28691" lon="5.82064">
        <ele>1412.4329833984</ele>
        <time>2017-10-01T08:02:51Z</time>
      </trkpt>
      <trkpt lat="45.28686" lon="5.82064">
        <ele>1413.4329833984</ele>
        <time>2017-10-01T08:02:56Z</time>
      </trkpt>
      <trkpt lat="45.28681" lon="5.82062">
        <ele>1413.4329833984</ele>
        <time>2017-10-01T08:03:05Z</time>
      </trkpt>
      <trkpt lat="45.28675" lon="5.82063">
        <ele>1412.4329833984</ele>
        <time>2017-10-01T08:03:08Z</time>
      </trkpt>
      <trkpt lat="45.2867" lon="5.82059">
        <ele>1414.4329833984</ele>
        <time>2017-10-01T08:03:10Z</time>
      </trkpt>
      <trkpt lat="45.28666" lon="5.82062">
        <ele>1412.4329833984</ele>
        <time>2017-10-01T08:03:16Z</time>
      </trkpt>
      <trkpt lat="45.2866" lon="5.82059">
        <ele>1410.4329833984</ele>
        <time>2017-10-01T08:03:18Z</time>
      </trkpt>
      <trkpt lat="45.28656" lon="5.82059">
        <ele>1409.4329833984</ele>
        <time>2017-10-01T08:03:20Z</time>
      </trkpt>
      <trkpt lat="45.2865" lon="5.82059">
        <ele>1407.4329833984</ele>
        <time>2017-10-01T08:03:22Z</time>
      </trkpt>
      <trkpt lat="45.28646" lon="5.82062">
        <ele>1414.4329833984</ele>
        <time>2017-10-01T08:03:31Z</time>
      </trkpt>
      <trkpt lat="45.28643" lon="5.82057">
        <ele>1411.4329833984</ele>
        <time>2017-10-01T08:03:35Z</time>
      </trkpt>
      <trkpt lat="45.28638" lon="5.82056">
        <ele>1409.4329833984</ele>
        <time>2017-10-01T08:03:36Z</time>
      </trkpt>
      <trkpt lat="45.28634" lon="5.82051">
        <ele>1408.4329833984</ele>
        <time>2017-10-01T08:03:37Z</time>
      </trkpt>
      <trkpt lat="45.28629" lon="5.82047">
        <ele>1408.4329833984</ele>
        <time>2017-10-01T08:03:39Z</time>
      </trkpt>
      <trkpt lat="45.28625" lon="5.82044">
        <ele>1409.4329833984</ele>
        <time>2017-10-01T08:03:42Z</time>
      </trkpt>
      <trkpt lat="45.2862" lon="5.82041">
        <ele>1410.4329833984</ele>
        <time>2017-10-01T08:03:46Z</time>
      </trkpt>
      <trkpt lat="45.28615" lon="5.82038">
        <ele>1409.4329833984</ele>
        <time>2017-10-01T08:03:50Z</time>
      </trkpt>
      <trkpt lat="45.28609" lon="5.82034">
        <ele>1409.4329833984</ele>
        <time>2017-10-01T08:03:55Z</time>
      </trkpt>
      <trkpt lat="45.28605" lon="5.8203">
        <ele>1411.4329833984</ele>
        <time>2017-10-01T08:04:01Z</time>
      </trkpt>
      <trkpt lat="45.286" lon="5.8203">
        <ele>1414.4329833984</ele>
        <time>2017-10-01T08:04:05Z</time>
      </trkpt>
      <trkpt lat="45.28593" lon="5.82029">
        <ele>1414.4329833984</ele>
        <time>2017-10-01T08:04:07Z</time>
      </trkpt>
      <trkpt lat="45.28586" lon="5.82027">
        <ele>1415.4329833984</ele>
        <time>2017-10-01T08:04:09Z</time>
      </trkpt>
      <trkpt lat="45.2858" lon="5.82026">
        <ele>1415.4329833984</ele>
        <time>2017-10-01T08:04:11Z</time>
      </trkpt>
      <trkpt lat="45.28575" lon="5.8202">
        <ele>1416.4329833984</ele>
        <time>2017-10-01T08:04:13Z</time>
      </trkpt>
      <trkpt lat="45.28569" lon="5.82015">
        <ele>1417.4329833984</ele>
        <time>2017-10-01T08:04:15Z</time>
      </trkpt>
      <trkpt lat="45.28562" lon="5.82013">
        <ele>1415.4329833984</ele>
        <time>2017-10-01T08:04:17Z</time>
      </trkpt>
      <trkpt lat="45.28557" lon="5.82011">
        <ele>1416.4329833984</ele>
        <time>2017-10-01T08:04:19Z</time>
      </trkpt>
      <trkpt lat="45.28549" lon="5.82009">
        <ele>1416.4329833984</ele>
        <time>2017-10-01T08:04:21Z</time>
      </trkpt>
      <trkpt lat="45.28542" lon="5.82005">
        <ele>1418.4329833984</ele>
        <time>2017-10-01T08:04:24Z</time>
      </trkpt>
      <trkpt lat="45.28537" lon="5.82004">
        <ele>1417.4329833984</ele>
        <time>2017-10-01T08:04:26Z</time>
      </trkpt>
      <trkpt lat="45.28531" lon="5.81999">
        <ele>1416.4329833984</ele>
        <time>2017-10-01T08:04:28Z</time>
      </trkpt>
      <trkpt lat="45.28526" lon="5.81994">
        <ele>1418.4329833984</ele>
        <time>2017-10-01T08:04:30Z</time>
      </trkpt>
      <trkpt lat="45.28523" lon="5.81987">
        <ele>1417.4329833984</ele>
        <time>2017-10-01T08:04:32Z</time>
      </trkpt>
      <trkpt lat="45.28517" lon="5.81979">
        <ele>1417.4329833984</ele>
        <time>2017-10-01T08:04:35Z</time>
      </trkpt>
      <trkpt lat="45.28516" lon="5.81972">
        <ele>1418.4329833984</ele>
        <time>2017-10-01T08:04:38Z</time>
      </trkpt>
      <trkpt lat="45.28512" lon="5.81964">
        <ele>1417.4329833984</ele>
        <time>2017-10-01T08:04:40Z</time>
      </trkpt>
      <trkpt lat="45.28508" lon="5.81957">
        <ele>1416.4329833984</ele>
        <time>2017-10-01T08:04:42Z</time>
      </trkpt>
      <trkpt lat="45.28505" lon="5.81952">
        <ele>1417.4329833984</ele>
        <time>2017-10-01T08:04:44Z</time>
      </trkpt>
      <trkpt lat="45.28501" lon="5.81947">
        <ele>1418.4320068359</ele>
        <time>2017-10-01T08:04:47Z</time>
      </trkpt>
      <trkpt lat="45.28496" lon="5.81942">
        <ele>1418.4320068359</ele>
        <time>2017-10-01T08:04:49Z</time>
      </trkpt>
      <trkpt lat="45.28491" lon="5.81943">
        <ele>1422.4320068359</ele>
        <time>2017-10-01T08:04:53Z</time>
      </trkpt>
      <trkpt lat="45.28488" lon="5.81936">
        <ele>1424.4320068359</ele>
        <time>2017-10-01T08:04:57Z</time>
      </trkpt>
      <trkpt lat="45.28483" lon="5.8193">
        <ele>1424.4320068359</ele>
        <time>2017-10-01T08:05:00Z</time>
      </trkpt>
      <trkpt lat="45.2848" lon="5.81925">
        <ele>1425.4320068359</ele>
        <time>2017-10-01T08:05:05Z</time>
      </trkpt>
      <trkpt lat="45.28476" lon="5.8192">
        <ele>1424.4320068359</ele>
        <time>2017-10-01T08:05:09Z</time>
      </trkpt>
      <trkpt lat="45.28471" lon="5.81914">
        <ele>1423.4320068359</ele>
        <time>2017-10-01T08:05:12Z</time>
      </trkpt>
      <trkpt lat="45.28467" lon="5.8191">
        <ele>1423.4320068359</ele>
        <time>2017-10-01T08:05:15Z</time>
      </trkpt>
      <trkpt lat="45.28462" lon="5.81911">
        <ele>1424.4320068359</ele>
        <time>2017-10-01T08:05:20Z</time>
      </trkpt>
      <trkpt lat="45.28458" lon="5.81909">
        <ele>1424.4320068359</ele>
        <time>2017-10-01T08:05:23Z</time>
      </trkpt>
      <trkpt lat="45.28453" lon="5.81911">
        <ele>1425.4320068359</ele>
        <time>2017-10-01T08:05:36Z</time>
      </trkpt>
      <trkpt lat="45.28448" lon="5.81914">
        <ele>1425.4320068359</ele>
        <time>2017-10-01T08:05:42Z</time>
      </trkpt>
      <trkpt lat="45.28443" lon="5.81912">
        <ele>1427.4320068359</ele>
        <time>2017-10-01T08:05:48Z</time>
      </trkpt>
      <trkpt lat="45.28439" lon="5.81909">
        <ele>1425.4320068359</ele>
        <time>2017-10-01T08:05:52Z</time>
      </trkpt>
      <trkpt lat="45.28434" lon="5.81911">
        <ele>1424.4320068359</ele>
        <time>2017-10-01T08:05:55Z</time>
      </trkpt>
      <trkpt lat="45.2843" lon="5.81913">
        <ele>1422.4320068359</ele>
        <time>2017-10-01T08:05:59Z</time>
      </trkpt>
      <trkpt lat="45.28424" lon="5.81911">
        <ele>1420.4320068359</ele>
        <time>2017-10-01T08:06:02Z</time>
      </trkpt>
      <trkpt lat="45.28419" lon="5.81914">
        <ele>1420.4320068359</ele>
        <time>2017-10-01T08:06:05Z</time>
      </trkpt>
      <trkpt lat="45.28415" lon="5.81917">
        <ele>1420.4320068359</ele>
        <time>2017-10-01T08:06:07Z</time>
      </trkpt>
      <trkpt lat="45.28409" lon="5.81918">
        <ele>1417.4320068359</ele>
        <time>2017-10-01T08:06:09Z</time>
      </trkpt>
      <trkpt lat="45.28404" lon="5.81918">
        <ele>1417.4320068359</ele>
        <time>2017-10-01T08:06:11Z</time>
      </trkpt>
      <trkpt lat="45.28395" lon="5.81921">
        <ele>1419.4320068359</ele>
        <time>2017-10-01T08:06:13Z</time>
      </trkpt>
      <trkpt lat="45.2839" lon="5.81924">
        <ele>1416.4320068359</ele>
        <time>2017-10-01T08:06:16Z</time>
      </trkpt>
      <trkpt lat="45.28383" lon="5.81927">
        <ele>1414.4320068359</ele>
        <time>2017-10-01T08:06:18Z</time>
      </trkpt>
      <trkpt lat="45.28376" lon="5.81926">
        <ele>1413.4320068359</ele>
        <time>2017-10-01T08:06:20Z</time>
      </trkpt>
      <trkpt lat="45.28368" lon="5.81927">
        <ele>1412.4320068359</ele>
        <time>2017-10-01T08:06:23Z</time>
      </trkpt>
      <trkpt lat="45.28361" lon="5.81926">
        <ele>1412.4320068359</ele>
        <time>2017-10-01T08:06:25Z</time>
      </trkpt>
      <trkpt lat="45.28354" lon="5.8193">
        <ele>1411.4320068359</ele>
        <time>2017-10-01T08:06:28Z</time>
      </trkpt>
      <trkpt lat="45.28348" lon="5.81934">
        <ele>1413.4320068359</ele>
        <time>2017-10-01T08:06:31Z</time>
      </trkpt>
      <trkpt lat="45.28354" lon="5.81938">
        <ele>1409.4320068359</ele>
        <time>2017-10-01T08:06:35Z</time>
      </trkpt>
      <trkpt lat="45.28362" lon="5.81947">
        <ele>1403.4320068359</ele>
        <time>2017-10-01T08:06:39Z</time>
      </trkpt>
      <trkpt lat="45.28361" lon="5.81955">
        <ele>1402.4320068359</ele>
        <time>2017-10-01T08:06:44Z</time>
      </trkpt>
      <trkpt lat="45.28356" lon="5.81951">
        <ele>1397.4320068359</ele>
        <time>2017-10-01T08:06:47Z</time>
      </trkpt>
      <trkpt lat="45.2835" lon="5.81955">
        <ele>1396.4320068359</ele>
        <time>2017-10-01T08:06:50Z</time>
      </trkpt>
      <trkpt lat="45.28345" lon="5.81959">
        <ele>1395.4320068359</ele>
        <time>2017-10-01T08:06:52Z</time>
      </trkpt>
      <trkpt lat="45.28339" lon="5.81958">
        <ele>1392.4320068359</ele>
        <time>2017-10-01T08:06:55Z</time>
      </trkpt>
      <trkpt lat="45.28333" lon="5.81959">
        <ele>1394.4320068359</ele>
        <time>2017-10-01T08:06:57Z</time>
      </trkpt>
      <trkpt lat="45.28326" lon="5.81957">
        <ele>1394.4320068359</ele>
        <time>2017-10-01T08:07:00Z</time>
      </trkpt>
      <trkpt lat="45.28318" lon="5.81953">
        <ele>1393.4320068359</ele>
        <time>2017-10-01T08:07:02Z</time>
      </trkpt>
      <trkpt lat="45.28314" lon="5.81949">
        <ele>1392.4320068359</ele>
        <time>2017-10-01T08:07:04Z</time>
      </trkpt>
      <trkpt lat="45.28307" lon="5.81952">
        <ele>1393.4320068359</ele>
        <time>2017-10-01T08:07:06Z</time>
      </trkpt>
      <trkpt lat="45.28298" lon="5.81955">
        <ele>1390.4320068359</ele>
        <time>2017-10-01T08:07:09Z</time>
      </trkpt>
      <trkpt lat="45.28289" lon="5.81955">
        <ele>1391.4320068359</ele>
        <time>2017-10-01T08:07:11Z</time>
      </trkpt>
      <trkpt lat="45.28281" lon="5.81954">
        <ele>1392.4320068359</ele>
        <time>2017-10-01T08:07:13Z</time>
      </trkpt>
      <trkpt lat="45.28274" lon="5.81957">
        <ele>1390.4320068359</ele>
        <time>2017-10-01T08:07:16Z</time>
      </trkpt>
      <trkpt lat="45.28268" lon="5.81956">
        <ele>1391.4320068359</ele>
        <time>2017-10-01T08:07:17Z</time>
      </trkpt>
      <trkpt lat="45.28265" lon="5.81952">
        <ele>1390.4320068359</ele>
        <time>2017-10-01T08:07:19Z</time>
      </trkpt>
      <trkpt lat="45.28259" lon="5.81948">
        <ele>1389.4320068359</ele>
        <time>2017-10-01T08:07:22Z</time>
      </trkpt>
      <trkpt lat="45.28256" lon="5.81942">
        <ele>1387.4320068359</ele>
        <time>2017-10-01T08:07:25Z</time>
      </trkpt>
      <trkpt lat="45.28256" lon="5.81948">
        <ele>1383.4320068359</ele>
        <time>2017-10-01T08:07:32Z</time>
      </trkpt>
      <trkpt lat="45.28258" lon="5.81955">
        <ele>1381.4320068359</ele>
        <time>2017-10-01T08:07:34Z</time>
      </trkpt>
      <trkpt lat="45.28261" lon="5.81961">
        <ele>1380.4320068359</ele>
        <time>2017-10-01T08:07:36Z</time>
      </trkpt>
      <trkpt lat="45.28267" lon="5.81963">
        <ele>1379.4320068359</ele>
        <time>2017-10-01T08:07:39Z</time>
      </trkpt>
      <trkpt lat="45.28271" lon="5.81965">
        <ele>1376.4320068359</ele>
        <time>2017-10-01T08:07:42Z</time>
      </trkpt>
      <trkpt lat="45.28279" lon="5.81975">
        <ele>1394.4320068359</ele>
        <time>2017-10-01T08:07:45Z</time>
      </trkpt>
      <trkpt lat="45.28281" lon="5.81981">
        <ele>1385.4320068359</ele>
        <time>2017-10-01T08:07:47Z</time>
      </trkpt>
      <trkpt lat="45.28286" lon="5.81985">
        <ele>1381.4320068359</ele>
        <time>2017-10-01T08:07:49Z</time>
      </trkpt>
      <trkpt lat="45.28286" lon="5.81993">
        <ele>1372.4320068359</ele>
        <time>2017-10-01T08:07:53Z</time>
      </trkpt>
      <trkpt lat="45.28281" lon="5.81995">
        <ele>1371.4320068359</ele>
        <time>2017-10-01T08:07:56Z</time>
      </trkpt>
      <trkpt lat="45.28273" lon="5.81997">
        <ele>1369.4320068359</ele>
        <time>2017-10-01T08:07:59Z</time>
      </trkpt>
      <trkpt lat="45.28266" lon="5.81999">
        <ele>1368.4320068359</ele>
        <time>2017-10-01T08:08:01Z</time>
      </trkpt>
      <trkpt lat="45.28259" lon="5.81997">
        <ele>1365.4320068359</ele>
        <time>2017-10-01T08:08:03Z</time>
      </trkpt>
      <trkpt lat="45.28252" lon="5.81994">
        <ele>1364.4320068359</ele>
        <time>2017-10-01T08:08:05Z</time>
      </trkpt>
      <trkpt lat="45.28246" lon="5.81994">
        <ele>1362.4320068359</ele>
        <time>2017-10-01T08:08:07Z</time>
      </trkpt>
      <trkpt lat="45.28234" lon="5.81991">
        <ele>1361.4320068359</ele>
        <time>2017-10-01T08:08:10Z</time>
      </trkpt>
      <trkpt lat="45.28229" lon="5.81986">
        <ele>1359.4320068359</ele>
        <time>2017-10-01T08:08:13Z</time>
      </trkpt>
      <trkpt lat="45.28225" lon="5.81982">
        <ele>1358.4320068359</ele>
        <time>2017-10-01T08:08:15Z</time>
      </trkpt>
      <trkpt lat="45.28221" lon="5.81979">
        <ele>1357.4320068359</ele>
        <time>2017-10-01T08:08:18Z</time>
      </trkpt>
      <trkpt lat="45.28218" lon="5.81972">
        <ele>1357.4320068359</ele>
        <time>2017-10-01T08:08:21Z</time>
      </trkpt>
      <trkpt lat="45.28213" lon="5.81967">
        <ele>1358.4320068359</ele>
        <time>2017-10-01T08:08:23Z</time>
      </trkpt>
      <trkpt lat="45.28207" lon="5.81965">
        <ele>1357.4320068359</ele>
        <time>2017-10-01T08:08:25Z</time>
      </trkpt>
      <trkpt lat="45.28202" lon="5.81963">
        <ele>1357.4320068359</ele>
        <time>2017-10-01T08:08:28Z</time>
      </trkpt>
      <trkpt lat="45.28193" lon="5.81956">
        <ele>1355.4320068359</ele>
        <time>2017-10-01T08:08:31Z</time>
      </trkpt>
      <trkpt lat="45.28186" lon="5.81953">
        <ele>1353.4320068359</ele>
        <time>2017-10-01T08:08:33Z</time>
      </trkpt>
      <trkpt lat="45.28182" lon="5.81952">
        <ele>1350.4320068359</ele>
        <time>2017-10-01T08:08:35Z</time>
      </trkpt>
      <trkpt lat="45.28183" lon="5.81961">
        <ele>1348.4320068359</ele>
        <time>2017-10-01T08:08:39Z</time>
      </trkpt>
      <trkpt lat="45.28192" lon="5.81961">
        <ele>1347.4320068359</ele>
        <time>2017-10-01T08:08:42Z</time>
      </trkpt>
      <trkpt lat="45.28197" lon="5.81967">
        <ele>1343.4320068359</ele>
        <time>2017-10-01T08:08:45Z</time>
      </trkpt>
      <trkpt lat="45.28201" lon="5.8197">
        <ele>1340.4320068359</ele>
        <time>2017-10-01T08:08:47Z</time>
      </trkpt>
      <trkpt lat="45.28199" lon="5.81979">
        <ele>1338.4320068359</ele>
        <time>2017-10-01T08:08:50Z</time>
      </trkpt>
      <trkpt lat="45.28196" lon="5.81986">
        <ele>1336.4320068359</ele>
        <time>2017-10-01T08:08:52Z</time>
      </trkpt>
      <trkpt lat="45.28196" lon="5.81993">
        <ele>1337.4320068359</ele>
        <time>2017-10-01T08:08:54Z</time>
      </trkpt>
      <trkpt lat="45.28199" lon="5.81999">
        <ele>1335.4320068359</ele>
        <time>2017-10-01T08:08:56Z</time>
      </trkpt>
      <trkpt lat="45.28197" lon="5.82006">
        <ele>1334.4320068359</ele>
        <time>2017-10-01T08:08:58Z</time>
      </trkpt>
      <trkpt lat="45.28192" lon="5.82005">
        <ele>1334.4320068359</ele>
        <time>2017-10-01T08:09:01Z</time>
      </trkpt>
      <trkpt lat="45.28186" lon="5.82001">
        <ele>1332.4320068359</ele>
        <time>2017-10-01T08:09:04Z</time>
      </trkpt>
      <trkpt lat="45.2818" lon="5.81998">
        <ele>1329.4320068359</ele>
        <time>2017-10-01T08:09:07Z</time>
      </trkpt>
      <trkpt lat="45.28175" lon="5.81998">
        <ele>1329.4320068359</ele>
        <time>2017-10-01T08:09:09Z</time>
      </trkpt>
      <trkpt lat="45.28169" lon="5.82003">
        <ele>1325.4320068359</ele>
        <time>2017-10-01T08:09:11Z</time>
      </trkpt>
      <trkpt lat="45.28171" lon="5.8201">
        <ele>1319.4320068359</ele>
        <time>2017-10-01T08:09:14Z</time>
      </trkpt>
      <trkpt lat="45.28174" lon="5.82019">
        <ele>1320.4320068359</ele>
        <time>2017-10-01T08:09:16Z</time>
      </trkpt>
      <trkpt lat="45.28175" lon="5.82029">
        <ele>1318.4320068359</ele>
        <time>2017-10-01T08:09:18Z</time>
      </trkpt>
      <trkpt lat="45.28178" lon="5.82034">
        <ele>1314.4320068359</ele>
        <time>2017-10-01T08:09:21Z</time>
      </trkpt>
      <trkpt lat="45.28181" lon="5.82038">
        <ele>1309.4320068359</ele>
        <time>2017-10-01T08:09:24Z</time>
      </trkpt>
      <trkpt lat="45.28186" lon="5.82041">
        <ele>1310.4320068359</ele>
        <time>2017-10-01T08:09:27Z</time>
      </trkpt>
      <trkpt lat="45.28181" lon="5.82039">
        <ele>1309.4320068359</ele>
        <time>2017-10-01T08:09:31Z</time>
      </trkpt>
      <trkpt lat="45.28176" lon="5.8204">
        <ele>1309.4320068359</ele>
        <time>2017-10-01T08:09:34Z</time>
      </trkpt>
      <trkpt lat="45.2817" lon="5.82041">
        <ele>1308.4320068359</ele>
        <time>2017-10-01T08:09:42Z</time>
      </trkpt>
      <trkpt lat="45.28164" lon="5.82039">
        <ele>1307.4320068359</ele>
        <time>2017-10-01T08:09:45Z</time>
      </trkpt>
      <trkpt lat="45.28157" lon="5.82038">
        <ele>1306.4320068359</ele>
        <time>2017-10-01T08:09:48Z</time>
      </trkpt>
      <trkpt lat="45.28153" lon="5.82038">
        <ele>1304.4320068359</ele>
        <time>2017-10-01T08:09:51Z</time>
      </trkpt>
      <trkpt lat="45.28147" lon="5.82037">
        <ele>1301.4320068359</ele>
        <time>2017-10-01T08:09:55Z</time>
      </trkpt>
      <trkpt lat="45.28142" lon="5.82035">
        <ele>1301.4320068359</ele>
        <time>2017-10-01T08:09:57Z</time>
      </trkpt>
      <trkpt lat="45.28136" lon="5.82033">
        <ele>1297.4320068359</ele>
        <time>2017-10-01T08:10:00Z</time>
      </trkpt>
      <trkpt lat="45.28132" lon="5.82033">
        <ele>1298.4320068359</ele>
        <time>2017-10-01T08:10:03Z</time>
      </trkpt>
      <trkpt lat="45.28126" lon="5.82031">
        <ele>1294.4320068359</ele>
        <time>2017-10-01T08:10:08Z</time>
      </trkpt>
      <trkpt lat="45.28122" lon="5.8203">
        <ele>1294.4320068359</ele>
        <time>2017-10-01T08:10:12Z</time>
      </trkpt>
      <trkpt lat="45.28116" lon="5.82029">
        <ele>1293.4320068359</ele>
        <time>2017-10-01T08:10:16Z</time>
      </trkpt>
      <trkpt lat="45.28112" lon="5.82031">
        <ele>1291.4320068359</ele>
        <time>2017-10-01T08:10:19Z</time>
      </trkpt>
      <trkpt lat="45.28106" lon="5.82036">
        <ele>1287.4320068359</ele>
        <time>2017-10-01T08:10:23Z</time>
      </trkpt>
      <trkpt lat="45.28102" lon="5.82038">
        <ele>1285.4320068359</ele>
        <time>2017-10-01T08:10:25Z</time>
      </trkpt>
      <trkpt lat="45.28097" lon="5.82042">
        <ele>1286.4320068359</ele>
        <time>2017-10-01T08:10:27Z</time>
      </trkpt>
      <trkpt lat="45.28093" lon="5.82044">
        <ele>1285.4320068359</ele>
        <time>2017-10-01T08:10:31Z</time>
      </trkpt>
      <trkpt lat="45.28088" lon="5.82045">
        <ele>1284.4320068359</ele>
        <time>2017-10-01T08:10:33Z</time>
      </trkpt>
      <trkpt lat="45.28083" lon="5.82049">
        <ele>1282.4320068359</ele>
        <time>2017-10-01T08:10:35Z</time>
      </trkpt>
      <trkpt lat="45.28074" lon="5.82055">
        <ele>1283.4320068359</ele>
        <time>2017-10-01T08:10:38Z</time>
      </trkpt>
      <trkpt lat="45.28069" lon="5.82059">
        <ele>1282.4320068359</ele>
        <time>2017-10-01T08:10:40Z</time>
      </trkpt>
      <trkpt lat="45.28064" lon="5.82064">
        <ele>1283.4320068359</ele>
        <time>2017-10-01T08:10:42Z</time>
      </trkpt>
      <trkpt lat="45.28057" lon="5.82075">
        <ele>1278.4320068359</ele>
        <time>2017-10-01T08:10:46Z</time>
      </trkpt>
      <trkpt lat="45.28052" lon="5.82075">
        <ele>1277.4320068359</ele>
        <time>2017-10-01T08:10:48Z</time>
      </trkpt>
      <trkpt lat="45.28046" lon="5.82074">
        <ele>1277.4320068359</ele>
        <time>2017-10-01T08:10:52Z</time>
      </trkpt>
      <trkpt lat="45.28043" lon="5.82078">
        <ele>1276.4320068359</ele>
        <time>2017-10-01T08:10:56Z</time>
      </trkpt>
      <trkpt lat="45.28034" lon="5.82075">
        <ele>1275.4320068359</ele>
        <time>2017-10-01T08:10:58Z</time>
      </trkpt>
      <trkpt lat="45.2803" lon="5.82074">
        <ele>1273.4320068359</ele>
        <time>2017-10-01T08:11:01Z</time>
      </trkpt>
      <trkpt lat="45.28021" lon="5.82074">
        <ele>1273.4320068359</ele>
        <time>2017-10-01T08:11:03Z</time>
      </trkpt>
      <trkpt lat="45.28016" lon="5.82073">
        <ele>1273.4320068359</ele>
        <time>2017-10-01T08:11:05Z</time>
      </trkpt>
      <trkpt lat="45.28011" lon="5.82074">
        <ele>1271.4320068359</ele>
        <time>2017-10-01T08:11:08Z</time>
      </trkpt>
      <trkpt lat="45.28009" lon="5.82068">
        <ele>1269.4320068359</ele>
        <time>2017-10-01T08:11:12Z</time>
      </trkpt>
      <trkpt lat="45.28006" lon="5.82063">
        <ele>1267.4320068359</ele>
        <time>2017-10-01T08:11:23Z</time>
      </trkpt>
      <trkpt lat="45.27998" lon="5.8206">
        <ele>1267.4320068359</ele>
        <time>2017-10-01T08:11:48Z</time>
      </trkpt>
      <trkpt lat="45.27989" lon="5.82056">
        <ele>1268.4320068359</ele>
        <time>2017-10-01T08:11:50Z</time>
      </trkpt>
      <trkpt lat="45.27984" lon="5.82049">
        <ele>1267.4320068359</ele>
        <time>2017-10-01T08:11:52Z</time>
      </trkpt>
      <trkpt lat="45.2798" lon="5.82045">
        <ele>1267.4320068359</ele>
        <time>2017-10-01T08:11:53Z</time>
      </trkpt>
      <trkpt lat="45.27972" lon="5.82043">
        <ele>1266.4320068359</ele>
        <time>2017-10-01T08:11:55Z</time>
      </trkpt>
      <trkpt lat="45.27967" lon="5.8204">
        <ele>1267.4320068359</ele>
        <time>2017-10-01T08:11:56Z</time>
      </trkpt>
      <trkpt lat="45.27958" lon="5.82036">
        <ele>1269.4310302734</ele>
        <time>2017-10-01T08:11:58Z</time>
      </trkpt>
      <trkpt lat="45.27953" lon="5.82033">
        <ele>1270.4310302734</ele>
        <time>2017-10-01T08:11:59Z</time>
      </trkpt>
      <trkpt lat="45.27951" lon="5.82027">
        <ele>1267.4310302734</ele>
        <time>2017-10-01T08:12:00Z</time>
      </trkpt>
      <trkpt lat="45.27943" lon="5.82023">
        <ele>1268.4310302734</ele>
        <time>2017-10-01T08:12:01Z</time>
      </trkpt>
      <trkpt lat="45.27938" lon="5.8202">
        <ele>1269.4310302734</ele>
        <time>2017-10-01T08:12:02Z</time>
      </trkpt>
      <trkpt lat="45.27934" lon="5.82015">
        <ele>1269.4310302734</ele>
        <time>2017-10-01T08:12:03Z</time>
      </trkpt>
      <trkpt lat="45.27928" lon="5.82009">
        <ele>1271.4310302734</ele>
        <time>2017-10-01T08:12:05Z</time>
      </trkpt>
      <trkpt lat="45.27924" lon="5.82006">
        <ele>1269.4310302734</ele>
        <time>2017-10-01T08:12:06Z</time>
      </trkpt>
      <trkpt lat="45.27921" lon="5.81993">
        <ele>1263.4310302734</ele>
        <time>2017-10-01T08:12:08Z</time>
      </trkpt>
      <trkpt lat="45.27918" lon="5.81988">
        <ele>1261.4310302734</ele>
        <time>2017-10-01T08:12:09Z</time>
      </trkpt>
      <trkpt lat="45.27915" lon="5.81982">
        <ele>1257.4310302734</ele>
        <time>2017-10-01T08:12:11Z</time>
      </trkpt>
      <trkpt lat="45.27917" lon="5.81989">
        <ele>1244.4310302734</ele>
        <time>2017-10-01T08:12:19Z</time>
      </trkpt>
      <trkpt lat="45.27919" lon="5.81996">
        <ele>1240.4310302734</ele>
        <time>2017-10-01T08:12:23Z</time>
      </trkpt>
      <trkpt lat="45.27922" lon="5.82004">
        <ele>1236.4310302734</ele>
        <time>2017-10-01T08:12:28Z</time>
      </trkpt>
      <trkpt lat="45.27918" lon="5.82">
        <ele>1233.4310302734</ele>
        <time>2017-10-01T08:12:31Z</time>
      </trkpt>
      <trkpt lat="45.27913" lon="5.81998">
        <ele>1229.4310302734</ele>
        <time>2017-10-01T08:12:35Z</time>
      </trkpt>
      <trkpt lat="45.2791" lon="5.81993">
        <ele>1229.4310302734</ele>
        <time>2017-10-01T08:12:37Z</time>
      </trkpt>
      <trkpt lat="45.27906" lon="5.81989">
        <ele>1227.4310302734</ele>
        <time>2017-10-01T08:12:41Z</time>
      </trkpt>
      <trkpt lat="45.27902" lon="5.81987">
        <ele>1227.4310302734</ele>
        <time>2017-10-01T08:12:46Z</time>
      </trkpt>
      <trkpt lat="45.27896" lon="5.81986">
        <ele>1226.4310302734</ele>
        <time>2017-10-01T08:12:49Z</time>
      </trkpt>
      <trkpt lat="45.27885" lon="5.81994">
        <ele>1227.4310302734</ele>
        <time>2017-10-01T08:12:51Z</time>
      </trkpt>
      <trkpt lat="45.27877" lon="5.82005">
        <ele>1468.4310302734</ele>
        <time>2017-10-01T08:12:54Z</time>
      </trkpt>
      <trkpt lat="45.27871" lon="5.82012">
        <ele>1399.4310302734</ele>
        <time>2017-10-01T08:12:56Z</time>
      </trkpt>
      <trkpt lat="45.27868" lon="5.82018">
        <ele>1353.4310302734</ele>
        <time>2017-10-01T08:12:58Z</time>
      </trkpt>
      <trkpt lat="45.27861" lon="5.82023">
        <ele>1300.4310302734</ele>
        <time>2017-10-01T08:13:01Z</time>
      </trkpt>
      <trkpt lat="45.27857" lon="5.82026">
        <ele>1286.4310302734</ele>
        <time>2017-10-01T08:13:05Z</time>
      </trkpt>
      <trkpt lat="45.27853" lon="5.8203">
        <ele>1271.4310302734</ele>
        <time>2017-10-01T08:13:07Z</time>
      </trkpt>
      <trkpt lat="45.27849" lon="5.82037">
        <ele>1254.4310302734</ele>
        <time>2017-10-01T08:13:10Z</time>
      </trkpt>
      <trkpt lat="45.27843" lon="5.82039">
        <ele>1243.4310302734</ele>
        <time>2017-10-01T08:13:12Z</time>
      </trkpt>
      <trkpt lat="45.27838" lon="5.8204">
        <ele>1236.4310302734</ele>
        <time>2017-10-01T08:13:14Z</time>
      </trkpt>
      <trkpt lat="45.27832" lon="5.82038">
        <ele>1226.4310302734</ele>
        <time>2017-10-01T08:13:16Z</time>
      </trkpt>
      <trkpt lat="45.27826" lon="5.82042">
        <ele>1220.4310302734</ele>
        <time>2017-10-01T08:13:18Z</time>
      </trkpt>
      <trkpt lat="45.27819" lon="5.82044">
        <ele>1216.4310302734</ele>
        <time>2017-10-01T08:13:21Z</time>
      </trkpt>
      <trkpt lat="45.27808" lon="5.82041">
        <ele>1213.4310302734</ele>
        <time>2017-10-01T08:13:24Z</time>
      </trkpt>
      <trkpt lat="45.27803" lon="5.82044">
        <ele>1216.4310302734</ele>
        <time>2017-10-01T08:13:26Z</time>
      </trkpt>
      <trkpt lat="45.27795" lon="5.82044">
        <ele>1211.4310302734</ele>
        <time>2017-10-01T08:13:28Z</time>
      </trkpt>
      <trkpt lat="45.27788" lon="5.82047">
        <ele>1208.4310302734</ele>
        <time>2017-10-01T08:13:30Z</time>
      </trkpt>
      <trkpt lat="45.27783" lon="5.82051">
        <ele>1204.4310302734</ele>
        <time>2017-10-01T08:13:32Z</time>
      </trkpt>
      <trkpt lat="45.27778" lon="5.82054">
        <ele>1197.4310302734</ele>
        <time>2017-10-01T08:13:35Z</time>
      </trkpt>
      <trkpt lat="45.27771" lon="5.82058">
        <ele>1194.4310302734</ele>
        <time>2017-10-01T08:13:38Z</time>
      </trkpt>
      <trkpt lat="45.27766" lon="5.82063">
        <ele>1189.4310302734</ele>
        <time>2017-10-01T08:13:42Z</time>
      </trkpt>
      <trkpt lat="45.27762" lon="5.82067">
        <ele>1186.4310302734</ele>
        <time>2017-10-01T08:13:44Z</time>
      </trkpt>
      <trkpt lat="45.27756" lon="5.8207">
        <ele>1184.4310302734</ele>
        <time>2017-10-01T08:13:47Z</time>
      </trkpt>
      <trkpt lat="45.27751" lon="5.82069">
        <ele>1181.4310302734</ele>
        <time>2017-10-01T08:13:49Z</time>
      </trkpt>
      <trkpt lat="45.27743" lon="5.8207">
        <ele>1180.4310302734</ele>
        <time>2017-10-01T08:13:52Z</time>
      </trkpt>
      <trkpt lat="45.2773" lon="5.8207">
        <ele>1175.4310302734</ele>
        <time>2017-10-01T08:13:57Z</time>
      </trkpt>
      <trkpt lat="45.27725" lon="5.82069">
        <ele>1174.4310302734</ele>
        <time>2017-10-01T08:13:59Z</time>
      </trkpt>
      <trkpt lat="45.27718" lon="5.82074">
        <ele>1170.4310302734</ele>
        <time>2017-10-01T08:14:02Z</time>
      </trkpt>
      <trkpt lat="45.27711" lon="5.82077">
        <ele>1171.4310302734</ele>
        <time>2017-10-01T08:14:04Z</time>
      </trkpt>
      <trkpt lat="45.27702" lon="5.82077">
        <ele>1170.4310302734</ele>
        <time>2017-10-01T08:14:06Z</time>
      </trkpt>
      <trkpt lat="45.27696" lon="5.82081">
        <ele>1167.4310302734</ele>
        <time>2017-10-01T08:14:08Z</time>
      </trkpt>
      <trkpt lat="45.27685" lon="5.82082">
        <ele>1167.4310302734</ele>
        <time>2017-10-01T08:14:10Z</time>
      </trkpt>
      <trkpt lat="45.27679" lon="5.82079">
        <ele>1166.4310302734</ele>
        <time>2017-10-01T08:14:11Z</time>
      </trkpt>
      <trkpt lat="45.27677" lon="5.82085">
        <ele>1166.4310302734</ele>
        <time>2017-10-01T08:14:12Z</time>
      </trkpt>
      <trkpt lat="45.27672" lon="5.82087">
        <ele>1167.4310302734</ele>
        <time>2017-10-01T08:14:18Z</time>
      </trkpt>
      <trkpt lat="45.27665" lon="5.82086">
        <ele>1164.4310302734</ele>
        <time>2017-10-01T08:14:21Z</time>
      </trkpt>
      <trkpt lat="45.2766" lon="5.82093">
        <ele>1165.4310302734</ele>
        <time>2017-10-01T08:14:23Z</time>
      </trkpt>
      <trkpt lat="45.27656" lon="5.82095">
        <ele>1165.4310302734</ele>
        <time>2017-10-01T08:14:25Z</time>
      </trkpt>
      <trkpt lat="45.27651" lon="5.82097">
        <ele>1162.4310302734</ele>
        <time>2017-10-01T08:14:28Z</time>
      </trkpt>
      <trkpt lat="45.27646" lon="5.82099">
        <ele>1162.4310302734</ele>
        <time>2017-10-01T08:14:31Z</time>
      </trkpt>
      <trkpt lat="45.2764" lon="5.821">
        <ele>1158.4310302734</ele>
        <time>2017-10-01T08:14:35Z</time>
      </trkpt>
      <trkpt lat="45.27635" lon="5.82103">
        <ele>1160.4310302734</ele>
        <time>2017-10-01T08:14:39Z</time>
      </trkpt>
      <trkpt lat="45.2763" lon="5.82104">
        <ele>1160.4310302734</ele>
        <time>2017-10-01T08:14:42Z</time>
      </trkpt>
      <trkpt lat="45.27624" lon="5.82105">
        <ele>1161.4310302734</ele>
        <time>2017-10-01T08:14:44Z</time>
      </trkpt>
      <trkpt lat="45.27619" lon="5.82104">
        <ele>1160.4310302734</ele>
        <time>2017-10-01T08:14:47Z</time>
      </trkpt>
      <trkpt lat="45.27615" lon="5.82106">
        <ele>1160.4310302734</ele>
        <time>2017-10-01T08:14:49Z</time>
      </trkpt>
      <trkpt lat="45.27609" lon="5.82108">
        <ele>1159.4310302734</ele>
        <time>2017-10-01T08:14:53Z</time>
      </trkpt>
      <trkpt lat="45.27603" lon="5.8211">
        <ele>1159.4310302734</ele>
        <time>2017-10-01T08:14:56Z</time>
      </trkpt>
      <trkpt lat="45.27599" lon="5.82116">
        <ele>1159.4310302734</ele>
        <time>2017-10-01T08:14:59Z</time>
      </trkpt>
      <trkpt lat="45.27594" lon="5.82119">
        <ele>1159.4310302734</ele>
        <time>2017-10-01T08:15:02Z</time>
      </trkpt>
      <trkpt lat="45.27586" lon="5.8212">
        <ele>1159.4310302734</ele>
        <time>2017-10-01T08:15:26Z</time>
      </trkpt>
      <trkpt lat="45.27578" lon="5.82124">
        <ele>1155.4310302734</ele>
        <time>2017-10-01T08:15:28Z</time>
      </trkpt>
      <trkpt lat="45.27565" lon="5.82129">
        <ele>1152.4310302734</ele>
        <time>2017-10-01T08:15:31Z</time>
      </trkpt>
      <trkpt lat="45.27558" lon="5.82126">
        <ele>1150.4310302734</ele>
        <time>2017-10-01T08:15:34Z</time>
      </trkpt>
      <trkpt lat="45.27553" lon="5.82126">
        <ele>1149.4310302734</ele>
        <time>2017-10-01T08:15:36Z</time>
      </trkpt>
      <trkpt lat="45.27548" lon="5.82128">
        <ele>1149.4310302734</ele>
        <time>2017-10-01T08:15:38Z</time>
      </trkpt>
      <trkpt lat="45.27543" lon="5.82129">
        <ele>1148.4310302734</ele>
        <time>2017-10-01T08:15:41Z</time>
      </trkpt>
      <trkpt lat="45.27537" lon="5.82129">
        <ele>1149.4310302734</ele>
        <time>2017-10-01T08:15:43Z</time>
      </trkpt>
      <trkpt lat="45.27528" lon="5.82122">
        <ele>1149.4310302734</ele>
        <time>2017-10-01T08:15:45Z</time>
      </trkpt>
      <trkpt lat="45.27519" lon="5.82117">
        <ele>1146.4310302734</ele>
        <time>2017-10-01T08:15:47Z</time>
      </trkpt>
      <trkpt lat="45.27509" lon="5.82109">
        <ele>1144.4310302734</ele>
        <time>2017-10-01T08:15:49Z</time>
      </trkpt>
      <trkpt lat="45.27504" lon="5.82103">
        <ele>1145.4310302734</ele>
        <time>2017-10-01T08:15:50Z</time>
      </trkpt>
      <trkpt lat="45.27495" lon="5.821">
        <ele>1144.4310302734</ele>
        <time>2017-10-01T08:15:52Z</time>
      </trkpt>
      <trkpt lat="45.27491" lon="5.82098">
        <ele>1145.4310302734</ele>
        <time>2017-10-01T08:15:53Z</time>
      </trkpt>
      <trkpt lat="45.27484" lon="5.82099">
        <ele>1144.4310302734</ele>
        <time>2017-10-01T08:15:54Z</time>
      </trkpt>
      <trkpt lat="45.27479" lon="5.82097">
        <ele>1144.4310302734</ele>
        <time>2017-10-01T08:15:55Z</time>
      </trkpt>
      <trkpt lat="45.27475" lon="5.82095">
        <ele>1143.4310302734</ele>
        <time>2017-10-01T08:15:56Z</time>
      </trkpt>
      <trkpt lat="45.2747" lon="5.82093">
        <ele>1139.4310302734</ele>
        <time>2017-10-01T08:15:58Z</time>
      </trkpt>
      <trkpt lat="45.27465" lon="5.82093">
        <ele>1139.4310302734</ele>
        <time>2017-10-01T08:16:00Z</time>
      </trkpt>
      <trkpt lat="45.27462" lon="5.82087">
        <ele>1136.4310302734</ele>
        <time>2017-10-01T08:16:02Z</time>
      </trkpt>
      <trkpt lat="45.27456" lon="5.82083">
        <ele>1134.4300537109</ele>
        <time>2017-10-01T08:16:04Z</time>
      </trkpt>
      <trkpt lat="45.27445" lon="5.82078">
        <ele>1132.4300537109</ele>
        <time>2017-10-01T08:16:06Z</time>
      </trkpt>
      <trkpt lat="45.27432" lon="5.82076">
        <ele>1132.4300537109</ele>
        <time>2017-10-01T08:16:11Z</time>
      </trkpt>
      <trkpt lat="45.27426" lon="5.82075">
        <ele>1131.4300537109</ele>
        <time>2017-10-01T08:16:13Z</time>
      </trkpt>
      <trkpt lat="45.2742" lon="5.82069">
        <ele>1130.4300537109</ele>
        <time>2017-10-01T08:16:15Z</time>
      </trkpt>
      <trkpt lat="45.27411" lon="5.82065">
        <ele>1129.4300537109</ele>
        <time>2017-10-01T08:16:17Z</time>
      </trkpt>
      <trkpt lat="45.27406" lon="5.82064">
        <ele>1127.4300537109</ele>
        <time>2017-10-01T08:16:18Z</time>
      </trkpt>
      <trkpt lat="45.274" lon="5.82062">
        <ele>1124.4300537109</ele>
        <time>2017-10-01T08:16:20Z</time>
      </trkpt>
      <trkpt lat="45.27391" lon="5.8206">
        <ele>1121.4300537109</ele>
        <time>2017-10-01T08:16:23Z</time>
      </trkpt>
      <trkpt lat="45.27385" lon="5.82062">
        <ele>1120.4300537109</ele>
        <time>2017-10-01T08:16:26Z</time>
      </trkpt>
      <trkpt lat="45.27381" lon="5.82058">
        <ele>1118.4300537109</ele>
        <time>2017-10-01T08:16:29Z</time>
      </trkpt>
      <trkpt lat="45.27373" lon="5.82064">
        <ele>1115.4300537109</ele>
        <time>2017-10-01T08:16:32Z</time>
      </trkpt>
      <trkpt lat="45.27376" lon="5.82059">
        <ele>1115.4300537109</ele>
        <time>2017-10-01T08:16:33Z</time>
      </trkpt>
      <trkpt lat="45.27371" lon="5.82058">
        <ele>1115.4300537109</ele>
        <time>2017-10-01T08:16:38Z</time>
      </trkpt>
      <trkpt lat="45.27367" lon="5.82056">
        <ele>1116.4300537109</ele>
        <time>2017-10-01T08:16:48Z</time>
      </trkpt>
      <trkpt lat="45.27359" lon="5.82055">
        <ele>1115.4300537109</ele>
        <time>2017-10-01T08:16:59Z</time>
      </trkpt>
      <trkpt lat="45.27351" lon="5.82055">
        <ele>1112.4300537109</ele>
        <time>2017-10-01T08:17:00Z</time>
      </trkpt>
      <trkpt lat="45.27341" lon="5.82052">
        <ele>1110.4300537109</ele>
        <time>2017-10-01T08:17:02Z</time>
      </trkpt>
      <trkpt lat="45.27326" lon="5.82048">
        <ele>1108.4300537109</ele>
        <time>2017-10-01T08:17:05Z</time>
      </trkpt>
      <trkpt lat="45.27321" lon="5.82048">
        <ele>1107.4300537109</ele>
        <time>2017-10-01T08:17:06Z</time>
      </trkpt>
      <trkpt lat="45.27316" lon="5.82048">
        <ele>1107.4300537109</ele>
        <time>2017-10-01T08:17:07Z</time>
      </trkpt>
      <trkpt lat="45.27306" lon="5.82048">
        <ele>1105.4300537109</ele>
        <time>2017-10-01T08:17:09Z</time>
      </trkpt>
      <trkpt lat="45.27295" lon="5.82045">
        <ele>1104.4300537109</ele>
        <time>2017-10-01T08:17:11Z</time>
      </trkpt>
      <trkpt lat="45.27288" lon="5.82044">
        <ele>1103.4300537109</ele>
        <time>2017-10-01T08:17:13Z</time>
      </trkpt>
      <trkpt lat="45.27276" lon="5.82048">
        <ele>606.42999267578</ele>
        <time>2017-10-01T08:17:15Z</time>
      </trkpt>
      <trkpt lat="45.27262" lon="5.82049">
        <ele>635.42999267578</ele>
        <time>2017-10-01T08:17:17Z</time>
      </trkpt>
      <trkpt lat="45.27258" lon="5.82049">
        <ele>650.42999267578</ele>
        <time>2017-10-01T08:17:18Z</time>
      </trkpt>
      <trkpt lat="45.27245" lon="5.82048">
        <ele>697.42999267578</ele>
        <time>2017-10-01T08:17:20Z</time>
      </trkpt>
      <trkpt lat="45.27239" lon="5.82047">
        <ele>721.42999267578</ele>
        <time>2017-10-01T08:17:21Z</time>
      </trkpt>
      <trkpt lat="45.27232" lon="5.82047">
        <ele>758.42999267578</ele>
        <time>2017-10-01T08:17:22Z</time>
      </trkpt>
      <trkpt lat="45.27226" lon="5.82045">
        <ele>823.42999267578</ele>
        <time>2017-10-01T08:17:24Z</time>
      </trkpt>
      <trkpt lat="45.27219" lon="5.82041">
        <ele>875.42999267578</ele>
        <time>2017-10-01T08:17:26Z</time>
      </trkpt>
      <trkpt lat="45.27209" lon="5.8204">
        <ele>928.42999267578</ele>
        <time>2017-10-01T08:17:29Z</time>
      </trkpt>
      <trkpt lat="45.27203" lon="5.82044">
        <ele>956.42999267578</ele>
        <time>2017-10-01T08:17:31Z</time>
      </trkpt>
      <trkpt lat="45.27195" lon="5.82045">
        <ele>981.42999267578</ele>
        <time>2017-10-01T08:17:33Z</time>
      </trkpt>
      <trkpt lat="45.27185" lon="5.82045">
        <ele>1005.4299926758</ele>
        <time>2017-10-01T08:17:35Z</time>
      </trkpt>
      <trkpt lat="45.27183" lon="5.82039">
        <ele>1029.4300537109</ele>
        <time>2017-10-01T08:17:37Z</time>
      </trkpt>
      <trkpt lat="45.27177" lon="5.82039">
        <ele>1046.4300537109</ele>
        <time>2017-10-01T08:17:41Z</time>
      </trkpt>
      <trkpt lat="45.27171" lon="5.82039">
        <ele>1054.4300537109</ele>
        <time>2017-10-01T08:17:44Z</time>
      </trkpt>
      <trkpt lat="45.27166" lon="5.82043">
        <ele>1054.4300537109</ele>
        <time>2017-10-01T08:17:46Z</time>
      </trkpt>
      <trkpt lat="45.2717" lon="5.82047">
        <ele>1071.4300537109</ele>
        <time>2017-10-01T08:17:53Z</time>
      </trkpt>
      <trkpt lat="45.27175" lon="5.82051">
        <ele>1068.4300537109</ele>
        <time>2017-10-01T08:17:57Z</time>
      </trkpt>
      <trkpt lat="45.2718" lon="5.82051">
        <ele>1068.4300537109</ele>
        <time>2017-10-01T08:17:59Z</time>
      </trkpt>
      <trkpt lat="45.27181" lon="5.82058">
        <ele>1067.4300537109</ele>
        <time>2017-10-01T08:18:01Z</time>
      </trkpt>
      <trkpt lat="45.27185" lon="5.82063">
        <ele>1066.4300537109</ele>
        <time>2017-10-01T08:18:03Z</time>
      </trkpt>
      <trkpt lat="45.2719" lon="5.82064">
        <ele>1067.4300537109</ele>
        <time>2017-10-01T08:18:06Z</time>
      </trkpt>
      <trkpt lat="45.27188" lon="5.82072">
        <ele>1061.4300537109</ele>
        <time>2017-10-01T08:18:12Z</time>
      </trkpt>
      <trkpt lat="45.27186" lon="5.82078">
        <ele>1060.4300537109</ele>
        <time>2017-10-01T08:18:14Z</time>
      </trkpt>
      <trkpt lat="45.27181" lon="5.82081">
        <ele>1057.4300537109</ele>
        <time>2017-10-01T08:18:16Z</time>
      </trkpt>
      <trkpt lat="45.27176" lon="5.82082">
        <ele>1056.4300537109</ele>
        <time>2017-10-01T08:18:19Z</time>
      </trkpt>
      <trkpt lat="45.27169" lon="5.82082">
        <ele>1055.4300537109</ele>
        <time>2017-10-01T08:18:23Z</time>
      </trkpt>
      <trkpt lat="45.27163" lon="5.82085">
        <ele>1054.4300537109</ele>
        <time>2017-10-01T08:18:25Z</time>
      </trkpt>
      <trkpt lat="45.27157" lon="5.82087">
        <ele>1053.4300537109</ele>
        <time>2017-10-01T08:18:27Z</time>
      </trkpt>
      <trkpt lat="45.2715" lon="5.82085">
        <ele>1054.4300537109</ele>
        <time>2017-10-01T08:18:30Z</time>
      </trkpt>
      <trkpt lat="45.27144" lon="5.82085">
        <ele>1053.4300537109</ele>
        <time>2017-10-01T08:18:32Z</time>
      </trkpt>
      <trkpt lat="45.27139" lon="5.82084">
        <ele>1053.4300537109</ele>
        <time>2017-10-01T08:18:34Z</time>
      </trkpt>
      <trkpt lat="45.27135" lon="5.8208">
        <ele>1052.4300537109</ele>
        <time>2017-10-01T08:18:36Z</time>
      </trkpt>
      <trkpt lat="45.27129" lon="5.82079">
        <ele>1052.4300537109</ele>
        <time>2017-10-01T08:18:38Z</time>
      </trkpt>
      <trkpt lat="45.27128" lon="5.82087">
        <ele>1050.4300537109</ele>
        <time>2017-10-01T08:18:43Z</time>
      </trkpt>
      <trkpt lat="45.27131" lon="5.82094">
        <ele>1047.4300537109</ele>
        <time>2017-10-01T08:18:45Z</time>
      </trkpt>
      <trkpt lat="45.27134" lon="5.821">
        <ele>1041.4300537109</ele>
        <time>2017-10-01T08:18:48Z</time>
      </trkpt>
      <trkpt lat="45.27139" lon="5.82097">
        <ele>1040.4300537109</ele>
        <time>2017-10-01T08:18:52Z</time>
      </trkpt>
      <trkpt lat="45.27143" lon="5.82098">
        <ele>1038.4300537109</ele>
        <time>2017-10-01T08:18:57Z</time>
      </trkpt>
      <trkpt lat="45.27148" lon="5.821">
        <ele>1038.4300537109</ele>
        <time>2017-10-01T08:19:03Z</time>
      </trkpt>
      <trkpt lat="45.27144" lon="5.82098">
        <ele>1036.4300537109</ele>
        <time>2017-10-01T08:19:08Z</time>
      </trkpt>
      <trkpt lat="45.27143" lon="5.82104">
        <ele>1030.4300537109</ele>
        <time>2017-10-01T08:19:24Z</time>
      </trkpt>
      <trkpt lat="45.27144" lon="5.82112">
        <ele>1029.4300537109</ele>
        <time>2017-10-01T08:19:26Z</time>
      </trkpt>
      <trkpt lat="45.27149" lon="5.82118">
        <ele>1028.4300537109</ele>
        <time>2017-10-01T08:19:29Z</time>
      </trkpt>
      <trkpt lat="45.27151" lon="5.82126">
        <ele>1025.4300537109</ele>
        <time>2017-10-01T08:19:32Z</time>
      </trkpt>
      <trkpt lat="45.27155" lon="5.82132">
        <ele>1026.4300537109</ele>
        <time>2017-10-01T08:19:34Z</time>
      </trkpt>
      <trkpt lat="45.27161" lon="5.82132">
        <ele>1025.4300537109</ele>
        <time>2017-10-01T08:19:36Z</time>
      </trkpt>
      <trkpt lat="45.27165" lon="5.82136">
        <ele>1025.4300537109</ele>
        <time>2017-10-01T08:19:38Z</time>
      </trkpt>
      <trkpt lat="45.27171" lon="5.8214">
        <ele>1025.4300537109</ele>
        <time>2017-10-01T08:19:41Z</time>
      </trkpt>
      <trkpt lat="45.27166" lon="5.82142">
        <ele>1024.4300537109</ele>
        <time>2017-10-01T08:19:46Z</time>
      </trkpt>
      <trkpt lat="45.27154" lon="5.8214">
        <ele>1024.4300537109</ele>
        <time>2017-10-01T08:19:48Z</time>
      </trkpt>
      <trkpt lat="45.27139" lon="5.82136">
        <ele>1023.4299926758</ele>
        <time>2017-10-01T08:19:50Z</time>
      </trkpt>
      <trkpt lat="45.27131" lon="5.82139">
        <ele>1021.4299926758</ele>
        <time>2017-10-01T08:19:51Z</time>
      </trkpt>
      <trkpt lat="45.27135" lon="5.82133">
        <ele>1019.4299926758</ele>
        <time>2017-10-01T08:19:53Z</time>
      </trkpt>
      <trkpt lat="45.27131" lon="5.82139">
        <ele>1019.4299926758</ele>
        <time>2017-10-01T08:19:57Z</time>
      </trkpt>
      <trkpt lat="45.27124" lon="5.82137">
        <ele>1019.4299926758</ele>
        <time>2017-10-01T08:20:00Z</time>
      </trkpt>
      <trkpt lat="45.27116" lon="5.8214">
        <ele>1018.4299926758</ele>
        <time>2017-10-01T08:20:03Z</time>
      </trkpt>
      <trkpt lat="45.27112" lon="5.82144">
        <ele>1018.4299926758</ele>
        <time>2017-10-01T08:20:05Z</time>
      </trkpt>
      <trkpt lat="45.27105" lon="5.82143">
        <ele>1018.4299926758</ele>
        <time>2017-10-01T08:20:07Z</time>
      </trkpt>
      <trkpt lat="45.271" lon="5.8213">
        <ele>1014.4299926758</ele>
        <time>2017-10-01T08:20:11Z</time>
      </trkpt>
      <trkpt lat="45.271" lon="5.82123">
        <ele>1360.4300537109</ele>
        <time>2017-10-01T08:20:13Z</time>
      </trkpt>
      <trkpt lat="45.27094" lon="5.82123">
        <ele>1238.4300537109</ele>
        <time>2017-10-01T08:20:17Z</time>
      </trkpt>
      <trkpt lat="45.27095" lon="5.82132">
        <ele>1098.4300537109</ele>
        <time>2017-10-01T08:20:22Z</time>
      </trkpt>
      <trkpt lat="45.27097" lon="5.8214">
        <ele>1044.4300537109</ele>
        <time>2017-10-01T08:20:26Z</time>
      </trkpt>
      <trkpt lat="45.271" lon="5.82145">
        <ele>1020.4299926758</ele>
        <time>2017-10-01T08:20:30Z</time>
      </trkpt>
      <trkpt lat="45.27103" lon="5.8215">
        <ele>1003.4299926758</ele>
        <time>2017-10-01T08:20:36Z</time>
      </trkpt>
      <trkpt lat="45.27107" lon="5.82153">
        <ele>997.42999267578</ele>
        <time>2017-10-01T08:20:41Z</time>
      </trkpt>
      <trkpt lat="45.27111" lon="5.82156">
        <ele>992.42999267578</ele>
        <time>2017-10-01T08:20:45Z</time>
      </trkpt>
      <trkpt lat="45.27117" lon="5.82161">
        <ele>990.42999267578</ele>
        <time>2017-10-01T08:20:47Z</time>
      </trkpt>
      <trkpt lat="45.27124" lon="5.82161">
        <ele>989.42999267578</ele>
        <time>2017-10-01T08:20:49Z</time>
      </trkpt>
      <trkpt lat="45.27128" lon="5.82162">
        <ele>987.42999267578</ele>
        <time>2017-10-01T08:20:51Z</time>
      </trkpt>
      <trkpt lat="45.27134" lon="5.82166">
        <ele>987.42999267578</ele>
        <time>2017-10-01T08:20:54Z</time>
      </trkpt>
      <trkpt lat="45.27137" lon="5.8217">
        <ele>990.42999267578</ele>
        <time>2017-10-01T08:20:57Z</time>
      </trkpt>
      <trkpt lat="45.27132" lon="5.82174">
        <ele>990.42999267578</ele>
        <time>2017-10-01T08:21:00Z</time>
      </trkpt>
      <trkpt lat="45.27126" lon="5.82178">
        <ele>990.42999267578</ele>
        <time>2017-10-01T08:21:02Z</time>
      </trkpt>
      <trkpt lat="45.27121" lon="5.82179">
        <ele>988.42999267578</ele>
        <time>2017-10-01T08:21:05Z</time>
      </trkpt>
      <trkpt lat="45.27116" lon="5.82182">
        <ele>986.42999267578</ele>
        <time>2017-10-01T08:21:07Z</time>
      </trkpt>
      <trkpt lat="45.27111" lon="5.82179">
        <ele>986.42999267578</ele>
        <time>2017-10-01T08:21:12Z</time>
      </trkpt>
      <trkpt lat="45.27104" lon="5.82182">
        <ele>986.42999267578</ele>
        <time>2017-10-01T08:21:14Z</time>
      </trkpt>
      <trkpt lat="45.271" lon="5.82184">
        <ele>987.42999267578</ele>
        <time>2017-10-01T08:21:16Z</time>
      </trkpt>
      <trkpt lat="45.27096" lon="5.8218">
        <ele>988.42999267578</ele>
        <time>2017-10-01T08:21:20Z</time>
      </trkpt>
      <trkpt lat="45.27092" lon="5.82174">
        <ele>987.42999267578</ele>
        <time>2017-10-01T08:21:23Z</time>
      </trkpt>
      <trkpt lat="45.27086" lon="5.82172">
        <ele>987.42999267578</ele>
        <time>2017-10-01T08:21:26Z</time>
      </trkpt>
      <trkpt lat="45.27082" lon="5.82173">
        <ele>984.42999267578</ele>
        <time>2017-10-01T08:21:29Z</time>
      </trkpt>
      <trkpt lat="45.27084" lon="5.82178">
        <ele>976.42999267578</ele>
        <time>2017-10-01T08:21:33Z</time>
      </trkpt>
      <trkpt lat="45.27088" lon="5.82184">
        <ele>971.42999267578</ele>
        <time>2017-10-01T08:21:35Z</time>
      </trkpt>
      <trkpt lat="45.2709" lon="5.82189">
        <ele>965.42999267578</ele>
        <time>2017-10-01T08:21:38Z</time>
      </trkpt>
      <trkpt lat="45.27093" lon="5.82195">
        <ele>961.42999267578</ele>
        <time>2017-10-01T08:21:41Z</time>
      </trkpt>
      <trkpt lat="45.27096" lon="5.82202">
        <ele>963.42999267578</ele>
        <time>2017-10-01T08:21:43Z</time>
      </trkpt>
      <trkpt lat="45.271" lon="5.82208">
        <ele>962.42999267578</ele>
        <time>2017-10-01T08:21:45Z</time>
      </trkpt>
      <trkpt lat="45.27104" lon="5.82213">
        <ele>963.42999267578</ele>
        <time>2017-10-01T08:21:47Z</time>
      </trkpt>
      <trkpt lat="45.27108" lon="5.8222">
        <ele>965.42999267578</ele>
        <time>2017-10-01T08:21:51Z</time>
      </trkpt>
      <trkpt lat="45.27113" lon="5.82222">
        <ele>962.42999267578</ele>
        <time>2017-10-01T08:21:53Z</time>
      </trkpt>
      <trkpt lat="45.27118" lon="5.82226">
        <ele>960.42999267578</ele>
        <time>2017-10-01T08:21:55Z</time>
      </trkpt>
      <trkpt lat="45.27121" lon="5.82232">
        <ele>960.42999267578</ele>
        <time>2017-10-01T08:21:57Z</time>
      </trkpt>
      <trkpt lat="45.27126" lon="5.82239">
        <ele>958.42999267578</ele>
        <time>2017-10-01T08:21:59Z</time>
      </trkpt>
      <trkpt lat="45.27129" lon="5.82247">
        <ele>958.42999267578</ele>
        <time>2017-10-01T08:22:01Z</time>
      </trkpt>
      <trkpt lat="45.27133" lon="5.82251">
        <ele>957.42999267578</ele>
        <time>2017-10-01T08:22:03Z</time>
      </trkpt>
      <trkpt lat="45.27138" lon="5.82258">
        <ele>956.42999267578</ele>
        <time>2017-10-01T08:22:05Z</time>
      </trkpt>
      <trkpt lat="45.2714" lon="5.82264">
        <ele>955.42999267578</ele>
        <time>2017-10-01T08:22:07Z</time>
      </trkpt>
      <trkpt lat="45.27144" lon="5.82272">
        <ele>954.42999267578</ele>
        <time>2017-10-01T08:22:09Z</time>
      </trkpt>
      <trkpt lat="45.27144" lon="5.82282">
        <ele>955.42999267578</ele>
        <time>2017-10-01T08:22:11Z</time>
      </trkpt>
      <trkpt lat="45.27138" lon="5.82283">
        <ele>954.42999267578</ele>
        <time>2017-10-01T08:22:16Z</time>
      </trkpt>
      <trkpt lat="45.27136" lon="5.82277">
        <ele>954.42999267578</ele>
        <time>2017-10-01T08:22:18Z</time>
      </trkpt>
      <trkpt lat="45.27131" lon="5.82274">
        <ele>955.42999267578</ele>
        <time>2017-10-01T08:22:21Z</time>
      </trkpt>
      <trkpt lat="45.27121" lon="5.82271">
        <ele>955.42999267578</ele>
        <time>2017-10-01T08:22:24Z</time>
      </trkpt>
      <trkpt lat="45.27114" lon="5.8227">
        <ele>955.42999267578</ele>
        <time>2017-10-01T08:22:27Z</time>
      </trkpt>
      <trkpt lat="45.27109" lon="5.82271">
        <ele>954.42999267578</ele>
        <time>2017-10-01T08:22:28Z</time>
      </trkpt>
      <trkpt lat="45.27103" lon="5.82273">
        <ele>956.42999267578</ele>
        <time>2017-10-01T08:22:30Z</time>
      </trkpt>
      <trkpt lat="45.27098" lon="5.82274">
        <ele>953.42999267578</ele>
        <time>2017-10-01T08:22:32Z</time>
      </trkpt>
      <trkpt lat="45.27091" lon="5.82277">
        <ele>952.42999267578</ele>
        <time>2017-10-01T08:22:34Z</time>
      </trkpt>
      <trkpt lat="45.27087" lon="5.82278">
        <ele>952.42999267578</ele>
        <time>2017-10-01T08:22:36Z</time>
      </trkpt>
      <trkpt lat="45.27082" lon="5.82274">
        <ele>952.42999267578</ele>
        <time>2017-10-01T08:22:38Z</time>
      </trkpt>
      <trkpt lat="45.27076" lon="5.82274">
        <ele>951.42999267578</ele>
        <time>2017-10-01T08:22:41Z</time>
      </trkpt>
      <trkpt lat="45.27071" lon="5.82275">
        <ele>952.42999267578</ele>
        <time>2017-10-01T08:22:43Z</time>
      </trkpt>
      <trkpt lat="45.27063" lon="5.82275">
        <ele>952.42999267578</ele>
        <time>2017-10-01T08:22:45Z</time>
      </trkpt>
      <trkpt lat="45.27058" lon="5.82277">
        <ele>951.42999267578</ele>
        <time>2017-10-01T08:22:47Z</time>
      </trkpt>
      <trkpt lat="45.27052" lon="5.82275">
        <ele>952.42999267578</ele>
        <time>2017-10-01T08:22:49Z</time>
      </trkpt>
      <trkpt lat="45.27047" lon="5.82274">
        <ele>952.42999267578</ele>
        <time>2017-10-01T08:22:51Z</time>
      </trkpt>
      <trkpt lat="45.27042" lon="5.82269">
        <ele>950.42999267578</ele>
        <time>2017-10-01T08:22:53Z</time>
      </trkpt>
      <trkpt lat="45.27039" lon="5.82262">
        <ele>947.42999267578</ele>
        <time>2017-10-01T08:22:57Z</time>
      </trkpt>
      <trkpt lat="45.27037" lon="5.82255">
        <ele>948.42999267578</ele>
        <time>2017-10-01T08:23:01Z</time>
      </trkpt>
      <trkpt lat="45.27036" lon="5.82247">
        <ele>946.42999267578</ele>
        <time>2017-10-01T08:23:10Z</time>
      </trkpt>
      <trkpt lat="45.27033" lon="5.82238">
        <ele>945.42999267578</ele>
        <time>2017-10-01T08:23:12Z</time>
      </trkpt>
      <trkpt lat="45.27028" lon="5.82238">
        <ele>944.42999267578</ele>
        <time>2017-10-01T08:23:13Z</time>
      </trkpt>
      <trkpt lat="45.27019" lon="5.82233">
        <ele>942.42999267578</ele>
        <time>2017-10-01T08:23:15Z</time>
      </trkpt>
      <trkpt lat="45.27017" lon="5.82241">
        <ele>930.42999267578</ele>
        <time>2017-10-01T08:23:20Z</time>
      </trkpt>
      <trkpt lat="45.27016" lon="5.8225">
        <ele>927.42999267578</ele>
        <time>2017-10-01T08:23:22Z</time>
      </trkpt>
      <trkpt lat="45.27016" lon="5.82256">
        <ele>924.42999267578</ele>
        <time>2017-10-01T08:23:24Z</time>
      </trkpt>
      <trkpt lat="45.27015" lon="5.82264">
        <ele>921.42999267578</ele>
        <time>2017-10-01T08:23:26Z</time>
      </trkpt>
      <trkpt lat="45.27016" lon="5.82271">
        <ele>918.42999267578</ele>
        <time>2017-10-01T08:23:30Z</time>
      </trkpt>
      <trkpt lat="45.27021" lon="5.82278">
        <ele>916.42999267578</ele>
        <time>2017-10-01T08:23:32Z</time>
      </trkpt>
      <trkpt lat="45.27025" lon="5.82284">
        <ele>912.42999267578</ele>
        <time>2017-10-01T08:23:35Z</time>
      </trkpt>
      <trkpt lat="45.2703" lon="5.82292">
        <ele>909.42999267578</ele>
        <time>2017-10-01T08:23:37Z</time>
      </trkpt>
      <trkpt lat="45.27033" lon="5.82299">
        <ele>907.42999267578</ele>
        <time>2017-10-01T08:23:39Z</time>
      </trkpt>
      <trkpt lat="45.27034" lon="5.82306">
        <ele>906.42999267578</ele>
        <time>2017-10-01T08:23:40Z</time>
      </trkpt>
      <trkpt lat="45.27036" lon="5.82313">
        <ele>904.42999267578</ele>
        <time>2017-10-01T08:23:42Z</time>
      </trkpt>
      <trkpt lat="45.27041" lon="5.82318">
        <ele>902.42999267578</ele>
        <time>2017-10-01T08:23:45Z</time>
      </trkpt>
      <trkpt lat="45.27044" lon="5.82328">
        <ele>899.42999267578</ele>
        <time>2017-10-01T08:23:47Z</time>
      </trkpt>
      <trkpt lat="45.27048" lon="5.82338">
        <ele>900.42999267578</ele>
        <time>2017-10-01T08:23:49Z</time>
      </trkpt>
      <trkpt lat="45.27049" lon="5.82346">
        <ele>899.42999267578</ele>
        <time>2017-10-01T08:23:50Z</time>
      </trkpt>
      <trkpt lat="45.27053" lon="5.82353">
        <ele>898.42999267578</ele>
        <time>2017-10-01T08:23:52Z</time>
      </trkpt>
      <trkpt lat="45.27059" lon="5.82359">
        <ele>896.42999267578</ele>
        <time>2017-10-01T08:23:54Z</time>
      </trkpt>
      <trkpt lat="45.27064" lon="5.8236">
        <ele>894.42999267578</ele>
        <time>2017-10-01T08:23:57Z</time>
      </trkpt>
      <trkpt lat="45.27068" lon="5.82364">
        <ele>893.42999267578</ele>
        <time>2017-10-01T08:24:00Z</time>
      </trkpt>
      <trkpt lat="45.27073" lon="5.82365">
        <ele>890.42999267578</ele>
        <time>2017-10-01T08:24:03Z</time>
      </trkpt>
      <trkpt lat="45.27078" lon="5.82372">
        <ele>888.42999267578</ele>
        <time>2017-10-01T08:24:05Z</time>
      </trkpt>
      <trkpt lat="45.27083" lon="5.82381">
        <ele>888.42999267578</ele>
        <time>2017-10-01T08:24:07Z</time>
      </trkpt>
      <trkpt lat="45.27088" lon="5.82385">
        <ele>887.42999267578</ele>
        <time>2017-10-01T08:24:09Z</time>
      </trkpt>
      <trkpt lat="45.2709" lon="5.82392">
        <ele>886.42999267578</ele>
        <time>2017-10-01T08:24:11Z</time>
      </trkpt>
      <trkpt lat="45.27092" lon="5.82399">
        <ele>887.42999267578</ele>
        <time>2017-10-01T08:24:12Z</time>
      </trkpt>
      <trkpt lat="45.27096" lon="5.82404">
        <ele>884.42999267578</ele>
        <time>2017-10-01T08:24:14Z</time>
      </trkpt>
      <trkpt lat="45.27098" lon="5.8241">
        <ele>883.42999267578</ele>
        <time>2017-10-01T08:24:16Z</time>
      </trkpt>
      <trkpt lat="45.27092" lon="5.82409">
        <ele>883.42999267578</ele>
        <time>2017-10-01T08:24:22Z</time>
      </trkpt>
      <trkpt lat="45.27088" lon="5.82405">
        <ele>884.42999267578</ele>
        <time>2017-10-01T08:24:26Z</time>
      </trkpt>
      <trkpt lat="45.27082" lon="5.82404">
        <ele>883.42999267578</ele>
        <time>2017-10-01T08:24:30Z</time>
      </trkpt>
      <trkpt lat="45.27072" lon="5.82401">
        <ele>883.42999267578</ele>
        <time>2017-10-01T08:24:33Z</time>
      </trkpt>
      <trkpt lat="45.27065" lon="5.82403">
        <ele>882.42999267578</ele>
        <time>2017-10-01T08:24:35Z</time>
      </trkpt>
      <trkpt lat="45.2706" lon="5.82407">
        <ele>880.42999267578</ele>
        <time>2017-10-01T08:24:37Z</time>
      </trkpt>
      <trkpt lat="45.27055" lon="5.82405">
        <ele>874.42999267578</ele>
        <time>2017-10-01T08:24:42Z</time>
      </trkpt>
      <trkpt lat="45.27053" lon="5.82411">
        <ele>875.42999267578</ele>
        <time>2017-10-01T08:24:47Z</time>
      </trkpt>
      <trkpt lat="45.27055" lon="5.82418">
        <ele>871.42999267578</ele>
        <time>2017-10-01T08:24:58Z</time>
      </trkpt>
      <trkpt lat="45.27061" lon="5.82417">
        <ele>870.42999267578</ele>
        <time>2017-10-01T08:25:01Z</time>
      </trkpt>
      <trkpt lat="45.27066" lon="5.82421">
        <ele>870.42999267578</ele>
        <time>2017-10-01T08:25:03Z</time>
      </trkpt>
      <trkpt lat="45.27069" lon="5.82426">
        <ele>870.42999267578</ele>
        <time>2017-10-01T08:25:05Z</time>
      </trkpt>
      <trkpt lat="45.27075" lon="5.82432">
        <ele>870.42999267578</ele>
        <time>2017-10-01T08:25:07Z</time>
      </trkpt>
      <trkpt lat="45.27078" lon="5.82439">
        <ele>869.42999267578</ele>
        <time>2017-10-01T08:25:09Z</time>
      </trkpt>
      <trkpt lat="45.27083" lon="5.82442">
        <ele>865.42999267578</ele>
        <time>2017-10-01T08:25:11Z</time>
      </trkpt>
      <trkpt lat="45.27086" lon="5.82449">
        <ele>864.42999267578</ele>
        <time>2017-10-01T08:25:13Z</time>
      </trkpt>
      <trkpt lat="45.27092" lon="5.82455">
        <ele>864.42999267578</ele>
        <time>2017-10-01T08:25:16Z</time>
      </trkpt>
      <trkpt lat="45.27096" lon="5.8246">
        <ele>863.42999267578</ele>
        <time>2017-10-01T08:25:18Z</time>
      </trkpt>
      <trkpt lat="45.27101" lon="5.82461">
        <ele>863.42999267578</ele>
        <time>2017-10-01T08:25:20Z</time>
      </trkpt>
      <trkpt lat="45.27105" lon="5.82463">
        <ele>861.42999267578</ele>
        <time>2017-10-01T08:25:22Z</time>
      </trkpt>
      <trkpt lat="45.27108" lon="5.82469">
        <ele>862.42999267578</ele>
        <time>2017-10-01T08:25:25Z</time>
      </trkpt>
      <trkpt lat="45.27113" lon="5.82473">
        <ele>862.42999267578</ele>
        <time>2017-10-01T08:25:28Z</time>
      </trkpt>
      <trkpt lat="45.27117" lon="5.8248">
        <ele>862.42999267578</ele>
        <time>2017-10-01T08:25:30Z</time>
      </trkpt>
      <trkpt lat="45.27121" lon="5.82485">
        <ele>860.42999267578</ele>
        <time>2017-10-01T08:25:32Z</time>
      </trkpt>
      <trkpt lat="45.27125" lon="5.82488">
        <ele>861.42999267578</ele>
        <time>2017-10-01T08:25:34Z</time>
      </trkpt>
      <trkpt lat="45.27132" lon="5.82496">
        <ele>858.42999267578</ele>
        <time>2017-10-01T08:25:37Z</time>
      </trkpt>
      <trkpt lat="45.27135" lon="5.82502">
        <ele>858.42999267578</ele>
        <time>2017-10-01T08:25:39Z</time>
      </trkpt>
      <trkpt lat="45.27138" lon="5.82508">
        <ele>857.42999267578</ele>
        <time>2017-10-01T08:25:41Z</time>
      </trkpt>
      <trkpt lat="45.27143" lon="5.82501">
        <ele>850.42999267578</ele>
        <time>2017-10-01T08:25:52Z</time>
      </trkpt>
      <trkpt lat="45.27146" lon="5.82497">
        <ele>849.42999267578</ele>
        <time>2017-10-01T08:25:54Z</time>
      </trkpt>
      <trkpt lat="45.27149" lon="5.8249">
        <ele>850.42999267578</ele>
        <time>2017-10-01T08:25:58Z</time>
      </trkpt>
      <trkpt lat="45.27151" lon="5.82484">
        <ele>847.42999267578</ele>
        <time>2017-10-01T08:26:00Z</time>
      </trkpt>
      <trkpt lat="45.27157" lon="5.82481">
        <ele>842.42999267578</ele>
        <time>2017-10-01T08:26:03Z</time>
      </trkpt>
      <trkpt lat="45.27162" lon="5.82482">
        <ele>839.42999267578</ele>
        <time>2017-10-01T08:26:05Z</time>
      </trkpt>
      <trkpt lat="45.27168" lon="5.8248">
        <ele>839.42999267578</ele>
        <time>2017-10-01T08:26:08Z</time>
      </trkpt>
      <trkpt lat="45.27173" lon="5.82476">
        <ele>837.42999267578</ele>
        <time>2017-10-01T08:26:11Z</time>
      </trkpt>
      <trkpt lat="45.27176" lon="5.82469">
        <ele>835.42999267578</ele>
        <time>2017-10-01T08:26:14Z</time>
      </trkpt>
      <trkpt lat="45.2718" lon="5.82466">
        <ele>834.42999267578</ele>
        <time>2017-10-01T08:26:17Z</time>
      </trkpt>
      <trkpt lat="45.27185" lon="5.82466">
        <ele>833.42999267578</ele>
        <time>2017-10-01T08:26:19Z</time>
      </trkpt>
      <trkpt lat="45.27191" lon="5.82473">
        <ele>834.42999267578</ele>
        <time>2017-10-01T08:26:23Z</time>
      </trkpt>
      <trkpt lat="45.27189" lon="5.82481">
        <ele>831.42999267578</ele>
        <time>2017-10-01T08:26:29Z</time>
      </trkpt>
      <trkpt lat="45.2719" lon="5.82489">
        <ele>828.42999267578</ele>
        <time>2017-10-01T08:26:33Z</time>
      </trkpt>
      <trkpt lat="45.27189" lon="5.82497">
        <ele>827.43103027344</ele>
        <time>2017-10-01T08:26:35Z</time>
      </trkpt>
      <trkpt lat="45.27188" lon="5.82504">
        <ele>822.43103027344</ele>
        <time>2017-10-01T08:26:39Z</time>
      </trkpt>
      <trkpt lat="45.27186" lon="5.82511">
        <ele>818.43103027344</ele>
        <time>2017-10-01T08:26:43Z</time>
      </trkpt>
      <trkpt lat="45.27186" lon="5.82517">
        <ele>815.43103027344</ele>
        <time>2017-10-01T08:26:45Z</time>
      </trkpt>
      <trkpt lat="45.27187" lon="5.82526">
        <ele>815.43103027344</ele>
        <time>2017-10-01T08:26:48Z</time>
      </trkpt>
      <trkpt lat="45.27186" lon="5.82534">
        <ele>813.43103027344</ele>
        <time>2017-10-01T08:26:51Z</time>
      </trkpt>
      <trkpt lat="45.27183" lon="5.82539">
        <ele>808.43103027344</ele>
        <time>2017-10-01T08:26:55Z</time>
      </trkpt>
      <trkpt lat="45.27181" lon="5.82547">
        <ele>807.43103027344</ele>
        <time>2017-10-01T08:26:59Z</time>
      </trkpt>
      <trkpt lat="45.27178" lon="5.82553">
        <ele>807.43103027344</ele>
        <time>2017-10-01T08:27:01Z</time>
      </trkpt>
      <trkpt lat="45.27177" lon="5.8256">
        <ele>804.43103027344</ele>
        <time>2017-10-01T08:27:04Z</time>
      </trkpt>
      <trkpt lat="45.27181" lon="5.82566">
        <ele>800.43103027344</ele>
        <time>2017-10-01T08:27:10Z</time>
      </trkpt>
      <trkpt lat="45.27188" lon="5.82568">
        <ele>1206.4310302734</ele>
        <time>2017-10-01T08:27:13Z</time>
      </trkpt>
      <trkpt lat="45.27193" lon="5.82568">
        <ele>1069.4310302734</ele>
        <time>2017-10-01T08:27:16Z</time>
      </trkpt>
      <trkpt lat="45.27196" lon="5.82562">
        <ele>954.43103027344</ele>
        <time>2017-10-01T08:27:19Z</time>
      </trkpt>
      <trkpt lat="45.27203" lon="5.82564">
        <ele>883.43103027344</ele>
        <time>2017-10-01T08:27:25Z</time>
      </trkpt>
      <trkpt lat="45.27207" lon="5.82567">
        <ele>854.43103027344</ele>
        <time>2017-10-01T08:27:28Z</time>
      </trkpt>
      <trkpt lat="45.27208" lon="5.82575">
        <ele>832.43103027344</ele>
        <time>2017-10-01T08:27:33Z</time>
      </trkpt>
      <trkpt lat="45.27211" lon="5.82582">
        <ele>815.43103027344</ele>
        <time>2017-10-01T08:27:38Z</time>
      </trkpt>
      <trkpt lat="45.27212" lon="5.82588">
        <ele>813.43103027344</ele>
        <time>2017-10-01T08:27:40Z</time>
      </trkpt>
      <trkpt lat="45.2721" lon="5.82595">
        <ele>810.43103027344</ele>
        <time>2017-10-01T08:27:43Z</time>
      </trkpt>
      <trkpt lat="45.27204" lon="5.82594">
        <ele>803.43103027344</ele>
        <time>2017-10-01T08:27:48Z</time>
      </trkpt>
      <trkpt lat="45.27198" lon="5.826">
        <ele>800.43103027344</ele>
        <time>2017-10-01T08:27:52Z</time>
      </trkpt>
      <trkpt lat="45.27197" lon="5.82609">
        <ele>798.43103027344</ele>
        <time>2017-10-01T08:27:55Z</time>
      </trkpt>
      <trkpt lat="45.27205" lon="5.82609">
        <ele>778.43103027344</ele>
        <time>2017-10-01T08:28:07Z</time>
      </trkpt>
      <trkpt lat="45.27209" lon="5.82614">
        <ele>775.43103027344</ele>
        <time>2017-10-01T08:28:11Z</time>
      </trkpt>
      <trkpt lat="45.27214" lon="5.82617">
        <ele>773.43103027344</ele>
        <time>2017-10-01T08:28:14Z</time>
      </trkpt>
      <trkpt lat="45.27213" lon="5.82625">
        <ele>766.43103027344</ele>
        <time>2017-10-01T08:28:19Z</time>
      </trkpt>
      <trkpt lat="45.27209" lon="5.82631">
        <ele>760.43103027344</ele>
        <time>2017-10-01T08:28:24Z</time>
      </trkpt>
      <trkpt lat="45.2721" lon="5.8264">
        <ele>759.43103027344</ele>
        <time>2017-10-01T08:28:27Z</time>
      </trkpt>
      <trkpt lat="45.27213" lon="5.82646">
        <ele>750.43103027344</ele>
        <time>2017-10-01T08:28:32Z</time>
      </trkpt>
      <trkpt lat="45.27212" lon="5.82654">
        <ele>745.43103027344</ele>
        <time>2017-10-01T08:28:36Z</time>
      </trkpt>
      <trkpt lat="45.2721" lon="5.82661">
        <ele>745.43103027344</ele>
        <time>2017-10-01T08:28:40Z</time>
      </trkpt>
      <trkpt lat="45.27208" lon="5.82668">
        <ele>742.43103027344</ele>
        <time>2017-10-01T08:28:43Z</time>
      </trkpt>
      <trkpt lat="45.27208" lon="5.82677">
        <ele>740.43103027344</ele>
        <time>2017-10-01T08:28:46Z</time>
      </trkpt>
      <trkpt lat="45.27206" lon="5.82684">
        <ele>739.43103027344</ele>
        <time>2017-10-01T08:28:48Z</time>
      </trkpt>
      <trkpt lat="45.27207" lon="5.82692">
        <ele>736.43103027344</ele>
        <time>2017-10-01T08:28:51Z</time>
      </trkpt>
      <trkpt lat="45.27208" lon="5.82699">
        <ele>733.43103027344</ele>
        <time>2017-10-01T08:28:55Z</time>
      </trkpt>
      <trkpt lat="45.27208" lon="5.82707">
        <ele>728.43103027344</ele>
        <time>2017-10-01T08:28:59Z</time>
      </trkpt>
      <trkpt lat="45.27206" lon="5.82714">
        <ele>724.43103027344</ele>
        <time>2017-10-01T08:29:03Z</time>
      </trkpt>
      <trkpt lat="45.27203" lon="5.82721">
        <ele>721.43103027344</ele>
        <time>2017-10-01T08:29:12Z</time>
      </trkpt>
      <trkpt lat="45.27205" lon="5.82716">
        <ele>721.43103027344</ele>
        <time>2017-10-01T08:29:35Z</time>
      </trkpt>
      <trkpt lat="45.27212" lon="5.82718">
        <ele>720.43103027344</ele>
        <time>2017-10-01T08:29:38Z</time>
      </trkpt>
      <trkpt lat="45.27217" lon="5.82717">
        <ele>715.43103027344</ele>
        <time>2017-10-01T08:29:41Z</time>
      </trkpt>
      <trkpt lat="45.27221" lon="5.82714">
        <ele>715.43103027344</ele>
        <time>2017-10-01T08:29:47Z</time>
      </trkpt>
      <trkpt lat="45.27223" lon="5.82706">
        <ele>714.43103027344</ele>
        <time>2017-10-01T08:29:51Z</time>
      </trkpt>
      <trkpt lat="45.27226" lon="5.82698">
        <ele>713.43103027344</ele>
        <time>2017-10-01T08:29:53Z</time>
      </trkpt>
      <trkpt lat="45.27228" lon="5.82692">
        <ele>712.43103027344</ele>
        <time>2017-10-01T08:29:56Z</time>
      </trkpt>
      <trkpt lat="45.27233" lon="5.82688">
        <ele>712.43103027344</ele>
        <time>2017-10-01T08:29:58Z</time>
      </trkpt>
      <trkpt lat="45.27237" lon="5.82684">
        <ele>712.43103027344</ele>
        <time>2017-10-01T08:30:00Z</time>
      </trkpt>
      <trkpt lat="45.27245" lon="5.82682">
        <ele>713.43103027344</ele>
        <time>2017-10-01T08:30:02Z</time>
      </trkpt>
      <trkpt lat="45.27256" lon="5.82676">
        <ele>712.43103027344</ele>
        <time>2017-10-01T08:30:05Z</time>
      </trkpt>
      <trkpt lat="45.27262" lon="5.82672">
        <ele>713.43103027344</ele>
        <time>2017-10-01T08:30:07Z</time>
      </trkpt>
      <trkpt lat="45.27268" lon="5.82668">
        <ele>713.43103027344</ele>
        <time>2017-10-01T08:30:09Z</time>
      </trkpt>
      <trkpt lat="45.27273" lon="5.82665">
        <ele>713.43103027344</ele>
        <time>2017-10-01T08:30:11Z</time>
      </trkpt>
      <trkpt lat="45.27278" lon="5.82667">
        <ele>711.43103027344</ele>
        <time>2017-10-01T08:30:15Z</time>
      </trkpt>
      <trkpt lat="45.27283" lon="5.82666">
        <ele>710.43103027344</ele>
        <time>2017-10-01T08:30:17Z</time>
      </trkpt>
      <trkpt lat="45.27281" lon="5.82671">
        <ele>710.43103027344</ele>
        <time>2017-10-01T08:30:26Z</time>
      </trkpt>
      <trkpt lat="45.27285" lon="5.82675">
        <ele>702.43103027344</ele>
        <time>2017-10-01T08:30:33Z</time>
      </trkpt>
      <trkpt lat="45.27291" lon="5.82678">
        <ele>698.43103027344</ele>
        <time>2017-10-01T08:30:37Z</time>
      </trkpt>
      <trkpt lat="45.27293" lon="5.82684">
        <ele>696.43103027344</ele>
        <time>2017-10-01T08:30:41Z</time>
      </trkpt>
      <trkpt lat="45.27295" lon="5.8269">
        <ele>694.43103027344</ele>
        <time>2017-10-01T08:30:45Z</time>
      </trkpt>
      <trkpt lat="45.27298" lon="5.82697">
        <ele>692.43103027344</ele>
        <time>2017-10-01T08:30:48Z</time>
      </trkpt>
      <trkpt lat="45.27299" lon="5.82705">
        <ele>687.43103027344</ele>
        <time>2017-10-01T08:30:52Z</time>
      </trkpt>
      <trkpt lat="45.27303" lon="5.82708">
        <ele>684.43103027344</ele>
        <time>2017-10-01T08:30:56Z</time>
      </trkpt>
      <trkpt lat="45.27302" lon="5.82716">
        <ele>683.43103027344</ele>
        <time>2017-10-01T08:31:01Z</time>
      </trkpt>
      <trkpt lat="45.27299" lon="5.82724">
        <ele>681.43103027344</ele>
        <time>2017-10-01T08:31:08Z</time>
      </trkpt>
      <trkpt lat="45.27298" lon="5.82732">
        <ele>681.43103027344</ele>
        <time>2017-10-01T08:31:11Z</time>
      </trkpt>
      <trkpt lat="45.27301" lon="5.82738">
        <ele>679.43103027344</ele>
        <time>2017-10-01T08:31:19Z</time>
      </trkpt>
      <trkpt lat="45.27304" lon="5.82744">
        <ele>679.43103027344</ele>
        <time>2017-10-01T08:31:22Z</time>
      </trkpt>
      <trkpt lat="45.27306" lon="5.8275">
        <ele>677.43103027344</ele>
        <time>2017-10-01T08:31:25Z</time>
      </trkpt>
      <trkpt lat="45.27308" lon="5.82756">
        <ele>672.43103027344</ele>
        <time>2017-10-01T08:31:29Z</time>
      </trkpt>
      <trkpt lat="45.27309" lon="5.82763">
        <ele>666.43103027344</ele>
        <time>2017-10-01T08:31:33Z</time>
      </trkpt>
      <trkpt lat="45.27311" lon="5.8277">
        <ele>662.43103027344</ele>
        <time>2017-10-01T08:31:38Z</time>
      </trkpt>
      <trkpt lat="45.27315" lon="5.82779">
        <ele>661.43103027344</ele>
        <time>2017-10-01T08:31:41Z</time>
      </trkpt>
      <trkpt lat="45.27319" lon="5.82784">
        <ele>659.43103027344</ele>
        <time>2017-10-01T08:31:43Z</time>
      </trkpt>
      <trkpt lat="45.2732" lon="5.82791">
        <ele>656.43103027344</ele>
        <time>2017-10-01T08:31:46Z</time>
      </trkpt>
      <trkpt lat="45.27322" lon="5.82798">
        <ele>653.43103027344</ele>
        <time>2017-10-01T08:31:49Z</time>
      </trkpt>
      <trkpt lat="45.27319" lon="5.82804">
        <ele>650.43103027344</ele>
        <time>2017-10-01T08:31:53Z</time>
      </trkpt>
      <trkpt lat="45.27317" lon="5.8281">
        <ele>651.43103027344</ele>
        <time>2017-10-01T08:31:55Z</time>
      </trkpt>
      <trkpt lat="45.27322" lon="5.82814">
        <ele>643.43103027344</ele>
        <time>2017-10-01T08:31:59Z</time>
      </trkpt>
      <trkpt lat="45.27323" lon="5.82821">
        <ele>642.43103027344</ele>
        <time>2017-10-01T08:32:04Z</time>
      </trkpt>
      <trkpt lat="45.27323" lon="5.8283">
        <ele>636.43103027344</ele>
        <time>2017-10-01T08:32:10Z</time>
      </trkpt>
      <trkpt lat="45.27323" lon="5.82837">
        <ele>629.43103027344</ele>
        <time>2017-10-01T08:32:14Z</time>
      </trkpt>
      <trkpt lat="45.27321" lon="5.82845">
        <ele>628.43103027344</ele>
        <time>2017-10-01T08:32:17Z</time>
      </trkpt>
      <trkpt lat="45.27318" lon="5.82851">
        <ele>628.43103027344</ele>
        <time>2017-10-01T08:32:19Z</time>
      </trkpt>
      <trkpt lat="45.27317" lon="5.82858">
        <ele>623.43103027344</ele>
        <time>2017-10-01T08:32:23Z</time>
      </trkpt>
      <trkpt lat="45.27317" lon="5.82868">
        <ele>622.43103027344</ele>
        <time>2017-10-01T08:32:26Z</time>
      </trkpt>
      <trkpt lat="45.27317" lon="5.82875">
        <ele>616.43103027344</ele>
        <time>2017-10-01T08:32:29Z</time>
      </trkpt>
      <trkpt lat="45.27317" lon="5.82883">
        <ele>614.43103027344</ele>
        <time>2017-10-01T08:32:32Z</time>
      </trkpt>
      <trkpt lat="45.27315" lon="5.82888">
        <ele>613.43103027344</ele>
        <time>2017-10-01T08:32:35Z</time>
      </trkpt>
      <trkpt lat="45.2731" lon="5.82892">
        <ele>611.43103027344</ele>
        <time>2017-10-01T08:32:38Z</time>
      </trkpt>
      <trkpt lat="45.27307" lon="5.82896">
        <ele>607.43103027344</ele>
        <time>2017-10-01T08:32:40Z</time>
      </trkpt>
      <trkpt lat="45.27305" lon="5.82903">
        <ele>607.43103027344</ele>
        <time>2017-10-01T08:32:42Z</time>
      </trkpt>
      <trkpt lat="45.27303" lon="5.82913">
        <ele>606.43103027344</ele>
        <time>2017-10-01T08:32:45Z</time>
      </trkpt>
      <trkpt lat="45.27301" lon="5.82923">
        <ele>606.43103027344</ele>
        <time>2017-10-01T08:32:47Z</time>
      </trkpt>
      <trkpt lat="45.27298" lon="5.82929">
        <ele>603.43103027344</ele>
        <time>2017-10-01T08:32:49Z</time>
      </trkpt>
      <trkpt lat="45.27298" lon="5.82936">
        <ele>604.43103027344</ele>
        <time>2017-10-01T08:32:51Z</time>
      </trkpt>
      <trkpt lat="45.27298" lon="5.82944">
        <ele>603.43103027344</ele>
        <time>2017-10-01T08:32:53Z</time>
      </trkpt>
      <trkpt lat="45.27298" lon="5.82952">
        <ele>602.43103027344</ele>
        <time>2017-10-01T08:32:55Z</time>
      </trkpt>
      <trkpt lat="45.273" lon="5.8296">
        <ele>602.43103027344</ele>
        <time>2017-10-01T08:32:58Z</time>
      </trkpt>
      <trkpt lat="45.27299" lon="5.82968">
        <ele>602.43103027344</ele>
        <time>2017-10-01T08:33:01Z</time>
      </trkpt>
      <trkpt lat="45.27297" lon="5.82975">
        <ele>605.43103027344</ele>
        <time>2017-10-01T08:33:04Z</time>
      </trkpt>
      <trkpt lat="45.27297" lon="5.82982">
        <ele>604.43103027344</ele>
        <time>2017-10-01T08:33:08Z</time>
      </trkpt>
      <trkpt lat="45.27299" lon="5.82989">
        <ele>601.43103027344</ele>
        <time>2017-10-01T08:33:10Z</time>
      </trkpt>
      <trkpt lat="45.27299" lon="5.82996">
        <ele>600.43103027344</ele>
        <time>2017-10-01T08:33:14Z</time>
      </trkpt>
      <trkpt lat="45.27301" lon="5.83003">
        <ele>600.43103027344</ele>
        <time>2017-10-01T08:33:18Z</time>
      </trkpt>
      <trkpt lat="45.27304" lon="5.83009">
        <ele>599.43103027344</ele>
        <time>2017-10-01T08:33:22Z</time>
      </trkpt>
      <trkpt lat="45.27306" lon="5.83015">
        <ele>596.43103027344</ele>
        <time>2017-10-01T08:33:26Z</time>
      </trkpt>
      <trkpt lat="45.27308" lon="5.83026">
        <ele>597.43103027344</ele>
        <time>2017-10-01T08:33:30Z</time>
      </trkpt>
      <trkpt lat="45.27306" lon="5.83033">
        <ele>596.43103027344</ele>
        <time>2017-10-01T08:33:32Z</time>
      </trkpt>
      <trkpt lat="45.273" lon="5.83038">
        <ele>595.43103027344</ele>
        <time>2017-10-01T08:33:35Z</time>
      </trkpt>
      <trkpt lat="45.27296" lon="5.83042">
        <ele>595.43103027344</ele>
        <time>2017-10-01T08:33:37Z</time>
      </trkpt>
      <trkpt lat="45.27292" lon="5.83047">
        <ele>595.43103027344</ele>
        <time>2017-10-01T08:33:39Z</time>
      </trkpt>
      <trkpt lat="45.27287" lon="5.83053">
        <ele>594.43103027344</ele>
        <time>2017-10-01T08:33:41Z</time>
      </trkpt>
      <trkpt lat="45.27282" lon="5.83057">
        <ele>593.43103027344</ele>
        <time>2017-10-01T08:33:44Z</time>
      </trkpt>
      <trkpt lat="45.27278" lon="5.83062">
        <ele>592.43103027344</ele>
        <time>2017-10-01T08:33:47Z</time>
      </trkpt>
      <trkpt lat="45.27274" lon="5.83067">
        <ele>592.43103027344</ele>
        <time>2017-10-01T08:33:50Z</time>
      </trkpt>
      <trkpt lat="45.27272" lon="5.83072">
        <ele>591.43103027344</ele>
        <time>2017-10-01T08:33:52Z</time>
      </trkpt>
      <trkpt lat="45.27269" lon="5.83082">
        <ele>590.43103027344</ele>
        <time>2017-10-01T08:33:55Z</time>
      </trkpt>
      <trkpt lat="45.27268" lon="5.83088">
        <ele>590.43103027344</ele>
        <time>2017-10-01T08:33:57Z</time>
      </trkpt>
      <trkpt lat="45.27266" lon="5.83095">
        <ele>589.43103027344</ele>
        <time>2017-10-01T08:34:00Z</time>
      </trkpt>
      <trkpt lat="45.27264" lon="5.83102">
        <ele>587.43103027344</ele>
        <time>2017-10-01T08:34:04Z</time>
      </trkpt>
      <trkpt lat="45.27264" lon="5.83109">
        <ele>587.43103027344</ele>
        <time>2017-10-01T08:34:08Z</time>
      </trkpt>
      <trkpt lat="45.27263" lon="5.83115">
        <ele>586.43200683594</ele>
        <time>2017-10-01T08:34:12Z</time>
      </trkpt>
      <trkpt lat="45.27261" lon="5.83122">
        <ele>585.43200683594</ele>
        <time>2017-10-01T08:34:15Z</time>
      </trkpt>
      <trkpt lat="45.2726" lon="5.83128">
        <ele>585.43200683594</ele>
        <time>2017-10-01T08:34:18Z</time>
      </trkpt>
      <trkpt lat="45.27259" lon="5.83135">
        <ele>585.43200683594</ele>
        <time>2017-10-01T08:34:22Z</time>
      </trkpt>
      <trkpt lat="45.27259" lon="5.83145">
        <ele>584.43200683594</ele>
        <time>2017-10-01T08:34:27Z</time>
      </trkpt>
      <trkpt lat="45.27261" lon="5.83151">
        <ele>583.43200683594</ele>
        <time>2017-10-01T08:34:32Z</time>
      </trkpt>
      <trkpt lat="45.27261" lon="5.83158">
        <ele>585.43200683594</ele>
        <time>2017-10-01T08:34:37Z</time>
      </trkpt>
      <trkpt lat="45.27258" lon="5.83164">
        <ele>584.43200683594</ele>
        <time>2017-10-01T08:34:41Z</time>
      </trkpt>
      <trkpt lat="45.27254" lon="5.83168">
        <ele>584.43200683594</ele>
        <time>2017-10-01T08:34:44Z</time>
      </trkpt>
      <trkpt lat="45.27249" lon="5.83173">
        <ele>582.43200683594</ele>
        <time>2017-10-01T08:34:46Z</time>
      </trkpt>
      <trkpt lat="45.27246" lon="5.83179">
        <ele>583.43200683594</ele>
        <time>2017-10-01T08:34:48Z</time>
      </trkpt>
      <trkpt lat="45.27241" lon="5.83186">
        <ele>583.43200683594</ele>
        <time>2017-10-01T08:34:50Z</time>
      </trkpt>
      <trkpt lat="45.27234" lon="5.83196">
        <ele>582.43200683594</ele>
        <time>2017-10-01T08:34:52Z</time>
      </trkpt>
      <trkpt lat="45.2723" lon="5.83202">
        <ele>580.43200683594</ele>
        <time>2017-10-01T08:34:54Z</time>
      </trkpt>
      <trkpt lat="45.27227" lon="5.83208">
        <ele>579.43200683594</ele>
        <time>2017-10-01T08:34:56Z</time>
      </trkpt>
      <trkpt lat="45.27223" lon="5.83213">
        <ele>579.43200683594</ele>
        <time>2017-10-01T08:34:58Z</time>
      </trkpt>
      <trkpt lat="45.2722" lon="5.83221">
        <ele>577.43200683594</ele>
        <time>2017-10-01T08:35:00Z</time>
      </trkpt>
      <trkpt lat="45.27221" lon="5.83228">
        <ele>577.43200683594</ele>
        <time>2017-10-01T08:35:02Z</time>
      </trkpt>
      <trkpt lat="45.27221" lon="5.83235">
        <ele>576.43200683594</ele>
        <time>2017-10-01T08:35:04Z</time>
      </trkpt>
      <trkpt lat="45.27221" lon="5.83243">
        <ele>574.43200683594</ele>
        <time>2017-10-01T08:35:06Z</time>
      </trkpt>
      <trkpt lat="45.27223" lon="5.83251">
        <ele>573.43200683594</ele>
        <time>2017-10-01T08:35:08Z</time>
      </trkpt>
      <trkpt lat="45.27224" lon="5.83258">
        <ele>572.43200683594</ele>
        <time>2017-10-01T08:35:10Z</time>
      </trkpt>
      <trkpt lat="45.27223" lon="5.83269">
        <ele>570.43200683594</ele>
        <time>2017-10-01T08:35:12Z</time>
      </trkpt>
      <trkpt lat="45.27223" lon="5.83276">
        <ele>569.43200683594</ele>
        <time>2017-10-01T08:35:14Z</time>
      </trkpt>
      <trkpt lat="45.27222" lon="5.83283">
        <ele>569.43200683594</ele>
        <time>2017-10-01T08:35:16Z</time>
      </trkpt>
      <trkpt lat="45.27221" lon="5.83289">
        <ele>569.43200683594</ele>
        <time>2017-10-01T08:35:21Z</time>
      </trkpt>
      <trkpt lat="45.27222" lon="5.83297">
        <ele>567.43200683594</ele>
        <time>2017-10-01T08:35:27Z</time>
      </trkpt>
      <trkpt lat="45.27221" lon="5.83306">
        <ele>568.43200683594</ele>
        <time>2017-10-01T08:35:32Z</time>
      </trkpt>
      <trkpt lat="45.2722" lon="5.83314">
        <ele>571.43200683594</ele>
        <time>2017-10-01T08:35:39Z</time>
      </trkpt>
      <trkpt lat="45.27218" lon="5.83321">
        <ele>568.43200683594</ele>
        <time>2017-10-01T08:35:54Z</time>
      </trkpt>
      <trkpt lat="45.27218" lon="5.83328">
        <ele>567.43200683594</ele>
        <time>2017-10-01T08:36:19Z</time>
      </trkpt>
      <trkpt lat="45.27217" lon="5.83336">
        <ele>564.43200683594</ele>
        <time>2017-10-01T08:36:28Z</time>
      </trkpt>
      <trkpt lat="45.27218" lon="5.83343">
        <ele>563.43200683594</ele>
        <time>2017-10-01T08:36:34Z</time>
      </trkpt>
      <trkpt lat="45.27219" lon="5.8335">
        <ele>566.43200683594</ele>
        <time>2017-10-01T08:36:38Z</time>
      </trkpt>
      <trkpt lat="45.27215" lon="5.83355">
        <ele>564.43200683594</ele>
        <time>2017-10-01T08:36:43Z</time>
      </trkpt>
      <trkpt lat="45.27212" lon="5.83362">
        <ele>564.43200683594</ele>
        <time>2017-10-01T08:36:51Z</time>
      </trkpt>
      <trkpt lat="45.2721" lon="5.83369">
        <ele>566.43200683594</ele>
        <time>2017-10-01T08:36:56Z</time>
      </trkpt>
      <trkpt lat="45.27209" lon="5.83375">
        <ele>563.43200683594</ele>
        <time>2017-10-01T08:37:02Z</time>
      </trkpt>
      <trkpt lat="45.27207" lon="5.83382">
        <ele>557.43200683594</ele>
        <time>2017-10-01T08:37:07Z</time>
      </trkpt>
      <trkpt lat="45.27212" lon="5.83383">
        <ele>557.43200683594</ele>
        <time>2017-10-01T08:37:21Z</time>
      </trkpt>
      <trkpt lat="45.27217" lon="5.83383">
        <ele>559.43200683594</ele>
        <time>2017-10-01T08:37:27Z</time>
      </trkpt>
      <trkpt lat="45.27221" lon="5.83381">
        <ele>556.43200683594</ele>
        <time>2017-10-01T08:37:31Z</time>
      </trkpt>
      <trkpt lat="45.27225" lon="5.83375">
        <ele>559.43200683594</ele>
        <time>2017-10-01T08:37:42Z</time>
      </trkpt>
      <trkpt lat="45.27231" lon="5.83377">
        <ele>560.43200683594</ele>
        <time>2017-10-01T08:37:47Z</time>
      </trkpt>
      <trkpt lat="45.27235" lon="5.83376">
        <ele>560.43200683594</ele>
        <time>2017-10-01T08:37:49Z</time>
      </trkpt>
      <trkpt lat="45.2724" lon="5.83376">
        <ele>560.43200683594</ele>
        <time>2017-10-01T08:37:51Z</time>
      </trkpt>
      <trkpt lat="45.27245" lon="5.83375">
        <ele>561.43200683594</ele>
        <time>2017-10-01T08:37:53Z</time>
      </trkpt>
      <trkpt lat="45.27251" lon="5.83375">
        <ele>563.43200683594</ele>
        <time>2017-10-01T08:37:59Z</time>
      </trkpt>
      <trkpt lat="45.27256" lon="5.83374">
        <ele>565.43200683594</ele>
        <time>2017-10-01T08:38:01Z</time>
      </trkpt>
      <trkpt lat="45.27261" lon="5.83372">
        <ele>563.43200683594</ele>
        <time>2017-10-01T08:38:05Z</time>
      </trkpt>
      <trkpt lat="45.27267" lon="5.8337">
        <ele>561.43200683594</ele>
        <time>2017-10-01T08:38:07Z</time>
      </trkpt>
      <trkpt lat="45.27273" lon="5.83372">
        <ele>563.43200683594</ele>
        <time>2017-10-01T08:38:12Z</time>
      </trkpt>
      <trkpt lat="45.27278" lon="5.83373">
        <ele>563.43200683594</ele>
        <time>2017-10-01T08:38:18Z</time>
      </trkpt>
      <trkpt lat="45.27283" lon="5.83374">
        <ele>565.43200683594</ele>
        <time>2017-10-01T08:38:21Z</time>
      </trkpt>
      <trkpt lat="45.27288" lon="5.83372">
        <ele>565.43200683594</ele>
        <time>2017-10-01T08:38:25Z</time>
      </trkpt>
      <trkpt lat="45.27293" lon="5.83373">
        <ele>563.43200683594</ele>
        <time>2017-10-01T08:38:31Z</time>
      </trkpt>
      <trkpt lat="45.27298" lon="5.83374">
        <ele>567.43200683594</ele>
        <time>2017-10-01T08:38:35Z</time>
      </trkpt>
      <trkpt lat="45.27304" lon="5.83374">
        <ele>569.43200683594</ele>
        <time>2017-10-01T08:38:38Z</time>
      </trkpt>
      <trkpt lat="45.27308" lon="5.83373">
        <ele>570.43200683594</ele>
        <time>2017-10-01T08:38:41Z</time>
      </trkpt>
      <trkpt lat="45.27313" lon="5.83373">
        <ele>572.43200683594</ele>
        <time>2017-10-01T08:38:46Z</time>
      </trkpt>
      <trkpt lat="45.27318" lon="5.83375">
        <ele>573.43200683594</ele>
        <time>2017-10-01T08:38:52Z</time>
      </trkpt>
      <trkpt lat="45.27321" lon="5.8338">
        <ele>574.43200683594</ele>
        <time>2017-10-01T08:38:56Z</time>
      </trkpt>
      <trkpt lat="45.27319" lon="5.83388">
        <ele>574.43200683594</ele>
        <time>2017-10-01T08:38:59Z</time>
      </trkpt>
      <trkpt lat="45.27317" lon="5.83395">
        <ele>575.43200683594</ele>
        <time>2017-10-01T08:39:01Z</time>
      </trkpt>
      <trkpt lat="45.27314" lon="5.83403">
        <ele>576.43200683594</ele>
        <time>2017-10-01T08:39:03Z</time>
      </trkpt>
      <trkpt lat="45.27312" lon="5.8341">
        <ele>576.43200683594</ele>
        <time>2017-10-01T08:39:05Z</time>
      </trkpt>
      <trkpt lat="45.2731" lon="5.83419">
        <ele>575.43200683594</ele>
        <time>2017-10-01T08:39:07Z</time>
      </trkpt>
      <trkpt lat="45.27308" lon="5.83427">
        <ele>574.43200683594</ele>
        <time>2017-10-01T08:39:09Z</time>
      </trkpt>
      <trkpt lat="45.27306" lon="5.83433">
        <ele>573.43200683594</ele>
        <time>2017-10-01T08:39:12Z</time>
      </trkpt>
      <trkpt lat="45.27304" lon="5.83439">
        <ele>572.43200683594</ele>
        <time>2017-10-01T08:39:14Z</time>
      </trkpt>
      <trkpt lat="45.27304" lon="5.83445">
        <ele>569.43200683594</ele>
        <time>2017-10-01T08:39:16Z</time>
      </trkpt>
      <trkpt lat="45.27302" lon="5.83451">
        <ele>570.43200683594</ele>
        <time>2017-10-01T08:39:17Z</time>
      </trkpt>
      <trkpt lat="45.27298" lon="5.83456">
        <ele>569.43200683594</ele>
        <time>2017-10-01T08:39:19Z</time>
      </trkpt>
      <trkpt lat="45.27295" lon="5.83461">
        <ele>572.43200683594</ele>
        <time>2017-10-01T08:39:21Z</time>
      </trkpt>
      <trkpt lat="45.27289" lon="5.83466">
        <ele>573.43200683594</ele>
        <time>2017-10-01T08:39:23Z</time>
      </trkpt>
      <trkpt lat="45.27285" lon="5.83471">
        <ele>572.43200683594</ele>
        <time>2017-10-01T08:39:25Z</time>
      </trkpt>
      <trkpt lat="45.27281" lon="5.83479">
        <ele>572.43200683594</ele>
        <time>2017-10-01T08:39:27Z</time>
      </trkpt>
      <trkpt lat="45.27279" lon="5.83487">
        <ele>572.43200683594</ele>
        <time>2017-10-01T08:39:29Z</time>
      </trkpt>
      <trkpt lat="45.27278" lon="5.83495">
        <ele>571.43200683594</ele>
        <time>2017-10-01T08:39:32Z</time>
      </trkpt>
      <trkpt lat="45.27277" lon="5.83502">
        <ele>571.43200683594</ele>
        <time>2017-10-01T08:39:34Z</time>
      </trkpt>
      <trkpt lat="45.27275" lon="5.83509">
        <ele>573.43200683594</ele>
        <time>2017-10-01T08:39:36Z</time>
      </trkpt>
      <trkpt lat="45.27271" lon="5.83514">
        <ele>571.43200683594</ele>
        <time>2017-10-01T08:39:39Z</time>
      </trkpt>
      <trkpt lat="45.27269" lon="5.8352">
        <ele>572.43200683594</ele>
        <time>2017-10-01T08:39:41Z</time>
      </trkpt>
      <trkpt lat="45.27266" lon="5.83528">
        <ele>572.43200683594</ele>
        <time>2017-10-01T08:39:44Z</time>
      </trkpt>
      <trkpt lat="45.27264" lon="5.83534">
        <ele>571.43200683594</ele>
        <time>2017-10-01T08:39:47Z</time>
      </trkpt>
      <trkpt lat="45.2726" lon="5.83542">
        <ele>571.43200683594</ele>
        <time>2017-10-01T08:39:49Z</time>
      </trkpt>
      <trkpt lat="45.27255" lon="5.83547">
        <ele>571.43200683594</ele>
        <time>2017-10-01T08:39:51Z</time>
      </trkpt>
      <trkpt lat="45.27251" lon="5.83553">
        <ele>569.43200683594</ele>
        <time>2017-10-01T08:39:53Z</time>
      </trkpt>
      <trkpt lat="45.27248" lon="5.83559">
        <ele>569.43200683594</ele>
        <time>2017-10-01T08:39:55Z</time>
      </trkpt>
      <trkpt lat="45.27244" lon="5.8357">
        <ele>569.43200683594</ele>
        <time>2017-10-01T08:39:57Z</time>
      </trkpt>
      <trkpt lat="45.27244" lon="5.83581">
        <ele>568.43200683594</ele>
        <time>2017-10-01T08:39:59Z</time>
      </trkpt>
      <trkpt lat="45.2724" lon="5.83588">
        <ele>570.43200683594</ele>
        <time>2017-10-01T08:40:01Z</time>
      </trkpt>
      <trkpt lat="45.27237" lon="5.83598">
        <ele>569.43200683594</ele>
        <time>2017-10-01T08:40:03Z</time>
      </trkpt>
      <trkpt lat="45.27231" lon="5.83602">
        <ele>567.43200683594</ele>
        <time>2017-10-01T08:40:07Z</time>
      </trkpt>
      <trkpt lat="45.27228" lon="5.83609">
        <ele>567.43200683594</ele>
        <time>2017-10-01T08:40:11Z</time>
      </trkpt>
      <trkpt lat="45.27225" lon="5.83614">
        <ele>569.43200683594</ele>
        <time>2017-10-01T08:40:14Z</time>
      </trkpt>
      <trkpt lat="45.27221" lon="5.83619">
        <ele>568.43200683594</ele>
        <time>2017-10-01T08:42:49Z</time>
      </trkpt>
      <trkpt lat="45.27217" lon="5.83622">
        <ele>567.43200683594</ele>
        <time>2017-10-01T08:42:51Z</time>
      </trkpt>
      <trkpt lat="45.27211" lon="5.83627">
        <ele>565.43200683594</ele>
        <time>2017-10-01T08:42:53Z</time>
      </trkpt>
      <trkpt lat="45.27206" lon="5.83631">
        <ele>563.43200683594</ele>
        <time>2017-10-01T08:42:55Z</time>
      </trkpt>
      <trkpt lat="45.27202" lon="5.83637">
        <ele>562.43200683594</ele>
        <time>2017-10-01T08:42:57Z</time>
      </trkpt>
      <trkpt lat="45.27199" lon="5.8365">
        <ele>562.43200683594</ele>
        <time>2017-10-01T08:42:59Z</time>
      </trkpt>
      <trkpt lat="45.27196" lon="5.83658">
        <ele>563.43200683594</ele>
        <time>2017-10-01T08:43:01Z</time>
      </trkpt>
      <trkpt lat="45.27193" lon="5.83661">
        <ele>564.43200683594</ele>
        <time>2017-10-01T08:43:06Z</time>
      </trkpt>
      <trkpt lat="45.2719" lon="5.83668">
        <ele>563.43200683594</ele>
        <time>2017-10-01T08:43:47Z</time>
      </trkpt>
      <trkpt lat="45.2719" lon="5.83675">
        <ele>561.43200683594</ele>
        <time>2017-10-01T08:43:50Z</time>
      </trkpt>
      <trkpt lat="45.27185" lon="5.83677">
        <ele>561.43200683594</ele>
        <time>2017-10-01T08:43:52Z</time>
      </trkpt>
      <trkpt lat="45.27181" lon="5.83683">
        <ele>559.43200683594</ele>
        <time>2017-10-01T08:43:55Z</time>
      </trkpt>
      <trkpt lat="45.2718" lon="5.8369">
        <ele>558.43200683594</ele>
        <time>2017-10-01T08:43:57Z</time>
      </trkpt>
      <trkpt lat="45.27176" lon="5.83697">
        <ele>558.43200683594</ele>
        <time>2017-10-01T08:44:00Z</time>
      </trkpt>
      <trkpt lat="45.27175" lon="5.83705">
        <ele>559.43200683594</ele>
        <time>2017-10-01T08:44:02Z</time>
      </trkpt>
      <trkpt lat="45.27174" lon="5.83713">
        <ele>559.43200683594</ele>
        <time>2017-10-01T08:44:04Z</time>
      </trkpt>
      <trkpt lat="45.27173" lon="5.83719">
        <ele>557.43200683594</ele>
        <time>2017-10-01T08:44:06Z</time>
      </trkpt>
      <trkpt lat="45.2717" lon="5.83725">
        <ele>555.43200683594</ele>
        <time>2017-10-01T08:44:09Z</time>
      </trkpt>
      <trkpt lat="45.27167" lon="5.83733">
        <ele>555.43200683594</ele>
        <time>2017-10-01T08:44:13Z</time>
      </trkpt>
      <trkpt lat="45.27166" lon="5.8374">
        <ele>557.43200683594</ele>
        <time>2017-10-01T08:44:19Z</time>
      </trkpt>
      <trkpt lat="45.27163" lon="5.83748">
        <ele>559.43200683594</ele>
        <time>2017-10-01T08:44:21Z</time>
      </trkpt>
      <trkpt lat="45.27161" lon="5.83757">
        <ele>557.43200683594</ele>
        <time>2017-10-01T08:44:24Z</time>
      </trkpt>
      <trkpt lat="45.27159" lon="5.83763">
        <ele>557.43200683594</ele>
        <time>2017-10-01T08:44:26Z</time>
      </trkpt>
      <trkpt lat="45.27157" lon="5.8377">
        <ele>555.43200683594</ele>
        <time>2017-10-01T08:44:30Z</time>
      </trkpt>
      <trkpt lat="45.27154" lon="5.83778">
        <ele>556.43200683594</ele>
        <time>2017-10-01T08:44:33Z</time>
      </trkpt>
      <trkpt lat="45.27152" lon="5.83785">
        <ele>552.43200683594</ele>
        <time>2017-10-01T08:44:36Z</time>
      </trkpt>
      <trkpt lat="45.27149" lon="5.83791">
        <ele>550.43200683594</ele>
        <time>2017-10-01T08:44:38Z</time>
      </trkpt>
      <trkpt lat="45.27148" lon="5.83799">
        <ele>551.43200683594</ele>
        <time>2017-10-01T08:44:40Z</time>
      </trkpt>
      <trkpt lat="45.27146" lon="5.83806">
        <ele>550.43200683594</ele>
        <time>2017-10-01T08:44:43Z</time>
      </trkpt>
      <trkpt lat="45.27145" lon="5.83812">
        <ele>551.43200683594</ele>
        <time>2017-10-01T08:44:45Z</time>
      </trkpt>
      <trkpt lat="45.27144" lon="5.8382">
        <ele>547.43200683594</ele>
        <time>2017-10-01T08:44:47Z</time>
      </trkpt>
      <trkpt lat="45.27139" lon="5.83826">
        <ele>546.43200683594</ele>
        <time>2017-10-01T08:44:50Z</time>
      </trkpt>
      <trkpt lat="45.27136" lon="5.83833">
        <ele>546.43200683594</ele>
        <time>2017-10-01T08:44:52Z</time>
      </trkpt>
      <trkpt lat="45.27133" lon="5.83839">
        <ele>544.43200683594</ele>
        <time>2017-10-01T08:44:55Z</time>
      </trkpt>
      <trkpt lat="45.2713" lon="5.8385">
        <ele>544.43200683594</ele>
        <time>2017-10-01T08:44:57Z</time>
      </trkpt>
      <trkpt lat="45.27127" lon="5.83859">
        <ele>544.43200683594</ele>
        <time>2017-10-01T08:45:00Z</time>
      </trkpt>
      <trkpt lat="45.27123" lon="5.83869">
        <ele>545.43200683594</ele>
        <time>2017-10-01T08:45:02Z</time>
      </trkpt>
      <trkpt lat="45.27119" lon="5.83879">
        <ele>542.43200683594</ele>
        <time>2017-10-01T08:45:04Z</time>
      </trkpt>
      <trkpt lat="45.27114" lon="5.83887">
        <ele>541.43200683594</ele>
        <time>2017-10-01T08:45:06Z</time>
      </trkpt>
      <trkpt lat="45.27111" lon="5.83895">
        <ele>539.43200683594</ele>
        <time>2017-10-01T08:45:08Z</time>
      </trkpt>
      <trkpt lat="45.27107" lon="5.83901">
        <ele>538.43200683594</ele>
        <time>2017-10-01T08:45:10Z</time>
      </trkpt>
      <trkpt lat="45.271" lon="5.83913">
        <ele>536.43200683594</ele>
        <time>2017-10-01T08:45:13Z</time>
      </trkpt>
      <trkpt lat="45.27093" lon="5.83932">
        <ele>534.43200683594</ele>
        <time>2017-10-01T08:45:16Z</time>
      </trkpt>
      <trkpt lat="45.27092" lon="5.8395">
        <ele>534.43200683594</ele>
        <time>2017-10-01T08:45:20Z</time>
      </trkpt>
      <trkpt lat="45.27092" lon="5.83962">
        <ele>534.43200683594</ele>
        <time>2017-10-01T08:45:22Z</time>
      </trkpt>
      <trkpt lat="45.27089" lon="5.83972">
        <ele>534.43200683594</ele>
        <time>2017-10-01T08:45:24Z</time>
      </trkpt>
      <trkpt lat="45.27086" lon="5.83977">
        <ele>533.43200683594</ele>
        <time>2017-10-01T08:45:25Z</time>
      </trkpt>
      <trkpt lat="45.27086" lon="5.83985">
        <ele>533.43200683594</ele>
        <time>2017-10-01T08:45:27Z</time>
      </trkpt>
      <trkpt lat="45.27086" lon="5.83996">
        <ele>531.43200683594</ele>
        <time>2017-10-01T08:45:29Z</time>
      </trkpt>
      <trkpt lat="45.27086" lon="5.84009">
        <ele>527.43200683594</ele>
        <time>2017-10-01T08:45:31Z</time>
      </trkpt>
      <trkpt lat="45.27084" lon="5.84022">
        <ele>525.43200683594</ele>
        <time>2017-10-01T08:45:33Z</time>
      </trkpt>
      <trkpt lat="45.27085" lon="5.84037">
        <ele>523.43200683594</ele>
        <time>2017-10-01T08:45:35Z</time>
      </trkpt>
      <trkpt lat="45.27083" lon="5.84058">
        <ele>521.43200683594</ele>
        <time>2017-10-01T08:45:38Z</time>
      </trkpt>
      <trkpt lat="45.27084" lon="5.84068">
        <ele>520.43200683594</ele>
        <time>2017-10-01T08:45:40Z</time>
      </trkpt>
      <trkpt lat="45.27085" lon="5.84078">
        <ele>517.43200683594</ele>
        <time>2017-10-01T08:45:42Z</time>
      </trkpt>
      <trkpt lat="45.27087" lon="5.84085">
        <ele>512.43200683594</ele>
        <time>2017-10-01T08:45:44Z</time>
      </trkpt>
      <trkpt lat="45.27088" lon="5.84093">
        <ele>509.43200683594</ele>
        <time>2017-10-01T08:45:46Z</time>
      </trkpt>
      <trkpt lat="45.27084" lon="5.84098">
        <ele>510.43200683594</ele>
        <time>2017-10-01T08:45:51Z</time>
      </trkpt>
      <trkpt lat="45.2708" lon="5.84102">
        <ele>505.43200683594</ele>
        <time>2017-10-01T08:46:02Z</time>
      </trkpt>
      <trkpt lat="45.2708" lon="5.84113">
        <ele>506.43200683594</ele>
        <time>2017-10-01T08:46:14Z</time>
      </trkpt>
      <trkpt lat="45.27082" lon="5.84123">
        <ele>504.43301391602</ele>
        <time>2017-10-01T08:46:16Z</time>
      </trkpt>
      <trkpt lat="45.27086" lon="5.84134">
        <ele>503.43301391602</ele>
        <time>2017-10-01T08:46:18Z</time>
      </trkpt>
      <trkpt lat="45.27088" lon="5.84142">
        <ele>502.43301391602</ele>
        <time>2017-10-01T08:46:19Z</time>
      </trkpt>
      <trkpt lat="45.2709" lon="5.84156">
        <ele>501.43301391602</ele>
        <time>2017-10-01T08:46:21Z</time>
      </trkpt>
      <trkpt lat="45.2709" lon="5.84169">
        <ele>499.43301391602</ele>
        <time>2017-10-01T08:46:23Z</time>
      </trkpt>
      <trkpt lat="45.27092" lon="5.84182">
        <ele>495.43301391602</ele>
        <time>2017-10-01T08:46:25Z</time>
      </trkpt>
      <trkpt lat="45.27091" lon="5.84201">
        <ele>495.43301391602</ele>
        <time>2017-10-01T08:46:27Z</time>
      </trkpt>
      <trkpt lat="45.27092" lon="5.84214">
        <ele>492.43301391602</ele>
        <time>2017-10-01T08:46:29Z</time>
      </trkpt>
      <trkpt lat="45.27093" lon="5.84228">
        <ele>491.43301391602</ele>
        <time>2017-10-01T08:46:31Z</time>
      </trkpt>
      <trkpt lat="45.2709" lon="5.84244">
        <ele>490.43301391602</ele>
        <time>2017-10-01T08:46:33Z</time>
      </trkpt>
      <trkpt lat="45.27089" lon="5.84251">
        <ele>489.43301391602</ele>
        <time>2017-10-01T08:46:34Z</time>
      </trkpt>
      <trkpt lat="45.27087" lon="5.84265">
        <ele>488.43301391602</ele>
        <time>2017-10-01T08:46:36Z</time>
      </trkpt>
      <trkpt lat="45.27086" lon="5.84275">
        <ele>483.43301391602</ele>
        <time>2017-10-01T08:46:38Z</time>
      </trkpt>
      <trkpt lat="45.27082" lon="5.84287">
        <ele>482.43301391602</ele>
        <time>2017-10-01T08:46:40Z</time>
      </trkpt>
      <trkpt lat="45.27076" lon="5.84298">
        <ele>483.43301391602</ele>
        <time>2017-10-01T08:46:42Z</time>
      </trkpt>
      <trkpt lat="45.27071" lon="5.84305">
        <ele>482.43301391602</ele>
        <time>2017-10-01T08:46:44Z</time>
      </trkpt>
      <trkpt lat="45.27067" lon="5.84315">
        <ele>480.43301391602</ele>
        <time>2017-10-01T08:46:46Z</time>
      </trkpt>
      <trkpt lat="45.27068" lon="5.84323">
        <ele>479.43301391602</ele>
        <time>2017-10-01T08:46:48Z</time>
      </trkpt>
      <trkpt lat="45.27068" lon="5.84332">
        <ele>475.43301391602</ele>
        <time>2017-10-01T08:46:50Z</time>
      </trkpt>
      <trkpt lat="45.27069" lon="5.84349">
        <ele>475.43301391602</ele>
        <time>2017-10-01T08:46:52Z</time>
      </trkpt>
      <trkpt lat="45.2707" lon="5.84356">
        <ele>475.43301391602</ele>
        <time>2017-10-01T08:46:53Z</time>
      </trkpt>
      <trkpt lat="45.27071" lon="5.84371">
        <ele>474.43301391602</ele>
        <time>2017-10-01T08:46:55Z</time>
      </trkpt>
      <trkpt lat="45.27078" lon="5.84387">
        <ele>478.43301391602</ele>
        <time>2017-10-01T08:46:57Z</time>
      </trkpt>
      <trkpt lat="45.27082" lon="5.844">
        <ele>478.43301391602</ele>
        <time>2017-10-01T08:46:59Z</time>
      </trkpt>
      <trkpt lat="45.27088" lon="5.84409">
        <ele>475.43301391602</ele>
        <time>2017-10-01T08:47:01Z</time>
      </trkpt>
      <trkpt lat="45.2709" lon="5.84416">
        <ele>475.43301391602</ele>
        <time>2017-10-01T08:47:02Z</time>
      </trkpt>
      <trkpt lat="45.27094" lon="5.84439">
        <ele>473.43301391602</ele>
        <time>2017-10-01T08:47:05Z</time>
      </trkpt>
      <trkpt lat="45.27094" lon="5.84448">
        <ele>472.43301391602</ele>
        <time>2017-10-01T08:47:06Z</time>
      </trkpt>
      <trkpt lat="45.27103" lon="5.84464">
        <ele>469.43301391602</ele>
        <time>2017-10-01T08:47:09Z</time>
      </trkpt>
      <trkpt lat="45.27107" lon="5.84476">
        <ele>468.43301391602</ele>
        <time>2017-10-01T08:47:11Z</time>
      </trkpt>
      <trkpt lat="45.27112" lon="5.84492">
        <ele>469.43301391602</ele>
        <time>2017-10-01T08:47:13Z</time>
      </trkpt>
      <trkpt lat="45.27119" lon="5.84498">
        <ele>466.43301391602</ele>
        <time>2017-10-01T08:47:15Z</time>
      </trkpt>
      <trkpt lat="45.27126" lon="5.84506">
        <ele>464.43301391602</ele>
        <time>2017-10-01T08:47:17Z</time>
      </trkpt>
      <trkpt lat="45.2713" lon="5.84516">
        <ele>462.43301391602</ele>
        <time>2017-10-01T08:47:19Z</time>
      </trkpt>
      <trkpt lat="45.27131" lon="5.8453">
        <ele>462.43301391602</ele>
        <time>2017-10-01T08:47:21Z</time>
      </trkpt>
      <trkpt lat="45.2713" lon="5.84544">
        <ele>461.43301391602</ele>
        <time>2017-10-01T08:47:23Z</time>
      </trkpt>
      <trkpt lat="45.27128" lon="5.84559">
        <ele>460.43301391602</ele>
        <time>2017-10-01T08:47:25Z</time>
      </trkpt>
      <trkpt lat="45.27128" lon="5.84572">
        <ele>459.43301391602</ele>
        <time>2017-10-01T08:47:27Z</time>
      </trkpt>
      <trkpt lat="45.2713" lon="5.84586">
        <ele>457.43301391602</ele>
        <time>2017-10-01T08:47:29Z</time>
      </trkpt>
      <trkpt lat="45.27139" lon="5.84594">
        <ele>455.43301391602</ele>
        <time>2017-10-01T08:47:31Z</time>
      </trkpt>
      <trkpt lat="45.27145" lon="5.84608">
        <ele>453.43301391602</ele>
        <time>2017-10-01T08:47:33Z</time>
      </trkpt>
      <trkpt lat="45.2715" lon="5.84625">
        <ele>452.43301391602</ele>
        <time>2017-10-01T08:47:35Z</time>
      </trkpt>
      <trkpt lat="45.27154" lon="5.84639">
        <ele>451.43301391602</ele>
        <time>2017-10-01T08:47:37Z</time>
      </trkpt>
      <trkpt lat="45.27158" lon="5.84656">
        <ele>447.43301391602</ele>
        <time>2017-10-01T08:47:39Z</time>
      </trkpt>
      <trkpt lat="45.27158" lon="5.84662">
        <ele>445.43301391602</ele>
        <time>2017-10-01T08:47:40Z</time>
      </trkpt>
      <trkpt lat="45.27161" lon="5.84681">
        <ele>439.43301391602</ele>
        <time>2017-10-01T08:47:43Z</time>
      </trkpt>
      <trkpt lat="45.27161" lon="5.84697">
        <ele>437.43301391602</ele>
        <time>2017-10-01T08:47:45Z</time>
      </trkpt>
      <trkpt lat="45.27162" lon="5.84715">
        <ele>437.43301391602</ele>
        <time>2017-10-01T08:47:47Z</time>
      </trkpt>
      <trkpt lat="45.27161" lon="5.84733">
        <ele>435.43301391602</ele>
        <time>2017-10-01T08:47:49Z</time>
      </trkpt>
      <trkpt lat="45.2716" lon="5.84751">
        <ele>434.43399047852</ele>
        <time>2017-10-01T08:47:51Z</time>
      </trkpt>
      <trkpt lat="45.27158" lon="5.84768">
        <ele>431.43399047852</ele>
        <time>2017-10-01T08:47:53Z</time>
      </trkpt>
      <trkpt lat="45.27157" lon="5.84784">
        <ele>430.43399047852</ele>
        <time>2017-10-01T08:47:55Z</time>
      </trkpt>
      <trkpt lat="45.27155" lon="5.84801">
        <ele>430.43399047852</ele>
        <time>2017-10-01T08:47:57Z</time>
      </trkpt>
      <trkpt lat="45.27153" lon="5.84817">
        <ele>429.43399047852</ele>
        <time>2017-10-01T08:47:59Z</time>
      </trkpt>
      <trkpt lat="45.27148" lon="5.84832">
        <ele>427.43399047852</ele>
        <time>2017-10-01T08:48:01Z</time>
      </trkpt>
      <trkpt lat="45.27147" lon="5.84849">
        <ele>427.43399047852</ele>
        <time>2017-10-01T08:48:03Z</time>
      </trkpt>
      <trkpt lat="45.27146" lon="5.84866">
        <ele>426.43399047852</ele>
        <time>2017-10-01T08:48:05Z</time>
      </trkpt>
      <trkpt lat="45.27145" lon="5.84874">
        <ele>426.43399047852</ele>
        <time>2017-10-01T08:48:06Z</time>
      </trkpt>
      <trkpt lat="45.27144" lon="5.84888">
        <ele>424.43399047852</ele>
        <time>2017-10-01T08:48:08Z</time>
      </trkpt>
      <trkpt lat="45.27143" lon="5.84903">
        <ele>422.43399047852</ele>
        <time>2017-10-01T08:48:10Z</time>
      </trkpt>
      <trkpt lat="45.27143" lon="5.84918">
        <ele>421.43399047852</ele>
        <time>2017-10-01T08:48:12Z</time>
      </trkpt>
      <trkpt lat="45.27141" lon="5.84934">
        <ele>419.43399047852</ele>
        <time>2017-10-01T08:48:14Z</time>
      </trkpt>
      <trkpt lat="45.27137" lon="5.84949">
        <ele>418.43399047852</ele>
        <time>2017-10-01T08:48:16Z</time>
      </trkpt>
      <trkpt lat="45.27136" lon="5.84964">
        <ele>416.43399047852</ele>
        <time>2017-10-01T08:48:18Z</time>
      </trkpt>
      <trkpt lat="45.27133" lon="5.8498">
        <ele>416.43399047852</ele>
        <time>2017-10-01T08:48:20Z</time>
      </trkpt>
      <trkpt lat="45.27132" lon="5.84997">
        <ele>415.43399047852</ele>
        <time>2017-10-01T08:48:22Z</time>
      </trkpt>
      <trkpt lat="45.27131" lon="5.85013">
        <ele>415.43399047852</ele>
        <time>2017-10-01T08:48:24Z</time>
      </trkpt>
      <trkpt lat="45.2713" lon="5.85021">
        <ele>414.43399047852</ele>
        <time>2017-10-01T08:48:25Z</time>
      </trkpt>
      <trkpt lat="45.27132" lon="5.85036">
        <ele>413.43399047852</ele>
        <time>2017-10-01T08:48:27Z</time>
      </trkpt>
      <trkpt lat="45.27134" lon="5.85051">
        <ele>414.43399047852</ele>
        <time>2017-10-01T08:48:29Z</time>
      </trkpt>
      <trkpt lat="45.27136" lon="5.85066">
        <ele>414.43399047852</ele>
        <time>2017-10-01T08:48:31Z</time>
      </trkpt>
      <trkpt lat="45.27136" lon="5.85082">
        <ele>413.43399047852</ele>
        <time>2017-10-01T08:48:33Z</time>
      </trkpt>
      <trkpt lat="45.27137" lon="5.85099">
        <ele>414.43399047852</ele>
        <time>2017-10-01T08:48:35Z</time>
      </trkpt>
      <trkpt lat="45.27136" lon="5.8511">
        <ele>412.43399047852</ele>
        <time>2017-10-01T08:48:37Z</time>
      </trkpt>
      <trkpt lat="45.27135" lon="5.85125">
        <ele>411.43399047852</ele>
        <time>2017-10-01T08:48:39Z</time>
      </trkpt>
      <trkpt lat="45.27135" lon="5.85139">
        <ele>408.43399047852</ele>
        <time>2017-10-01T08:48:41Z</time>
      </trkpt>
      <trkpt lat="45.27134" lon="5.85156">
        <ele>405.43399047852</ele>
        <time>2017-10-01T08:48:43Z</time>
      </trkpt>
      <trkpt lat="45.27134" lon="5.8517">
        <ele>404.43399047852</ele>
        <time>2017-10-01T08:48:45Z</time>
      </trkpt>
      <trkpt lat="45.27135" lon="5.85178">
        <ele>404.43399047852</ele>
        <time>2017-10-01T08:48:46Z</time>
      </trkpt>
      <trkpt lat="45.27135" lon="5.85192">
        <ele>403.43399047852</ele>
        <time>2017-10-01T08:48:48Z</time>
      </trkpt>
      <trkpt lat="45.27133" lon="5.85204">
        <ele>402.43399047852</ele>
        <time>2017-10-01T08:48:50Z</time>
      </trkpt>
      <trkpt lat="45.2713" lon="5.85222">
        <ele>400.43399047852</ele>
        <time>2017-10-01T08:48:53Z</time>
      </trkpt>
      <trkpt lat="45.27128" lon="5.85235">
        <ele>398.43399047852</ele>
        <time>2017-10-01T08:48:55Z</time>
      </trkpt>
      <trkpt lat="45.27126" lon="5.8525">
        <ele>397.43399047852</ele>
        <time>2017-10-01T08:48:57Z</time>
      </trkpt>
      <trkpt lat="45.27127" lon="5.8527">
        <ele>394.43399047852</ele>
        <time>2017-10-01T08:49:00Z</time>
      </trkpt>
      <trkpt lat="45.27126" lon="5.85282">
        <ele>392.43399047852</ele>
        <time>2017-10-01T08:49:02Z</time>
      </trkpt>
      <trkpt lat="45.27123" lon="5.85299">
        <ele>391.43399047852</ele>
        <time>2017-10-01T08:49:04Z</time>
      </trkpt>
      <trkpt lat="45.27121" lon="5.85312">
        <ele>390.43399047852</ele>
        <time>2017-10-01T08:49:06Z</time>
      </trkpt>
      <trkpt lat="45.27119" lon="5.85329">
        <ele>390.43399047852</ele>
        <time>2017-10-01T08:49:08Z</time>
      </trkpt>
      <trkpt lat="45.2712" lon="5.85337">
        <ele>390.43399047852</ele>
        <time>2017-10-01T08:49:09Z</time>
      </trkpt>
      <trkpt lat="45.27121" lon="5.85351">
        <ele>389.43399047852</ele>
        <time>2017-10-01T08:49:11Z</time>
      </trkpt>
      <trkpt lat="45.27124" lon="5.85368">
        <ele>387.43399047852</ele>
        <time>2017-10-01T08:49:13Z</time>
      </trkpt>
      <trkpt lat="45.27126" lon="5.85382">
        <ele>385.43399047852</ele>
        <time>2017-10-01T08:49:15Z</time>
      </trkpt>
      <trkpt lat="45.27128" lon="5.85401">
        <ele>384.43399047852</ele>
        <time>2017-10-01T08:49:17Z</time>
      </trkpt>
      <trkpt lat="45.27127" lon="5.85422">
        <ele>381.43399047852</ele>
        <time>2017-10-01T08:49:20Z</time>
      </trkpt>
      <trkpt lat="45.27128" lon="5.85439">
        <ele>380.43399047852</ele>
        <time>2017-10-01T08:49:23Z</time>
      </trkpt>
      <trkpt lat="45.27128" lon="5.85449">
        <ele>377.43399047852</ele>
        <time>2017-10-01T08:49:25Z</time>
      </trkpt>
      <trkpt lat="45.2713" lon="5.85459">
        <ele>376.43399047852</ele>
        <time>2017-10-01T08:49:27Z</time>
      </trkpt>
      <trkpt lat="45.27132" lon="5.85477">
        <ele>374.43399047852</ele>
        <time>2017-10-01T08:49:30Z</time>
      </trkpt>
      <trkpt lat="45.27132" lon="5.85492">
        <ele>374.43399047852</ele>
        <time>2017-10-01T08:49:32Z</time>
      </trkpt>
      <trkpt lat="45.27132" lon="5.85506">
        <ele>374.43399047852</ele>
        <time>2017-10-01T08:49:34Z</time>
      </trkpt>
      <trkpt lat="45.27133" lon="5.85524">
        <ele>373.43499755859</ele>
        <time>2017-10-01T08:49:36Z</time>
      </trkpt>
      <trkpt lat="45.27137" lon="5.85547">
        <ele>371.43499755859</ele>
        <time>2017-10-01T08:49:38Z</time>
      </trkpt>
      <trkpt lat="45.27141" lon="5.85572">
        <ele>371.43499755859</ele>
        <time>2017-10-01T08:49:40Z</time>
      </trkpt>
      <trkpt lat="45.27146" lon="5.85594">
        <ele>370.43499755859</ele>
        <time>2017-10-01T08:49:42Z</time>
      </trkpt>
      <trkpt lat="45.2715" lon="5.85619">
        <ele>370.43499755859</ele>
        <time>2017-10-01T08:49:44Z</time>
      </trkpt>
      <trkpt lat="45.27154" lon="5.85629">
        <ele>371.43499755859</ele>
        <time>2017-10-01T08:49:45Z</time>
      </trkpt>
      <trkpt lat="45.27155" lon="5.85641">
        <ele>370.43499755859</ele>
        <time>2017-10-01T08:49:46Z</time>
      </trkpt>
      <trkpt lat="45.27157" lon="5.85651">
        <ele>369.43499755859</ele>
        <time>2017-10-01T08:49:47Z</time>
      </trkpt>
      <trkpt lat="45.27161" lon="5.85675">
        <ele>369.43499755859</ele>
        <time>2017-10-01T08:49:49Z</time>
      </trkpt>
      <trkpt lat="45.27165" lon="5.8569">
        <ele>368.43499755859</ele>
        <time>2017-10-01T08:49:51Z</time>
      </trkpt>
      <trkpt lat="45.2717" lon="5.85703">
        <ele>365.43499755859</ele>
        <time>2017-10-01T08:49:53Z</time>
      </trkpt>
      <trkpt lat="45.27181" lon="5.85713">
        <ele>362.43499755859</ele>
        <time>2017-10-01T08:49:55Z</time>
      </trkpt>
      <trkpt lat="45.27186" lon="5.8572">
        <ele>361.43499755859</ele>
        <time>2017-10-01T08:49:56Z</time>
      </trkpt>
      <trkpt lat="45.27197" lon="5.85735">
        <ele>361.43499755859</ele>
        <time>2017-10-01T08:49:58Z</time>
      </trkpt>
      <trkpt lat="45.2721" lon="5.85751">
        <ele>360.43499755859</ele>
        <time>2017-10-01T08:50:00Z</time>
      </trkpt>
      <trkpt lat="45.27223" lon="5.8577">
        <ele>360.43499755859</ele>
        <time>2017-10-01T08:50:02Z</time>
      </trkpt>
      <trkpt lat="45.27238" lon="5.85786">
        <ele>359.43499755859</ele>
        <time>2017-10-01T08:50:04Z</time>
      </trkpt>
      <trkpt lat="45.27254" lon="5.85799">
        <ele>356.43499755859</ele>
        <time>2017-10-01T08:50:06Z</time>
      </trkpt>
      <trkpt lat="45.27269" lon="5.85815">
        <ele>355.43499755859</ele>
        <time>2017-10-01T08:50:08Z</time>
      </trkpt>
      <trkpt lat="45.27284" lon="5.85831">
        <ele>354.43499755859</ele>
        <time>2017-10-01T08:50:10Z</time>
      </trkpt>
      <trkpt lat="45.27289" lon="5.8584">
        <ele>352.43499755859</ele>
        <time>2017-10-01T08:50:11Z</time>
      </trkpt>
      <trkpt lat="45.27302" lon="5.85856">
        <ele>350.43499755859</ele>
        <time>2017-10-01T08:50:13Z</time>
      </trkpt>
      <trkpt lat="45.27316" lon="5.85872">
        <ele>345.43499755859</ele>
        <time>2017-10-01T08:50:15Z</time>
      </trkpt>
      <trkpt lat="45.27328" lon="5.85885">
        <ele>344.43499755859</ele>
        <time>2017-10-01T08:50:17Z</time>
      </trkpt>
      <trkpt lat="45.27334" lon="5.85895">
        <ele>343.43499755859</ele>
        <time>2017-10-01T08:50:18Z</time>
      </trkpt>
      <trkpt lat="45.27345" lon="5.85914">
        <ele>343.43499755859</ele>
        <time>2017-10-01T08:50:20Z</time>
      </trkpt>
      <trkpt lat="45.27355" lon="5.85933">
        <ele>342.43600463867</ele>
        <time>2017-10-01T08:50:22Z</time>
      </trkpt>
      <trkpt lat="45.27361" lon="5.85954">
        <ele>340.43600463867</ele>
        <time>2017-10-01T08:50:24Z</time>
      </trkpt>
      <trkpt lat="45.27361" lon="5.85964">
        <ele>338.43600463867</ele>
        <time>2017-10-01T08:50:25Z</time>
      </trkpt>
      <trkpt lat="45.27362" lon="5.85977">
        <ele>337.43600463867</ele>
        <time>2017-10-01T08:50:27Z</time>
      </trkpt>
      <trkpt lat="45.27366" lon="5.85987">
        <ele>336.43600463867</ele>
        <time>2017-10-01T08:50:29Z</time>
      </trkpt>
      <trkpt lat="45.27376" lon="5.85992">
        <ele>336.43600463867</ele>
        <time>2017-10-01T08:50:31Z</time>
      </trkpt>
      <trkpt lat="45.2739" lon="5.85992">
        <ele>336.43600463867</ele>
        <time>2017-10-01T08:50:33Z</time>
      </trkpt>
      <trkpt lat="45.27401" lon="5.85999">
        <ele>336.43600463867</ele>
        <time>2017-10-01T08:50:35Z</time>
      </trkpt>
      <trkpt lat="45.27415" lon="5.86005">
        <ele>335.43600463867</ele>
        <time>2017-10-01T08:50:37Z</time>
      </trkpt>
      <trkpt lat="45.27428" lon="5.86009">
        <ele>335.43600463867</ele>
        <time>2017-10-01T08:50:39Z</time>
      </trkpt>
      <trkpt lat="45.27434" lon="5.86011">
        <ele>335.43600463867</ele>
        <time>2017-10-01T08:50:40Z</time>
      </trkpt>
      <trkpt lat="45.2745" lon="5.86011">
        <ele>335.43600463867</ele>
        <time>2017-10-01T08:50:42Z</time>
      </trkpt>
      <trkpt lat="45.27465" lon="5.86017">
        <ele>334.43600463867</ele>
        <time>2017-10-01T08:50:44Z</time>
      </trkpt>
      <trkpt lat="45.27471" lon="5.8602">
        <ele>333.43600463867</ele>
        <time>2017-10-01T08:50:45Z</time>
      </trkpt>
      <trkpt lat="45.27485" lon="5.86027">
        <ele>334.43600463867</ele>
        <time>2017-10-01T08:50:47Z</time>
      </trkpt>
      <trkpt lat="45.275" lon="5.86035">
        <ele>334.43600463867</ele>
        <time>2017-10-01T08:50:49Z</time>
      </trkpt>
      <trkpt lat="45.27516" lon="5.86039">
        <ele>334.43600463867</ele>
        <time>2017-10-01T08:50:51Z</time>
      </trkpt>
      <trkpt lat="45.27532" lon="5.86038">
        <ele>330.43600463867</ele>
        <time>2017-10-01T08:50:53Z</time>
      </trkpt>
      <trkpt lat="45.27545" lon="5.86038">
        <ele>329.43600463867</ele>
        <time>2017-10-01T08:50:55Z</time>
      </trkpt>
      <trkpt lat="45.27558" lon="5.86034">
        <ele>328.43600463867</ele>
        <time>2017-10-01T08:50:57Z</time>
      </trkpt>
      <trkpt lat="45.2757" lon="5.86031">
        <ele>328.43600463867</ele>
        <time>2017-10-01T08:50:59Z</time>
      </trkpt>
      <trkpt lat="45.27581" lon="5.86039">
        <ele>329.43600463867</ele>
        <time>2017-10-01T08:51:02Z</time>
      </trkpt>
      <trkpt lat="45.27587" lon="5.86049">
        <ele>331.43600463867</ele>
        <time>2017-10-01T08:51:04Z</time>
      </trkpt>
      <trkpt lat="45.27592" lon="5.86061">
        <ele>330.43600463867</ele>
        <time>2017-10-01T08:51:06Z</time>
      </trkpt>
      <trkpt lat="45.27597" lon="5.86072">
        <ele>329.43600463867</ele>
        <time>2017-10-01T08:51:08Z</time>
      </trkpt>
      <trkpt lat="45.27604" lon="5.86082">
        <ele>329.43600463867</ele>
        <time>2017-10-01T08:51:10Z</time>
      </trkpt>
      <trkpt lat="45.27605" lon="5.86089">
        <ele>325.43600463867</ele>
        <time>2017-10-01T08:51:12Z</time>
      </trkpt>
      <trkpt lat="45.27607" lon="5.861">
        <ele>324.43600463867</ele>
        <time>2017-10-01T08:51:14Z</time>
      </trkpt>
      <trkpt lat="45.27598" lon="5.86116">
        <ele>322.43600463867</ele>
        <time>2017-10-01T08:51:17Z</time>
      </trkpt>
      <trkpt lat="45.27594" lon="5.86126">
        <ele>320.43600463867</ele>
        <time>2017-10-01T08:51:19Z</time>
      </trkpt>
      <trkpt lat="45.2759" lon="5.86132">
        <ele>320.43600463867</ele>
        <time>2017-10-01T08:51:21Z</time>
      </trkpt>
      <trkpt lat="45.2759" lon="5.8614">
        <ele>318.43600463867</ele>
        <time>2017-10-01T08:51:23Z</time>
      </trkpt>
      <trkpt lat="45.27594" lon="5.86148">
        <ele>319.43600463867</ele>
        <time>2017-10-01T08:51:25Z</time>
      </trkpt>
      <trkpt lat="45.27599" lon="5.86162">
        <ele>316.43600463867</ele>
        <time>2017-10-01T08:51:28Z</time>
      </trkpt>
      <trkpt lat="45.276" lon="5.86183">
        <ele>315.43600463867</ele>
        <time>2017-10-01T08:51:31Z</time>
      </trkpt>
      <trkpt lat="45.27599" lon="5.86202">
        <ele>312.43600463867</ele>
        <time>2017-10-01T08:51:33Z</time>
      </trkpt>
      <trkpt lat="45.27602" lon="5.86222">
        <ele>311.43600463867</ele>
        <time>2017-10-01T08:51:35Z</time>
      </trkpt>
      <trkpt lat="45.27601" lon="5.86244">
        <ele>311.43600463867</ele>
        <time>2017-10-01T08:51:37Z</time>
      </trkpt>
      <trkpt lat="45.27602" lon="5.86265">
        <ele>310.43600463867</ele>
        <time>2017-10-01T08:51:39Z</time>
      </trkpt>
      <trkpt lat="45.27602" lon="5.86284">
        <ele>306.43701171875</ele>
        <time>2017-10-01T08:51:41Z</time>
      </trkpt>
      <trkpt lat="45.27603" lon="5.86303">
        <ele>303.43701171875</ele>
        <time>2017-10-01T08:51:43Z</time>
      </trkpt>
      <trkpt lat="45.27607" lon="5.8632">
        <ele>301.43701171875</ele>
        <time>2017-10-01T08:51:45Z</time>
      </trkpt>
      <trkpt lat="45.27615" lon="5.86338">
        <ele>300.43701171875</ele>
        <time>2017-10-01T08:51:47Z</time>
      </trkpt>
      <trkpt lat="45.27619" lon="5.86345">
        <ele>298.43701171875</ele>
        <time>2017-10-01T08:51:48Z</time>
      </trkpt>
      <trkpt lat="45.27632" lon="5.86361">
        <ele>297.43701171875</ele>
        <time>2017-10-01T08:51:50Z</time>
      </trkpt>
      <trkpt lat="45.27644" lon="5.86376">
        <ele>297.43701171875</ele>
        <time>2017-10-01T08:51:52Z</time>
      </trkpt>
      <trkpt lat="45.27657" lon="5.86393">
        <ele>298.43701171875</ele>
        <time>2017-10-01T08:51:54Z</time>
      </trkpt>
      <trkpt lat="45.27667" lon="5.8641">
        <ele>296.43701171875</ele>
        <time>2017-10-01T08:51:56Z</time>
      </trkpt>
      <trkpt lat="45.27673" lon="5.86437">
        <ele>293.43701171875</ele>
        <time>2017-10-01T08:51:58Z</time>
      </trkpt>
      <trkpt lat="45.27682" lon="5.8646">
        <ele>294.43701171875</ele>
        <time>2017-10-01T08:52:00Z</time>
      </trkpt>
      <trkpt lat="45.27689" lon="5.86479">
        <ele>293.43701171875</ele>
        <time>2017-10-01T08:52:02Z</time>
      </trkpt>
      <trkpt lat="45.27697" lon="5.86509">
        <ele>291.43701171875</ele>
        <time>2017-10-01T08:52:05Z</time>
      </trkpt>
      <trkpt lat="45.27697" lon="5.86521">
        <ele>290.43701171875</ele>
        <time>2017-10-01T08:52:06Z</time>
      </trkpt>
      <trkpt lat="45.27699" lon="5.86541">
        <ele>289.43701171875</ele>
        <time>2017-10-01T08:52:08Z</time>
      </trkpt>
      <trkpt lat="45.27697" lon="5.86561">
        <ele>289.43701171875</ele>
        <time>2017-10-01T08:52:10Z</time>
      </trkpt>
      <trkpt lat="45.27693" lon="5.86571">
        <ele>289.43701171875</ele>
        <time>2017-10-01T08:52:11Z</time>
      </trkpt>
      <trkpt lat="45.27684" lon="5.86588">
        <ele>287.43701171875</ele>
        <time>2017-10-01T08:52:13Z</time>
      </trkpt>
      <trkpt lat="45.27679" lon="5.86592">
        <ele>286.43701171875</ele>
        <time>2017-10-01T08:52:14Z</time>
      </trkpt>
      <trkpt lat="45.27672" lon="5.86612">
        <ele>285.43701171875</ele>
        <time>2017-10-01T08:52:16Z</time>
      </trkpt>
      <trkpt lat="45.27672" lon="5.86629">
        <ele>286.43701171875</ele>
        <time>2017-10-01T08:52:18Z</time>
      </trkpt>
      <trkpt lat="45.27679" lon="5.86648">
        <ele>284.43701171875</ele>
        <time>2017-10-01T08:52:20Z</time>
      </trkpt>
      <trkpt lat="45.27688" lon="5.86671">
        <ele>284.43701171875</ele>
        <time>2017-10-01T08:52:22Z</time>
      </trkpt>
      <trkpt lat="45.27695" lon="5.86685">
        <ele>285.43701171875</ele>
        <time>2017-10-01T08:52:24Z</time>
      </trkpt>
      <trkpt lat="45.27702" lon="5.86698">
        <ele>284.43701171875</ele>
        <time>2017-10-01T08:52:27Z</time>
      </trkpt>
      <trkpt lat="45.277" lon="5.86718">
        <ele>283.43701171875</ele>
        <time>2017-10-01T08:52:29Z</time>
      </trkpt>
      <trkpt lat="45.27703" lon="5.86735">
        <ele>285.43701171875</ele>
        <time>2017-10-01T08:52:31Z</time>
      </trkpt>
      <trkpt lat="45.2771" lon="5.86749">
        <ele>286.43701171875</ele>
        <time>2017-10-01T08:52:33Z</time>
      </trkpt>
      <trkpt lat="45.2772" lon="5.86764">
        <ele>287.43701171875</ele>
        <time>2017-10-01T08:52:35Z</time>
      </trkpt>
      <trkpt lat="45.27729" lon="5.8678">
        <ele>287.43701171875</ele>
        <time>2017-10-01T08:52:37Z</time>
      </trkpt>
      <trkpt lat="45.27739" lon="5.86795">
        <ele>286.43798828125</ele>
        <time>2017-10-01T08:52:39Z</time>
      </trkpt>
      <trkpt lat="45.27747" lon="5.86812">
        <ele>285.43798828125</ele>
        <time>2017-10-01T08:52:41Z</time>
      </trkpt>
      <trkpt lat="45.27756" lon="5.86828">
        <ele>285.43798828125</ele>
        <time>2017-10-01T08:52:43Z</time>
      </trkpt>
      <trkpt lat="45.27766" lon="5.86845">
        <ele>285.43798828125</ele>
        <time>2017-10-01T08:52:45Z</time>
      </trkpt>
      <trkpt lat="45.27771" lon="5.86864">
        <ele>285.43798828125</ele>
        <time>2017-10-01T08:52:47Z</time>
      </trkpt>
      <trkpt lat="45.27774" lon="5.86885">
        <ele>282.43798828125</ele>
        <time>2017-10-01T08:52:49Z</time>
      </trkpt>
      <trkpt lat="45.27776" lon="5.86893">
        <ele>280.43798828125</ele>
        <time>2017-10-01T08:52:50Z</time>
      </trkpt>
      <trkpt lat="45.27779" lon="5.86905">
        <ele>279.43798828125</ele>
        <time>2017-10-01T08:52:52Z</time>
      </trkpt>
      <trkpt lat="45.27772" lon="5.86917">
        <ele>278.43798828125</ele>
        <time>2017-10-01T08:52:54Z</time>
      </trkpt>
      <trkpt lat="45.27759" lon="5.86925">
        <ele>276.43798828125</ele>
        <time>2017-10-01T08:52:56Z</time>
      </trkpt>
      <trkpt lat="45.27754" lon="5.86928">
        <ele>276.43798828125</ele>
        <time>2017-10-01T08:52:57Z</time>
      </trkpt>
      <trkpt lat="45.27747" lon="5.86943">
        <ele>278.43798828125</ele>
        <time>2017-10-01T08:52:59Z</time>
      </trkpt>
      <trkpt lat="45.2775" lon="5.86963">
        <ele>275.43798828125</ele>
        <time>2017-10-01T08:53:01Z</time>
      </trkpt>
      <trkpt lat="45.27752" lon="5.86985">
        <ele>276.43798828125</ele>
        <time>2017-10-01T08:53:03Z</time>
      </trkpt>
      <trkpt lat="45.27754" lon="5.87003">
        <ele>273.43798828125</ele>
        <time>2017-10-01T08:53:05Z</time>
      </trkpt>
      <trkpt lat="45.27758" lon="5.87017">
        <ele>269.43798828125</ele>
        <time>2017-10-01T08:53:07Z</time>
      </trkpt>
      <trkpt lat="45.27756" lon="5.87039">
        <ele>269.43798828125</ele>
        <time>2017-10-01T08:53:09Z</time>
      </trkpt>
      <trkpt lat="45.27754" lon="5.87051">
        <ele>268.43798828125</ele>
        <time>2017-10-01T08:53:10Z</time>
      </trkpt>
      <trkpt lat="45.2775" lon="5.87067">
        <ele>264.43798828125</ele>
        <time>2017-10-01T08:53:12Z</time>
      </trkpt>
      <trkpt lat="45.27743" lon="5.87088">
        <ele>265.43798828125</ele>
        <time>2017-10-01T08:53:14Z</time>
      </trkpt>
      <trkpt lat="45.27735" lon="5.87107">
        <ele>264.43798828125</ele>
        <time>2017-10-01T08:53:16Z</time>
      </trkpt>
      <trkpt lat="45.27727" lon="5.87127">
        <ele>264.43798828125</ele>
        <time>2017-10-01T08:53:18Z</time>
      </trkpt>
      <trkpt lat="45.27718" lon="5.87148">
        <ele>261.43798828125</ele>
        <time>2017-10-01T08:53:20Z</time>
      </trkpt>
      <trkpt lat="45.27709" lon="5.87164">
        <ele>263.43798828125</ele>
        <time>2017-10-01T08:53:22Z</time>
      </trkpt>
      <trkpt lat="45.277" lon="5.8718">
        <ele>262.43798828125</ele>
        <time>2017-10-01T08:53:24Z</time>
      </trkpt>
      <trkpt lat="45.27693" lon="5.87198">
        <ele>264.43798828125</ele>
        <time>2017-10-01T08:53:26Z</time>
      </trkpt>
      <trkpt lat="45.2769" lon="5.87208">
        <ele>265.43798828125</ele>
        <time>2017-10-01T08:53:27Z</time>
      </trkpt>
      <trkpt lat="45.27686" lon="5.87226">
        <ele>267.43798828125</ele>
        <time>2017-10-01T08:53:29Z</time>
      </trkpt>
      <trkpt lat="45.27692" lon="5.87241">
        <ele>269.43798828125</ele>
        <time>2017-10-01T08:53:31Z</time>
      </trkpt>
      <trkpt lat="45.27699" lon="5.87256">
        <ele>269.43798828125</ele>
        <time>2017-10-01T08:53:33Z</time>
      </trkpt>
      <trkpt lat="45.27705" lon="5.8727">
        <ele>269.43798828125</ele>
        <time>2017-10-01T08:53:35Z</time>
      </trkpt>
      <trkpt lat="45.27715" lon="5.87283">
        <ele>271.43798828125</ele>
        <time>2017-10-01T08:53:37Z</time>
      </trkpt>
      <trkpt lat="45.2772" lon="5.87289">
        <ele>271.43798828125</ele>
        <time>2017-10-01T08:53:38Z</time>
      </trkpt>
      <trkpt lat="45.27731" lon="5.87302">
        <ele>269.43798828125</ele>
        <time>2017-10-01T08:53:40Z</time>
      </trkpt>
      <trkpt lat="45.27741" lon="5.87317">
        <ele>268.43798828125</ele>
        <time>2017-10-01T08:53:42Z</time>
      </trkpt>
      <trkpt lat="45.27746" lon="5.87324">
        <ele>266.43798828125</ele>
        <time>2017-10-01T08:53:43Z</time>
      </trkpt>
      <trkpt lat="45.27752" lon="5.8733">
        <ele>266.43798828125</ele>
        <time>2017-10-01T08:53:44Z</time>
      </trkpt>
      <trkpt lat="45.27762" lon="5.87343">
        <ele>266.43798828125</ele>
        <time>2017-10-01T08:53:46Z</time>
      </trkpt>
      <trkpt lat="45.27768" lon="5.87351">
        <ele>266.43798828125</ele>
        <time>2017-10-01T08:53:47Z</time>
      </trkpt>
      <trkpt lat="45.27779" lon="5.87362">
        <ele>267.43798828125</ele>
        <time>2017-10-01T08:53:49Z</time>
      </trkpt>
      <trkpt lat="45.27791" lon="5.87376">
        <ele>266.43798828125</ele>
        <time>2017-10-01T08:53:51Z</time>
      </trkpt>
      <trkpt lat="45.27801" lon="5.87391">
        <ele>264.43798828125</ele>
        <time>2017-10-01T08:53:53Z</time>
      </trkpt>
      <trkpt lat="45.27811" lon="5.87405">
        <ele>264.43798828125</ele>
        <time>2017-10-01T08:53:55Z</time>
      </trkpt>
      <trkpt lat="45.27817" lon="5.8741">
        <ele>266.43899536133</ele>
        <time>2017-10-01T08:53:56Z</time>
      </trkpt>
      <trkpt lat="45.27827" lon="5.87426">
        <ele>265.43899536133</ele>
        <time>2017-10-01T08:53:58Z</time>
      </trkpt>
      <trkpt lat="45.27836" lon="5.87439">
        <ele>265.43899536133</ele>
        <time>2017-10-01T08:54:00Z</time>
      </trkpt>
      <trkpt lat="45.27844" lon="5.87444">
        <ele>264.43899536133</ele>
        <time>2017-10-01T08:54:02Z</time>
      </trkpt>
      <trkpt lat="45.2785" lon="5.87447">
        <ele>265.43899536133</ele>
        <time>2017-10-01T08:54:04Z</time>
      </trkpt>
      <trkpt lat="45.27855" lon="5.87457">
        <ele>264.43899536133</ele>
        <time>2017-10-01T08:54:06Z</time>
      </trkpt>
      <trkpt lat="45.27866" lon="5.87471">
        <ele>264.43899536133</ele>
        <time>2017-10-01T08:54:09Z</time>
      </trkpt>
      <trkpt lat="45.27874" lon="5.87479">
        <ele>263.43899536133</ele>
        <time>2017-10-01T08:54:11Z</time>
      </trkpt>
      <trkpt lat="45.27884" lon="5.87489">
        <ele>263.43899536133</ele>
        <time>2017-10-01T08:54:13Z</time>
      </trkpt>
      <trkpt lat="45.27893" lon="5.875">
        <ele>263.43899536133</ele>
        <time>2017-10-01T08:54:15Z</time>
      </trkpt>
      <trkpt lat="45.27902" lon="5.87512">
        <ele>263.43899536133</ele>
        <time>2017-10-01T08:54:17Z</time>
      </trkpt>
      <trkpt lat="45.27909" lon="5.87516">
        <ele>262.43899536133</ele>
        <time>2017-10-01T08:54:18Z</time>
      </trkpt>
      <trkpt lat="45.27917" lon="5.87528">
        <ele>261.43899536133</ele>
        <time>2017-10-01T08:54:20Z</time>
      </trkpt>
      <trkpt lat="45.27927" lon="5.87541">
        <ele>259.43899536133</ele>
        <time>2017-10-01T08:54:22Z</time>
      </trkpt>
      <trkpt lat="45.27934" lon="5.87544">
        <ele>260.43899536133</ele>
        <time>2017-10-01T08:54:23Z</time>
      </trkpt>
      <trkpt lat="45.27944" lon="5.87553">
        <ele>260.43899536133</ele>
        <time>2017-10-01T08:54:25Z</time>
      </trkpt>
      <trkpt lat="45.27949" lon="5.87559">
        <ele>261.43899536133</ele>
        <time>2017-10-01T08:54:26Z</time>
      </trkpt>
      <trkpt lat="45.27956" lon="5.87576">
        <ele>260.43899536133</ele>
        <time>2017-10-01T08:54:28Z</time>
      </trkpt>
      <trkpt lat="45.27963" lon="5.87589">
        <ele>259.43899536133</ele>
        <time>2017-10-01T08:54:30Z</time>
      </trkpt>
      <trkpt lat="45.27972" lon="5.87598">
        <ele>259.43899536133</ele>
        <time>2017-10-01T08:54:32Z</time>
      </trkpt>
      <trkpt lat="45.27976" lon="5.87601">
        <ele>258.43899536133</ele>
        <time>2017-10-01T08:54:33Z</time>
      </trkpt>
      <trkpt lat="45.27983" lon="5.8761">
        <ele>257.43899536133</ele>
        <time>2017-10-01T08:54:35Z</time>
      </trkpt>
      <trkpt lat="45.27988" lon="5.87622">
        <ele>257.43899536133</ele>
        <time>2017-10-01T08:54:37Z</time>
      </trkpt>
      <trkpt lat="45.27995" lon="5.87635">
        <ele>256.43899536133</ele>
        <time>2017-10-01T08:54:39Z</time>
      </trkpt>
      <trkpt lat="45.28003" lon="5.87648">
        <ele>256.43899536133</ele>
        <time>2017-10-01T08:54:41Z</time>
      </trkpt>
      <trkpt lat="45.28011" lon="5.87661">
        <ele>257.43899536133</ele>
        <time>2017-10-01T08:54:43Z</time>
      </trkpt>
      <trkpt lat="45.28018" lon="5.87671">
        <ele>257.43899536133</ele>
        <time>2017-10-01T08:54:45Z</time>
      </trkpt>
      <trkpt lat="45.28025" lon="5.87684">
        <ele>257.43899536133</ele>
        <time>2017-10-01T08:54:47Z</time>
      </trkpt>
      <trkpt lat="45.28029" lon="5.8769">
        <ele>258.43899536133</ele>
        <time>2017-10-01T08:54:48Z</time>
      </trkpt>
      <trkpt lat="45.28037" lon="5.87701">
        <ele>257.43899536133</ele>
        <time>2017-10-01T08:54:50Z</time>
      </trkpt>
      <trkpt lat="45.28043" lon="5.87712">
        <ele>258.43899536133</ele>
        <time>2017-10-01T08:54:52Z</time>
      </trkpt>
      <trkpt lat="45.28049" lon="5.87721">
        <ele>256.43899536133</ele>
        <time>2017-10-01T08:54:54Z</time>
      </trkpt>
      <trkpt lat="45.28058" lon="5.87734">
        <ele>257.43899536133</ele>
        <time>2017-10-01T08:54:57Z</time>
      </trkpt>
      <trkpt lat="45.28062" lon="5.87742">
        <ele>256.43899536133</ele>
        <time>2017-10-01T08:54:59Z</time>
      </trkpt>
      <trkpt lat="45.2807" lon="5.87758">
        <ele>256.43899536133</ele>
        <time>2017-10-01T08:55:02Z</time>
      </trkpt>
      <trkpt lat="45.28076" lon="5.87767">
        <ele>255.44000244141</ele>
        <time>2017-10-01T08:55:04Z</time>
      </trkpt>
      <trkpt lat="45.28081" lon="5.87776">
        <ele>255.44000244141</ele>
        <time>2017-10-01T08:55:06Z</time>
      </trkpt>
      <trkpt lat="45.28093" lon="5.87781">
        <ele>257.44000244141</ele>
        <time>2017-10-01T08:55:09Z</time>
      </trkpt>
      <trkpt lat="45.28098" lon="5.87788">
        <ele>259.44000244141</ele>
        <time>2017-10-01T08:55:11Z</time>
      </trkpt>
      <trkpt lat="45.28094" lon="5.878">
        <ele>260.44000244141</ele>
        <time>2017-10-01T08:55:13Z</time>
      </trkpt>
      <trkpt lat="45.28093" lon="5.87807">
        <ele>259.44000244141</ele>
        <time>2017-10-01T08:55:15Z</time>
      </trkpt>
      <trkpt lat="45.28096" lon="5.87816">
        <ele>259.44000244141</ele>
        <time>2017-10-01T08:55:17Z</time>
      </trkpt>
      <trkpt lat="45.28099" lon="5.87826">
        <ele>258.44000244141</ele>
        <time>2017-10-01T08:55:19Z</time>
      </trkpt>
      <trkpt lat="45.28099" lon="5.87836">
        <ele>258.44000244141</ele>
        <time>2017-10-01T08:55:21Z</time>
      </trkpt>
      <trkpt lat="45.28094" lon="5.87838">
        <ele>258.44000244141</ele>
        <time>2017-10-01T08:55:22Z</time>
      </trkpt>
      <trkpt lat="45.2809" lon="5.87843">
        <ele>257.44000244141</ele>
        <time>2017-10-01T08:55:23Z</time>
      </trkpt>
      <trkpt lat="45.28082" lon="5.87853">
        <ele>255.44000244141</ele>
        <time>2017-10-01T08:55:25Z</time>
      </trkpt>
      <trkpt lat="45.28073" lon="5.87864">
        <ele>253.44000244141</ele>
        <time>2017-10-01T08:55:27Z</time>
      </trkpt>
      <trkpt lat="45.28064" lon="5.87875">
        <ele>251.44000244141</ele>
        <time>2017-10-01T08:55:29Z</time>
      </trkpt>
      <trkpt lat="45.2806" lon="5.87881">
        <ele>251.44000244141</ele>
        <time>2017-10-01T08:55:30Z</time>
      </trkpt>
      <trkpt lat="45.2805" lon="5.87894">
        <ele>251.44000244141</ele>
        <time>2017-10-01T08:55:32Z</time>
      </trkpt>
      <trkpt lat="45.28042" lon="5.87908">
        <ele>250.44000244141</ele>
        <time>2017-10-01T08:55:34Z</time>
      </trkpt>
      <trkpt lat="45.28033" lon="5.87921">
        <ele>249.44000244141</ele>
        <time>2017-10-01T08:55:36Z</time>
      </trkpt>
      <trkpt lat="45.28024" lon="5.87934">
        <ele>247.44000244141</ele>
        <time>2017-10-01T08:55:38Z</time>
      </trkpt>
      <trkpt lat="45.28013" lon="5.87947">
        <ele>247.44000244141</ele>
        <time>2017-10-01T08:55:40Z</time>
      </trkpt>
      <trkpt lat="45.28002" lon="5.87959">
        <ele>248.44000244141</ele>
        <time>2017-10-01T08:55:42Z</time>
      </trkpt>
      <trkpt lat="45.27997" lon="5.87966">
        <ele>248.44000244141</ele>
        <time>2017-10-01T08:55:43Z</time>
      </trkpt>
      <trkpt lat="45.27987" lon="5.87982">
        <ele>250.44000244141</ele>
        <time>2017-10-01T08:55:45Z</time>
      </trkpt>
      <trkpt lat="45.27981" lon="5.88003">
        <ele>249.44000244141</ele>
        <time>2017-10-01T08:55:47Z</time>
      </trkpt>
      <trkpt lat="45.27984" lon="5.88022">
        <ele>249.44000244141</ele>
        <time>2017-10-01T08:55:49Z</time>
      </trkpt>
      <trkpt lat="45.27988" lon="5.88041">
        <ele>248.44000244141</ele>
        <time>2017-10-01T08:55:51Z</time>
      </trkpt>
      <trkpt lat="45.27986" lon="5.88064">
        <ele>246.44000244141</ele>
        <time>2017-10-01T08:55:53Z</time>
      </trkpt>
      <trkpt lat="45.27984" lon="5.88072">
        <ele>244.44000244141</ele>
        <time>2017-10-01T08:55:54Z</time>
      </trkpt>
      <trkpt lat="45.27977" lon="5.88093">
        <ele>246.44000244141</ele>
        <time>2017-10-01T08:55:56Z</time>
      </trkpt>
      <trkpt lat="45.27971" lon="5.88114">
        <ele>245.44000244141</ele>
        <time>2017-10-01T08:55:58Z</time>
      </trkpt>
      <trkpt lat="45.27965" lon="5.88134">
        <ele>243.44000244141</ele>
        <time>2017-10-01T08:56:00Z</time>
      </trkpt>
      <trkpt lat="45.27965" lon="5.88156">
        <ele>243.44000244141</ele>
        <time>2017-10-01T08:56:02Z</time>
      </trkpt>
      <trkpt lat="45.27968" lon="5.88177">
        <ele>243.44000244141</ele>
        <time>2017-10-01T08:56:04Z</time>
      </trkpt>
      <trkpt lat="45.27973" lon="5.88198">
        <ele>243.44000244141</ele>
        <time>2017-10-01T08:56:06Z</time>
      </trkpt>
      <trkpt lat="45.2798" lon="5.88217">
        <ele>243.44000244141</ele>
        <time>2017-10-01T08:56:08Z</time>
      </trkpt>
      <trkpt lat="45.27982" lon="5.88227">
        <ele>243.44000244141</ele>
        <time>2017-10-01T08:56:09Z</time>
      </trkpt>
      <trkpt lat="45.27987" lon="5.88248">
        <ele>242.44000244141</ele>
        <time>2017-10-01T08:56:11Z</time>
      </trkpt>
      <trkpt lat="45.27983" lon="5.8827">
        <ele>242.44000244141</ele>
        <time>2017-10-01T08:56:13Z</time>
      </trkpt>
      <trkpt lat="45.27978" lon="5.8828">
        <ele>242.44000244141</ele>
        <time>2017-10-01T08:56:14Z</time>
      </trkpt>
      <trkpt lat="45.27972" lon="5.88299">
        <ele>240.44000244141</ele>
        <time>2017-10-01T08:56:16Z</time>
      </trkpt>
      <trkpt lat="45.27968" lon="5.88314">
        <ele>241.44000244141</ele>
        <time>2017-10-01T08:56:18Z</time>
      </trkpt>
      <trkpt lat="45.27965" lon="5.88321">
        <ele>240.44000244141</ele>
        <time>2017-10-01T08:56:19Z</time>
      </trkpt>
      <trkpt lat="45.27962" lon="5.88337">
        <ele>239.44000244141</ele>
        <time>2017-10-01T08:56:21Z</time>
      </trkpt>
      <trkpt lat="45.27962" lon="5.88351">
        <ele>239.44000244141</ele>
        <time>2017-10-01T08:56:23Z</time>
      </trkpt>
      <trkpt lat="45.27967" lon="5.88364">
        <ele>238.44000244141</ele>
        <time>2017-10-01T08:56:25Z</time>
      </trkpt>
      <trkpt lat="45.27976" lon="5.88376">
        <ele>237.44000244141</ele>
        <time>2017-10-01T08:56:27Z</time>
      </trkpt>
      <trkpt lat="45.2799" lon="5.88386">
        <ele>238.44000244141</ele>
        <time>2017-10-01T08:56:29Z</time>
      </trkpt>
      <trkpt lat="45.27996" lon="5.88389">
        <ele>239.44000244141</ele>
        <time>2017-10-01T08:56:30Z</time>
      </trkpt>
      <trkpt lat="45.28009" lon="5.88393">
        <ele>239.44000244141</ele>
        <time>2017-10-01T08:56:32Z</time>
      </trkpt>
      <trkpt lat="45.28021" lon="5.88403">
        <ele>239.44000244141</ele>
        <time>2017-10-01T08:56:34Z</time>
      </trkpt>
      <trkpt lat="45.28029" lon="5.88416">
        <ele>239.44000244141</ele>
        <time>2017-10-01T08:56:36Z</time>
      </trkpt>
      <trkpt lat="45.28032" lon="5.88435">
        <ele>240.44000244141</ele>
        <time>2017-10-01T08:56:38Z</time>
      </trkpt>
      <trkpt lat="45.2804" lon="5.8845">
        <ele>239.44000244141</ele>
        <time>2017-10-01T08:56:40Z</time>
      </trkpt>
      <trkpt lat="45.2805" lon="5.8846">
        <ele>239.44000244141</ele>
        <time>2017-10-01T08:56:42Z</time>
      </trkpt>
      <trkpt lat="45.28057" lon="5.88475">
        <ele>239.44000244141</ele>
        <time>2017-10-01T08:56:44Z</time>
      </trkpt>
      <trkpt lat="45.28061" lon="5.8849">
        <ele>240.44000244141</ele>
        <time>2017-10-01T08:56:46Z</time>
      </trkpt>
      <trkpt lat="45.28066" lon="5.88506">
        <ele>241.44099426269</ele>
        <time>2017-10-01T08:56:48Z</time>
      </trkpt>
      <trkpt lat="45.2807" lon="5.88524">
        <ele>241.44099426269</ele>
        <time>2017-10-01T08:56:50Z</time>
      </trkpt>
      <trkpt lat="45.28074" lon="5.8854">
        <ele>244.44099426269</ele>
        <time>2017-10-01T08:56:52Z</time>
      </trkpt>
      <trkpt lat="45.2808" lon="5.88556">
        <ele>244.44099426269</ele>
        <time>2017-10-01T08:56:54Z</time>
      </trkpt>
      <trkpt lat="45.28085" lon="5.88574">
        <ele>245.44099426269</ele>
        <time>2017-10-01T08:56:56Z</time>
      </trkpt>
      <trkpt lat="45.28091" lon="5.88591">
        <ele>245.44099426269</ele>
        <time>2017-10-01T08:56:58Z</time>
      </trkpt>
      <trkpt lat="45.28102" lon="5.88598">
        <ele>246.44099426269</ele>
        <time>2017-10-01T08:57:00Z</time>
      </trkpt>
      <trkpt lat="45.28113" lon="5.88605">
        <ele>247.44099426269</ele>
        <time>2017-10-01T08:57:02Z</time>
      </trkpt>
      <trkpt lat="45.28122" lon="5.88615">
        <ele>248.44099426269</ele>
        <time>2017-10-01T08:57:04Z</time>
      </trkpt>
      <trkpt lat="45.28126" lon="5.88632">
        <ele>249.44099426269</ele>
        <time>2017-10-01T08:57:07Z</time>
      </trkpt>
      <trkpt lat="45.2812" lon="5.88642">
        <ele>248.44099426269</ele>
        <time>2017-10-01T08:57:09Z</time>
      </trkpt>
      <trkpt lat="45.28114" lon="5.88654">
        <ele>246.44099426269</ele>
        <time>2017-10-01T08:57:11Z</time>
      </trkpt>
      <trkpt lat="45.28106" lon="5.88666">
        <ele>246.44099426269</ele>
        <time>2017-10-01T08:57:13Z</time>
      </trkpt>
      <trkpt lat="45.28104" lon="5.88672">
        <ele>245.44099426269</ele>
        <time>2017-10-01T08:57:14Z</time>
      </trkpt>
      <trkpt lat="45.28096" lon="5.88684">
        <ele>242.44099426269</ele>
        <time>2017-10-01T08:57:16Z</time>
      </trkpt>
      <trkpt lat="45.28091" lon="5.88696">
        <ele>243.44099426269</ele>
        <time>2017-10-01T08:57:18Z</time>
      </trkpt>
      <trkpt lat="45.28087" lon="5.88704">
        <ele>243.44099426269</ele>
        <time>2017-10-01T08:57:20Z</time>
      </trkpt>
      <trkpt lat="45.28085" lon="5.88698">
        <ele>246.44099426269</ele>
        <time>2017-10-01T08:57:45Z</time>
      </trkpt>
      <trkpt lat="45.28089" lon="5.88702">
        <ele>249.44099426269</ele>
        <time>2017-10-01T08:57:57Z</time>
      </trkpt>
      <trkpt lat="45.28094" lon="5.88699">
        <ele>246.44099426269</ele>
        <time>2017-10-01T08:58:00Z</time>
      </trkpt>
      <trkpt lat="45.28087" lon="5.88698">
        <ele>245.44099426269</ele>
        <time>2017-10-01T08:58:02Z</time>
      </trkpt>
    </trkseg>
  </trk>
</gpx>